<?xml version='1.0' encoding='UTF-8'?><gpx version="1.1" creator="JPX - https://github.com/jenetics/jpx" xmlns="http://www.topografix.com/GPX/1/1"><trk><trkseg><trkpt lat="43.3054899" lon="12.3365315"><ele>252.99999999999997</ele><time>2026-04-28T12:34:52.702Z</time></trkpt><trkpt lat="43.3054874" lon="12.3366498"><ele>253.0</ele><time>2026-04-28T12:34:59.701Z</time></trkpt><trkpt lat="43.3054185" lon="12.336788"><ele>253.0</ele><time>2026-04-28T12:35:01.7Z</time></trkpt><trkpt lat="43.3053801" lon="12.3368764"><ele>253.0</ele><time>2026-04-28T12:35:02.702Z</time></trkpt><trkpt lat="43.3053575" lon="12.3369843"><ele>252.99999999999997</ele><time>2026-04-28T12:35:03.702Z</time></trkpt><trkpt lat="43.3053476" lon="12.3370962"><ele>253.0</ele><time>2026-04-28T12:35:04.701Z</time></trkpt><trkpt lat="43.3053437" lon="12.3372037"><ele>252.99999999999997</ele><time>2026-04-28T12:35:05.702Z</time></trkpt><trkpt lat="43.3053273" lon="12.3373103"><ele>253.0</ele><time>2026-04-28T12:35:06.702Z</time></trkpt><trkpt lat="43.3052926" lon="12.3374096"><ele>253.0</ele><time>2026-04-28T12:35:07.702Z</time></trkpt><trkpt lat="43.305244" lon="12.3375124"><ele>253.0</ele><time>2026-04-28T12:35:08.702Z</time></trkpt><trkpt lat="43.3051963" lon="12.3376022"><ele>252.99999999999997</ele><time>2026-04-28T12:35:09.702Z</time></trkpt><trkpt lat="43.3051443" lon="12.3376932"><ele>253.0</ele><time>2026-04-28T12:35:10.701Z</time></trkpt><trkpt lat="43.3050916" lon="12.3377854"><ele>253.0</ele><time>2026-04-28T12:35:11.702Z</time></trkpt><trkpt lat="43.3050416" lon="12.3378785"><ele>253.0</ele><time>2026-04-28T12:35:12.701Z</time></trkpt><trkpt lat="43.3049924" lon="12.3379763"><ele>253.0</ele><time>2026-04-28T12:35:13.702Z</time></trkpt><trkpt lat="43.3049393" lon="12.3380792"><ele>253.0</ele><time>2026-04-28T12:35:14.701Z</time></trkpt><trkpt lat="43.3048833" lon="12.3381843"><ele>253.0</ele><time>2026-04-28T12:35:15.702Z</time></trkpt><trkpt lat="43.3048263" lon="12.3382941"><ele>253.0</ele><time>2026-04-28T12:35:16.701Z</time></trkpt><trkpt lat="43.3047762" lon="12.3384012"><ele>253.0</ele><time>2026-04-28T12:35:17.701Z</time></trkpt><trkpt lat="43.304724" lon="12.3385056"><ele>253.0</ele><time>2026-04-28T12:35:18.702Z</time></trkpt><trkpt lat="43.3046699" lon="12.3386074"><ele>253.0</ele><time>2026-04-28T12:35:19.701Z</time></trkpt><trkpt lat="43.3046181" lon="12.3387104"><ele>253.0</ele><time>2026-04-28T12:35:20.702Z</time></trkpt><trkpt lat="43.3045697" lon="12.3388142"><ele>252.99999999999997</ele><time>2026-04-28T12:35:21.702Z</time></trkpt><trkpt lat="43.3045187" lon="12.3389153"><ele>253.0</ele><time>2026-04-28T12:35:22.701Z</time></trkpt><trkpt lat="43.3044699" lon="12.3390158"><ele>253.0</ele><time>2026-04-28T12:35:23.702Z</time></trkpt><trkpt lat="43.3044227" lon="12.3391071"><ele>253.0</ele><time>2026-04-28T12:35:24.701Z</time></trkpt><trkpt lat="43.3043767" lon="12.3391897"><ele>252.99999999999997</ele><time>2026-04-28T12:35:25.702Z</time></trkpt><trkpt lat="43.3043334" lon="12.3392648"><ele>253.0</ele><time>2026-04-28T12:35:26.702Z</time></trkpt><trkpt lat="43.3042608" lon="12.3393922"><ele>253.0</ele><time>2026-04-28T12:35:28.702Z</time></trkpt><trkpt lat="43.3041717" lon="12.3394996"><ele>253.0</ele><time>2026-04-28T12:35:30.701Z</time></trkpt><trkpt lat="43.3040908" lon="12.3396184"><ele>253.0</ele><time>2026-04-28T12:35:32.702Z</time></trkpt><trkpt lat="43.3040673" lon="12.339703"><ele>253.0</ele><time>2026-04-28T12:35:33.702Z</time></trkpt><trkpt lat="43.3040389" lon="12.3397929"><ele>253.0</ele><time>2026-04-28T12:35:34.702Z</time></trkpt><trkpt lat="43.3040002" lon="12.3398875"><ele>253.2</ele><time>2026-04-28T12:35:35.702Z</time></trkpt><trkpt lat="43.3039509" lon="12.3399891"><ele>253.4</ele><time>2026-04-28T12:35:36.701Z</time></trkpt><trkpt lat="43.3038973" lon="12.3400905"><ele>253.59999999999997</ele><time>2026-04-28T12:35:37.702Z</time></trkpt><trkpt lat="43.3038393" lon="12.3401999"><ele>253.79999999999998</ele><time>2026-04-28T12:35:38.701Z</time></trkpt><trkpt lat="43.3037791" lon="12.3403145"><ele>254.0</ele><time>2026-04-28T12:35:39.702Z</time></trkpt><trkpt lat="43.3037138" lon="12.3404367"><ele>252.75</ele><time>2026-04-28T12:35:40.702Z</time></trkpt><trkpt lat="43.3036466" lon="12.3405652"><ele>251.5</ele><time>2026-04-28T12:35:41.702Z</time></trkpt><trkpt lat="43.3035775" lon="12.3406987"><ele>250.25</ele><time>2026-04-28T12:35:42.702Z</time></trkpt><trkpt lat="43.3035101" lon="12.3408309"><ele>249.0</ele><time>2026-04-28T12:35:43.701Z</time></trkpt><trkpt lat="43.3034405" lon="12.3409603"><ele>249.0</ele><time>2026-04-28T12:35:44.702Z</time></trkpt><trkpt lat="43.3033739" lon="12.3410888"><ele>249.0</ele><time>2026-04-28T12:35:45.702Z</time></trkpt><trkpt lat="43.3033059" lon="12.3412179"><ele>249.0</ele><time>2026-04-28T12:35:46.702Z</time></trkpt><trkpt lat="43.3032394" lon="12.3413456"><ele>249.0</ele><time>2026-04-28T12:35:47.702Z</time></trkpt><trkpt lat="43.3031724" lon="12.3414741"><ele>249.25</ele><time>2026-04-28T12:35:48.701Z</time></trkpt><trkpt lat="43.3031039" lon="12.3416011"><ele>249.5</ele><time>2026-04-28T12:35:49.702Z</time></trkpt><trkpt lat="43.3030355" lon="12.3417284"><ele>249.75</ele><time>2026-04-28T12:35:50.702Z</time></trkpt><trkpt lat="43.3029663" lon="12.3418588"><ele>250.0</ele><time>2026-04-28T12:35:51.702Z</time></trkpt><trkpt lat="43.3028989" lon="12.3419889"><ele>250.25</ele><time>2026-04-28T12:35:52.7Z</time></trkpt><trkpt lat="43.3028302" lon="12.3421211"><ele>250.5</ele><time>2026-04-28T12:35:53.702Z</time></trkpt><trkpt lat="43.3027614" lon="12.3422608"><ele>250.75</ele><time>2026-04-28T12:35:54.701Z</time></trkpt><trkpt lat="43.3026919" lon="12.3424"><ele>251.0</ele><time>2026-04-28T12:35:55.702Z</time></trkpt><trkpt lat="43.3026215" lon="12.3425416"><ele>251.0</ele><time>2026-04-28T12:35:56.701Z</time></trkpt><trkpt lat="43.3025518" lon="12.3426824"><ele>251.0</ele><time>2026-04-28T12:35:57.701Z</time></trkpt><trkpt lat="43.302481" lon="12.3428233"><ele>251.0</ele><time>2026-04-28T12:35:58.702Z</time></trkpt><trkpt lat="43.3024074" lon="12.3429599"><ele>251.0</ele><time>2026-04-28T12:35:59.702Z</time></trkpt><trkpt lat="43.3023391" lon="12.343097"><ele>251.0</ele><time>2026-04-28T12:36:00.701Z</time></trkpt><trkpt lat="43.3022701" lon="12.3432332"><ele>251.0</ele><time>2026-04-28T12:36:01.702Z</time></trkpt><trkpt lat="43.3022015" lon="12.3433687"><ele>251.0</ele><time>2026-04-28T12:36:02.702Z</time></trkpt><trkpt lat="43.3021317" lon="12.3435047"><ele>251.0</ele><time>2026-04-28T12:36:03.702Z</time></trkpt><trkpt lat="43.3020624" lon="12.3436402"><ele>250.75</ele><time>2026-04-28T12:36:04.702Z</time></trkpt><trkpt lat="43.3019899" lon="12.3437759"><ele>250.5</ele><time>2026-04-28T12:36:05.7Z</time></trkpt><trkpt lat="43.3019171" lon="12.3439098"><ele>250.25</ele><time>2026-04-28T12:36:06.702Z</time></trkpt><trkpt lat="43.3018464" lon="12.3440396"><ele>250.0</ele><time>2026-04-28T12:36:07.701Z</time></trkpt><trkpt lat="43.3017767" lon="12.3441695"><ele>249.5</ele><time>2026-04-28T12:36:08.702Z</time></trkpt><trkpt lat="43.301712" lon="12.3443049"><ele>249.0</ele><time>2026-04-28T12:36:09.702Z</time></trkpt><trkpt lat="43.3016449" lon="12.3444415"><ele>248.5</ele><time>2026-04-28T12:36:10.701Z</time></trkpt><trkpt lat="43.3015776" lon="12.3445774"><ele>248.0</ele><time>2026-04-28T12:36:11.702Z</time></trkpt><trkpt lat="43.3015054" lon="12.3447136"><ele>247.75</ele><time>2026-04-28T12:36:12.701Z</time></trkpt><trkpt lat="43.3014349" lon="12.3448456"><ele>247.5</ele><time>2026-04-28T12:36:13.701Z</time></trkpt><trkpt lat="43.3013715" lon="12.3449706"><ele>247.25</ele><time>2026-04-28T12:36:14.702Z</time></trkpt><trkpt lat="43.3013076" lon="12.3450974"><ele>247.0</ele><time>2026-04-28T12:36:15.702Z</time></trkpt><trkpt lat="43.3012386" lon="12.3452237"><ele>247.25</ele><time>2026-04-28T12:36:16.701Z</time></trkpt><trkpt lat="43.3011672" lon="12.3453516"><ele>247.5</ele><time>2026-04-28T12:36:17.702Z</time></trkpt><trkpt lat="43.3010911" lon="12.3454782"><ele>247.75</ele><time>2026-04-28T12:36:18.702Z</time></trkpt><trkpt lat="43.3010154" lon="12.3456065"><ele>248.0</ele><time>2026-04-28T12:36:19.702Z</time></trkpt><trkpt lat="43.3009367" lon="12.3457382"><ele>248.0</ele><time>2026-04-28T12:36:20.702Z</time></trkpt><trkpt lat="43.3008571" lon="12.3458697"><ele>248.0</ele><time>2026-04-28T12:36:21.702Z</time></trkpt><trkpt lat="43.3007781" lon="12.3459975"><ele>248.0</ele><time>2026-04-28T12:36:22.702Z</time></trkpt><trkpt lat="43.3007" lon="12.3461235"><ele>248.0</ele><time>2026-04-28T12:36:23.702Z</time></trkpt><trkpt lat="43.3006193" lon="12.3462451"><ele>248.0</ele><time>2026-04-28T12:36:24.702Z</time></trkpt><trkpt lat="43.3005394" lon="12.3463673"><ele>248.0</ele><time>2026-04-28T12:36:25.702Z</time></trkpt><trkpt lat="43.3004554" lon="12.3464938"><ele>248.0</ele><time>2026-04-28T12:36:26.701Z</time></trkpt><trkpt lat="43.3003706" lon="12.3466249"><ele>248.0</ele><time>2026-04-28T12:36:27.702Z</time></trkpt><trkpt lat="43.3002831" lon="12.3467582"><ele>248.0</ele><time>2026-04-28T12:36:28.702Z</time></trkpt><trkpt lat="43.3001959" lon="12.3468948"><ele>248.0</ele><time>2026-04-28T12:36:29.701Z</time></trkpt><trkpt lat="43.300108" lon="12.3470336"><ele>248.0</ele><time>2026-04-28T12:36:30.702Z</time></trkpt><trkpt lat="43.3000183" lon="12.3471773"><ele>248.0</ele><time>2026-04-28T12:36:31.701Z</time></trkpt><trkpt lat="43.2999256" lon="12.3473278"><ele>248.25</ele><time>2026-04-28T12:36:32.701Z</time></trkpt><trkpt lat="43.2998309" lon="12.347481"><ele>248.5</ele><time>2026-04-28T12:36:33.702Z</time></trkpt><trkpt lat="43.2997333" lon="12.3476361"><ele>248.75</ele><time>2026-04-28T12:36:34.702Z</time></trkpt><trkpt lat="43.2996324" lon="12.3477946"><ele>249.0</ele><time>2026-04-28T12:36:35.702Z</time></trkpt><trkpt lat="43.2995303" lon="12.3479507"><ele>248.66666666666669</ele><time>2026-04-28T12:36:36.702Z</time></trkpt><trkpt lat="43.2994281" lon="12.3481092"><ele>248.33333333333334</ele><time>2026-04-28T12:36:37.702Z</time></trkpt><trkpt lat="43.2993286" lon="12.3482694"><ele>248.0</ele><time>2026-04-28T12:36:38.701Z</time></trkpt><trkpt lat="43.2992283" lon="12.3484294"><ele>248.0</ele><time>2026-04-28T12:36:39.702Z</time></trkpt><trkpt lat="43.2991276" lon="12.3485914"><ele>248.0</ele><time>2026-04-28T12:36:40.702Z</time></trkpt><trkpt lat="43.2990283" lon="12.3487505"><ele>248.0</ele><time>2026-04-28T12:36:41.701Z</time></trkpt><trkpt lat="43.2989293" lon="12.3489081"><ele>248.33333333333334</ele><time>2026-04-28T12:36:42.702Z</time></trkpt><trkpt lat="43.2988277" lon="12.3490653"><ele>248.66666666666669</ele><time>2026-04-28T12:36:43.702Z</time></trkpt><trkpt lat="43.2987291" lon="12.3492191"><ele>249.0</ele><time>2026-04-28T12:36:44.701Z</time></trkpt><trkpt lat="43.2986303" lon="12.3493731"><ele>249.0</ele><time>2026-04-28T12:36:45.702Z</time></trkpt><trkpt lat="43.2985361" lon="12.3495181"><ele>249.0</ele><time>2026-04-28T12:36:46.702Z</time></trkpt><trkpt lat="43.2984485" lon="12.3496555"><ele>249.0</ele><time>2026-04-28T12:36:47.701Z</time></trkpt><trkpt lat="43.2983628" lon="12.3497829"><ele>249.0</ele><time>2026-04-28T12:36:48.702Z</time></trkpt><trkpt lat="43.2982746" lon="12.3499119"><ele>248.75</ele><time>2026-04-28T12:36:49.702Z</time></trkpt><trkpt lat="43.2981874" lon="12.3500519"><ele>248.5</ele><time>2026-04-28T12:36:50.702Z</time></trkpt><trkpt lat="43.2981036" lon="12.3501925"><ele>248.25</ele><time>2026-04-28T12:36:51.702Z</time></trkpt><trkpt lat="43.2980246" lon="12.3503245"><ele>248.0</ele><time>2026-04-28T12:36:52.702Z</time></trkpt><trkpt lat="43.2979494" lon="12.3504376"><ele>248.00000000000003</ele><time>2026-04-28T12:36:53.702Z</time></trkpt><trkpt lat="43.2978785" lon="12.3505325"><ele>248.0</ele><time>2026-04-28T12:36:54.702Z</time></trkpt><trkpt lat="43.2978075" lon="12.3506058"><ele>248.0</ele><time>2026-04-28T12:36:55.702Z</time></trkpt><trkpt lat="43.2977316" lon="12.3506532"><ele>248.0</ele><time>2026-04-28T12:36:56.702Z</time></trkpt><trkpt lat="43.2976597" lon="12.3506708"><ele>248.00000000000003</ele><time>2026-04-28T12:36:57.702Z</time></trkpt><trkpt lat="43.2975835" lon="12.3506667"><ele>248.0</ele><time>2026-04-28T12:36:58.702Z</time></trkpt><trkpt lat="43.2975066" lon="12.350645"><ele>248.00000000000003</ele><time>2026-04-28T12:36:59.701Z</time></trkpt><trkpt lat="43.297433" lon="12.3506022"><ele>248.0</ele><time>2026-04-28T12:37:00.7Z</time></trkpt><trkpt lat="43.2973704" lon="12.3505444"><ele>248.0</ele><time>2026-04-28T12:37:01.701Z</time></trkpt><trkpt lat="43.2973269" lon="12.3504805"><ele>248.0</ele><time>2026-04-28T12:37:02.702Z</time></trkpt><trkpt lat="43.2972705" lon="12.3503771"><ele>248.00000000000003</ele><time>2026-04-28T12:37:04.702Z</time></trkpt><trkpt lat="43.297202" lon="12.3503545"><ele>248.0</ele><time>2026-04-28T12:37:07.701Z</time></trkpt><trkpt lat="43.2972203" lon="12.3504701"><ele>248.00000000000003</ele><time>2026-04-28T12:37:10.701Z</time></trkpt><trkpt lat="43.2972834" lon="12.3505192"><ele>248.0</ele><time>2026-04-28T12:37:11.701Z</time></trkpt><trkpt lat="43.2973458" lon="12.350578"><ele>248.0</ele><time>2026-04-28T12:37:12.702Z</time></trkpt><trkpt lat="43.2973985" lon="12.3506501"><ele>248.0</ele><time>2026-04-28T12:37:13.701Z</time></trkpt><trkpt lat="43.2974447" lon="12.3507433"><ele>248.00000000000003</ele><time>2026-04-28T12:37:14.702Z</time></trkpt><trkpt lat="43.2974784" lon="12.3508538"><ele>248.0</ele><time>2026-04-28T12:37:15.701Z</time></trkpt><trkpt lat="43.2974941" lon="12.3509811"><ele>247.75</ele><time>2026-04-28T12:37:16.702Z</time></trkpt><trkpt lat="43.2974868" lon="12.351122"><ele>247.5</ele><time>2026-04-28T12:37:17.7Z</time></trkpt><trkpt lat="43.2974572" lon="12.3512705"><ele>247.25</ele><time>2026-04-28T12:37:18.702Z</time></trkpt><trkpt lat="43.2974137" lon="12.3514238"><ele>247.0</ele><time>2026-04-28T12:37:19.702Z</time></trkpt><trkpt lat="43.297362" lon="12.3515775"><ele>247.25</ele><time>2026-04-28T12:37:20.702Z</time></trkpt><trkpt lat="43.2973081" lon="12.3517418"><ele>247.5</ele><time>2026-04-28T12:37:21.702Z</time></trkpt><trkpt lat="43.2972532" lon="12.3519142"><ele>247.75</ele><time>2026-04-28T12:37:22.702Z</time></trkpt><trkpt lat="43.2971953" lon="12.3520889"><ele>248.0</ele><time>2026-04-28T12:37:23.701Z</time></trkpt><trkpt lat="43.2971334" lon="12.3522582"><ele>249.75</ele><time>2026-04-28T12:37:24.702Z</time></trkpt><trkpt lat="43.2970682" lon="12.3524283"><ele>251.5</ele><time>2026-04-28T12:37:25.702Z</time></trkpt><trkpt lat="43.2970063" lon="12.3525923"><ele>253.25</ele><time>2026-04-28T12:37:26.701Z</time></trkpt><trkpt lat="43.2969483" lon="12.3527357"><ele>255.0</ele><time>2026-04-28T12:37:27.702Z</time></trkpt><trkpt lat="43.2968923" lon="12.3528599"><ele>255.0</ele><time>2026-04-28T12:37:28.702Z</time></trkpt><trkpt lat="43.2968302" lon="12.3529774"><ele>255.0</ele><time>2026-04-28T12:37:29.702Z</time></trkpt><trkpt lat="43.2967562" lon="12.3530922"><ele>255.0</ele><time>2026-04-28T12:37:30.701Z</time></trkpt><trkpt lat="43.2966728" lon="12.3532133"><ele>255.0</ele><time>2026-04-28T12:37:31.702Z</time></trkpt><trkpt lat="43.2965766" lon="12.3533479"><ele>255.25</ele><time>2026-04-28T12:37:32.702Z</time></trkpt><trkpt lat="43.2964767" lon="12.3534843"><ele>255.5</ele><time>2026-04-28T12:37:33.701Z</time></trkpt><trkpt lat="43.2963727" lon="12.3536278"><ele>255.75</ele><time>2026-04-28T12:37:34.702Z</time></trkpt><trkpt lat="43.2962628" lon="12.3537767"><ele>256.0</ele><time>2026-04-28T12:37:35.701Z</time></trkpt><trkpt lat="43.2961484" lon="12.3539255"><ele>253.33333333333331</ele><time>2026-04-28T12:37:36.702Z</time></trkpt><trkpt lat="43.296025" lon="12.3540739"><ele>250.66666666666669</ele><time>2026-04-28T12:37:37.702Z</time></trkpt><trkpt lat="43.2958986" lon="12.3542088"><ele>248.0</ele><time>2026-04-28T12:37:38.701Z</time></trkpt><trkpt lat="43.2957697" lon="12.3543382"><ele>248.0</ele><time>2026-04-28T12:37:39.702Z</time></trkpt><trkpt lat="43.2956475" lon="12.3544579"><ele>248.0</ele><time>2026-04-28T12:37:40.702Z</time></trkpt><trkpt lat="43.2955344" lon="12.3545764"><ele>248.0</ele><time>2026-04-28T12:37:41.701Z</time></trkpt><trkpt lat="43.2954295" lon="12.3546842"><ele>248.0</ele><time>2026-04-28T12:37:42.702Z</time></trkpt><trkpt lat="43.2953347" lon="12.354784"><ele>248.0</ele><time>2026-04-28T12:37:43.702Z</time></trkpt><trkpt lat="43.2952445" lon="12.3548823"><ele>248.0</ele><time>2026-04-28T12:37:44.702Z</time></trkpt><trkpt lat="43.2951512" lon="12.3549826"><ele>248.0</ele><time>2026-04-28T12:37:45.702Z</time></trkpt><trkpt lat="43.2950468" lon="12.3550769"><ele>248.0</ele><time>2026-04-28T12:37:46.701Z</time></trkpt><trkpt lat="43.2949343" lon="12.3551665"><ele>248.0</ele><time>2026-04-28T12:37:47.702Z</time></trkpt><trkpt lat="43.2948207" lon="12.3552556"><ele>248.0</ele><time>2026-04-28T12:37:48.701Z</time></trkpt><trkpt lat="43.2947133" lon="12.3553381"><ele>248.0</ele><time>2026-04-28T12:37:49.702Z</time></trkpt><trkpt lat="43.2946108" lon="12.3554114"><ele>248.0</ele><time>2026-04-28T12:37:50.702Z</time></trkpt><trkpt lat="43.294506" lon="12.3554618"><ele>246.75</ele><time>2026-04-28T12:37:51.702Z</time></trkpt><trkpt lat="43.2943944" lon="12.3554896"><ele>245.5</ele><time>2026-04-28T12:37:52.702Z</time></trkpt><trkpt lat="43.2942792" lon="12.3554966"><ele>244.25</ele><time>2026-04-28T12:37:53.701Z</time></trkpt><trkpt lat="43.2941596" lon="12.3554739"><ele>243.0</ele><time>2026-04-28T12:37:54.701Z</time></trkpt><trkpt lat="43.2940435" lon="12.3554232"><ele>243.0</ele><time>2026-04-28T12:37:55.701Z</time></trkpt><trkpt lat="43.293934" lon="12.3553447"><ele>243.0</ele><time>2026-04-28T12:37:56.702Z</time></trkpt><trkpt lat="43.2938297" lon="12.355249"><ele>243.0</ele><time>2026-04-28T12:37:57.702Z</time></trkpt><trkpt lat="43.2937274" lon="12.355144"><ele>243.0</ele><time>2026-04-28T12:37:58.702Z</time></trkpt><trkpt lat="43.2936274" lon="12.3550363"><ele>242.75</ele><time>2026-04-28T12:37:59.701Z</time></trkpt><trkpt lat="43.2935281" lon="12.3549232"><ele>242.5</ele><time>2026-04-28T12:38:00.702Z</time></trkpt><trkpt lat="43.2934294" lon="12.354811"><ele>242.25</ele><time>2026-04-28T12:38:01.701Z</time></trkpt><trkpt lat="43.293334" lon="12.3547022"><ele>242.0</ele><time>2026-04-28T12:38:02.701Z</time></trkpt><trkpt lat="43.2932431" lon="12.3545993"><ele>242.00000000000003</ele><time>2026-04-28T12:38:03.7Z</time></trkpt><trkpt lat="43.2931617" lon="12.3544998"><ele>242.0</ele><time>2026-04-28T12:38:04.701Z</time></trkpt><trkpt lat="43.2930872" lon="12.3544079"><ele>242.0</ele><time>2026-04-28T12:38:05.701Z</time></trkpt><trkpt lat="43.2930247" lon="12.3543207"><ele>242.0</ele><time>2026-04-28T12:38:06.7Z</time></trkpt><trkpt lat="43.2929775" lon="12.3542339"><ele>242.00000000000003</ele><time>2026-04-28T12:38:07.701Z</time></trkpt><trkpt lat="43.2929444" lon="12.3541474"><ele>242.0</ele><time>2026-04-28T12:38:08.701Z</time></trkpt><trkpt lat="43.292909" lon="12.3540738"><ele>241.0</ele><time>2026-04-28T12:38:09.7Z</time></trkpt><trkpt lat="43.2927963" lon="12.3539937"><ele>240.0</ele><time>2026-04-28T12:38:11.701Z</time></trkpt><trkpt lat="43.2927268" lon="12.3539559"><ele>239.0</ele><time>2026-04-28T12:38:12.701Z</time></trkpt><trkpt lat="43.2926544" lon="12.3538967"><ele>238.0</ele><time>2026-04-28T12:38:13.701Z</time></trkpt><trkpt lat="43.2925799" lon="12.3538181"><ele>237.0</ele><time>2026-04-28T12:38:14.701Z</time></trkpt><trkpt lat="43.2924979" lon="12.353727"><ele>236.75</ele><time>2026-04-28T12:38:15.701Z</time></trkpt><trkpt lat="43.2924104" lon="12.3536222"><ele>236.5</ele><time>2026-04-28T12:38:16.701Z</time></trkpt><trkpt lat="43.2923239" lon="12.3535157"><ele>236.25</ele><time>2026-04-28T12:38:17.701Z</time></trkpt><trkpt lat="43.2922366" lon="12.3534145"><ele>236.0</ele><time>2026-04-28T12:38:18.7Z</time></trkpt><trkpt lat="43.292145" lon="12.3533137"><ele>236.0</ele><time>2026-04-28T12:38:19.701Z</time></trkpt><trkpt lat="43.2920527" lon="12.3532058"><ele>236.0</ele><time>2026-04-28T12:38:20.7Z</time></trkpt><trkpt lat="43.2919565" lon="12.3530942"><ele>236.0</ele><time>2026-04-28T12:38:21.701Z</time></trkpt><trkpt lat="43.2918592" lon="12.3529782"><ele>236.0</ele><time>2026-04-28T12:38:22.701Z</time></trkpt><trkpt lat="43.2917637" lon="12.3528642"><ele>235.8</ele><time>2026-04-28T12:38:23.7Z</time></trkpt><trkpt lat="43.2916737" lon="12.3527617"><ele>235.60000000000002</ele><time>2026-04-28T12:38:24.7Z</time></trkpt><trkpt lat="43.2915926" lon="12.352665"><ele>235.4</ele><time>2026-04-28T12:38:25.701Z</time></trkpt><trkpt lat="43.2915259" lon="12.3525773"><ele>235.2</ele><time>2026-04-28T12:38:26.7Z</time></trkpt><trkpt lat="43.2914754" lon="12.3525033"><ele>235.0</ele><time>2026-04-28T12:38:27.701Z</time></trkpt><trkpt lat="43.2914043" lon="12.3524045"><ele>235.0</ele><time>2026-04-28T12:38:29.701Z</time></trkpt><trkpt lat="43.2913152" lon="12.3523991"><ele>235.0</ele><time>2026-04-28T12:38:41.701Z</time></trkpt><trkpt lat="43.2912125" lon="12.3524949"><ele>235.0</ele><time>2026-04-28T12:38:43.7Z</time></trkpt><trkpt lat="43.2911575" lon="12.3525665"><ele>235.0</ele><time>2026-04-28T12:38:44.701Z</time></trkpt><trkpt lat="43.2910954" lon="12.3526585"><ele>235.0</ele><time>2026-04-28T12:38:45.701Z</time></trkpt><trkpt lat="43.2910272" lon="12.3527666"><ele>235.0</ele><time>2026-04-28T12:38:46.7Z</time></trkpt><trkpt lat="43.2909573" lon="12.3528795"><ele>235.0</ele><time>2026-04-28T12:38:47.701Z</time></trkpt><trkpt lat="43.2908805" lon="12.3530031"><ele>235.0</ele><time>2026-04-28T12:38:48.7Z</time></trkpt><trkpt lat="43.2907986" lon="12.3531333"><ele>235.0</ele><time>2026-04-28T12:38:49.701Z</time></trkpt><trkpt lat="43.2907184" lon="12.3532622"><ele>234.75</ele><time>2026-04-28T12:38:50.699Z</time></trkpt><trkpt lat="43.2906363" lon="12.3533914"><ele>234.5</ele><time>2026-04-28T12:38:51.701Z</time></trkpt><trkpt lat="43.2905574" lon="12.3535189"><ele>234.25</ele><time>2026-04-28T12:38:52.701Z</time></trkpt><trkpt lat="43.2904793" lon="12.3536418"><ele>234.0</ele><time>2026-04-28T12:38:53.7Z</time></trkpt><trkpt lat="43.2904044" lon="12.3537594"><ele>234.5</ele><time>2026-04-28T12:38:54.701Z</time></trkpt><trkpt lat="43.2903327" lon="12.3538763"><ele>235.0</ele><time>2026-04-28T12:38:55.701Z</time></trkpt><trkpt lat="43.2902586" lon="12.3539947"><ele>235.5</ele><time>2026-04-28T12:38:56.701Z</time></trkpt><trkpt lat="43.2901847" lon="12.354111"><ele>236.0</ele><time>2026-04-28T12:38:57.7Z</time></trkpt><trkpt lat="43.2901091" lon="12.3542326"><ele>236.0</ele><time>2026-04-28T12:38:58.701Z</time></trkpt><trkpt lat="43.2900302" lon="12.3543576"><ele>236.0</ele><time>2026-04-28T12:38:59.701Z</time></trkpt><trkpt lat="43.2899491" lon="12.3544879"><ele>236.0</ele><time>2026-04-28T12:39:00.7Z</time></trkpt><trkpt lat="43.2898662" lon="12.3546248"><ele>236.0</ele><time>2026-04-28T12:39:01.7Z</time></trkpt><trkpt lat="43.2897807" lon="12.3547637"><ele>235.75</ele><time>2026-04-28T12:39:02.701Z</time></trkpt><trkpt lat="43.289697" lon="12.354897"><ele>235.5</ele><time>2026-04-28T12:39:03.701Z</time></trkpt><trkpt lat="43.289619" lon="12.3550215"><ele>235.25</ele><time>2026-04-28T12:39:04.7Z</time></trkpt><trkpt lat="43.289545" lon="12.3551371"><ele>235.0</ele><time>2026-04-28T12:39:05.701Z</time></trkpt><trkpt lat="43.2894736" lon="12.3552377"><ele>235.0</ele><time>2026-04-28T12:39:06.701Z</time></trkpt><trkpt lat="43.2893967" lon="12.3553228"><ele>235.0</ele><time>2026-04-28T12:39:07.701Z</time></trkpt><trkpt lat="43.2893115" lon="12.3554029"><ele>235.0</ele><time>2026-04-28T12:39:08.701Z</time></trkpt><trkpt lat="43.2892211" lon="12.3554827"><ele>235.0</ele><time>2026-04-28T12:39:09.701Z</time></trkpt><trkpt lat="43.2891301" lon="12.3555704"><ele>235.0</ele><time>2026-04-28T12:39:10.701Z</time></trkpt><trkpt lat="43.2890427" lon="12.3556731"><ele>234.75</ele><time>2026-04-28T12:39:11.7Z</time></trkpt><trkpt lat="43.2889623" lon="12.3557925"><ele>234.5</ele><time>2026-04-28T12:39:12.701Z</time></trkpt><trkpt lat="43.2888859" lon="12.35592"><ele>234.25</ele><time>2026-04-28T12:39:13.701Z</time></trkpt><trkpt lat="43.2888121" lon="12.3560567"><ele>234.0</ele><time>2026-04-28T12:39:14.701Z</time></trkpt><trkpt lat="43.2887397" lon="12.3561964"><ele>234.0</ele><time>2026-04-28T12:39:15.7Z</time></trkpt><trkpt lat="43.2886669" lon="12.3563399"><ele>234.0</ele><time>2026-04-28T12:39:16.701Z</time></trkpt><trkpt lat="43.2885999" lon="12.3564758"><ele>234.0</ele><time>2026-04-28T12:39:17.701Z</time></trkpt><trkpt lat="43.288539" lon="12.3566054"><ele>234.0</ele><time>2026-04-28T12:39:18.701Z</time></trkpt><trkpt lat="43.2884832" lon="12.3567305"><ele>233.83333333333334</ele><time>2026-04-28T12:39:19.701Z</time></trkpt><trkpt lat="43.2884341" lon="12.3568515"><ele>233.66666666666669</ele><time>2026-04-28T12:39:20.7Z</time></trkpt><trkpt lat="43.2883917" lon="12.356966"><ele>233.5</ele><time>2026-04-28T12:39:21.701Z</time></trkpt><trkpt lat="43.2883557" lon="12.3570739"><ele>233.33333333333334</ele><time>2026-04-28T12:39:22.701Z</time></trkpt><trkpt lat="43.2883235" lon="12.3571793"><ele>233.16666666666669</ele><time>2026-04-28T12:39:23.701Z</time></trkpt><trkpt lat="43.288295" lon="12.3572737"><ele>233.0</ele><time>2026-04-28T12:39:24.7Z</time></trkpt><trkpt lat="43.2882716" lon="12.3573593"><ele>233.4</ele><time>2026-04-28T12:39:25.701Z</time></trkpt><trkpt lat="43.2882469" lon="12.3574755"><ele>233.8</ele><time>2026-04-28T12:39:27.701Z</time></trkpt><trkpt lat="43.2882268" lon="12.3576207"><ele>234.2</ele><time>2026-04-28T12:39:56.7Z</time></trkpt><trkpt lat="43.2882183" lon="12.3577103"><ele>234.6</ele><time>2026-04-28T12:39:57.701Z</time></trkpt><trkpt lat="43.2881907" lon="12.3578685"><ele>235.0</ele><time>2026-04-28T12:39:59.7Z</time></trkpt><trkpt lat="43.2881087" lon="12.3579485"><ele>234.66666666666666</ele><time>2026-04-28T12:40:01.701Z</time></trkpt><trkpt lat="43.2880085" lon="12.3578929"><ele>234.33333333333331</ele><time>2026-04-28T12:40:03.701Z</time></trkpt><trkpt lat="43.2879531" lon="12.3578162"><ele>234.0</ele><time>2026-04-28T12:40:04.701Z</time></trkpt><trkpt lat="43.2878905" lon="12.3577219"><ele>233.66666666666669</ele><time>2026-04-28T12:40:05.7Z</time></trkpt><trkpt lat="43.2878297" lon="12.3576332"><ele>233.33333333333334</ele><time>2026-04-28T12:40:06.701Z</time></trkpt><trkpt lat="43.2877869" lon="12.3575439"><ele>233.0</ele><time>2026-04-28T12:40:07.701Z</time></trkpt><trkpt lat="43.2877621" lon="12.3574467"><ele>233.00000000000003</ele><time>2026-04-28T12:40:08.701Z</time></trkpt><trkpt lat="43.2877606" lon="12.3573496"><ele>233.0</ele><time>2026-04-28T12:40:09.701Z</time></trkpt><trkpt lat="43.287788" lon="12.3572535"><ele>233.0</ele><time>2026-04-28T12:40:10.701Z</time></trkpt><trkpt lat="43.2878387" lon="12.3571618"><ele>233.0</ele><time>2026-04-28T12:40:11.701Z</time></trkpt><trkpt lat="43.2879026" lon="12.3570685"><ele>233.00000000000003</ele><time>2026-04-28T12:40:12.701Z</time></trkpt><trkpt lat="43.2879755" lon="12.3569689"><ele>233.0</ele><time>2026-04-28T12:40:13.7Z</time></trkpt><trkpt lat="43.2880516" lon="12.3568662"><ele>233.0</ele><time>2026-04-28T12:40:14.701Z</time></trkpt><trkpt lat="43.2881262" lon="12.3567557"><ele>233.0</ele><time>2026-04-28T12:40:15.701Z</time></trkpt><trkpt lat="43.2882032" lon="12.3566383"><ele>233.0</ele><time>2026-04-28T12:40:16.7Z</time></trkpt><trkpt lat="43.2882875" lon="12.3565171"><ele>233.0</ele><time>2026-04-28T12:40:17.701Z</time></trkpt><trkpt lat="43.2883741" lon="12.3563923"><ele>233.25</ele><time>2026-04-28T12:40:18.7Z</time></trkpt><trkpt lat="43.2884621" lon="12.3562642"><ele>233.5</ele><time>2026-04-28T12:40:19.701Z</time></trkpt><trkpt lat="43.2885492" lon="12.3561421"><ele>233.75</ele><time>2026-04-28T12:40:20.701Z</time></trkpt><trkpt lat="43.2886262" lon="12.3560303"><ele>234.0</ele><time>2026-04-28T12:40:21.701Z</time></trkpt><trkpt lat="43.2886931" lon="12.3559241"><ele>234.0</ele><time>2026-04-28T12:40:22.7Z</time></trkpt><trkpt lat="43.2887443" lon="12.3558117"><ele>233.99999999999997</ele><time>2026-04-28T12:40:23.701Z</time></trkpt><trkpt lat="43.288773" lon="12.3556938"><ele>233.99999999999997</ele><time>2026-04-28T12:40:24.7Z</time></trkpt><trkpt lat="43.2887747" lon="12.3555695"><ele>234.0</ele><time>2026-04-28T12:40:25.701Z</time></trkpt><trkpt lat="43.2887491" lon="12.3554522"><ele>234.0</ele><time>2026-04-28T12:40:26.7Z</time></trkpt><trkpt lat="43.2887012" lon="12.3553429"><ele>234.16666666666666</ele><time>2026-04-28T12:40:27.701Z</time></trkpt><trkpt lat="43.288634" lon="12.3552544"><ele>234.33333333333331</ele><time>2026-04-28T12:40:28.701Z</time></trkpt><trkpt lat="43.2885612" lon="12.3551927"><ele>234.5</ele><time>2026-04-28T12:40:29.701Z</time></trkpt><trkpt lat="43.2884861" lon="12.3551447"><ele>234.66666666666666</ele><time>2026-04-28T12:40:30.701Z</time></trkpt><trkpt lat="43.2884133" lon="12.355083"><ele>234.83333333333331</ele><time>2026-04-28T12:40:31.7Z</time></trkpt><trkpt lat="43.2883524" lon="12.3550057"><ele>235.0</ele><time>2026-04-28T12:40:32.701Z</time></trkpt><trkpt lat="43.2882979" lon="12.3549105"><ele>235.0</ele><time>2026-04-28T12:40:33.7Z</time></trkpt><trkpt lat="43.2882415" lon="12.3547968"><ele>235.0</ele><time>2026-04-28T12:40:34.701Z</time></trkpt><trkpt lat="43.2881791" lon="12.3546741"><ele>235.0</ele><time>2026-04-28T12:40:35.7Z</time></trkpt><trkpt lat="43.2881092" lon="12.3545451"><ele>235.0</ele><time>2026-04-28T12:40:36.7Z</time></trkpt><trkpt lat="43.2880335" lon="12.3544068"><ele>234.75</ele><time>2026-04-28T12:40:37.7Z</time></trkpt><trkpt lat="43.2879581" lon="12.354269"><ele>234.5</ele><time>2026-04-28T12:40:38.701Z</time></trkpt><trkpt lat="43.2878815" lon="12.3541217"><ele>234.25</ele><time>2026-04-28T12:40:39.7Z</time></trkpt><trkpt lat="43.2878022" lon="12.353967"><ele>234.0</ele><time>2026-04-28T12:40:40.701Z</time></trkpt><trkpt lat="43.2877238" lon="12.3538067"><ele>234.0</ele><time>2026-04-28T12:40:41.701Z</time></trkpt><trkpt lat="43.2876429" lon="12.3536422"><ele>234.0</ele><time>2026-04-28T12:40:42.701Z</time></trkpt><trkpt lat="43.2875576" lon="12.3534781"><ele>234.0</ele><time>2026-04-28T12:40:43.7Z</time></trkpt><trkpt lat="43.2874705" lon="12.3533138"><ele>234.0</ele><time>2026-04-28T12:40:44.701Z</time></trkpt><trkpt lat="43.2873841" lon="12.3531482"><ele>234.0</ele><time>2026-04-28T12:40:45.7Z</time></trkpt><trkpt lat="43.2872988" lon="12.3529807"><ele>234.0</ele><time>2026-04-28T12:40:46.701Z</time></trkpt><trkpt lat="43.2872135" lon="12.3528149"><ele>234.0</ele><time>2026-04-28T12:40:47.701Z</time></trkpt><trkpt lat="43.287127" lon="12.3526523"><ele>234.0</ele><time>2026-04-28T12:40:48.7Z</time></trkpt><trkpt lat="43.2870432" lon="12.3524967"><ele>234.25</ele><time>2026-04-28T12:40:49.701Z</time></trkpt><trkpt lat="43.2869634" lon="12.3523451"><ele>234.5</ele><time>2026-04-28T12:40:50.7Z</time></trkpt><trkpt lat="43.2868851" lon="12.3521994"><ele>234.75</ele><time>2026-04-28T12:40:51.701Z</time></trkpt><trkpt lat="43.2868084" lon="12.3520544"><ele>235.0</ele><time>2026-04-28T12:40:52.701Z</time></trkpt><trkpt lat="43.2867314" lon="12.351908"><ele>234.5</ele><time>2026-04-28T12:40:53.7Z</time></trkpt><trkpt lat="43.2866546" lon="12.3517605"><ele>234.0</ele><time>2026-04-28T12:40:54.701Z</time></trkpt><trkpt lat="43.286576" lon="12.3516157"><ele>233.5</ele><time>2026-04-28T12:40:55.701Z</time></trkpt><trkpt lat="43.2864946" lon="12.3514717"><ele>233.0</ele><time>2026-04-28T12:40:56.701Z</time></trkpt><trkpt lat="43.2864167" lon="12.3513268"><ele>235.25</ele><time>2026-04-28T12:40:57.701Z</time></trkpt><trkpt lat="43.2863411" lon="12.3511806"><ele>237.5</ele><time>2026-04-28T12:40:58.701Z</time></trkpt><trkpt lat="43.2862729" lon="12.3510407"><ele>239.75</ele><time>2026-04-28T12:40:59.7Z</time></trkpt><trkpt lat="43.2862098" lon="12.3509169"><ele>242.0</ele><time>2026-04-28T12:41:00.7Z</time></trkpt><trkpt lat="43.2861525" lon="12.3508087"><ele>242.00000000000003</ele><time>2026-04-28T12:41:01.701Z</time></trkpt><trkpt lat="43.2861019" lon="12.3507127"><ele>242.0</ele><time>2026-04-28T12:41:02.701Z</time></trkpt><trkpt lat="43.2860607" lon="12.3506329"><ele>242.0</ele><time>2026-04-28T12:41:03.7Z</time></trkpt><trkpt lat="43.2859977" lon="12.3505211"><ele>242.0</ele><time>2026-04-28T12:41:05.701Z</time></trkpt><trkpt lat="43.2859476" lon="12.3504677"><ele>242.00000000000003</ele><time>2026-04-28T12:41:07.7Z</time></trkpt><trkpt lat="43.2858765" lon="12.350475"><ele>242.0</ele><time>2026-04-28T12:41:09.701Z</time></trkpt><trkpt lat="43.2857827" lon="12.3505697"><ele>242.00000000000003</ele><time>2026-04-28T12:41:11.7Z</time></trkpt><trkpt lat="43.2857303" lon="12.3506394"><ele>242.0</ele><time>2026-04-28T12:41:12.7Z</time></trkpt><trkpt lat="43.2856769" lon="12.3507089"><ele>242.0</ele><time>2026-04-28T12:41:13.699Z</time></trkpt><trkpt lat="43.2856166" lon="12.3507903"><ele>242.0</ele><time>2026-04-28T12:41:14.7Z</time></trkpt><trkpt lat="43.2855552" lon="12.3508819"><ele>242.00000000000003</ele><time>2026-04-28T12:41:15.7Z</time></trkpt><trkpt lat="43.2855003" lon="12.3509905"><ele>242.0</ele><time>2026-04-28T12:41:16.7Z</time></trkpt><trkpt lat="43.285456" lon="12.3511149"><ele>242.66666666666669</ele><time>2026-04-28T12:41:17.7Z</time></trkpt><trkpt lat="43.285415" lon="12.3512437"><ele>243.33333333333334</ele><time>2026-04-28T12:41:18.7Z</time></trkpt><trkpt lat="43.28538" lon="12.3513593"><ele>244.0</ele><time>2026-04-28T12:41:19.699Z</time></trkpt><trkpt lat="43.2853418" lon="12.3514608"><ele>244.66666666666669</ele><time>2026-04-28T12:41:20.7Z</time></trkpt><trkpt lat="43.2853044" lon="12.3515522"><ele>245.33333333333334</ele><time>2026-04-28T12:41:21.699Z</time></trkpt><trkpt lat="43.2852588" lon="12.351637"><ele>246.0</ele><time>2026-04-28T12:41:22.7Z</time></trkpt><trkpt lat="43.285198" lon="12.3517219"><ele>246.0</ele><time>2026-04-28T12:41:23.699Z</time></trkpt><trkpt lat="43.2851217" lon="12.3518071"><ele>246.00000000000003</ele><time>2026-04-28T12:41:24.7Z</time></trkpt><trkpt lat="43.285039" lon="12.3519011"><ele>246.00000000000003</ele><time>2026-04-28T12:41:25.7Z</time></trkpt><trkpt lat="43.2849584" lon="12.3520155"><ele>246.0</ele><time>2026-04-28T12:41:26.7Z</time></trkpt><trkpt lat="43.2848872" lon="12.3521447"><ele>246.0</ele><time>2026-04-28T12:41:27.699Z</time></trkpt><trkpt lat="43.2848144" lon="12.3522871"><ele>250.75</ele><time>2026-04-28T12:41:28.7Z</time></trkpt><trkpt lat="43.2847434" lon="12.3524346"><ele>255.5</ele><time>2026-04-28T12:41:29.7Z</time></trkpt><trkpt lat="43.284673" lon="12.3525879"><ele>260.25</ele><time>2026-04-28T12:41:30.699Z</time></trkpt><trkpt lat="43.2846034" lon="12.3527462"><ele>265.0</ele><time>2026-04-28T12:41:31.7Z</time></trkpt><trkpt lat="43.2845355" lon="12.352907"><ele>261.75</ele><time>2026-04-28T12:41:32.7Z</time></trkpt><trkpt lat="43.2844669" lon="12.3530738"><ele>258.5</ele><time>2026-04-28T12:41:33.7Z</time></trkpt><trkpt lat="43.2844039" lon="12.3532355"><ele>255.25</ele><time>2026-04-28T12:41:34.7Z</time></trkpt><trkpt lat="43.2843476" lon="12.3533928"><ele>252.0</ele><time>2026-04-28T12:41:35.699Z</time></trkpt><trkpt lat="43.2842975" lon="12.353558"><ele>252.0</ele><time>2026-04-28T12:41:36.699Z</time></trkpt><trkpt lat="43.2842535" lon="12.3537218"><ele>252.0</ele><time>2026-04-28T12:41:37.699Z</time></trkpt><trkpt lat="43.284212" lon="12.3538762"><ele>252.0</ele><time>2026-04-28T12:41:38.7Z</time></trkpt><trkpt lat="43.2841696" lon="12.3540285"><ele>252.0</ele><time>2026-04-28T12:41:39.699Z</time></trkpt><trkpt lat="43.2841298" lon="12.3541758"><ele>249.0</ele><time>2026-04-28T12:41:40.699Z</time></trkpt><trkpt lat="43.2840957" lon="12.3543188"><ele>246.0</ele><time>2026-04-28T12:41:41.7Z</time></trkpt><trkpt lat="43.2840707" lon="12.3544646"><ele>243.0</ele><time>2026-04-28T12:41:42.7Z</time></trkpt><trkpt lat="43.2840567" lon="12.3546205"><ele>240.0</ele><time>2026-04-28T12:41:43.699Z</time></trkpt><trkpt lat="43.2840553" lon="12.3547829"><ele>238.5</ele><time>2026-04-28T12:41:44.699Z</time></trkpt><trkpt lat="43.2840616" lon="12.3549564"><ele>237.0</ele><time>2026-04-28T12:41:45.7Z</time></trkpt><trkpt lat="43.2840704" lon="12.3551386"><ele>235.5</ele><time>2026-04-28T12:41:46.7Z</time></trkpt><trkpt lat="43.284079" lon="12.3553319"><ele>234.0</ele><time>2026-04-28T12:41:47.7Z</time></trkpt><trkpt lat="43.2840891" lon="12.3555269"><ele>233.75</ele><time>2026-04-28T12:41:48.7Z</time></trkpt><trkpt lat="43.2841049" lon="12.3557199"><ele>233.5</ele><time>2026-04-28T12:41:49.699Z</time></trkpt><trkpt lat="43.2841209" lon="12.3559132"><ele>233.25</ele><time>2026-04-28T12:41:50.699Z</time></trkpt><trkpt lat="43.2841379" lon="12.3561027"><ele>233.0</ele><time>2026-04-28T12:41:51.7Z</time></trkpt><trkpt lat="43.2841519" lon="12.3562853"><ele>233.0</ele><time>2026-04-28T12:41:52.7Z</time></trkpt><trkpt lat="43.2841643" lon="12.356461"><ele>233.0</ele><time>2026-04-28T12:41:53.699Z</time></trkpt><trkpt lat="43.2841755" lon="12.3566256"><ele>233.0</ele><time>2026-04-28T12:41:54.7Z</time></trkpt><trkpt lat="43.2841912" lon="12.3567805"><ele>233.0</ele><time>2026-04-28T12:41:55.7Z</time></trkpt><trkpt lat="43.2842046" lon="12.3569281"><ele>233.0</ele><time>2026-04-28T12:41:56.699Z</time></trkpt><trkpt lat="43.284207" lon="12.3570695"><ele>233.0</ele><time>2026-04-28T12:41:57.7Z</time></trkpt><trkpt lat="43.2841967" lon="12.3572128"><ele>233.0</ele><time>2026-04-28T12:41:58.7Z</time></trkpt><trkpt lat="43.284174" lon="12.3573538"><ele>233.0</ele><time>2026-04-28T12:41:59.699Z</time></trkpt><trkpt lat="43.2841419" lon="12.3574782"><ele>233.0</ele><time>2026-04-28T12:42:00.7Z</time></trkpt><trkpt lat="43.2841043" lon="12.3575966"><ele>233.2</ele><time>2026-04-28T12:42:01.7Z</time></trkpt><trkpt lat="43.2840649" lon="12.3577213"><ele>233.4</ele><time>2026-04-28T12:42:02.699Z</time></trkpt><trkpt lat="43.2840232" lon="12.3578568"><ele>233.59999999999997</ele><time>2026-04-28T12:42:03.7Z</time></trkpt><trkpt lat="43.2839819" lon="12.3580021"><ele>233.79999999999998</ele><time>2026-04-28T12:42:04.7Z</time></trkpt><trkpt lat="43.2839392" lon="12.358153"><ele>234.0</ele><time>2026-04-28T12:42:05.7Z</time></trkpt><trkpt lat="43.283896" lon="12.3582953"><ele>234.16666666666666</ele><time>2026-04-28T12:42:06.7Z</time></trkpt><trkpt lat="43.2838482" lon="12.3584211"><ele>234.33333333333331</ele><time>2026-04-28T12:42:07.699Z</time></trkpt><trkpt lat="43.2837901" lon="12.3585216"><ele>234.5</ele><time>2026-04-28T12:42:08.7Z</time></trkpt><trkpt lat="43.2837223" lon="12.3585851"><ele>234.66666666666666</ele><time>2026-04-28T12:42:09.7Z</time></trkpt><trkpt lat="43.2836487" lon="12.3586073"><ele>234.83333333333331</ele><time>2026-04-28T12:42:10.699Z</time></trkpt><trkpt lat="43.2835636" lon="12.3585943"><ele>235.0</ele><time>2026-04-28T12:42:11.7Z</time></trkpt><trkpt lat="43.2834743" lon="12.358554"><ele>235.0</ele><time>2026-04-28T12:42:12.7Z</time></trkpt><trkpt lat="43.2833782" lon="12.3585028"><ele>235.0</ele><time>2026-04-28T12:42:13.7Z</time></trkpt><trkpt lat="43.2832716" lon="12.358452"><ele>235.0</ele><time>2026-04-28T12:42:14.7Z</time></trkpt><trkpt lat="43.2831573" lon="12.3583994"><ele>235.0</ele><time>2026-04-28T12:42:15.7Z</time></trkpt><trkpt lat="43.2830388" lon="12.3583445"><ele>238.0</ele><time>2026-04-28T12:42:16.699Z</time></trkpt><trkpt lat="43.2829184" lon="12.3582921"><ele>241.0</ele><time>2026-04-28T12:42:17.7Z</time></trkpt><trkpt lat="43.2827971" lon="12.3582367"><ele>244.0</ele><time>2026-04-28T12:42:18.7Z</time></trkpt><trkpt lat="43.2826815" lon="12.3581844"><ele>247.0</ele><time>2026-04-28T12:42:19.699Z</time></trkpt><trkpt lat="43.2825816" lon="12.3581392"><ele>247.0</ele><time>2026-04-28T12:42:20.7Z</time></trkpt><trkpt lat="43.2824947" lon="12.3580965"><ele>247.0</ele><time>2026-04-28T12:42:21.7Z</time></trkpt><trkpt lat="43.2824247" lon="12.3580564"><ele>247.0</ele><time>2026-04-28T12:42:22.7Z</time></trkpt><trkpt lat="43.2823193" lon="12.3580255"><ele>247.0</ele><time>2026-04-28T12:42:24.7Z</time></trkpt><trkpt lat="43.2822088" lon="12.358128"><ele>247.0</ele><time>2026-04-28T12:42:26.7Z</time></trkpt><trkpt lat="43.2821455" lon="12.3582383"><ele>250.2</ele><time>2026-04-28T12:42:27.699Z</time></trkpt><trkpt lat="43.2820761" lon="12.3583589"><ele>253.39999999999998</ele><time>2026-04-28T12:42:28.7Z</time></trkpt><trkpt lat="43.2820103" lon="12.3584656"><ele>256.6</ele><time>2026-04-28T12:42:29.699Z</time></trkpt><trkpt lat="43.2819592" lon="12.3585886"><ele>259.8</ele><time>2026-04-28T12:42:30.7Z</time></trkpt><trkpt lat="43.2819283" lon="12.3587333"><ele>263.0</ele><time>2026-04-28T12:42:31.7Z</time></trkpt><trkpt lat="43.2819164" lon="12.3588914"><ele>263.0</ele><time>2026-04-28T12:42:32.7Z</time></trkpt><trkpt lat="43.2819053" lon="12.359048"><ele>263.0</ele><time>2026-04-28T12:42:33.699Z</time></trkpt><trkpt lat="43.28188" lon="12.35921"><ele>263.0</ele><time>2026-04-28T12:42:34.699Z</time></trkpt><trkpt lat="43.2818363" lon="12.3593747"><ele>263.0</ele><time>2026-04-28T12:42:35.7Z</time></trkpt><trkpt lat="43.2817746" lon="12.3595395"><ele>259.5</ele><time>2026-04-28T12:42:36.7Z</time></trkpt><trkpt lat="43.2817051" lon="12.3597027"><ele>256.0</ele><time>2026-04-28T12:42:37.7Z</time></trkpt><trkpt lat="43.2816339" lon="12.359874"><ele>252.5</ele><time>2026-04-28T12:42:38.7Z</time></trkpt><trkpt lat="43.28156" lon="12.3600596"><ele>249.0</ele><time>2026-04-28T12:42:39.7Z</time></trkpt><trkpt lat="43.2814913" lon="12.3602511"><ele>253.0</ele><time>2026-04-28T12:42:40.7Z</time></trkpt><trkpt lat="43.2814293" lon="12.3604281"><ele>257.0</ele><time>2026-04-28T12:42:41.7Z</time></trkpt><trkpt lat="43.2813667" lon="12.3605993"><ele>261.0</ele><time>2026-04-28T12:42:42.7Z</time></trkpt><trkpt lat="43.281301" lon="12.3607763"><ele>265.0</ele><time>2026-04-28T12:42:43.7Z</time></trkpt><trkpt lat="43.2812248" lon="12.3609539"><ele>265.0</ele><time>2026-04-28T12:42:44.7Z</time></trkpt><trkpt lat="43.2811404" lon="12.3611363"><ele>265.0</ele><time>2026-04-28T12:42:45.699Z</time></trkpt><trkpt lat="43.2810485" lon="12.3613244"><ele>265.0</ele><time>2026-04-28T12:42:46.7Z</time></trkpt><trkpt lat="43.2809567" lon="12.3615143"><ele>259.3333333333333</ele><time>2026-04-28T12:42:47.7Z</time></trkpt><trkpt lat="43.2808665" lon="12.3616994"><ele>253.66666666666669</ele><time>2026-04-28T12:42:48.699Z</time></trkpt><trkpt lat="43.2807727" lon="12.3618853"><ele>248.0</ele><time>2026-04-28T12:42:49.7Z</time></trkpt><trkpt lat="43.280677" lon="12.3620587"><ele>252.0</ele><time>2026-04-28T12:42:50.7Z</time></trkpt><trkpt lat="43.2805856" lon="12.3622151"><ele>256.0</ele><time>2026-04-28T12:42:51.7Z</time></trkpt><trkpt lat="43.2805026" lon="12.362359"><ele>260.0</ele><time>2026-04-28T12:42:52.7Z</time></trkpt><trkpt lat="43.2804241" lon="12.3624915"><ele>264.0</ele><time>2026-04-28T12:42:53.699Z</time></trkpt><trkpt lat="43.2803483" lon="12.3626141"><ele>264.0</ele><time>2026-04-28T12:42:54.7Z</time></trkpt><trkpt lat="43.2802682" lon="12.3627367"><ele>264.0</ele><time>2026-04-28T12:42:55.699Z</time></trkpt><trkpt lat="43.2801852" lon="12.3628627"><ele>264.0</ele><time>2026-04-28T12:42:56.699Z</time></trkpt><trkpt lat="43.2800998" lon="12.3629908"><ele>264.0</ele><time>2026-04-28T12:42:57.7Z</time></trkpt><trkpt lat="43.2800185" lon="12.3631109"><ele>261.75</ele><time>2026-04-28T12:42:58.7Z</time></trkpt><trkpt lat="43.2799378" lon="12.3632136"><ele>259.5</ele><time>2026-04-28T12:42:59.699Z</time></trkpt><trkpt lat="43.2798463" lon="12.3632987"><ele>257.25</ele><time>2026-04-28T12:43:00.7Z</time></trkpt><trkpt lat="43.2797438" lon="12.3633723"><ele>255.0</ele><time>2026-04-28T12:43:01.699Z</time></trkpt><trkpt lat="43.2796361" lon="12.363431"><ele>255.0</ele><time>2026-04-28T12:43:02.7Z</time></trkpt><trkpt lat="43.2795294" lon="12.3634955"><ele>255.0</ele><time>2026-04-28T12:43:03.698Z</time></trkpt><trkpt lat="43.2794289" lon="12.3635718"><ele>255.0</ele><time>2026-04-28T12:43:04.7Z</time></trkpt><trkpt lat="43.2793311" lon="12.3636578"><ele>255.0</ele><time>2026-04-28T12:43:05.699Z</time></trkpt><trkpt lat="43.2792362" lon="12.3637588"><ele>252.25</ele><time>2026-04-28T12:43:06.7Z</time></trkpt><trkpt lat="43.2791424" lon="12.3638764"><ele>249.5</ele><time>2026-04-28T12:43:07.7Z</time></trkpt><trkpt lat="43.2790511" lon="12.3640049"><ele>246.75</ele><time>2026-04-28T12:43:08.7Z</time></trkpt><trkpt lat="43.2789611" lon="12.3641438"><ele>244.0</ele><time>2026-04-28T12:43:09.7Z</time></trkpt><trkpt lat="43.2788682" lon="12.3642861"><ele>244.25</ele><time>2026-04-28T12:43:10.7Z</time></trkpt><trkpt lat="43.2787738" lon="12.3644372"><ele>244.5</ele><time>2026-04-28T12:43:11.7Z</time></trkpt><trkpt lat="43.2786746" lon="12.36459"><ele>244.75</ele><time>2026-04-28T12:43:12.699Z</time></trkpt><trkpt lat="43.2785784" lon="12.3647297"><ele>245.0</ele><time>2026-04-28T12:43:13.7Z</time></trkpt><trkpt lat="43.2784762" lon="12.3648594"><ele>245.0</ele><time>2026-04-28T12:43:14.7Z</time></trkpt><trkpt lat="43.2783661" lon="12.3649688"><ele>245.0</ele><time>2026-04-28T12:43:15.7Z</time></trkpt><trkpt lat="43.2782382" lon="12.3650674"><ele>245.0</ele><time>2026-04-28T12:43:16.7Z</time></trkpt><trkpt lat="43.2781012" lon="12.3651505"><ele>245.0</ele><time>2026-04-28T12:43:17.699Z</time></trkpt><trkpt lat="43.2779668" lon="12.365234"><ele>244.33333333333334</ele><time>2026-04-28T12:43:18.7Z</time></trkpt><trkpt lat="43.2778318" lon="12.3653258"><ele>243.66666666666669</ele><time>2026-04-28T12:43:19.7Z</time></trkpt><trkpt lat="43.277701" lon="12.3654233"><ele>243.0</ele><time>2026-04-28T12:43:20.7Z</time></trkpt><trkpt lat="43.2775723" lon="12.3655344"><ele>243.0</ele><time>2026-04-28T12:43:21.7Z</time></trkpt><trkpt lat="43.2774503" lon="12.3656592"><ele>243.0</ele><time>2026-04-28T12:43:22.699Z</time></trkpt><trkpt lat="43.2773352" lon="12.365801"><ele>243.0</ele><time>2026-04-28T12:43:23.7Z</time></trkpt><trkpt lat="43.277218" lon="12.3659481"><ele>242.66666666666669</ele><time>2026-04-28T12:43:24.7Z</time></trkpt><trkpt lat="43.2770978" lon="12.3660969"><ele>242.33333333333334</ele><time>2026-04-28T12:43:25.7Z</time></trkpt><trkpt lat="43.2769728" lon="12.3662378"><ele>242.0</ele><time>2026-04-28T12:43:26.7Z</time></trkpt><trkpt lat="43.27684" lon="12.3663718"><ele>242.0</ele><time>2026-04-28T12:43:27.7Z</time></trkpt><trkpt lat="43.2767043" lon="12.3665012"><ele>242.0</ele><time>2026-04-28T12:43:28.7Z</time></trkpt><trkpt lat="43.2765652" lon="12.3666275"><ele>242.0</ele><time>2026-04-28T12:43:29.7Z</time></trkpt><trkpt lat="43.2764237" lon="12.3667536"><ele>249.0</ele><time>2026-04-28T12:43:30.699Z</time></trkpt><trkpt lat="43.27628" lon="12.3668785"><ele>256.0</ele><time>2026-04-28T12:43:31.7Z</time></trkpt><trkpt lat="43.2761357" lon="12.366997"><ele>263.0</ele><time>2026-04-28T12:43:32.699Z</time></trkpt><trkpt lat="43.2759998" lon="12.3670982"><ele>263.0</ele><time>2026-04-28T12:43:33.7Z</time></trkpt><trkpt lat="43.2758754" lon="12.3671937"><ele>263.0</ele><time>2026-04-28T12:43:34.7Z</time></trkpt><trkpt lat="43.2757709" lon="12.3673007"><ele>263.0</ele><time>2026-04-28T12:43:35.698Z</time></trkpt><trkpt lat="43.2756813" lon="12.3674256"><ele>263.0</ele><time>2026-04-28T12:43:36.7Z</time></trkpt><trkpt lat="43.2755983" lon="12.3675658"><ele>262.75</ele><time>2026-04-28T12:43:37.7Z</time></trkpt><trkpt lat="43.2755154" lon="12.3677136"><ele>262.5</ele><time>2026-04-28T12:43:38.7Z</time></trkpt><trkpt lat="43.2754314" lon="12.367862"><ele>262.25</ele><time>2026-04-28T12:43:39.7Z</time></trkpt><trkpt lat="43.2753461" lon="12.3680058"><ele>262.0</ele><time>2026-04-28T12:43:40.699Z</time></trkpt><trkpt lat="43.2752548" lon="12.3681422"><ele>258.0</ele><time>2026-04-28T12:43:41.7Z</time></trkpt><trkpt lat="43.2751532" lon="12.3682638"><ele>254.0</ele><time>2026-04-28T12:43:42.7Z</time></trkpt><trkpt lat="43.2750437" lon="12.3683761"><ele>250.0</ele><time>2026-04-28T12:43:43.699Z</time></trkpt><trkpt lat="43.2749314" lon="12.3684839"><ele>246.0</ele><time>2026-04-28T12:43:44.699Z</time></trkpt><trkpt lat="43.2748204" lon="12.3685851"><ele>248.0</ele><time>2026-04-28T12:43:45.7Z</time></trkpt><trkpt lat="43.274713" lon="12.3686928"><ele>250.0</ele><time>2026-04-28T12:43:46.7Z</time></trkpt><trkpt lat="43.2746091" lon="12.3688094"><ele>252.0</ele><time>2026-04-28T12:43:47.699Z</time></trkpt><trkpt lat="43.2745026" lon="12.3689326"><ele>254.0</ele><time>2026-04-28T12:43:48.7Z</time></trkpt><trkpt lat="43.2743985" lon="12.3690643"><ele>254.0</ele><time>2026-04-28T12:43:49.699Z</time></trkpt><trkpt lat="43.2742975" lon="12.3692022"><ele>254.0</ele><time>2026-04-28T12:43:50.699Z</time></trkpt><trkpt lat="43.2742003" lon="12.3693537"><ele>254.0</ele><time>2026-04-28T12:43:51.7Z</time></trkpt><trkpt lat="43.274108" lon="12.3695167"><ele>254.0</ele><time>2026-04-28T12:43:52.7Z</time></trkpt><trkpt lat="43.2740229" lon="12.3696777"><ele>255.5</ele><time>2026-04-28T12:43:53.7Z</time></trkpt><trkpt lat="43.273947" lon="12.3698258"><ele>257.0</ele><time>2026-04-28T12:43:54.699Z</time></trkpt><trkpt lat="43.2738754" lon="12.3699659"><ele>258.5</ele><time>2026-04-28T12:43:55.7Z</time></trkpt><trkpt lat="43.2738043" lon="12.3700786"><ele>260.0</ele><time>2026-04-28T12:43:56.7Z</time></trkpt><trkpt lat="43.2737199" lon="12.3701703"><ele>260.0</ele><time>2026-04-28T12:43:57.699Z</time></trkpt><trkpt lat="43.273624" lon="12.3702389"><ele>260.0</ele><time>2026-04-28T12:43:58.7Z</time></trkpt><trkpt lat="43.2735222" lon="12.3702946"><ele>260.0</ele><time>2026-04-28T12:43:59.699Z</time></trkpt><trkpt lat="43.2734109" lon="12.3703388"><ele>260.0</ele><time>2026-04-28T12:44:00.7Z</time></trkpt><trkpt lat="43.2732951" lon="12.370368"><ele>260.0</ele><time>2026-04-28T12:44:01.699Z</time></trkpt><trkpt lat="43.273172" lon="12.3703812"><ele>260.0</ele><time>2026-04-28T12:44:02.7Z</time></trkpt><trkpt lat="43.2730482" lon="12.370396"><ele>260.0</ele><time>2026-04-28T12:44:03.7Z</time></trkpt><trkpt lat="43.2729265" lon="12.3704265"><ele>260.0</ele><time>2026-04-28T12:44:04.7Z</time></trkpt><trkpt lat="43.2728053" lon="12.3704522"><ele>263.0</ele><time>2026-04-28T12:44:05.7Z</time></trkpt><trkpt lat="43.2726862" lon="12.3704749"><ele>266.0</ele><time>2026-04-28T12:44:06.7Z</time></trkpt><trkpt lat="43.2725717" lon="12.3705028"><ele>269.0</ele><time>2026-04-28T12:44:07.699Z</time></trkpt><trkpt lat="43.272463" lon="12.3705401"><ele>272.0</ele><time>2026-04-28T12:44:08.7Z</time></trkpt><trkpt lat="43.2723608" lon="12.3705833"><ele>266.6</ele><time>2026-04-28T12:44:09.7Z</time></trkpt><trkpt lat="43.2722589" lon="12.3706193"><ele>261.2</ele><time>2026-04-28T12:44:10.7Z</time></trkpt><trkpt lat="43.272158" lon="12.3706521"><ele>255.8</ele><time>2026-04-28T12:44:11.7Z</time></trkpt><trkpt lat="43.272058" lon="12.3706718"><ele>250.4</ele><time>2026-04-28T12:44:12.7Z</time></trkpt><trkpt lat="43.2719592" lon="12.3706817"><ele>245.0</ele><time>2026-04-28T12:44:13.699Z</time></trkpt><trkpt lat="43.2718557" lon="12.3706861"><ele>245.0</ele><time>2026-04-28T12:44:14.7Z</time></trkpt><trkpt lat="43.2717463" lon="12.3706898"><ele>245.0</ele><time>2026-04-28T12:44:15.699Z</time></trkpt><trkpt lat="43.2716342" lon="12.3707008"><ele>245.0</ele><time>2026-04-28T12:44:16.7Z</time></trkpt><trkpt lat="43.2715214" lon="12.3707201"><ele>245.0</ele><time>2026-04-28T12:44:17.699Z</time></trkpt><trkpt lat="43.2714097" lon="12.3707471"><ele>245.0</ele><time>2026-04-28T12:44:18.7Z</time></trkpt><trkpt lat="43.2713004" lon="12.3707772"><ele>246.2</ele><time>2026-04-28T12:44:19.7Z</time></trkpt><trkpt lat="43.271194" lon="12.3708056"><ele>247.4</ele><time>2026-04-28T12:44:20.699Z</time></trkpt><trkpt lat="43.2710887" lon="12.3708281"><ele>248.60000000000002</ele><time>2026-04-28T12:44:21.7Z</time></trkpt><trkpt lat="43.2709875" lon="12.3708577"><ele>249.8</ele><time>2026-04-28T12:44:22.7Z</time></trkpt><trkpt lat="43.2708885" lon="12.3709058"><ele>251.0</ele><time>2026-04-28T12:44:23.699Z</time></trkpt><trkpt lat="43.2707916" lon="12.3709756"><ele>251.0</ele><time>2026-04-28T12:44:24.7Z</time></trkpt><trkpt lat="43.2706934" lon="12.3710481"><ele>251.00000000000003</ele><time>2026-04-28T12:44:25.699Z</time></trkpt><trkpt lat="43.2705969" lon="12.3711157"><ele>251.00000000000003</ele><time>2026-04-28T12:44:26.7Z</time></trkpt><trkpt lat="43.2704978" lon="12.3711781"><ele>251.0</ele><time>2026-04-28T12:44:27.699Z</time></trkpt><trkpt lat="43.2703978" lon="12.3712366"><ele>251.0</ele><time>2026-04-28T12:44:28.7Z</time></trkpt><trkpt lat="43.2702988" lon="12.3712992"><ele>249.75</ele><time>2026-04-28T12:44:29.7Z</time></trkpt><trkpt lat="43.270201" lon="12.3713719"><ele>248.5</ele><time>2026-04-28T12:44:30.7Z</time></trkpt><trkpt lat="43.2701029" lon="12.3714531"><ele>247.25</ele><time>2026-04-28T12:44:31.7Z</time></trkpt><trkpt lat="43.2700022" lon="12.371537"><ele>246.0</ele><time>2026-04-28T12:44:32.7Z</time></trkpt><trkpt lat="43.2698995" lon="12.3716292"><ele>246.0</ele><time>2026-04-28T12:44:33.699Z</time></trkpt><trkpt lat="43.2697913" lon="12.3717296"><ele>246.0</ele><time>2026-04-28T12:44:34.699Z</time></trkpt><trkpt lat="43.2696841" lon="12.3718276"><ele>246.0</ele><time>2026-04-28T12:44:35.698Z</time></trkpt><trkpt lat="43.2695753" lon="12.3719243"><ele>246.0</ele><time>2026-04-28T12:44:36.699Z</time></trkpt><trkpt lat="43.2694696" lon="12.3720258"><ele>246.0</ele><time>2026-04-28T12:44:37.698Z</time></trkpt><trkpt lat="43.2693686" lon="12.372133"><ele>246.0</ele><time>2026-04-28T12:44:38.699Z</time></trkpt><trkpt lat="43.2692726" lon="12.3722442"><ele>246.0</ele><time>2026-04-28T12:44:39.699Z</time></trkpt><trkpt lat="43.2691769" lon="12.3723612"><ele>246.0</ele><time>2026-04-28T12:44:40.698Z</time></trkpt><trkpt lat="43.2690829" lon="12.3724801"><ele>246.0</ele><time>2026-04-28T12:44:41.699Z</time></trkpt><trkpt lat="43.2689905" lon="12.3726028"><ele>246.0</ele><time>2026-04-28T12:44:42.698Z</time></trkpt><trkpt lat="43.2688967" lon="12.3727252"><ele>246.0</ele><time>2026-04-28T12:44:43.699Z</time></trkpt><trkpt lat="43.2688034" lon="12.3728529"><ele>246.0</ele><time>2026-04-28T12:44:44.699Z</time></trkpt><trkpt lat="43.2687078" lon="12.37299"><ele>247.0</ele><time>2026-04-28T12:44:45.698Z</time></trkpt><trkpt lat="43.2686224" lon="12.3731327"><ele>248.0</ele><time>2026-04-28T12:44:46.699Z</time></trkpt><trkpt lat="43.2685479" lon="12.3732696"><ele>249.0</ele><time>2026-04-28T12:44:47.699Z</time></trkpt><trkpt lat="43.268479" lon="12.3734148"><ele>250.0</ele><time>2026-04-28T12:44:48.698Z</time></trkpt><trkpt lat="43.2684168" lon="12.3735551"><ele>250.0</ele><time>2026-04-28T12:44:49.699Z</time></trkpt><trkpt lat="43.2683523" lon="12.3736897"><ele>250.0</ele><time>2026-04-28T12:44:50.699Z</time></trkpt><trkpt lat="43.2682818" lon="12.3738125"><ele>250.0</ele><time>2026-04-28T12:44:51.699Z</time></trkpt><trkpt lat="43.2681935" lon="12.3739325"><ele>250.0</ele><time>2026-04-28T12:44:52.699Z</time></trkpt><trkpt lat="43.2680881" lon="12.3740491"><ele>253.25</ele><time>2026-04-28T12:44:53.698Z</time></trkpt><trkpt lat="43.2679752" lon="12.3741687"><ele>256.5</ele><time>2026-04-28T12:44:54.699Z</time></trkpt><trkpt lat="43.2678562" lon="12.3742922"><ele>259.75</ele><time>2026-04-28T12:44:55.698Z</time></trkpt><trkpt lat="43.2677452" lon="12.3744073"><ele>263.0</ele><time>2026-04-28T12:44:56.699Z</time></trkpt><trkpt lat="43.2676399" lon="12.3745143"><ele>263.0</ele><time>2026-04-28T12:44:57.699Z</time></trkpt><trkpt lat="43.2675403" lon="12.3746127"><ele>263.0</ele><time>2026-04-28T12:44:58.699Z</time></trkpt><trkpt lat="43.2674393" lon="12.3746931"><ele>263.0</ele><time>2026-04-28T12:44:59.699Z</time></trkpt><trkpt lat="43.2673246" lon="12.3747576"><ele>263.0</ele><time>2026-04-28T12:45:00.699Z</time></trkpt><trkpt lat="43.2671974" lon="12.3748105"><ele>259.25</ele><time>2026-04-28T12:45:01.699Z</time></trkpt><trkpt lat="43.2670619" lon="12.3748675"><ele>255.5</ele><time>2026-04-28T12:45:02.698Z</time></trkpt><trkpt lat="43.2669287" lon="12.3749292"><ele>251.75</ele><time>2026-04-28T12:45:03.699Z</time></trkpt><trkpt lat="43.26679" lon="12.3750017"><ele>248.0</ele><time>2026-04-28T12:45:04.698Z</time></trkpt><trkpt lat="43.2666479" lon="12.3750766"><ele>248.0</ele><time>2026-04-28T12:45:05.699Z</time></trkpt><trkpt lat="43.2665016" lon="12.3751493"><ele>248.0</ele><time>2026-04-28T12:45:06.699Z</time></trkpt><trkpt lat="43.2663513" lon="12.3752185"><ele>248.0</ele><time>2026-04-28T12:45:07.698Z</time></trkpt><trkpt lat="43.2662002" lon="12.3752939"><ele>256.0</ele><time>2026-04-28T12:45:08.699Z</time></trkpt><trkpt lat="43.2660492" lon="12.3753679"><ele>264.0</ele><time>2026-04-28T12:45:09.698Z</time></trkpt><trkpt lat="43.2658963" lon="12.3754445"><ele>272.0</ele><time>2026-04-28T12:45:10.699Z</time></trkpt><trkpt lat="43.2657508" lon="12.3755162"><ele>268.0</ele><time>2026-04-28T12:45:11.698Z</time></trkpt><trkpt lat="43.2656136" lon="12.3755804"><ele>264.0</ele><time>2026-04-28T12:45:12.699Z</time></trkpt><trkpt lat="43.2654751" lon="12.3756486"><ele>260.0</ele><time>2026-04-28T12:45:13.699Z</time></trkpt><trkpt lat="43.2653392" lon="12.3757261"><ele>256.0</ele><time>2026-04-28T12:45:14.699Z</time></trkpt><trkpt lat="43.2652026" lon="12.3758142"><ele>256.0</ele><time>2026-04-28T12:45:15.699Z</time></trkpt><trkpt lat="43.2650598" lon="12.3759091"><ele>256.0</ele><time>2026-04-28T12:45:16.699Z</time></trkpt><trkpt lat="43.2649096" lon="12.3760016"><ele>256.0</ele><time>2026-04-28T12:45:17.698Z</time></trkpt><trkpt lat="43.264753" lon="12.3760879"><ele>259.66666666666663</ele><time>2026-04-28T12:45:18.699Z</time></trkpt><trkpt lat="43.2645965" lon="12.3761661"><ele>263.3333333333333</ele><time>2026-04-28T12:45:19.698Z</time></trkpt><trkpt lat="43.2644464" lon="12.3762357"><ele>267.0</ele><time>2026-04-28T12:45:20.699Z</time></trkpt><trkpt lat="43.2643009" lon="12.3762909"><ele>267.0</ele><time>2026-04-28T12:45:21.698Z</time></trkpt><trkpt lat="43.2641512" lon="12.3763315"><ele>267.0</ele><time>2026-04-28T12:45:22.699Z</time></trkpt><trkpt lat="43.2640047" lon="12.3763535"><ele>267.0</ele><time>2026-04-28T12:45:23.699Z</time></trkpt><trkpt lat="43.2638622" lon="12.376368"><ele>267.0</ele><time>2026-04-28T12:45:24.698Z</time></trkpt><trkpt lat="43.2637234" lon="12.3763928"><ele>260.5</ele><time>2026-04-28T12:45:25.699Z</time></trkpt><trkpt lat="43.2635873" lon="12.3764322"><ele>254.0</ele><time>2026-04-28T12:45:26.698Z</time></trkpt><trkpt lat="43.2634571" lon="12.3764702"><ele>247.5</ele><time>2026-04-28T12:45:27.699Z</time></trkpt><trkpt lat="43.2633198" lon="12.3765234"><ele>241.0</ele><time>2026-04-28T12:45:28.698Z</time></trkpt><trkpt lat="43.2631807" lon="12.3765937"><ele>244.33333333333331</ele><time>2026-04-28T12:45:29.699Z</time></trkpt><trkpt lat="43.2630392" lon="12.3766619"><ele>247.66666666666669</ele><time>2026-04-28T12:45:30.699Z</time></trkpt><trkpt lat="43.2628947" lon="12.3767294"><ele>251.0</ele><time>2026-04-28T12:45:31.699Z</time></trkpt><trkpt lat="43.2627483" lon="12.3767965"><ele>251.0</ele><time>2026-04-28T12:45:32.699Z</time></trkpt><trkpt lat="43.2625969" lon="12.3768788"><ele>251.0</ele><time>2026-04-28T12:45:33.699Z</time></trkpt><trkpt lat="43.2624492" lon="12.3769729"><ele>251.0</ele><time>2026-04-28T12:45:34.699Z</time></trkpt><trkpt lat="43.2623035" lon="12.3770619"><ele>249.75</ele><time>2026-04-28T12:45:35.699Z</time></trkpt><trkpt lat="43.262162" lon="12.3771553"><ele>248.5</ele><time>2026-04-28T12:45:36.699Z</time></trkpt><trkpt lat="43.2620293" lon="12.3772394"><ele>247.25</ele><time>2026-04-28T12:45:37.699Z</time></trkpt><trkpt lat="43.2619005" lon="12.3773124"><ele>246.0</ele><time>2026-04-28T12:45:38.699Z</time></trkpt><trkpt lat="43.2617795" lon="12.3773877"><ele>243.5</ele><time>2026-04-28T12:45:39.698Z</time></trkpt><trkpt lat="43.2616718" lon="12.377474"><ele>241.0</ele><time>2026-04-28T12:45:40.698Z</time></trkpt><trkpt lat="43.2615802" lon="12.3775873"><ele>238.5</ele><time>2026-04-28T12:45:41.699Z</time></trkpt><trkpt lat="43.2615067" lon="12.3777285"><ele>236.0</ele><time>2026-04-28T12:45:42.699Z</time></trkpt><trkpt lat="43.2614454" lon="12.3778818"><ele>234.75</ele><time>2026-04-28T12:45:43.698Z</time></trkpt><trkpt lat="43.261379" lon="12.3780399"><ele>233.5</ele><time>2026-04-28T12:45:44.699Z</time></trkpt><trkpt lat="43.2613012" lon="12.3781954"><ele>232.25</ele><time>2026-04-28T12:45:45.698Z</time></trkpt><trkpt lat="43.26121" lon="12.3783368"><ele>231.0</ele><time>2026-04-28T12:45:46.699Z</time></trkpt><trkpt lat="43.2611097" lon="12.3784618"><ele>231.0</ele><time>2026-04-28T12:45:47.697Z</time></trkpt><trkpt lat="43.2609981" lon="12.3785758"><ele>231.0</ele><time>2026-04-28T12:45:48.698Z</time></trkpt><trkpt lat="43.2608802" lon="12.3786778"><ele>231.0</ele><time>2026-04-28T12:45:49.699Z</time></trkpt><trkpt lat="43.2607593" lon="12.3787811"><ele>231.0</ele><time>2026-04-28T12:45:50.699Z</time></trkpt><trkpt lat="43.2606332" lon="12.3788868"><ele>230.25</ele><time>2026-04-28T12:45:51.698Z</time></trkpt><trkpt lat="43.2605067" lon="12.3789908"><ele>229.5</ele><time>2026-04-28T12:45:52.699Z</time></trkpt><trkpt lat="43.2603815" lon="12.3790974"><ele>228.75</ele><time>2026-04-28T12:45:53.699Z</time></trkpt><trkpt lat="43.2602496" lon="12.3792069"><ele>228.0</ele><time>2026-04-28T12:45:54.698Z</time></trkpt><trkpt lat="43.2601161" lon="12.3793207"><ele>228.0</ele><time>2026-04-28T12:45:55.698Z</time></trkpt><trkpt lat="43.2599786" lon="12.3794364"><ele>228.0</ele><time>2026-04-28T12:45:56.699Z</time></trkpt><trkpt lat="43.259839" lon="12.3795513"><ele>228.0</ele><time>2026-04-28T12:45:57.698Z</time></trkpt><trkpt lat="43.2596971" lon="12.3796667"><ele>226.66666666666669</ele><time>2026-04-28T12:45:58.698Z</time></trkpt><trkpt lat="43.2595527" lon="12.3797843"><ele>225.33333333333334</ele><time>2026-04-28T12:45:59.698Z</time></trkpt><trkpt lat="43.2594113" lon="12.3799045"><ele>224.0</ele><time>2026-04-28T12:46:00.699Z</time></trkpt><trkpt lat="43.2592775" lon="12.3800207"><ele>224.0</ele><time>2026-04-28T12:46:01.699Z</time></trkpt><trkpt lat="43.2591514" lon="12.3801283"><ele>224.0</ele><time>2026-04-28T12:46:02.699Z</time></trkpt><trkpt lat="43.2590313" lon="12.3802281"><ele>224.0</ele><time>2026-04-28T12:46:03.699Z</time></trkpt><trkpt lat="43.2589163" lon="12.3803193"><ele>224.0</ele><time>2026-04-28T12:46:04.698Z</time></trkpt><trkpt lat="43.2588089" lon="12.3804075"><ele>224.39999999999998</ele><time>2026-04-28T12:46:05.699Z</time></trkpt><trkpt lat="43.2587088" lon="12.3804949"><ele>224.79999999999998</ele><time>2026-04-28T12:46:06.698Z</time></trkpt><trkpt lat="43.2586139" lon="12.380573"><ele>225.20000000000002</ele><time>2026-04-28T12:46:07.699Z</time></trkpt><trkpt lat="43.2585299" lon="12.3806459"><ele>225.60000000000002</ele><time>2026-04-28T12:46:08.698Z</time></trkpt><trkpt lat="43.2584623" lon="12.3807237"><ele>226.0</ele><time>2026-04-28T12:46:09.698Z</time></trkpt><trkpt lat="43.2584106" lon="12.3807993"><ele>226.0</ele><time>2026-04-28T12:46:10.699Z</time></trkpt><trkpt lat="43.2583325" lon="12.3809019"><ele>226.00000000000003</ele><time>2026-04-28T12:46:12.698Z</time></trkpt><trkpt lat="43.2582606" lon="12.3809331"><ele>226.00000000000003</ele><time>2026-04-28T12:46:15.698Z</time></trkpt><trkpt lat="43.2581372" lon="12.3809526"><ele>226.0</ele><time>2026-04-28T12:46:17.699Z</time></trkpt><trkpt lat="43.2580521" lon="12.380963"><ele>226.0</ele><time>2026-04-28T12:46:18.699Z</time></trkpt><trkpt lat="43.2579535" lon="12.380977"><ele>226.0</ele><time>2026-04-28T12:46:19.698Z</time></trkpt><trkpt lat="43.2578409" lon="12.3809971"><ele>226.0</ele><time>2026-04-28T12:46:20.698Z</time></trkpt><trkpt lat="43.2577143" lon="12.381033"><ele>226.0</ele><time>2026-04-28T12:46:21.699Z</time></trkpt><trkpt lat="43.2575851" lon="12.3810781"><ele>226.0</ele><time>2026-04-28T12:46:22.699Z</time></trkpt><trkpt lat="43.2574451" lon="12.3811352"><ele>226.0</ele><time>2026-04-28T12:46:23.699Z</time></trkpt><trkpt lat="43.2572933" lon="12.3811961"><ele>226.0</ele><time>2026-04-28T12:46:24.698Z</time></trkpt><trkpt lat="43.2571289" lon="12.381261"><ele>226.0</ele><time>2026-04-28T12:46:25.699Z</time></trkpt><trkpt lat="43.2569633" lon="12.3813242"><ele>226.0</ele><time>2026-04-28T12:46:26.699Z</time></trkpt><trkpt lat="43.2567908" lon="12.3813927"><ele>226.0</ele><time>2026-04-28T12:46:27.698Z</time></trkpt><trkpt lat="43.2566121" lon="12.3814681"><ele>226.0</ele><time>2026-04-28T12:46:28.699Z</time></trkpt><trkpt lat="43.2564342" lon="12.3815451"><ele>226.0</ele><time>2026-04-28T12:46:29.699Z</time></trkpt><trkpt lat="43.2562546" lon="12.3816229"><ele>226.0</ele><time>2026-04-28T12:46:30.698Z</time></trkpt><trkpt lat="43.2560732" lon="12.3816979"><ele>226.0</ele><time>2026-04-28T12:46:31.699Z</time></trkpt><trkpt lat="43.255889" lon="12.3817751"><ele>226.0</ele><time>2026-04-28T12:46:32.699Z</time></trkpt><trkpt lat="43.2557037" lon="12.3818561"><ele>226.0</ele><time>2026-04-28T12:46:33.699Z</time></trkpt><trkpt lat="43.2555204" lon="12.3819379"><ele>226.0</ele><time>2026-04-28T12:46:34.698Z</time></trkpt><trkpt lat="43.2553419" lon="12.3820175"><ele>226.33333333333331</ele><time>2026-04-28T12:46:35.698Z</time></trkpt><trkpt lat="43.2551705" lon="12.382088"><ele>226.66666666666669</ele><time>2026-04-28T12:46:36.698Z</time></trkpt><trkpt lat="43.255007" lon="12.3821482"><ele>227.0</ele><time>2026-04-28T12:46:37.699Z</time></trkpt><trkpt lat="43.2548549" lon="12.3821955"><ele>226.75</ele><time>2026-04-28T12:46:38.698Z</time></trkpt><trkpt lat="43.254707" lon="12.3822256"><ele>226.5</ele><time>2026-04-28T12:46:39.699Z</time></trkpt><trkpt lat="43.254563" lon="12.3822395"><ele>226.25</ele><time>2026-04-28T12:46:40.699Z</time></trkpt><trkpt lat="43.2544211" lon="12.3822388"><ele>226.0</ele><time>2026-04-28T12:46:41.699Z</time></trkpt><trkpt lat="43.2542805" lon="12.3822282"><ele>226.0</ele><time>2026-04-28T12:46:42.698Z</time></trkpt><trkpt lat="43.2541436" lon="12.3822233"><ele>226.0</ele><time>2026-04-28T12:46:43.699Z</time></trkpt><trkpt lat="43.2540114" lon="12.3822212"><ele>226.0</ele><time>2026-04-28T12:46:44.699Z</time></trkpt><trkpt lat="43.2538837" lon="12.3822204"><ele>226.0</ele><time>2026-04-28T12:46:45.699Z</time></trkpt><trkpt lat="43.2537619" lon="12.3822197"><ele>227.0</ele><time>2026-04-28T12:46:46.698Z</time></trkpt><trkpt lat="43.2536417" lon="12.382213"><ele>228.0</ele><time>2026-04-28T12:46:47.699Z</time></trkpt><trkpt lat="43.2535213" lon="12.3822076"><ele>229.0</ele><time>2026-04-28T12:46:48.699Z</time></trkpt><trkpt lat="43.2534073" lon="12.3821952"><ele>230.0</ele><time>2026-04-28T12:46:49.698Z</time></trkpt><trkpt lat="43.2533072" lon="12.3821821"><ele>230.00000000000003</ele><time>2026-04-28T12:46:50.699Z</time></trkpt><trkpt lat="43.2532255" lon="12.3821709"><ele>230.0</ele><time>2026-04-28T12:46:51.699Z</time></trkpt><trkpt lat="43.2531342" lon="12.3821649"><ele>230.0</ele><time>2026-04-28T12:46:53.699Z</time></trkpt><trkpt lat="43.2531796" lon="12.3822373"><ele>230.0</ele><time>2026-04-28T12:46:58.699Z</time></trkpt><trkpt lat="43.2532517" lon="12.3822356"><ele>230.00000000000003</ele><time>2026-04-28T12:46:59.698Z</time></trkpt><trkpt lat="43.2533372" lon="12.3822384"><ele>230.0</ele><time>2026-04-28T12:47:00.699Z</time></trkpt><trkpt lat="43.2534413" lon="12.3822408"><ele>230.0</ele><time>2026-04-28T12:47:01.698Z</time></trkpt><trkpt lat="43.2535637" lon="12.3822443"><ele>230.0</ele><time>2026-04-28T12:47:02.699Z</time></trkpt><trkpt lat="43.253694" lon="12.3822498"><ele>230.0</ele><time>2026-04-28T12:47:03.698Z</time></trkpt><trkpt lat="43.2538474" lon="12.3822569"><ele>230.0</ele><time>2026-04-28T12:47:04.698Z</time></trkpt><trkpt lat="43.2540075" lon="12.3822638"><ele>229.0</ele><time>2026-04-28T12:47:05.698Z</time></trkpt><trkpt lat="43.2541554" lon="12.3822729"><ele>228.0</ele><time>2026-04-28T12:47:06.699Z</time></trkpt><trkpt lat="43.25429" lon="12.3822799"><ele>227.0</ele><time>2026-04-28T12:47:07.699Z</time></trkpt><trkpt lat="43.2544034" lon="12.3822849"><ele>226.0</ele><time>2026-04-28T12:47:08.699Z</time></trkpt><trkpt lat="43.2545011" lon="12.3822853"><ele>226.0</ele><time>2026-04-28T12:47:09.699Z</time></trkpt><trkpt lat="43.254581" lon="12.3822853"><ele>226.00000000000003</ele><time>2026-04-28T12:47:10.699Z</time></trkpt><trkpt lat="43.2546455" lon="12.3822978"><ele>226.00000000000003</ele><time>2026-04-28T12:47:11.698Z</time></trkpt><trkpt lat="43.2547285" lon="12.3824033"><ele>226.0</ele><time>2026-04-28T12:47:13.698Z</time></trkpt><trkpt lat="43.2547592" lon="12.3825056"><ele>226.0</ele><time>2026-04-28T12:47:14.699Z</time></trkpt><trkpt lat="43.254782" lon="12.3826629"><ele>225.75</ele><time>2026-04-28T12:47:15.699Z</time></trkpt><trkpt lat="43.2548007" lon="12.3828164"><ele>225.5</ele><time>2026-04-28T12:47:16.699Z</time></trkpt><trkpt lat="43.2548263" lon="12.3829828"><ele>225.25</ele><time>2026-04-28T12:47:17.699Z</time></trkpt><trkpt lat="43.2548509" lon="12.3831458"><ele>225.0</ele><time>2026-04-28T12:47:18.698Z</time></trkpt><trkpt lat="43.2548671" lon="12.3832931"><ele>225.0</ele><time>2026-04-28T12:47:19.699Z</time></trkpt><trkpt lat="43.2548723" lon="12.3834317"><ele>225.0</ele><time>2026-04-28T12:47:20.698Z</time></trkpt><trkpt lat="43.2548556" lon="12.3835615"><ele>225.0</ele><time>2026-04-28T12:47:21.699Z</time></trkpt><trkpt lat="43.2548105" lon="12.3836739"><ele>225.0</ele><time>2026-04-28T12:47:22.699Z</time></trkpt><trkpt lat="43.2547374" lon="12.3837683"><ele>225.0</ele><time>2026-04-28T12:47:23.699Z</time></trkpt><trkpt lat="43.2546514" lon="12.3838569"><ele>227.0</ele><time>2026-04-28T12:47:24.697Z</time></trkpt><trkpt lat="43.2545587" lon="12.3839512"><ele>229.0</ele><time>2026-04-28T12:47:25.699Z</time></trkpt><trkpt lat="43.2544683" lon="12.3840557"><ele>231.0</ele><time>2026-04-28T12:47:26.699Z</time></trkpt><trkpt lat="43.2543798" lon="12.38417"><ele>233.0</ele><time>2026-04-28T12:47:27.698Z</time></trkpt><trkpt lat="43.2542958" lon="12.3842805"><ele>233.0</ele><time>2026-04-28T12:47:28.699Z</time></trkpt><trkpt lat="43.2542275" lon="12.3843899"><ele>233.0</ele><time>2026-04-28T12:47:29.698Z</time></trkpt><trkpt lat="43.2541828" lon="12.3845095"><ele>233.0</ele><time>2026-04-28T12:47:30.698Z</time></trkpt><trkpt lat="43.2541667" lon="12.3846466"><ele>233.0</ele><time>2026-04-28T12:47:31.699Z</time></trkpt><trkpt lat="43.2541723" lon="12.3847924"><ele>233.0</ele><time>2026-04-28T12:47:32.699Z</time></trkpt><trkpt lat="43.2541908" lon="12.3849434"><ele>233.60000000000002</ele><time>2026-04-28T12:47:33.699Z</time></trkpt><trkpt lat="43.2542117" lon="12.3850953"><ele>234.20000000000002</ele><time>2026-04-28T12:47:34.698Z</time></trkpt><trkpt lat="43.2542259" lon="12.3852461"><ele>234.8</ele><time>2026-04-28T12:47:35.699Z</time></trkpt><trkpt lat="43.2542208" lon="12.3853938"><ele>235.4</ele><time>2026-04-28T12:47:36.699Z</time></trkpt><trkpt lat="43.2541931" lon="12.3855369"><ele>236.0</ele><time>2026-04-28T12:47:37.699Z</time></trkpt><trkpt lat="43.2541452" lon="12.3856775"><ele>236.0</ele><time>2026-04-28T12:47:38.699Z</time></trkpt><trkpt lat="43.2540811" lon="12.3858234"><ele>236.0</ele><time>2026-04-28T12:47:39.699Z</time></trkpt><trkpt lat="43.2540089" lon="12.3859787"><ele>236.0</ele><time>2026-04-28T12:47:40.699Z</time></trkpt><trkpt lat="43.2539329" lon="12.386148"><ele>236.0</ele><time>2026-04-28T12:47:41.698Z</time></trkpt><trkpt lat="43.2538617" lon="12.3863178"><ele>238.25</ele><time>2026-04-28T12:47:42.699Z</time></trkpt><trkpt lat="43.253788" lon="12.3864718"><ele>240.5</ele><time>2026-04-28T12:47:43.699Z</time></trkpt><trkpt lat="43.2537026" lon="12.3866025"><ele>242.75</ele><time>2026-04-28T12:47:44.698Z</time></trkpt><trkpt lat="43.2536026" lon="12.3867092"><ele>245.0</ele><time>2026-04-28T12:47:45.699Z</time></trkpt><trkpt lat="43.2534971" lon="12.3867924"><ele>245.0</ele><time>2026-04-28T12:47:46.698Z</time></trkpt><trkpt lat="43.2533785" lon="12.3868461"><ele>245.0</ele><time>2026-04-28T12:47:47.699Z</time></trkpt><trkpt lat="43.2532481" lon="12.3868806"><ele>245.0</ele><time>2026-04-28T12:47:48.698Z</time></trkpt><trkpt lat="43.2531063" lon="12.386904"><ele>245.0</ele><time>2026-04-28T12:47:49.699Z</time></trkpt><trkpt lat="43.2529553" lon="12.3869286"><ele>246.33333333333334</ele><time>2026-04-28T12:47:50.699Z</time></trkpt><trkpt lat="43.2527936" lon="12.3869566"><ele>247.66666666666669</ele><time>2026-04-28T12:47:51.698Z</time></trkpt><trkpt lat="43.2526237" lon="12.3869861"><ele>249.0</ele><time>2026-04-28T12:47:52.698Z</time></trkpt><trkpt lat="43.25245" lon="12.3870154"><ele>247.33333333333331</ele><time>2026-04-28T12:47:53.699Z</time></trkpt><trkpt lat="43.252275" lon="12.3870491"><ele>245.66666666666666</ele><time>2026-04-28T12:47:54.699Z</time></trkpt><trkpt lat="43.2520976" lon="12.3870826"><ele>244.0</ele><time>2026-04-28T12:47:55.699Z</time></trkpt><trkpt lat="43.2519189" lon="12.3871186"><ele>244.0</ele><time>2026-04-28T12:47:56.699Z</time></trkpt><trkpt lat="43.2517397" lon="12.3871559"><ele>244.0</ele><time>2026-04-28T12:47:57.699Z</time></trkpt><trkpt lat="43.2515709" lon="12.387189"><ele>244.0</ele><time>2026-04-28T12:47:58.699Z</time></trkpt><trkpt lat="43.2514111" lon="12.3872213"><ele>238.66666666666666</ele><time>2026-04-28T12:47:59.698Z</time></trkpt><trkpt lat="43.2512631" lon="12.3872393"><ele>233.33333333333331</ele><time>2026-04-28T12:48:00.699Z</time></trkpt><trkpt lat="43.2511134" lon="12.3872425"><ele>228.0</ele><time>2026-04-28T12:48:01.698Z</time></trkpt><trkpt lat="43.2509611" lon="12.3872187"><ele>228.0</ele><time>2026-04-28T12:48:02.699Z</time></trkpt><trkpt lat="43.2508093" lon="12.3871825"><ele>228.0</ele><time>2026-04-28T12:48:03.698Z</time></trkpt><trkpt lat="43.2506548" lon="12.3871396"><ele>228.0</ele><time>2026-04-28T12:48:04.699Z</time></trkpt><trkpt lat="43.2504961" lon="12.3870977"><ele>232.0</ele><time>2026-04-28T12:48:05.699Z</time></trkpt><trkpt lat="43.250331" lon="12.3870583"><ele>236.0</ele><time>2026-04-28T12:48:06.699Z</time></trkpt><trkpt lat="43.2501651" lon="12.3870234"><ele>240.0</ele><time>2026-04-28T12:48:07.698Z</time></trkpt><trkpt lat="43.2499956" lon="12.3869869"><ele>240.0</ele><time>2026-04-28T12:48:08.699Z</time></trkpt><trkpt lat="43.2498259" lon="12.3869476"><ele>240.0</ele><time>2026-04-28T12:48:09.699Z</time></trkpt><trkpt lat="43.2496547" lon="12.3869059"><ele>240.0</ele><time>2026-04-28T12:48:10.699Z</time></trkpt><trkpt lat="43.2494825" lon="12.3868628"><ele>238.33333333333331</ele><time>2026-04-28T12:48:11.699Z</time></trkpt><trkpt lat="43.2493109" lon="12.3868176"><ele>236.66666666666666</ele><time>2026-04-28T12:48:12.698Z</time></trkpt><trkpt lat="43.2491402" lon="12.3867715"><ele>235.0</ele><time>2026-04-28T12:48:13.699Z</time></trkpt><trkpt lat="43.2489685" lon="12.3867265"><ele>233.0</ele><time>2026-04-28T12:48:14.699Z</time></trkpt><trkpt lat="43.2487949" lon="12.3866792"><ele>231.0</ele><time>2026-04-28T12:48:15.699Z</time></trkpt><trkpt lat="43.2486237" lon="12.3866325"><ele>229.0</ele><time>2026-04-28T12:48:16.698Z</time></trkpt><trkpt lat="43.2484552" lon="12.3865898"><ele>229.0</ele><time>2026-04-28T12:48:17.699Z</time></trkpt><trkpt lat="43.248286" lon="12.3865507"><ele>229.0</ele><time>2026-04-28T12:48:18.699Z</time></trkpt><trkpt lat="43.2481174" lon="12.386509"><ele>229.0</ele><time>2026-04-28T12:48:19.699Z</time></trkpt><trkpt lat="43.2479487" lon="12.386466"><ele>229.33333333333331</ele><time>2026-04-28T12:48:20.698Z</time></trkpt><trkpt lat="43.2477813" lon="12.3864229"><ele>229.66666666666669</ele><time>2026-04-28T12:48:21.698Z</time></trkpt><trkpt lat="43.247611" lon="12.3863811"><ele>230.0</ele><time>2026-04-28T12:48:22.697Z</time></trkpt><trkpt lat="43.247443" lon="12.386345"><ele>230.33333333333334</ele><time>2026-04-28T12:48:23.698Z</time></trkpt><trkpt lat="43.2472736" lon="12.386315"><ele>230.66666666666669</ele><time>2026-04-28T12:48:24.698Z</time></trkpt><trkpt lat="43.2471057" lon="12.3862951"><ele>231.0</ele><time>2026-04-28T12:48:25.697Z</time></trkpt><trkpt lat="43.2469404" lon="12.3862804"><ele>231.0</ele><time>2026-04-28T12:48:26.698Z</time></trkpt><trkpt lat="43.2467759" lon="12.3862685"><ele>231.0</ele><time>2026-04-28T12:48:27.698Z</time></trkpt><trkpt lat="43.2466147" lon="12.386258"><ele>231.0</ele><time>2026-04-28T12:48:28.698Z</time></trkpt><trkpt lat="43.2464538" lon="12.3862602"><ele>231.33333333333331</ele><time>2026-04-28T12:48:29.698Z</time></trkpt><trkpt lat="43.2462946" lon="12.3862725"><ele>231.66666666666666</ele><time>2026-04-28T12:48:30.697Z</time></trkpt><trkpt lat="43.2461367" lon="12.3863176"><ele>232.0</ele><time>2026-04-28T12:48:31.698Z</time></trkpt><trkpt lat="43.2459815" lon="12.3863901"><ele>232.0</ele><time>2026-04-28T12:48:32.698Z</time></trkpt><trkpt lat="43.2458323" lon="12.3864741"><ele>232.0</ele><time>2026-04-28T12:48:33.698Z</time></trkpt><trkpt lat="43.2456808" lon="12.3865713"><ele>232.0</ele><time>2026-04-28T12:48:34.697Z</time></trkpt><trkpt lat="43.2455305" lon="12.3866548"><ele>231.66666666666666</ele><time>2026-04-28T12:48:35.698Z</time></trkpt><trkpt lat="43.2453846" lon="12.3867205"><ele>231.33333333333331</ele><time>2026-04-28T12:48:36.697Z</time></trkpt><trkpt lat="43.2452345" lon="12.3867582"><ele>231.0</ele><time>2026-04-28T12:48:37.698Z</time></trkpt><trkpt lat="43.2450775" lon="12.3867756"><ele>231.0</ele><time>2026-04-28T12:48:38.697Z</time></trkpt><trkpt lat="43.2449144" lon="12.3867866"><ele>231.0</ele><time>2026-04-28T12:48:39.698Z</time></trkpt><trkpt lat="43.2447452" lon="12.3867994"><ele>231.0</ele><time>2026-04-28T12:48:40.697Z</time></trkpt><trkpt lat="43.2445693" lon="12.3868122"><ele>230.33333333333331</ele><time>2026-04-28T12:48:41.698Z</time></trkpt><trkpt lat="43.2443873" lon="12.3868237"><ele>229.66666666666666</ele><time>2026-04-28T12:48:42.698Z</time></trkpt><trkpt lat="43.2442007" lon="12.386836"><ele>229.0</ele><time>2026-04-28T12:48:43.698Z</time></trkpt><trkpt lat="43.2440113" lon="12.386849"><ele>229.0</ele><time>2026-04-28T12:48:44.697Z</time></trkpt><trkpt lat="43.2438214" lon="12.3868653"><ele>229.0</ele><time>2026-04-28T12:48:45.698Z</time></trkpt><trkpt lat="43.2436307" lon="12.3868864"><ele>229.0</ele><time>2026-04-28T12:48:46.698Z</time></trkpt><trkpt lat="43.2434371" lon="12.3869043"><ele>229.0</ele><time>2026-04-28T12:48:47.697Z</time></trkpt><trkpt lat="43.2432428" lon="12.3869205"><ele>229.0</ele><time>2026-04-28T12:48:48.698Z</time></trkpt><trkpt lat="43.2430492" lon="12.3869343"><ele>229.0</ele><time>2026-04-28T12:48:49.698Z</time></trkpt><trkpt lat="43.2428568" lon="12.3869457"><ele>228.66666666666666</ele><time>2026-04-28T12:48:50.697Z</time></trkpt><trkpt lat="43.2426717" lon="12.3869566"><ele>228.33333333333331</ele><time>2026-04-28T12:48:51.697Z</time></trkpt><trkpt lat="43.2424994" lon="12.3869695"><ele>228.0</ele><time>2026-04-28T12:48:52.698Z</time></trkpt><trkpt lat="43.2423358" lon="12.3869869"><ele>227.66666666666669</ele><time>2026-04-28T12:48:53.698Z</time></trkpt><trkpt lat="43.2421816" lon="12.387027"><ele>227.33333333333334</ele><time>2026-04-28T12:48:54.698Z</time></trkpt><trkpt lat="43.2420352" lon="12.3870966"><ele>227.0</ele><time>2026-04-28T12:48:55.697Z</time></trkpt><trkpt lat="43.2418942" lon="12.3871977"><ele>227.0</ele><time>2026-04-28T12:48:56.698Z</time></trkpt><trkpt lat="43.2417549" lon="12.3873145"><ele>227.0</ele><time>2026-04-28T12:48:57.697Z</time></trkpt><trkpt lat="43.241612" lon="12.3874394"><ele>227.0</ele><time>2026-04-28T12:48:58.698Z</time></trkpt><trkpt lat="43.2414666" lon="12.3875673"><ele>228.0</ele><time>2026-04-28T12:48:59.698Z</time></trkpt><trkpt lat="43.2413178" lon="12.3876973"><ele>229.0</ele><time>2026-04-28T12:49:00.698Z</time></trkpt><trkpt lat="43.241169" lon="12.3878245"><ele>230.0</ele><time>2026-04-28T12:49:01.698Z</time></trkpt><trkpt lat="43.241024" lon="12.3879478"><ele>229.66666666666669</ele><time>2026-04-28T12:49:02.698Z</time></trkpt><trkpt lat="43.2408875" lon="12.3880653"><ele>229.33333333333331</ele><time>2026-04-28T12:49:03.697Z</time></trkpt><trkpt lat="43.2407595" lon="12.3881867"><ele>229.0</ele><time>2026-04-28T12:49:04.698Z</time></trkpt><trkpt lat="43.240638" lon="12.3883143"><ele>229.75</ele><time>2026-04-28T12:49:05.697Z</time></trkpt><trkpt lat="43.2405257" lon="12.3884383"><ele>230.5</ele><time>2026-04-28T12:49:06.698Z</time></trkpt><trkpt lat="43.2404057" lon="12.3885596"><ele>231.25</ele><time>2026-04-28T12:49:07.697Z</time></trkpt><trkpt lat="43.2402743" lon="12.3886734"><ele>232.0</ele><time>2026-04-28T12:49:08.698Z</time></trkpt><trkpt lat="43.2401332" lon="12.3887712"><ele>231.0</ele><time>2026-04-28T12:49:09.698Z</time></trkpt><trkpt lat="43.2399816" lon="12.3888557"><ele>230.0</ele><time>2026-04-28T12:49:10.697Z</time></trkpt><trkpt lat="43.239822" lon="12.3889313"><ele>229.0</ele><time>2026-04-28T12:49:11.698Z</time></trkpt><trkpt lat="43.2396553" lon="12.3890043"><ele>229.0</ele><time>2026-04-28T12:49:12.698Z</time></trkpt><trkpt lat="43.2394861" lon="12.389084"><ele>229.0</ele><time>2026-04-28T12:49:13.697Z</time></trkpt><trkpt lat="43.239312" lon="12.3891685"><ele>229.0</ele><time>2026-04-28T12:49:14.698Z</time></trkpt><trkpt lat="43.2391329" lon="12.3892537"><ele>230.0</ele><time>2026-04-28T12:49:15.697Z</time></trkpt><trkpt lat="43.2389548" lon="12.3893337"><ele>231.0</ele><time>2026-04-28T12:49:16.698Z</time></trkpt><trkpt lat="43.2387804" lon="12.3893999"><ele>232.0</ele><time>2026-04-28T12:49:17.698Z</time></trkpt><trkpt lat="43.2386047" lon="12.3894441"><ele>232.0</ele><time>2026-04-28T12:49:18.697Z</time></trkpt><trkpt lat="43.2384252" lon="12.3894693"><ele>232.0</ele><time>2026-04-28T12:49:19.697Z</time></trkpt><trkpt lat="43.2382451" lon="12.3894819"><ele>232.0</ele><time>2026-04-28T12:49:20.698Z</time></trkpt><trkpt lat="43.2380628" lon="12.3894861"><ele>237.0</ele><time>2026-04-28T12:49:21.697Z</time></trkpt><trkpt lat="43.2378813" lon="12.3894923"><ele>242.0</ele><time>2026-04-28T12:49:22.697Z</time></trkpt><trkpt lat="43.2376992" lon="12.3895045"><ele>247.0</ele><time>2026-04-28T12:49:23.698Z</time></trkpt><trkpt lat="43.2375163" lon="12.3895126"><ele>247.0</ele><time>2026-04-28T12:49:24.697Z</time></trkpt><trkpt lat="43.2373372" lon="12.3895195"><ele>247.0</ele><time>2026-04-28T12:49:25.698Z</time></trkpt><trkpt lat="43.2371601" lon="12.3895441"><ele>247.0</ele><time>2026-04-28T12:49:26.697Z</time></trkpt><trkpt lat="43.236997" lon="12.3895893"><ele>244.25</ele><time>2026-04-28T12:49:27.698Z</time></trkpt><trkpt lat="43.2368497" lon="12.3896565"><ele>241.5</ele><time>2026-04-28T12:49:28.698Z</time></trkpt><trkpt lat="43.236715" lon="12.3897222"><ele>238.75</ele><time>2026-04-28T12:49:29.698Z</time></trkpt><trkpt lat="43.2365895" lon="12.389775"><ele>236.0</ele><time>2026-04-28T12:49:30.698Z</time></trkpt><trkpt lat="43.2364689" lon="12.3897928"><ele>236.0</ele><time>2026-04-28T12:49:31.698Z</time></trkpt><trkpt lat="43.2363398" lon="12.3897783"><ele>236.0</ele><time>2026-04-28T12:49:32.698Z</time></trkpt><trkpt lat="43.2362096" lon="12.3897461"><ele>236.0</ele><time>2026-04-28T12:49:33.698Z</time></trkpt><trkpt lat="43.2360712" lon="12.3897153"><ele>236.0</ele><time>2026-04-28T12:49:34.697Z</time></trkpt><trkpt lat="43.2359312" lon="12.3896785"><ele>238.0</ele><time>2026-04-28T12:49:35.698Z</time></trkpt><trkpt lat="43.2357888" lon="12.3896353"><ele>240.0</ele><time>2026-04-28T12:49:36.698Z</time></trkpt><trkpt lat="43.2356546" lon="12.3895952"><ele>242.0</ele><time>2026-04-28T12:49:37.697Z</time></trkpt><trkpt lat="43.2355354" lon="12.3895391"><ele>244.0</ele><time>2026-04-28T12:49:38.698Z</time></trkpt><trkpt lat="43.2354184" lon="12.3894621"><ele>244.0</ele><time>2026-04-28T12:49:39.698Z</time></trkpt><trkpt lat="43.2353091" lon="12.3893641"><ele>244.0</ele><time>2026-04-28T12:49:40.698Z</time></trkpt><trkpt lat="43.2352098" lon="12.3892495"><ele>244.0</ele><time>2026-04-28T12:49:41.698Z</time></trkpt><trkpt lat="43.2351238" lon="12.3891132"><ele>244.0</ele><time>2026-04-28T12:49:42.697Z</time></trkpt><trkpt lat="43.2350491" lon="12.3889618"><ele>246.5</ele><time>2026-04-28T12:49:43.698Z</time></trkpt><trkpt lat="43.2349888" lon="12.3888115"><ele>249.0</ele><time>2026-04-28T12:49:44.698Z</time></trkpt><trkpt lat="43.2349171" lon="12.3886799"><ele>251.5</ele><time>2026-04-28T12:49:45.698Z</time></trkpt><trkpt lat="43.234828" lon="12.388591"><ele>254.0</ele><time>2026-04-28T12:49:46.698Z</time></trkpt><trkpt lat="43.234722" lon="12.388528"><ele>254.0</ele><time>2026-04-28T12:49:47.697Z</time></trkpt><trkpt lat="43.2345934" lon="12.3884874"><ele>254.0</ele><time>2026-04-28T12:49:48.698Z</time></trkpt><trkpt lat="43.2344631" lon="12.3884538"><ele>254.0</ele><time>2026-04-28T12:49:49.698Z</time></trkpt><trkpt lat="43.2343442" lon="12.3884354"><ele>254.0</ele><time>2026-04-28T12:49:50.697Z</time></trkpt><trkpt lat="43.2342399" lon="12.3884508"><ele>254.0</ele><time>2026-04-28T12:49:51.698Z</time></trkpt><trkpt lat="43.2341503" lon="12.3885124"><ele>253.99999999999997</ele><time>2026-04-28T12:49:52.698Z</time></trkpt><trkpt lat="43.2340696" lon="12.3886075"><ele>253.99999999999997</ele><time>2026-04-28T12:49:53.698Z</time></trkpt><trkpt lat="43.2339964" lon="12.3886882"><ele>254.0</ele><time>2026-04-28T12:49:54.697Z</time></trkpt><trkpt lat="43.2339132" lon="12.3887314"><ele>254.0</ele><time>2026-04-28T12:49:55.698Z</time></trkpt><trkpt lat="43.2338175" lon="12.3887328"><ele>251.0</ele><time>2026-04-28T12:49:56.697Z</time></trkpt><trkpt lat="43.2337149" lon="12.388691"><ele>248.0</ele><time>2026-04-28T12:49:57.697Z</time></trkpt><trkpt lat="43.2336082" lon="12.3886252"><ele>245.0</ele><time>2026-04-28T12:49:58.698Z</time></trkpt><trkpt lat="43.2334879" lon="12.3885596"><ele>242.0</ele><time>2026-04-28T12:49:59.698Z</time></trkpt><trkpt lat="43.233359" lon="12.3885279"><ele>242.0</ele><time>2026-04-28T12:50:00.698Z</time></trkpt><trkpt lat="43.2332211" lon="12.3885165"><ele>242.0</ele><time>2026-04-28T12:50:01.698Z</time></trkpt><trkpt lat="43.2330746" lon="12.3885214"><ele>242.0</ele><time>2026-04-28T12:50:02.698Z</time></trkpt><trkpt lat="43.2329173" lon="12.3885338"><ele>242.0</ele><time>2026-04-28T12:50:03.697Z</time></trkpt><trkpt lat="43.2327599" lon="12.3885463"><ele>239.66666666666669</ele><time>2026-04-28T12:50:04.698Z</time></trkpt><trkpt lat="43.2325962" lon="12.388562"><ele>237.33333333333331</ele><time>2026-04-28T12:50:05.698Z</time></trkpt><trkpt lat="43.2324286" lon="12.3885767"><ele>235.0</ele><time>2026-04-28T12:50:06.697Z</time></trkpt><trkpt lat="43.2322595" lon="12.3885894"><ele>234.25</ele><time>2026-04-28T12:50:07.698Z</time></trkpt><trkpt lat="43.2321059" lon="12.3885984"><ele>233.5</ele><time>2026-04-28T12:50:08.697Z</time></trkpt><trkpt lat="43.2319631" lon="12.3886051"><ele>232.75</ele><time>2026-04-28T12:50:09.698Z</time></trkpt><trkpt lat="43.2318315" lon="12.388608"><ele>232.0</ele><time>2026-04-28T12:50:10.698Z</time></trkpt><trkpt lat="43.231714" lon="12.3886061"><ele>231.99999999999997</ele><time>2026-04-28T12:50:11.698Z</time></trkpt><trkpt lat="43.2316177" lon="12.3885971"><ele>232.0</ele><time>2026-04-28T12:50:12.698Z</time></trkpt><trkpt lat="43.231535" lon="12.3885882"><ele>232.0</ele><time>2026-04-28T12:50:13.697Z</time></trkpt><trkpt lat="43.2314703" lon="12.388588"><ele>232.0</ele><time>2026-04-28T12:50:14.698Z</time></trkpt><trkpt lat="43.2313666" lon="12.3886265"><ele>231.99999999999997</ele><time>2026-04-28T12:50:16.697Z</time></trkpt><trkpt lat="43.2313118" lon="12.3886755"><ele>232.0</ele><time>2026-04-28T12:50:17.698Z</time></trkpt><trkpt lat="43.2312567" lon="12.3887553"><ele>230.6</ele><time>2026-04-28T12:50:18.698Z</time></trkpt><trkpt lat="43.2311943" lon="12.3888518"><ele>229.2</ele><time>2026-04-28T12:50:19.697Z</time></trkpt><trkpt lat="43.2311199" lon="12.3889516"><ele>227.8</ele><time>2026-04-28T12:50:20.698Z</time></trkpt><trkpt lat="43.2310341" lon="12.3890306"><ele>226.4</ele><time>2026-04-28T12:50:21.698Z</time></trkpt><trkpt lat="43.2309367" lon="12.3890885"><ele>225.0</ele><time>2026-04-28T12:50:22.697Z</time></trkpt><trkpt lat="43.2308259" lon="12.3891236"><ele>225.0</ele><time>2026-04-28T12:50:23.698Z</time></trkpt><trkpt lat="43.230705" lon="12.3891325"><ele>225.0</ele><time>2026-04-28T12:50:24.698Z</time></trkpt><trkpt lat="43.2305784" lon="12.3891234"><ele>225.0</ele><time>2026-04-28T12:50:25.698Z</time></trkpt><trkpt lat="43.230445" lon="12.3891101"><ele>225.0</ele><time>2026-04-28T12:50:26.698Z</time></trkpt><trkpt lat="43.2303051" lon="12.3890933"><ele>225.0</ele><time>2026-04-28T12:50:27.697Z</time></trkpt><trkpt lat="43.230165" lon="12.3890767"><ele>225.0</ele><time>2026-04-28T12:50:28.698Z</time></trkpt><trkpt lat="43.230021" lon="12.3890641"><ele>225.0</ele><time>2026-04-28T12:50:29.697Z</time></trkpt><trkpt lat="43.2298699" lon="12.3890558"><ele>225.0</ele><time>2026-04-28T12:50:30.698Z</time></trkpt><trkpt lat="43.2297183" lon="12.3890552"><ele>226.66666666666669</ele><time>2026-04-28T12:50:31.697Z</time></trkpt><trkpt lat="43.2295666" lon="12.3890582"><ele>228.33333333333334</ele><time>2026-04-28T12:50:32.698Z</time></trkpt><trkpt lat="43.229413" lon="12.3890596"><ele>230.0</ele><time>2026-04-28T12:50:33.697Z</time></trkpt><trkpt lat="43.2292581" lon="12.389058"><ele>230.0</ele><time>2026-04-28T12:50:34.698Z</time></trkpt><trkpt lat="43.2291171" lon="12.3890511"><ele>230.0</ele><time>2026-04-28T12:50:35.697Z</time></trkpt><trkpt lat="43.228988" lon="12.3890392"><ele>230.0</ele><time>2026-04-28T12:50:36.698Z</time></trkpt><trkpt lat="43.2288687" lon="12.3890328"><ele>230.0</ele><time>2026-04-28T12:50:37.697Z</time></trkpt><trkpt lat="43.2287571" lon="12.3890364"><ele>231.5</ele><time>2026-04-28T12:50:38.698Z</time></trkpt><trkpt lat="43.2286473" lon="12.3890585"><ele>233.0</ele><time>2026-04-28T12:50:39.698Z</time></trkpt><trkpt lat="43.2285331" lon="12.3891026"><ele>234.5</ele><time>2026-04-28T12:50:40.697Z</time></trkpt><trkpt lat="43.2284145" lon="12.389165"><ele>236.0</ele><time>2026-04-28T12:50:41.698Z</time></trkpt><trkpt lat="43.2282882" lon="12.3892324"><ele>236.0</ele><time>2026-04-28T12:50:42.698Z</time></trkpt><trkpt lat="43.2281555" lon="12.3893048"><ele>236.0</ele><time>2026-04-28T12:50:43.698Z</time></trkpt><trkpt lat="43.2280217" lon="12.3893767"><ele>236.0</ele><time>2026-04-28T12:50:44.697Z</time></trkpt><trkpt lat="43.2278841" lon="12.3894555"><ele>236.0</ele><time>2026-04-28T12:50:45.698Z</time></trkpt><trkpt lat="43.227744" lon="12.3895301"><ele>233.0</ele><time>2026-04-28T12:50:46.698Z</time></trkpt><trkpt lat="43.2276004" lon="12.3896079"><ele>230.0</ele><time>2026-04-28T12:50:47.697Z</time></trkpt><trkpt lat="43.2274559" lon="12.3896823"><ele>227.0</ele><time>2026-04-28T12:50:48.698Z</time></trkpt><trkpt lat="43.227314" lon="12.3897605"><ele>228.75</ele><time>2026-04-28T12:50:49.697Z</time></trkpt><trkpt lat="43.2271776" lon="12.3898358"><ele>230.5</ele><time>2026-04-28T12:50:50.697Z</time></trkpt><trkpt lat="43.2270388" lon="12.3899046"><ele>232.25</ele><time>2026-04-28T12:50:51.698Z</time></trkpt><trkpt lat="43.226902" lon="12.3899603"><ele>234.0</ele><time>2026-04-28T12:50:52.697Z</time></trkpt><trkpt lat="43.226764" lon="12.3899948"><ele>234.0</ele><time>2026-04-28T12:50:53.698Z</time></trkpt><trkpt lat="43.2266212" lon="12.3900063"><ele>234.0</ele><time>2026-04-28T12:50:54.697Z</time></trkpt><trkpt lat="43.2264737" lon="12.3900154"><ele>234.0</ele><time>2026-04-28T12:50:55.698Z</time></trkpt><trkpt lat="43.2263326" lon="12.3900225"><ele>234.0</ele><time>2026-04-28T12:50:56.698Z</time></trkpt><trkpt lat="43.2261985" lon="12.3900295"><ele>234.75</ele><time>2026-04-28T12:50:57.698Z</time></trkpt><trkpt lat="43.2260735" lon="12.3900355"><ele>235.5</ele><time>2026-04-28T12:50:58.698Z</time></trkpt><trkpt lat="43.2259591" lon="12.3900447"><ele>236.25</ele><time>2026-04-28T12:50:59.697Z</time></trkpt><trkpt lat="43.2258559" lon="12.3900762"><ele>237.0</ele><time>2026-04-28T12:51:00.698Z</time></trkpt><trkpt lat="43.2257622" lon="12.3901415"><ele>237.0</ele><time>2026-04-28T12:51:01.698Z</time></trkpt><trkpt lat="43.225678" lon="12.3902339"><ele>237.0</ele><time>2026-04-28T12:51:02.698Z</time></trkpt><trkpt lat="43.2255995" lon="12.3903514"><ele>237.0</ele><time>2026-04-28T12:51:03.698Z</time></trkpt><trkpt lat="43.2255234" lon="12.3904734"><ele>237.0</ele><time>2026-04-28T12:51:04.698Z</time></trkpt><trkpt lat="43.2254407" lon="12.3905993"><ele>235.25</ele><time>2026-04-28T12:51:05.697Z</time></trkpt><trkpt lat="43.2253578" lon="12.3907284"><ele>233.5</ele><time>2026-04-28T12:51:06.698Z</time></trkpt><trkpt lat="43.2252738" lon="12.3908623"><ele>231.75</ele><time>2026-04-28T12:51:07.696Z</time></trkpt><trkpt lat="43.2251884" lon="12.3910027"><ele>230.0</ele><time>2026-04-28T12:51:08.698Z</time></trkpt><trkpt lat="43.2251015" lon="12.3911445"><ele>230.0</ele><time>2026-04-28T12:51:09.698Z</time></trkpt><trkpt lat="43.2250133" lon="12.3912854"><ele>230.0</ele><time>2026-04-28T12:51:10.697Z</time></trkpt><trkpt lat="43.2249318" lon="12.3914237"><ele>230.0</ele><time>2026-04-28T12:51:11.698Z</time></trkpt><trkpt lat="43.2248579" lon="12.3915527"><ele>230.0</ele><time>2026-04-28T12:51:12.698Z</time></trkpt><trkpt lat="43.2247898" lon="12.3916768"><ele>229.2</ele><time>2026-04-28T12:51:13.698Z</time></trkpt><trkpt lat="43.2247241" lon="12.3917918"><ele>228.4</ele><time>2026-04-28T12:51:14.697Z</time></trkpt><trkpt lat="43.2246616" lon="12.391881"><ele>227.60000000000002</ele><time>2026-04-28T12:51:15.697Z</time></trkpt><trkpt lat="43.2245735" lon="12.3919665"><ele>226.8</ele><time>2026-04-28T12:51:17.698Z</time></trkpt><trkpt lat="43.2244925" lon="12.3920135"><ele>226.0</ele><time>2026-04-28T12:51:19.698Z</time></trkpt><trkpt lat="43.2244247" lon="12.3920364"><ele>226.0</ele><time>2026-04-28T12:51:20.698Z</time></trkpt><trkpt lat="43.224352" lon="12.3920477"><ele>226.00000000000003</ele><time>2026-04-28T12:51:21.697Z</time></trkpt><trkpt lat="43.2242668" lon="12.3920554"><ele>226.00000000000003</ele><time>2026-04-28T12:51:22.698Z</time></trkpt><trkpt lat="43.2241715" lon="12.3920596"><ele>226.0</ele><time>2026-04-28T12:51:23.698Z</time></trkpt><trkpt lat="43.2240652" lon="12.3920571"><ele>226.0</ele><time>2026-04-28T12:51:24.698Z</time></trkpt><trkpt lat="43.2239523" lon="12.3920568"><ele>226.5</ele><time>2026-04-28T12:51:25.697Z</time></trkpt><trkpt lat="43.2238423" lon="12.3920666"><ele>227.0</ele><time>2026-04-28T12:51:26.698Z</time></trkpt><trkpt lat="43.2237357" lon="12.3920911"><ele>227.5</ele><time>2026-04-28T12:51:27.698Z</time></trkpt><trkpt lat="43.223624" lon="12.3921354"><ele>228.0</ele><time>2026-04-28T12:51:28.698Z</time></trkpt><trkpt lat="43.2235089" lon="12.392196"><ele>228.0</ele><time>2026-04-28T12:51:29.697Z</time></trkpt><trkpt lat="43.2233884" lon="12.3922718"><ele>228.0</ele><time>2026-04-28T12:51:30.697Z</time></trkpt><trkpt lat="43.2232641" lon="12.3923562"><ele>228.0</ele><time>2026-04-28T12:51:31.698Z</time></trkpt><trkpt lat="43.2231347" lon="12.3924491"><ele>228.0</ele><time>2026-04-28T12:51:32.697Z</time></trkpt><trkpt lat="43.2230044" lon="12.3925486"><ele>228.0</ele><time>2026-04-28T12:51:33.698Z</time></trkpt><trkpt lat="43.2228761" lon="12.3926505"><ele>228.0</ele><time>2026-04-28T12:51:34.698Z</time></trkpt><trkpt lat="43.2227467" lon="12.3927526"><ele>228.0</ele><time>2026-04-28T12:51:35.698Z</time></trkpt><trkpt lat="43.2226183" lon="12.3928515"><ele>228.0</ele><time>2026-04-28T12:51:36.697Z</time></trkpt><trkpt lat="43.2224905" lon="12.3929551"><ele>228.25</ele><time>2026-04-28T12:51:37.698Z</time></trkpt><trkpt lat="43.2223679" lon="12.3930704"><ele>228.5</ele><time>2026-04-28T12:51:38.698Z</time></trkpt><trkpt lat="43.2222523" lon="12.3931969"><ele>228.75</ele><time>2026-04-28T12:51:39.698Z</time></trkpt><trkpt lat="43.2221451" lon="12.3933383"><ele>229.0</ele><time>2026-04-28T12:51:40.697Z</time></trkpt><trkpt lat="43.2220391" lon="12.3934867"><ele>229.0</ele><time>2026-04-28T12:51:41.698Z</time></trkpt><trkpt lat="43.2219325" lon="12.3936378"><ele>229.0</ele><time>2026-04-28T12:51:42.697Z</time></trkpt><trkpt lat="43.2218256" lon="12.3937903"><ele>229.0</ele><time>2026-04-28T12:51:43.698Z</time></trkpt><trkpt lat="43.2217183" lon="12.393944"><ele>227.0</ele><time>2026-04-28T12:51:44.698Z</time></trkpt><trkpt lat="43.2216098" lon="12.3940983"><ele>225.0</ele><time>2026-04-28T12:51:45.697Z</time></trkpt><trkpt lat="43.2214981" lon="12.3942505"><ele>223.0</ele><time>2026-04-28T12:51:46.698Z</time></trkpt><trkpt lat="43.2213857" lon="12.3944008"><ele>224.25</ele><time>2026-04-28T12:51:47.698Z</time></trkpt><trkpt lat="43.2212763" lon="12.394548"><ele>225.5</ele><time>2026-04-28T12:51:48.697Z</time></trkpt><trkpt lat="43.2211708" lon="12.394692"><ele>226.75</ele><time>2026-04-28T12:51:49.697Z</time></trkpt><trkpt lat="43.2210698" lon="12.394833"><ele>228.0</ele><time>2026-04-28T12:51:50.698Z</time></trkpt><trkpt lat="43.2209684" lon="12.3949657"><ele>228.0</ele><time>2026-04-28T12:51:51.697Z</time></trkpt><trkpt lat="43.2208626" lon="12.3950905"><ele>228.0</ele><time>2026-04-28T12:51:52.698Z</time></trkpt><trkpt lat="43.2207493" lon="12.3952074"><ele>228.0</ele><time>2026-04-28T12:51:53.697Z</time></trkpt><trkpt lat="43.2206309" lon="12.395324"><ele>228.0</ele><time>2026-04-28T12:51:54.698Z</time></trkpt><trkpt lat="43.2205065" lon="12.3954406"><ele>228.25</ele><time>2026-04-28T12:51:55.698Z</time></trkpt><trkpt lat="43.2203802" lon="12.3955595"><ele>228.5</ele><time>2026-04-28T12:51:56.698Z</time></trkpt><trkpt lat="43.2202614" lon="12.3956736"><ele>228.75</ele><time>2026-04-28T12:51:57.698Z</time></trkpt><trkpt lat="43.2201517" lon="12.3957813"><ele>229.0</ele><time>2026-04-28T12:51:58.698Z</time></trkpt><trkpt lat="43.2200422" lon="12.3958892"><ele>229.0</ele><time>2026-04-28T12:51:59.697Z</time></trkpt><trkpt lat="43.2199255" lon="12.3959987"><ele>229.0</ele><time>2026-04-28T12:52:00.698Z</time></trkpt><trkpt lat="43.2198006" lon="12.396108"><ele>229.0</ele><time>2026-04-28T12:52:01.697Z</time></trkpt><trkpt lat="43.2196669" lon="12.3962187"><ele>229.0</ele><time>2026-04-28T12:52:02.698Z</time></trkpt><trkpt lat="43.2195282" lon="12.3963307"><ele>227.0</ele><time>2026-04-28T12:52:03.697Z</time></trkpt><trkpt lat="43.2193847" lon="12.3964433"><ele>225.0</ele><time>2026-04-28T12:52:04.698Z</time></trkpt><trkpt lat="43.2192359" lon="12.3965535"><ele>223.0</ele><time>2026-04-28T12:52:05.698Z</time></trkpt><trkpt lat="43.2190798" lon="12.3966623"><ele>226.33333333333331</ele><time>2026-04-28T12:52:06.697Z</time></trkpt><trkpt lat="43.2189211" lon="12.3967684"><ele>229.66666666666669</ele><time>2026-04-28T12:52:07.698Z</time></trkpt><trkpt lat="43.2187575" lon="12.396877"><ele>233.0</ele><time>2026-04-28T12:52:08.698Z</time></trkpt><trkpt lat="43.2185873" lon="12.3969927"><ele>233.0</ele><time>2026-04-28T12:52:09.697Z</time></trkpt><trkpt lat="43.2184209" lon="12.3971051"><ele>233.0</ele><time>2026-04-28T12:52:10.698Z</time></trkpt><trkpt lat="43.2182548" lon="12.3972185"><ele>233.0</ele><time>2026-04-28T12:52:11.697Z</time></trkpt><trkpt lat="43.2180873" lon="12.3973286"><ele>238.33333333333334</ele><time>2026-04-28T12:52:12.698Z</time></trkpt><trkpt lat="43.2179189" lon="12.3974348"><ele>243.66666666666669</ele><time>2026-04-28T12:52:13.697Z</time></trkpt><trkpt lat="43.2177527" lon="12.3975436"><ele>249.0</ele><time>2026-04-28T12:52:14.698Z</time></trkpt><trkpt lat="43.2175889" lon="12.3976426"><ele>249.0</ele><time>2026-04-28T12:52:15.697Z</time></trkpt><trkpt lat="43.2174216" lon="12.3977234"><ele>249.0</ele><time>2026-04-28T12:52:16.698Z</time></trkpt><trkpt lat="43.2172522" lon="12.3977899"><ele>249.0</ele><time>2026-04-28T12:52:17.698Z</time></trkpt><trkpt lat="43.217086" lon="12.3978427"><ele>252.66666666666669</ele><time>2026-04-28T12:52:18.698Z</time></trkpt><trkpt lat="43.2169204" lon="12.3978746"><ele>256.33333333333337</ele><time>2026-04-28T12:52:19.697Z</time></trkpt><trkpt lat="43.2167609" lon="12.3979038"><ele>260.0</ele><time>2026-04-28T12:52:20.698Z</time></trkpt><trkpt lat="43.2166078" lon="12.3979336"><ele>261.75</ele><time>2026-04-28T12:52:21.697Z</time></trkpt><trkpt lat="43.2164669" lon="12.3979655"><ele>263.5</ele><time>2026-04-28T12:52:22.697Z</time></trkpt><trkpt lat="43.2163273" lon="12.3980119"><ele>265.25</ele><time>2026-04-28T12:52:23.697Z</time></trkpt><trkpt lat="43.2161871" lon="12.3980813"><ele>267.0</ele><time>2026-04-28T12:52:24.697Z</time></trkpt><trkpt lat="43.2160477" lon="12.3981613"><ele>261.6666666666667</ele><time>2026-04-28T12:52:25.696Z</time></trkpt><trkpt lat="43.2159051" lon="12.3982465"><ele>256.33333333333337</ele><time>2026-04-28T12:52:26.697Z</time></trkpt><trkpt lat="43.2157645" lon="12.3983364"><ele>251.0</ele><time>2026-04-28T12:52:27.696Z</time></trkpt><trkpt lat="43.2156271" lon="12.3984252"><ele>251.0</ele><time>2026-04-28T12:52:28.697Z</time></trkpt><trkpt lat="43.2154942" lon="12.3985085"><ele>251.0</ele><time>2026-04-28T12:52:29.696Z</time></trkpt><trkpt lat="43.215368" lon="12.3985959"><ele>251.0</ele><time>2026-04-28T12:52:30.697Z</time></trkpt><trkpt lat="43.2152521" lon="12.398682"><ele>251.0</ele><time>2026-04-28T12:52:31.696Z</time></trkpt><trkpt lat="43.2151472" lon="12.3987707"><ele>249.20000000000002</ele><time>2026-04-28T12:52:32.695Z</time></trkpt><trkpt lat="43.2150512" lon="12.3988566"><ele>247.40000000000003</ele><time>2026-04-28T12:52:33.697Z</time></trkpt><trkpt lat="43.2149631" lon="12.3989395"><ele>245.6</ele><time>2026-04-28T12:52:34.696Z</time></trkpt><trkpt lat="43.2148734" lon="12.3990117"><ele>243.8</ele><time>2026-04-28T12:52:35.697Z</time></trkpt><trkpt lat="43.2147747" lon="12.3990714"><ele>242.0</ele><time>2026-04-28T12:52:36.697Z</time></trkpt><trkpt lat="43.2146634" lon="12.3991266"><ele>242.0</ele><time>2026-04-28T12:52:37.696Z</time></trkpt><trkpt lat="43.2145406" lon="12.3991764"><ele>242.0</ele><time>2026-04-28T12:52:38.697Z</time></trkpt><trkpt lat="43.2144098" lon="12.3992355"><ele>242.0</ele><time>2026-04-28T12:52:39.697Z</time></trkpt><trkpt lat="43.214279" lon="12.3992883"><ele>242.0</ele><time>2026-04-28T12:52:40.696Z</time></trkpt><trkpt lat="43.2141526" lon="12.3993348"><ele>242.0</ele><time>2026-04-28T12:52:41.696Z</time></trkpt><trkpt lat="43.2140319" lon="12.399385"><ele>242.0</ele><time>2026-04-28T12:52:42.697Z</time></trkpt><trkpt lat="43.2139178" lon="12.39944"><ele>242.0</ele><time>2026-04-28T12:52:43.696Z</time></trkpt><trkpt lat="43.2138122" lon="12.3995027"><ele>242.0</ele><time>2026-04-28T12:52:44.697Z</time></trkpt><trkpt lat="43.2137028" lon="12.3995943"><ele>238.0</ele><time>2026-04-28T12:52:45.697Z</time></trkpt><trkpt lat="43.2135948" lon="12.3997031"><ele>234.0</ele><time>2026-04-28T12:52:46.697Z</time></trkpt><trkpt lat="43.2134839" lon="12.3998408"><ele>230.0</ele><time>2026-04-28T12:52:47.697Z</time></trkpt><trkpt lat="43.2133695" lon="12.3999897"><ele>226.0</ele><time>2026-04-28T12:52:48.695Z</time></trkpt><trkpt lat="43.2132436" lon="12.4001428"><ele>227.33333333333331</ele><time>2026-04-28T12:52:49.696Z</time></trkpt><trkpt lat="43.2131086" lon="12.4002929"><ele>228.66666666666669</ele><time>2026-04-28T12:52:50.696Z</time></trkpt><trkpt lat="43.2129677" lon="12.4004383"><ele>230.0</ele><time>2026-04-28T12:52:51.697Z</time></trkpt><trkpt lat="43.2128239" lon="12.4005814"><ele>227.33333333333334</ele><time>2026-04-28T12:52:52.696Z</time></trkpt><trkpt lat="43.2126758" lon="12.4007287"><ele>224.66666666666669</ele><time>2026-04-28T12:52:53.695Z</time></trkpt><trkpt lat="43.2125004" lon="12.4009147"><ele>222.0</ele><time>2026-04-28T12:52:54.697Z</time></trkpt><trkpt lat="43.2122888" lon="12.4011242"><ele>220.5</ele><time>2026-04-28T12:52:55.697Z</time></trkpt><trkpt lat="43.2120464" lon="12.4013407"><ele>219.0</ele><time>2026-04-28T12:52:56.697Z</time></trkpt><trkpt lat="43.2117916" lon="12.4015764"><ele>219.0</ele><time>2026-04-28T12:52:57.697Z</time></trkpt><trkpt lat="43.2115232" lon="12.4018328"><ele>219.0</ele><time>2026-04-28T12:52:58.695Z</time></trkpt><trkpt lat="43.2112535" lon="12.402088"><ele>219.5</ele><time>2026-04-28T12:52:59.697Z</time></trkpt><trkpt lat="43.2110004" lon="12.4023285"><ele>220.0</ele><time>2026-04-28T12:53:00.696Z</time></trkpt><trkpt lat="43.2107614" lon="12.4025572"><ele>222.5</ele><time>2026-04-28T12:53:01.697Z</time></trkpt><trkpt lat="43.2105353" lon="12.4027706"><ele>225.0</ele><time>2026-04-28T12:53:02.697Z</time></trkpt><trkpt lat="43.210321" lon="12.40297"><ele>225.0</ele><time>2026-04-28T12:53:03.697Z</time></trkpt><trkpt lat="43.2101202" lon="12.403157"><ele>225.0</ele><time>2026-04-28T12:53:04.696Z</time></trkpt><trkpt lat="43.2099336" lon="12.4033375"><ele>225.66666666666669</ele><time>2026-04-28T12:53:05.696Z</time></trkpt><trkpt lat="43.2097599" lon="12.4035075"><ele>226.33333333333334</ele><time>2026-04-28T12:53:06.697Z</time></trkpt><trkpt lat="43.2095952" lon="12.4036661"><ele>227.0</ele><time>2026-04-28T12:53:07.697Z</time></trkpt><trkpt lat="43.2094401" lon="12.4038101"><ele>226.33333333333334</ele><time>2026-04-28T12:53:08.697Z</time></trkpt><trkpt lat="43.2092958" lon="12.4039399"><ele>225.66666666666669</ele><time>2026-04-28T12:53:09.697Z</time></trkpt><trkpt lat="43.2091658" lon="12.4040572"><ele>225.0</ele><time>2026-04-28T12:53:10.696Z</time></trkpt><trkpt lat="43.2090637" lon="12.4041752"><ele>225.0</ele><time>2026-04-28T12:53:11.697Z</time></trkpt><trkpt lat="43.2089968" lon="12.4042925"><ele>225.0</ele><time>2026-04-28T12:53:12.696Z</time></trkpt><trkpt lat="43.2089619" lon="12.404419"><ele>225.0</ele><time>2026-04-28T12:53:13.696Z</time></trkpt><trkpt lat="43.2089652" lon="12.4045421"><ele>225.0</ele><time>2026-04-28T12:53:14.697Z</time></trkpt><trkpt lat="43.208997" lon="12.4046699"><ele>225.0</ele><time>2026-04-28T12:53:15.696Z</time></trkpt><trkpt lat="43.2090472" lon="12.4048088"><ele>224.5</ele><time>2026-04-28T12:53:16.697Z</time></trkpt><trkpt lat="43.2091086" lon="12.4049584"><ele>224.0</ele><time>2026-04-28T12:53:17.696Z</time></trkpt><trkpt lat="43.209174" lon="12.4051265"><ele>223.5</ele><time>2026-04-28T12:53:18.697Z</time></trkpt><trkpt lat="43.2092358" lon="12.4053157"><ele>223.0</ele><time>2026-04-28T12:53:19.697Z</time></trkpt><trkpt lat="43.2092972" lon="12.4055216"><ele>223.0</ele><time>2026-04-28T12:53:20.696Z</time></trkpt><trkpt lat="43.209358" lon="12.4057291"><ele>223.0</ele><time>2026-04-28T12:53:21.697Z</time></trkpt><trkpt lat="43.2094206" lon="12.4059476"><ele>223.0</ele><time>2026-04-28T12:53:22.697Z</time></trkpt><trkpt lat="43.2094801" lon="12.4061705"><ele>223.0</ele><time>2026-04-28T12:53:23.697Z</time></trkpt><trkpt lat="43.2095393" lon="12.4063967"><ele>223.0</ele><time>2026-04-28T12:53:24.697Z</time></trkpt><trkpt lat="43.2095854" lon="12.4066255"><ele>223.0</ele><time>2026-04-28T12:53:25.696Z</time></trkpt><trkpt lat="43.2096269" lon="12.4068567"><ele>223.0</ele><time>2026-04-28T12:53:26.697Z</time></trkpt><trkpt lat="43.2096784" lon="12.4070876"><ele>223.0</ele><time>2026-04-28T12:53:27.697Z</time></trkpt><trkpt lat="43.2097533" lon="12.4073147"><ele>223.0</ele><time>2026-04-28T12:53:28.696Z</time></trkpt><trkpt lat="43.2098509" lon="12.4075295"><ele>220.66666666666666</ele><time>2026-04-28T12:53:29.697Z</time></trkpt><trkpt lat="43.209955" lon="12.4077416"><ele>218.33333333333331</ele><time>2026-04-28T12:53:30.697Z</time></trkpt><trkpt lat="43.2100585" lon="12.4079602"><ele>216.0</ele><time>2026-04-28T12:53:31.697Z</time></trkpt><trkpt lat="43.2101638" lon="12.4081804"><ele>214.66666666666669</ele><time>2026-04-28T12:53:32.697Z</time></trkpt><trkpt lat="43.2102718" lon="12.408402"><ele>213.33333333333334</ele><time>2026-04-28T12:53:33.697Z</time></trkpt><trkpt lat="43.2103785" lon="12.4086262"><ele>212.0</ele><time>2026-04-28T12:53:34.697Z</time></trkpt><trkpt lat="43.2104842" lon="12.4088517"><ele>212.0</ele><time>2026-04-28T12:53:35.697Z</time></trkpt><trkpt lat="43.210594" lon="12.4090772"><ele>212.0</ele><time>2026-04-28T12:53:36.697Z</time></trkpt><trkpt lat="43.2107034" lon="12.4093024"><ele>212.0</ele><time>2026-04-28T12:53:37.697Z</time></trkpt><trkpt lat="43.210814" lon="12.4095319"><ele>212.66666666666669</ele><time>2026-04-28T12:53:38.697Z</time></trkpt><trkpt lat="43.2109236" lon="12.4097582"><ele>213.33333333333331</ele><time>2026-04-28T12:53:39.697Z</time></trkpt><trkpt lat="43.2110336" lon="12.4099806"><ele>214.0</ele><time>2026-04-28T12:53:40.697Z</time></trkpt><trkpt lat="43.2111347" lon="12.4101873"><ele>214.0</ele><time>2026-04-28T12:53:41.696Z</time></trkpt><trkpt lat="43.2112304" lon="12.4103848"><ele>214.0</ele><time>2026-04-28T12:53:42.697Z</time></trkpt><trkpt lat="43.2113152" lon="12.4105687"><ele>214.0</ele><time>2026-04-28T12:53:43.695Z</time></trkpt><trkpt lat="43.2113961" lon="12.4107381"><ele>214.0</ele><time>2026-04-28T12:53:44.697Z</time></trkpt><trkpt lat="43.2114693" lon="12.4108985"><ele>214.0</ele><time>2026-04-28T12:53:45.696Z</time></trkpt><trkpt lat="43.2115425" lon="12.4110557"><ele>214.0</ele><time>2026-04-28T12:53:46.697Z</time></trkpt><trkpt lat="43.2116189" lon="12.4112134"><ele>214.0</ele><time>2026-04-28T12:53:47.696Z</time></trkpt><trkpt lat="43.2117004" lon="12.411377"><ele>213.33333333333331</ele><time>2026-04-28T12:53:48.696Z</time></trkpt><trkpt lat="43.2117834" lon="12.4115473"><ele>212.66666666666669</ele><time>2026-04-28T12:53:49.697Z</time></trkpt><trkpt lat="43.2118735" lon="12.4117313"><ele>212.0</ele><time>2026-04-28T12:53:50.697Z</time></trkpt><trkpt lat="43.2119624" lon="12.4119209"><ele>212.0</ele><time>2026-04-28T12:53:51.697Z</time></trkpt><trkpt lat="43.2120541" lon="12.4121095"><ele>212.0</ele><time>2026-04-28T12:53:52.697Z</time></trkpt><trkpt lat="43.2121409" lon="12.4122858"><ele>212.0</ele><time>2026-04-28T12:53:53.697Z</time></trkpt><trkpt lat="43.2122185" lon="12.4124511"><ele>212.6</ele><time>2026-04-28T12:53:54.696Z</time></trkpt><trkpt lat="43.2122841" lon="12.412605"><ele>213.2</ele><time>2026-04-28T12:53:55.697Z</time></trkpt><trkpt lat="43.2123467" lon="12.4127478"><ele>213.8</ele><time>2026-04-28T12:53:56.696Z</time></trkpt><trkpt lat="43.2123564" lon="12.4128717"><ele>214.4</ele><time>2026-04-28T12:53:57.697Z</time></trkpt><trkpt lat="43.2123793" lon="12.4129905"><ele>215.0</ele><time>2026-04-28T12:53:58.697Z</time></trkpt><trkpt lat="43.2123723" lon="12.4131006"><ele>215.0</ele><time>2026-04-28T12:53:59.697Z</time></trkpt><trkpt lat="43.2123414" lon="12.413209"><ele>215.0</ele><time>2026-04-28T12:54:00.697Z</time></trkpt><trkpt lat="43.2122848" lon="12.4133106"><ele>215.0</ele><time>2026-04-28T12:54:01.697Z</time></trkpt><trkpt lat="43.2122074" lon="12.4134094"><ele>215.0</ele><time>2026-04-28T12:54:02.697Z</time></trkpt><trkpt lat="43.2121159" lon="12.4135099"><ele>215.0</ele><time>2026-04-28T12:54:03.697Z</time></trkpt><trkpt lat="43.2120096" lon="12.4136144"><ele>215.0</ele><time>2026-04-28T12:54:04.696Z</time></trkpt><trkpt lat="43.2118943" lon="12.4137304"><ele>215.0</ele><time>2026-04-28T12:54:05.697Z</time></trkpt><trkpt lat="43.2117714" lon="12.4138539"><ele>215.0</ele><time>2026-04-28T12:54:06.697Z</time></trkpt><trkpt lat="43.2116465" lon="12.4139816"><ele>215.0</ele><time>2026-04-28T12:54:07.697Z</time></trkpt><trkpt lat="43.211517" lon="12.4141132"><ele>215.0</ele><time>2026-04-28T12:54:08.696Z</time></trkpt><trkpt lat="43.2113829" lon="12.4142478"><ele>215.0</ele><time>2026-04-28T12:54:09.697Z</time></trkpt><trkpt lat="43.2112493" lon="12.4143838"><ele>215.0</ele><time>2026-04-28T12:54:10.697Z</time></trkpt><trkpt lat="43.2111197" lon="12.414515"><ele>215.0</ele><time>2026-04-28T12:54:11.697Z</time></trkpt><trkpt lat="43.2110001" lon="12.4146359"><ele>215.0</ele><time>2026-04-28T12:54:12.697Z</time></trkpt><trkpt lat="43.2109" lon="12.4147473"><ele>215.0</ele><time>2026-04-28T12:54:13.696Z</time></trkpt><trkpt lat="43.2108221" lon="12.4148629"><ele>214.75</ele><time>2026-04-28T12:54:14.697Z</time></trkpt><trkpt lat="43.2107673" lon="12.4149895"><ele>214.5</ele><time>2026-04-28T12:54:15.696Z</time></trkpt><trkpt lat="43.2107367" lon="12.4151361"><ele>214.25</ele><time>2026-04-28T12:54:16.697Z</time></trkpt><trkpt lat="43.2107286" lon="12.4153027"><ele>214.0</ele><time>2026-04-28T12:54:17.697Z</time></trkpt><trkpt lat="43.210739" lon="12.4154832"><ele>213.66666666666666</ele><time>2026-04-28T12:54:18.697Z</time></trkpt><trkpt lat="43.2107674" lon="12.4156813"><ele>213.33333333333331</ele><time>2026-04-28T12:54:19.697Z</time></trkpt><trkpt lat="43.2107982" lon="12.4158898"><ele>213.0</ele><time>2026-04-28T12:54:20.696Z</time></trkpt><trkpt lat="43.2108207" lon="12.4160997"><ele>213.0</ele><time>2026-04-28T12:54:21.697Z</time></trkpt><trkpt lat="43.2108457" lon="12.4163101"><ele>213.0</ele><time>2026-04-28T12:54:22.696Z</time></trkpt><trkpt lat="43.2108766" lon="12.4165192"><ele>213.0</ele><time>2026-04-28T12:54:23.697Z</time></trkpt><trkpt lat="43.2109162" lon="12.4167212"><ele>213.5</ele><time>2026-04-28T12:54:24.697Z</time></trkpt><trkpt lat="43.2109606" lon="12.4169125"><ele>214.0</ele><time>2026-04-28T12:54:25.697Z</time></trkpt><trkpt lat="43.2109952" lon="12.4170846"><ele>214.5</ele><time>2026-04-28T12:54:26.697Z</time></trkpt><trkpt lat="43.2110282" lon="12.4172419"><ele>215.0</ele><time>2026-04-28T12:54:27.697Z</time></trkpt><trkpt lat="43.2110728" lon="12.4173867"><ele>215.0</ele><time>2026-04-28T12:54:28.696Z</time></trkpt><trkpt lat="43.2111382" lon="12.4175365"><ele>215.0</ele><time>2026-04-28T12:54:29.697Z</time></trkpt><trkpt lat="43.2112295" lon="12.4176723"><ele>215.0</ele><time>2026-04-28T12:54:30.697Z</time></trkpt><trkpt lat="43.211328" lon="12.4178089"><ele>215.0</ele><time>2026-04-28T12:54:31.696Z</time></trkpt><trkpt lat="43.211447" lon="12.4179544"><ele>215.0</ele><time>2026-04-28T12:54:32.697Z</time></trkpt><trkpt lat="43.211562" lon="12.4180985"><ele>215.0</ele><time>2026-04-28T12:54:33.697Z</time></trkpt><trkpt lat="43.2116826" lon="12.4182515"><ele>215.0</ele><time>2026-04-28T12:54:34.697Z</time></trkpt><trkpt lat="43.211804" lon="12.4184106"><ele>215.0</ele><time>2026-04-28T12:54:35.695Z</time></trkpt><trkpt lat="43.2119298" lon="12.4185737"><ele>215.0</ele><time>2026-04-28T12:54:36.697Z</time></trkpt><trkpt lat="43.2120575" lon="12.4187385"><ele>215.0</ele><time>2026-04-28T12:54:37.695Z</time></trkpt><trkpt lat="43.2121887" lon="12.4189056"><ele>215.66666666666669</ele><time>2026-04-28T12:54:38.697Z</time></trkpt><trkpt lat="43.2123106" lon="12.4190639"><ele>216.33333333333331</ele><time>2026-04-28T12:54:39.696Z</time></trkpt><trkpt lat="43.2124224" lon="12.4192121"><ele>217.0</ele><time>2026-04-28T12:54:40.697Z</time></trkpt><trkpt lat="43.2125278" lon="12.4193485"><ele>217.2</ele><time>2026-04-28T12:54:41.696Z</time></trkpt><trkpt lat="43.2126248" lon="12.4194743"><ele>217.39999999999998</ele><time>2026-04-28T12:54:42.697Z</time></trkpt><trkpt lat="43.2127115" lon="12.4195866"><ele>217.60000000000002</ele><time>2026-04-28T12:54:43.696Z</time></trkpt><trkpt lat="43.2127741" lon="12.4196817"><ele>217.8</ele><time>2026-04-28T12:54:44.697Z</time></trkpt><trkpt lat="43.2128086" lon="12.4197571"><ele>218.0</ele><time>2026-04-28T12:54:45.697Z</time></trkpt><trkpt lat="43.2128004" lon="12.419867"><ele>218.60000000000002</ele><time>2026-04-28T12:54:47.697Z</time></trkpt><trkpt lat="43.2127116" lon="12.4199341"><ele>219.20000000000002</ele><time>2026-04-28T12:54:49.697Z</time></trkpt><trkpt lat="43.2126357" lon="12.4199512"><ele>219.8</ele><time>2026-04-28T12:54:50.696Z</time></trkpt><trkpt lat="43.2125487" lon="12.4199665"><ele>220.4</ele><time>2026-04-28T12:54:51.696Z</time></trkpt><trkpt lat="43.2124521" lon="12.4199864"><ele>221.0</ele><time>2026-04-28T12:54:52.697Z</time></trkpt><trkpt lat="43.2123407" lon="12.4200116"><ele>220.5</ele><time>2026-04-28T12:54:53.696Z</time></trkpt><trkpt lat="43.2122182" lon="12.4200378"><ele>220.0</ele><time>2026-04-28T12:54:54.697Z</time></trkpt><trkpt lat="43.2120942" lon="12.420063"><ele>219.5</ele><time>2026-04-28T12:54:55.696Z</time></trkpt><trkpt lat="43.2119636" lon="12.4200906"><ele>219.0</ele><time>2026-04-28T12:54:56.697Z</time></trkpt><trkpt lat="43.2118249" lon="12.4201199"><ele>219.0</ele><time>2026-04-28T12:54:57.697Z</time></trkpt><trkpt lat="43.2116813" lon="12.4201471"><ele>219.0</ele><time>2026-04-28T12:54:58.697Z</time></trkpt><trkpt lat="43.2115291" lon="12.4201772"><ele>219.0</ele><time>2026-04-28T12:54:59.697Z</time></trkpt><trkpt lat="43.2113751" lon="12.420213"><ele>219.33333333333331</ele><time>2026-04-28T12:55:00.697Z</time></trkpt><trkpt lat="43.2112218" lon="12.4202528"><ele>219.66666666666666</ele><time>2026-04-28T12:55:01.697Z</time></trkpt><trkpt lat="43.2110678" lon="12.4203003"><ele>220.0</ele><time>2026-04-28T12:55:02.697Z</time></trkpt><trkpt lat="43.2109094" lon="12.4203571"><ele>220.0</ele><time>2026-04-28T12:55:03.697Z</time></trkpt><trkpt lat="43.210748" lon="12.420416"><ele>220.0</ele><time>2026-04-28T12:55:04.696Z</time></trkpt><trkpt lat="43.2105816" lon="12.4204799"><ele>220.0</ele><time>2026-04-28T12:55:05.697Z</time></trkpt><trkpt lat="43.2104134" lon="12.4205459"><ele>220.33333333333331</ele><time>2026-04-28T12:55:06.697Z</time></trkpt><trkpt lat="43.210246" lon="12.4206102"><ele>220.66666666666669</ele><time>2026-04-28T12:55:07.696Z</time></trkpt><trkpt lat="43.2100782" lon="12.4206717"><ele>221.0</ele><time>2026-04-28T12:55:08.697Z</time></trkpt><trkpt lat="43.2099076" lon="12.4207352"><ele>221.33333333333334</ele><time>2026-04-28T12:55:09.697Z</time></trkpt><trkpt lat="43.2097361" lon="12.420798"><ele>221.66666666666669</ele><time>2026-04-28T12:55:10.696Z</time></trkpt><trkpt lat="43.2095644" lon="12.4208647"><ele>222.0</ele><time>2026-04-28T12:55:11.696Z</time></trkpt><trkpt lat="43.2093909" lon="12.4209348"><ele>222.0</ele><time>2026-04-28T12:55:12.697Z</time></trkpt><trkpt lat="43.2092173" lon="12.4210035"><ele>222.0</ele><time>2026-04-28T12:55:13.696Z</time></trkpt><trkpt lat="43.209044" lon="12.4210807"><ele>222.0</ele><time>2026-04-28T12:55:14.697Z</time></trkpt><trkpt lat="43.2088735" lon="12.4211688"><ele>222.0</ele><time>2026-04-28T12:55:15.697Z</time></trkpt><trkpt lat="43.2087036" lon="12.4212705"><ele>222.0</ele><time>2026-04-28T12:55:16.697Z</time></trkpt><trkpt lat="43.2085366" lon="12.4213846"><ele>222.0</ele><time>2026-04-28T12:55:17.696Z</time></trkpt><trkpt lat="43.2083693" lon="12.4215064"><ele>221.33333333333331</ele><time>2026-04-28T12:55:18.697Z</time></trkpt><trkpt lat="43.208201" lon="12.4216291"><ele>220.66666666666666</ele><time>2026-04-28T12:55:19.697Z</time></trkpt><trkpt lat="43.2080306" lon="12.4217566"><ele>220.0</ele><time>2026-04-28T12:55:20.696Z</time></trkpt><trkpt lat="43.2078598" lon="12.4218854"><ele>220.0</ele><time>2026-04-28T12:55:21.696Z</time></trkpt><trkpt lat="43.2076907" lon="12.4220147"><ele>220.0</ele><time>2026-04-28T12:55:22.697Z</time></trkpt><trkpt lat="43.2075208" lon="12.4221459"><ele>220.0</ele><time>2026-04-28T12:55:23.697Z</time></trkpt><trkpt lat="43.2073488" lon="12.4222759"><ele>221.0</ele><time>2026-04-28T12:55:24.697Z</time></trkpt><trkpt lat="43.2071775" lon="12.4224061"><ele>222.0</ele><time>2026-04-28T12:55:25.697Z</time></trkpt><trkpt lat="43.2070083" lon="12.422534"><ele>223.0</ele><time>2026-04-28T12:55:26.696Z</time></trkpt><trkpt lat="43.2068393" lon="12.4226595"><ele>223.0</ele><time>2026-04-28T12:55:27.697Z</time></trkpt><trkpt lat="43.2066695" lon="12.4227788"><ele>223.0</ele><time>2026-04-28T12:55:28.697Z</time></trkpt><trkpt lat="43.2064967" lon="12.4228931"><ele>223.0</ele><time>2026-04-28T12:55:29.696Z</time></trkpt><trkpt lat="43.2063229" lon="12.4230004"><ele>223.0</ele><time>2026-04-28T12:55:30.697Z</time></trkpt><trkpt lat="43.2061469" lon="12.4231001"><ele>223.0</ele><time>2026-04-28T12:55:31.697Z</time></trkpt><trkpt lat="43.2059697" lon="12.4231931"><ele>223.0</ele><time>2026-04-28T12:55:32.696Z</time></trkpt><trkpt lat="43.2057905" lon="12.4232781"><ele>222.33333333333331</ele><time>2026-04-28T12:55:33.696Z</time></trkpt><trkpt lat="43.2056118" lon="12.4233567"><ele>221.66666666666669</ele><time>2026-04-28T12:55:34.697Z</time></trkpt><trkpt lat="43.2054334" lon="12.4234349"><ele>221.0</ele><time>2026-04-28T12:55:35.696Z</time></trkpt><trkpt lat="43.2052608" lon="12.423512"><ele>221.0</ele><time>2026-04-28T12:55:36.697Z</time></trkpt><trkpt lat="43.2050963" lon="12.4235886"><ele>221.0</ele><time>2026-04-28T12:55:37.697Z</time></trkpt><trkpt lat="43.2049345" lon="12.4236731"><ele>221.0</ele><time>2026-04-28T12:55:38.697Z</time></trkpt><trkpt lat="43.2047777" lon="12.423773"><ele>222.66666666666669</ele><time>2026-04-28T12:55:39.697Z</time></trkpt><trkpt lat="43.2046271" lon="12.423893"><ele>224.33333333333331</ele><time>2026-04-28T12:55:40.697Z</time></trkpt><trkpt lat="43.2044832" lon="12.4240334"><ele>226.0</ele><time>2026-04-28T12:55:41.697Z</time></trkpt><trkpt lat="43.2043443" lon="12.424186"><ele>226.0</ele><time>2026-04-28T12:55:42.695Z</time></trkpt><trkpt lat="43.2042057" lon="12.4243473"><ele>226.0</ele><time>2026-04-28T12:55:43.696Z</time></trkpt><trkpt lat="43.204069" lon="12.4245131"><ele>226.0</ele><time>2026-04-28T12:55:44.697Z</time></trkpt><trkpt lat="43.203935" lon="12.424684"><ele>225.66666666666666</ele><time>2026-04-28T12:55:45.696Z</time></trkpt><trkpt lat="43.2037993" lon="12.4248563"><ele>225.33333333333331</ele><time>2026-04-28T12:55:46.697Z</time></trkpt><trkpt lat="43.2036633" lon="12.4250297"><ele>225.0</ele><time>2026-04-28T12:55:47.697Z</time></trkpt><trkpt lat="43.2035288" lon="12.4252036"><ele>225.0</ele><time>2026-04-28T12:55:48.697Z</time></trkpt><trkpt lat="43.2033938" lon="12.4253755"><ele>225.0</ele><time>2026-04-28T12:55:49.696Z</time></trkpt><trkpt lat="43.2032591" lon="12.4255469"><ele>225.0</ele><time>2026-04-28T12:55:50.697Z</time></trkpt><trkpt lat="43.2031227" lon="12.4257203"><ele>225.0</ele><time>2026-04-28T12:55:51.697Z</time></trkpt><trkpt lat="43.2029877" lon="12.425891"><ele>225.0</ele><time>2026-04-28T12:55:52.697Z</time></trkpt><trkpt lat="43.202854" lon="12.4260597"><ele>225.0</ele><time>2026-04-28T12:55:53.697Z</time></trkpt><trkpt lat="43.2027197" lon="12.42623"><ele>225.0</ele><time>2026-04-28T12:55:54.697Z</time></trkpt><trkpt lat="43.202583" lon="12.4263946"><ele>225.0</ele><time>2026-04-28T12:55:55.696Z</time></trkpt><trkpt lat="43.2024437" lon="12.4265508"><ele>225.0</ele><time>2026-04-28T12:55:56.696Z</time></trkpt><trkpt lat="43.2022981" lon="12.4266989"><ele>225.0</ele><time>2026-04-28T12:55:57.696Z</time></trkpt><trkpt lat="43.2021492" lon="12.4268403"><ele>225.0</ele><time>2026-04-28T12:55:58.695Z</time></trkpt><trkpt lat="43.2019937" lon="12.4269691"><ele>225.0</ele><time>2026-04-28T12:55:59.695Z</time></trkpt><trkpt lat="43.2018329" lon="12.4270923"><ele>225.33333333333331</ele><time>2026-04-28T12:56:00.695Z</time></trkpt><trkpt lat="43.2016725" lon="12.4272118"><ele>225.66666666666666</ele><time>2026-04-28T12:56:01.695Z</time></trkpt><trkpt lat="43.2015143" lon="12.4273331"><ele>226.0</ele><time>2026-04-28T12:56:02.696Z</time></trkpt><trkpt lat="43.2013579" lon="12.4274537"><ele>225.33333333333331</ele><time>2026-04-28T12:56:03.695Z</time></trkpt><trkpt lat="43.2012088" lon="12.4275729"><ele>224.66666666666669</ele><time>2026-04-28T12:56:04.695Z</time></trkpt><trkpt lat="43.2010682" lon="12.4276848"><ele>224.0</ele><time>2026-04-28T12:56:05.696Z</time></trkpt><trkpt lat="43.20093" lon="12.4277946"><ele>224.0</ele><time>2026-04-28T12:56:06.696Z</time></trkpt><trkpt lat="43.2007989" lon="12.4278982"><ele>224.0</ele><time>2026-04-28T12:56:07.695Z</time></trkpt><trkpt lat="43.2006728" lon="12.4279891"><ele>224.0</ele><time>2026-04-28T12:56:08.695Z</time></trkpt><trkpt lat="43.2005477" lon="12.4280631"><ele>224.0</ele><time>2026-04-28T12:56:09.696Z</time></trkpt><trkpt lat="43.20042" lon="12.4281122"><ele>225.0</ele><time>2026-04-28T12:56:10.696Z</time></trkpt><trkpt lat="43.2002885" lon="12.4281364"><ele>226.0</ele><time>2026-04-28T12:56:11.695Z</time></trkpt><trkpt lat="43.2001507" lon="12.4281417"><ele>227.0</ele><time>2026-04-28T12:56:12.696Z</time></trkpt><trkpt lat="43.2000092" lon="12.4281359"><ele>228.0</ele><time>2026-04-28T12:56:13.696Z</time></trkpt><trkpt lat="43.1998643" lon="12.4281341"><ele>228.0</ele><time>2026-04-28T12:56:14.695Z</time></trkpt><trkpt lat="43.1997197" lon="12.4281344"><ele>228.0</ele><time>2026-04-28T12:56:15.696Z</time></trkpt><trkpt lat="43.1995833" lon="12.4281316"><ele>228.0</ele><time>2026-04-28T12:56:16.696Z</time></trkpt><trkpt lat="43.1994535" lon="12.4281335"><ele>228.0</ele><time>2026-04-28T12:56:17.695Z</time></trkpt><trkpt lat="43.1993323" lon="12.4281329"><ele>228.0</ele><time>2026-04-28T12:56:18.696Z</time></trkpt><trkpt lat="43.1992237" lon="12.4281274"><ele>228.0</ele><time>2026-04-28T12:56:19.696Z</time></trkpt><trkpt lat="43.1991235" lon="12.428126"><ele>228.0</ele><time>2026-04-28T12:56:20.695Z</time></trkpt><trkpt lat="43.1990317" lon="12.4281421"><ele>228.0</ele><time>2026-04-28T12:56:21.696Z</time></trkpt><trkpt lat="43.1989407" lon="12.4281767"><ele>228.0</ele><time>2026-04-28T12:56:22.696Z</time></trkpt><trkpt lat="43.1988506" lon="12.4282327"><ele>227.25</ele><time>2026-04-28T12:56:23.696Z</time></trkpt><trkpt lat="43.1987591" lon="12.4282997"><ele>226.5</ele><time>2026-04-28T12:56:24.695Z</time></trkpt><trkpt lat="43.1986646" lon="12.4283787"><ele>225.75</ele><time>2026-04-28T12:56:25.696Z</time></trkpt><trkpt lat="43.1985675" lon="12.4284655"><ele>225.0</ele><time>2026-04-28T12:56:26.695Z</time></trkpt><trkpt lat="43.198468" lon="12.4285586"><ele>225.0</ele><time>2026-04-28T12:56:27.696Z</time></trkpt><trkpt lat="43.1983676" lon="12.42866"><ele>225.0</ele><time>2026-04-28T12:56:28.695Z</time></trkpt><trkpt lat="43.1982623" lon="12.4287685"><ele>225.0</ele><time>2026-04-28T12:56:29.696Z</time></trkpt><trkpt lat="43.198154" lon="12.428887"><ele>225.0</ele><time>2026-04-28T12:56:30.696Z</time></trkpt><trkpt lat="43.198044" lon="12.4290148"><ele>225.33333333333331</ele><time>2026-04-28T12:56:31.695Z</time></trkpt><trkpt lat="43.1979302" lon="12.4291474"><ele>225.66666666666666</ele><time>2026-04-28T12:56:32.696Z</time></trkpt><trkpt lat="43.1978115" lon="12.4292808"><ele>226.0</ele><time>2026-04-28T12:56:33.695Z</time></trkpt><trkpt lat="43.1976868" lon="12.4294197"><ele>226.0</ele><time>2026-04-28T12:56:34.696Z</time></trkpt><trkpt lat="43.1975598" lon="12.4295626"><ele>226.0</ele><time>2026-04-28T12:56:35.695Z</time></trkpt><trkpt lat="43.1974352" lon="12.4297092"><ele>226.0</ele><time>2026-04-28T12:56:36.696Z</time></trkpt><trkpt lat="43.1973085" lon="12.4298586"><ele>227.66666666666666</ele><time>2026-04-28T12:56:37.695Z</time></trkpt><trkpt lat="43.1971799" lon="12.4300064"><ele>229.33333333333331</ele><time>2026-04-28T12:56:38.696Z</time></trkpt><trkpt lat="43.1970497" lon="12.4301558"><ele>231.0</ele><time>2026-04-28T12:56:39.696Z</time></trkpt><trkpt lat="43.19692" lon="12.4303051"><ele>231.0</ele><time>2026-04-28T12:56:40.695Z</time></trkpt><trkpt lat="43.1967895" lon="12.4304564"><ele>231.0</ele><time>2026-04-28T12:56:41.696Z</time></trkpt><trkpt lat="43.1966583" lon="12.4306074"><ele>231.0</ele><time>2026-04-28T12:56:42.696Z</time></trkpt><trkpt lat="43.1965276" lon="12.4307577"><ele>232.33333333333331</ele><time>2026-04-28T12:56:43.695Z</time></trkpt><trkpt lat="43.1963967" lon="12.4309032"><ele>233.66666666666666</ele><time>2026-04-28T12:56:44.696Z</time></trkpt><trkpt lat="43.1962645" lon="12.4310429"><ele>235.0</ele><time>2026-04-28T12:56:45.695Z</time></trkpt><trkpt lat="43.19613" lon="12.431178"><ele>235.66666666666666</ele><time>2026-04-28T12:56:46.696Z</time></trkpt><trkpt lat="43.1959922" lon="12.4313076"><ele>236.33333333333331</ele><time>2026-04-28T12:56:47.696Z</time></trkpt><trkpt lat="43.1958522" lon="12.4314368"><ele>237.0</ele><time>2026-04-28T12:56:48.695Z</time></trkpt><trkpt lat="43.1957147" lon="12.4315631"><ele>236.33333333333331</ele><time>2026-04-28T12:56:49.696Z</time></trkpt><trkpt lat="43.1955776" lon="12.431692"><ele>235.66666666666666</ele><time>2026-04-28T12:56:50.696Z</time></trkpt><trkpt lat="43.1954411" lon="12.431822"><ele>235.0</ele><time>2026-04-28T12:56:51.696Z</time></trkpt><trkpt lat="43.1953022" lon="12.4319518"><ele>235.0</ele><time>2026-04-28T12:56:52.695Z</time></trkpt><trkpt lat="43.1951623" lon="12.4320795"><ele>235.0</ele><time>2026-04-28T12:56:53.696Z</time></trkpt><trkpt lat="43.1950208" lon="12.4321986"><ele>235.0</ele><time>2026-04-28T12:56:54.696Z</time></trkpt><trkpt lat="43.1948767" lon="12.4323086"><ele>235.0</ele><time>2026-04-28T12:56:55.695Z</time></trkpt><trkpt lat="43.1947296" lon="12.4324143"><ele>235.0</ele><time>2026-04-28T12:56:56.696Z</time></trkpt><trkpt lat="43.1945803" lon="12.4325155"><ele>235.0</ele><time>2026-04-28T12:56:57.696Z</time></trkpt><trkpt lat="43.194433" lon="12.432618"><ele>235.0</ele><time>2026-04-28T12:56:58.696Z</time></trkpt><trkpt lat="43.1942857" lon="12.4327182"><ele>235.0</ele><time>2026-04-28T12:56:59.695Z</time></trkpt><trkpt lat="43.1941431" lon="12.4328109"><ele>235.0</ele><time>2026-04-28T12:57:00.696Z</time></trkpt><trkpt lat="43.194006" lon="12.4329013"><ele>234.75</ele><time>2026-04-28T12:57:01.696Z</time></trkpt><trkpt lat="43.1938795" lon="12.4329844"><ele>234.5</ele><time>2026-04-28T12:57:02.696Z</time></trkpt><trkpt lat="43.1937587" lon="12.4330614"><ele>234.25</ele><time>2026-04-28T12:57:03.695Z</time></trkpt><trkpt lat="43.1936417" lon="12.4331353"><ele>234.0</ele><time>2026-04-28T12:57:04.696Z</time></trkpt><trkpt lat="43.1935212" lon="12.4332149"><ele>234.0</ele><time>2026-04-28T12:57:05.696Z</time></trkpt><trkpt lat="43.1933986" lon="12.4333006"><ele>234.0</ele><time>2026-04-28T12:57:06.696Z</time></trkpt><trkpt lat="43.1932726" lon="12.433392"><ele>234.0</ele><time>2026-04-28T12:57:07.696Z</time></trkpt><trkpt lat="43.1931506" lon="12.4334999"><ele>234.0</ele><time>2026-04-28T12:57:08.696Z</time></trkpt><trkpt lat="43.1930372" lon="12.4336315"><ele>233.33333333333331</ele><time>2026-04-28T12:57:09.696Z</time></trkpt><trkpt lat="43.1929403" lon="12.4337899"><ele>232.66666666666666</ele><time>2026-04-28T12:57:10.696Z</time></trkpt><trkpt lat="43.1928585" lon="12.4339731"><ele>232.0</ele><time>2026-04-28T12:57:11.695Z</time></trkpt><trkpt lat="43.1927909" lon="12.434172"><ele>232.0</ele><time>2026-04-28T12:57:12.696Z</time></trkpt><trkpt lat="43.1927298" lon="12.4343818"><ele>232.0</ele><time>2026-04-28T12:57:13.696Z</time></trkpt><trkpt lat="43.1926671" lon="12.4345913"><ele>232.0</ele><time>2026-04-28T12:57:14.694Z</time></trkpt><trkpt lat="43.192603" lon="12.4348041"><ele>232.0</ele><time>2026-04-28T12:57:15.696Z</time></trkpt><trkpt lat="43.1925389" lon="12.4350206"><ele>232.0</ele><time>2026-04-28T12:57:16.696Z</time></trkpt><trkpt lat="43.1924742" lon="12.4352394"><ele>232.0</ele><time>2026-04-28T12:57:17.696Z</time></trkpt><trkpt lat="43.1924107" lon="12.4354611"><ele>232.0</ele><time>2026-04-28T12:57:18.695Z</time></trkpt><trkpt lat="43.1923489" lon="12.4356821"><ele>232.0</ele><time>2026-04-28T12:57:19.696Z</time></trkpt><trkpt lat="43.1922849" lon="12.4359026"><ele>232.0</ele><time>2026-04-28T12:57:20.696Z</time></trkpt><trkpt lat="43.1922202" lon="12.4361242"><ele>232.66666666666666</ele><time>2026-04-28T12:57:21.696Z</time></trkpt><trkpt lat="43.1921545" lon="12.4363474"><ele>233.33333333333331</ele><time>2026-04-28T12:57:22.695Z</time></trkpt><trkpt lat="43.1920896" lon="12.4365688"><ele>234.0</ele><time>2026-04-28T12:57:23.695Z</time></trkpt><trkpt lat="43.1920239" lon="12.4367881"><ele>234.0</ele><time>2026-04-28T12:57:24.696Z</time></trkpt><trkpt lat="43.1919566" lon="12.4370079"><ele>234.0</ele><time>2026-04-28T12:57:25.696Z</time></trkpt><trkpt lat="43.1918865" lon="12.4372269"><ele>234.0</ele><time>2026-04-28T12:57:26.695Z</time></trkpt><trkpt lat="43.1918124" lon="12.437443"><ele>235.33333333333331</ele><time>2026-04-28T12:57:27.696Z</time></trkpt><trkpt lat="43.1917336" lon="12.4376593"><ele>236.66666666666666</ele><time>2026-04-28T12:57:28.695Z</time></trkpt><trkpt lat="43.1916518" lon="12.437876"><ele>238.0</ele><time>2026-04-28T12:57:29.696Z</time></trkpt><trkpt lat="43.1915663" lon="12.4380924"><ele>236.66666666666666</ele><time>2026-04-28T12:57:30.696Z</time></trkpt><trkpt lat="43.1914806" lon="12.4383067"><ele>235.33333333333331</ele><time>2026-04-28T12:57:31.696Z</time></trkpt><trkpt lat="43.1913906" lon="12.4385255"><ele>234.0</ele><time>2026-04-28T12:57:32.695Z</time></trkpt><trkpt lat="43.1913001" lon="12.4387465"><ele>233.66666666666669</ele><time>2026-04-28T12:57:33.696Z</time></trkpt><trkpt lat="43.1912086" lon="12.438969"><ele>233.33333333333334</ele><time>2026-04-28T12:57:34.695Z</time></trkpt><trkpt lat="43.1911153" lon="12.4391969"><ele>233.0</ele><time>2026-04-28T12:57:35.696Z</time></trkpt><trkpt lat="43.1910221" lon="12.4394296"><ele>233.66666666666669</ele><time>2026-04-28T12:57:36.696Z</time></trkpt><trkpt lat="43.1909281" lon="12.4396646"><ele>234.33333333333331</ele><time>2026-04-28T12:57:37.696Z</time></trkpt><trkpt lat="43.1908327" lon="12.4399013"><ele>235.0</ele><time>2026-04-28T12:57:38.695Z</time></trkpt><trkpt lat="43.1907378" lon="12.4401413"><ele>234.0</ele><time>2026-04-28T12:57:39.696Z</time></trkpt><trkpt lat="43.1906436" lon="12.440381"><ele>233.0</ele><time>2026-04-28T12:57:40.696Z</time></trkpt><trkpt lat="43.1905549" lon="12.4406229"><ele>232.0</ele><time>2026-04-28T12:57:41.696Z</time></trkpt><trkpt lat="43.190476" lon="12.4408694"><ele>232.0</ele><time>2026-04-28T12:57:42.695Z</time></trkpt><trkpt lat="43.1904045" lon="12.4411152"><ele>232.0</ele><time>2026-04-28T12:57:43.696Z</time></trkpt><trkpt lat="43.1903376" lon="12.4413595"><ele>232.0</ele><time>2026-04-28T12:57:44.696Z</time></trkpt><trkpt lat="43.1902738" lon="12.4416028"><ele>231.66666666666666</ele><time>2026-04-28T12:57:45.696Z</time></trkpt><trkpt lat="43.190214" lon="12.4418492"><ele>231.33333333333331</ele><time>2026-04-28T12:57:46.695Z</time></trkpt><trkpt lat="43.1901623" lon="12.4421004"><ele>231.0</ele><time>2026-04-28T12:57:47.696Z</time></trkpt><trkpt lat="43.190127" lon="12.442358"><ele>231.66666666666669</ele><time>2026-04-28T12:57:48.696Z</time></trkpt><trkpt lat="43.1901052" lon="12.4426156"><ele>232.33333333333334</ele><time>2026-04-28T12:57:49.695Z</time></trkpt><trkpt lat="43.1900845" lon="12.4428736"><ele>233.0</ele><time>2026-04-28T12:57:50.695Z</time></trkpt><trkpt lat="43.1900589" lon="12.4431289"><ele>233.66666666666669</ele><time>2026-04-28T12:57:51.696Z</time></trkpt><trkpt lat="43.190024" lon="12.4433815"><ele>234.33333333333331</ele><time>2026-04-28T12:57:52.696Z</time></trkpt><trkpt lat="43.1899817" lon="12.4436317"><ele>235.0</ele><time>2026-04-28T12:57:53.695Z</time></trkpt><trkpt lat="43.1899348" lon="12.4438809"><ele>235.33333333333331</ele><time>2026-04-28T12:57:54.695Z</time></trkpt><trkpt lat="43.189888" lon="12.4441316"><ele>235.66666666666669</ele><time>2026-04-28T12:57:55.696Z</time></trkpt><trkpt lat="43.1898434" lon="12.4443817"><ele>236.0</ele><time>2026-04-28T12:57:56.696Z</time></trkpt><trkpt lat="43.1897968" lon="12.4446362"><ele>235.0</ele><time>2026-04-28T12:57:57.695Z</time></trkpt><trkpt lat="43.1897509" lon="12.444891"><ele>234.0</ele><time>2026-04-28T12:57:58.696Z</time></trkpt><trkpt lat="43.1897049" lon="12.4451447"><ele>233.0</ele><time>2026-04-28T12:57:59.696Z</time></trkpt><trkpt lat="43.1896601" lon="12.4453974"><ele>233.66666666666669</ele><time>2026-04-28T12:58:00.696Z</time></trkpt><trkpt lat="43.1896147" lon="12.4456457"><ele>234.33333333333331</ele><time>2026-04-28T12:58:01.695Z</time></trkpt><trkpt lat="43.1895685" lon="12.4458915"><ele>235.0</ele><time>2026-04-28T12:58:02.695Z</time></trkpt><trkpt lat="43.189525" lon="12.4461332"><ele>235.66666666666666</ele><time>2026-04-28T12:58:03.696Z</time></trkpt><trkpt lat="43.1894802" lon="12.446373"><ele>236.33333333333331</ele><time>2026-04-28T12:58:04.695Z</time></trkpt><trkpt lat="43.1894327" lon="12.4466134"><ele>237.0</ele><time>2026-04-28T12:58:05.696Z</time></trkpt><trkpt lat="43.1893805" lon="12.446854"><ele>237.0</ele><time>2026-04-28T12:58:06.695Z</time></trkpt><trkpt lat="43.1893229" lon="12.4470892"><ele>237.0</ele><time>2026-04-28T12:58:07.696Z</time></trkpt><trkpt lat="43.1892626" lon="12.4473237"><ele>237.0</ele><time>2026-04-28T12:58:08.696Z</time></trkpt><trkpt lat="43.1892013" lon="12.4475616"><ele>238.0</ele><time>2026-04-28T12:58:09.695Z</time></trkpt><trkpt lat="43.1891407" lon="12.4477967"><ele>239.0</ele><time>2026-04-28T12:58:10.696Z</time></trkpt><trkpt lat="43.1890797" lon="12.4480363"><ele>240.0</ele><time>2026-04-28T12:58:11.696Z</time></trkpt><trkpt lat="43.189017" lon="12.4482788"><ele>240.0</ele><time>2026-04-28T12:58:12.695Z</time></trkpt><trkpt lat="43.1889521" lon="12.4485215"><ele>240.0</ele><time>2026-04-28T12:58:13.696Z</time></trkpt><trkpt lat="43.1888831" lon="12.4487588"><ele>240.0</ele><time>2026-04-28T12:58:14.696Z</time></trkpt><trkpt lat="43.1888069" lon="12.4489898"><ele>240.0</ele><time>2026-04-28T12:58:15.696Z</time></trkpt><trkpt lat="43.1887165" lon="12.4492111"><ele>240.0</ele><time>2026-04-28T12:58:16.696Z</time></trkpt><trkpt lat="43.1886129" lon="12.4494196"><ele>240.0</ele><time>2026-04-28T12:58:17.695Z</time></trkpt><trkpt lat="43.1885035" lon="12.4496215"><ele>240.66666666666669</ele><time>2026-04-28T12:58:18.696Z</time></trkpt><trkpt lat="43.1883939" lon="12.4498213"><ele>241.33333333333334</ele><time>2026-04-28T12:58:19.696Z</time></trkpt><trkpt lat="43.1882858" lon="12.4500092"><ele>242.0</ele><time>2026-04-28T12:58:20.695Z</time></trkpt><trkpt lat="43.1881865" lon="12.4501914"><ele>242.0</ele><time>2026-04-28T12:58:21.696Z</time></trkpt><trkpt lat="43.188093" lon="12.4503664"><ele>242.0</ele><time>2026-04-28T12:58:22.696Z</time></trkpt><trkpt lat="43.1880033" lon="12.4505345"><ele>242.0</ele><time>2026-04-28T12:58:23.696Z</time></trkpt><trkpt lat="43.1879141" lon="12.4506918"><ele>242.0</ele><time>2026-04-28T12:58:24.696Z</time></trkpt><trkpt lat="43.1878291" lon="12.450842"><ele>242.0</ele><time>2026-04-28T12:58:25.694Z</time></trkpt><trkpt lat="43.1877492" lon="12.4509829"><ele>242.0</ele><time>2026-04-28T12:58:26.696Z</time></trkpt><trkpt lat="43.1876775" lon="12.4511129"><ele>242.0</ele><time>2026-04-28T12:58:27.696Z</time></trkpt><trkpt lat="43.1876048" lon="12.4512363"><ele>242.5</ele><time>2026-04-28T12:58:28.695Z</time></trkpt><trkpt lat="43.1875253" lon="12.451342"><ele>243.0</ele><time>2026-04-28T12:58:29.695Z</time></trkpt><trkpt lat="43.1874405" lon="12.4514366"><ele>243.5</ele><time>2026-04-28T12:58:30.696Z</time></trkpt><trkpt lat="43.1873437" lon="12.451516"><ele>244.0</ele><time>2026-04-28T12:58:31.695Z</time></trkpt><trkpt lat="43.1872379" lon="12.4515881"><ele>242.5</ele><time>2026-04-28T12:58:32.696Z</time></trkpt><trkpt lat="43.1871263" lon="12.451662"><ele>241.0</ele><time>2026-04-28T12:58:33.696Z</time></trkpt><trkpt lat="43.1870049" lon="12.4517352"><ele>239.5</ele><time>2026-04-28T12:58:34.695Z</time></trkpt><trkpt lat="43.1868822" lon="12.4518149"><ele>238.0</ele><time>2026-04-28T12:58:35.696Z</time></trkpt><trkpt lat="43.1867486" lon="12.4518922"><ele>238.0</ele><time>2026-04-28T12:58:36.696Z</time></trkpt><trkpt lat="43.186609" lon="12.4519753"><ele>238.0</ele><time>2026-04-28T12:58:37.696Z</time></trkpt><trkpt lat="43.1864609" lon="12.4520522"><ele>238.0</ele><time>2026-04-28T12:58:38.696Z</time></trkpt><trkpt lat="43.18631" lon="12.4521339"><ele>237.0</ele><time>2026-04-28T12:58:39.696Z</time></trkpt><trkpt lat="43.1861582" lon="12.4522132"><ele>236.0</ele><time>2026-04-28T12:58:40.696Z</time></trkpt><trkpt lat="43.1860063" lon="12.4522956"><ele>235.0</ele><time>2026-04-28T12:58:41.696Z</time></trkpt><trkpt lat="43.1858499" lon="12.4523825"><ele>235.0</ele><time>2026-04-28T12:58:42.695Z</time></trkpt><trkpt lat="43.185696" lon="12.4524702"><ele>235.0</ele><time>2026-04-28T12:58:43.696Z</time></trkpt><trkpt lat="43.1855448" lon="12.4525562"><ele>235.0</ele><time>2026-04-28T12:58:44.696Z</time></trkpt><trkpt lat="43.1853916" lon="12.4526466"><ele>234.33333333333331</ele><time>2026-04-28T12:58:45.695Z</time></trkpt><trkpt lat="43.1852508" lon="12.45275"><ele>233.66666666666669</ele><time>2026-04-28T12:58:46.696Z</time></trkpt><trkpt lat="43.1851225" lon="12.4528676"><ele>233.0</ele><time>2026-04-28T12:58:47.696Z</time></trkpt><trkpt lat="43.1850212" lon="12.4529915"><ele>233.0</ele><time>2026-04-28T12:58:48.695Z</time></trkpt><trkpt lat="43.1849313" lon="12.4531242"><ele>233.0</ele><time>2026-04-28T12:58:49.695Z</time></trkpt><trkpt lat="43.1848422" lon="12.4532662"><ele>233.0</ele><time>2026-04-28T12:58:50.696Z</time></trkpt><trkpt lat="43.1847526" lon="12.4534166"><ele>233.0</ele><time>2026-04-28T12:58:51.696Z</time></trkpt><trkpt lat="43.1846586" lon="12.4535736"><ele>231.66666666666669</ele><time>2026-04-28T12:58:52.695Z</time></trkpt><trkpt lat="43.1845606" lon="12.453734"><ele>230.33333333333331</ele><time>2026-04-28T12:58:53.696Z</time></trkpt><trkpt lat="43.1844619" lon="12.4538985"><ele>229.0</ele><time>2026-04-28T12:58:54.696Z</time></trkpt><trkpt lat="43.1843586" lon="12.4540686"><ele>229.0</ele><time>2026-04-28T12:58:55.695Z</time></trkpt><trkpt lat="43.1842525" lon="12.4542422"><ele>229.0</ele><time>2026-04-28T12:58:56.696Z</time></trkpt><trkpt lat="43.1841455" lon="12.4544188"><ele>229.0</ele><time>2026-04-28T12:58:57.695Z</time></trkpt><trkpt lat="43.1840389" lon="12.454599"><ele>227.33333333333331</ele><time>2026-04-28T12:58:58.695Z</time></trkpt><trkpt lat="43.1839304" lon="12.4547811"><ele>225.66666666666669</ele><time>2026-04-28T12:58:59.696Z</time></trkpt><trkpt lat="43.1838184" lon="12.4549651"><ele>224.0</ele><time>2026-04-28T12:59:00.696Z</time></trkpt><trkpt lat="43.1837" lon="12.455146"><ele>224.0</ele><time>2026-04-28T12:59:01.695Z</time></trkpt><trkpt lat="43.1835748" lon="12.4553205"><ele>224.0</ele><time>2026-04-28T12:59:02.696Z</time></trkpt><trkpt lat="43.1834408" lon="12.4554862"><ele>224.0</ele><time>2026-04-28T12:59:03.696Z</time></trkpt><trkpt lat="43.1833005" lon="12.4556398"><ele>224.66666666666669</ele><time>2026-04-28T12:59:04.696Z</time></trkpt><trkpt lat="43.1831545" lon="12.4557896"><ele>225.33333333333331</ele><time>2026-04-28T12:59:05.695Z</time></trkpt><trkpt lat="43.1830063" lon="12.4559363"><ele>226.0</ele><time>2026-04-28T12:59:06.696Z</time></trkpt><trkpt lat="43.1828581" lon="12.4560842"><ele>226.0</ele><time>2026-04-28T12:59:07.696Z</time></trkpt><trkpt lat="43.1827101" lon="12.4562329"><ele>226.0</ele><time>2026-04-28T12:59:08.696Z</time></trkpt><trkpt lat="43.1825629" lon="12.4563795"><ele>226.0</ele><time>2026-04-28T12:59:09.696Z</time></trkpt><trkpt lat="43.1824149" lon="12.456525"><ele>227.66666666666666</ele><time>2026-04-28T12:59:10.696Z</time></trkpt><trkpt lat="43.1822647" lon="12.4566621"><ele>229.33333333333331</ele><time>2026-04-28T12:59:11.695Z</time></trkpt><trkpt lat="43.1821078" lon="12.4567862"><ele>231.0</ele><time>2026-04-28T12:59:12.696Z</time></trkpt><trkpt lat="43.181943" lon="12.4568947"><ele>231.0</ele><time>2026-04-28T12:59:13.695Z</time></trkpt><trkpt lat="43.1817723" lon="12.4569889"><ele>231.0</ele><time>2026-04-28T12:59:14.696Z</time></trkpt><trkpt lat="43.1815999" lon="12.4570786"><ele>231.0</ele><time>2026-04-28T12:59:15.695Z</time></trkpt><trkpt lat="43.1814306" lon="12.4571658"><ele>233.33333333333331</ele><time>2026-04-28T12:59:16.696Z</time></trkpt><trkpt lat="43.1812629" lon="12.4572575"><ele>235.66666666666666</ele><time>2026-04-28T12:59:17.695Z</time></trkpt><trkpt lat="43.1810951" lon="12.4573501"><ele>238.0</ele><time>2026-04-28T12:59:18.694Z</time></trkpt><trkpt lat="43.1809289" lon="12.4574426"><ele>238.0</ele><time>2026-04-28T12:59:19.695Z</time></trkpt><trkpt lat="43.1807661" lon="12.4575362"><ele>238.0</ele><time>2026-04-28T12:59:20.695Z</time></trkpt><trkpt lat="43.1806075" lon="12.4576315"><ele>238.0</ele><time>2026-04-28T12:59:21.695Z</time></trkpt><trkpt lat="43.180455" lon="12.4577218"><ele>237.33333333333331</ele><time>2026-04-28T12:59:22.695Z</time></trkpt><trkpt lat="43.1803091" lon="12.4578073"><ele>236.66666666666669</ele><time>2026-04-28T12:59:23.695Z</time></trkpt><trkpt lat="43.1801694" lon="12.4578917"><ele>236.0</ele><time>2026-04-28T12:59:24.695Z</time></trkpt><trkpt lat="43.1800362" lon="12.4579721"><ele>235.0</ele><time>2026-04-28T12:59:25.695Z</time></trkpt><trkpt lat="43.1799086" lon="12.4580514"><ele>234.0</ele><time>2026-04-28T12:59:26.694Z</time></trkpt><trkpt lat="43.1797833" lon="12.4581215"><ele>233.0</ele><time>2026-04-28T12:59:27.695Z</time></trkpt><trkpt lat="43.1796622" lon="12.4581821"><ele>232.0</ele><time>2026-04-28T12:59:28.695Z</time></trkpt><trkpt lat="43.1795566" lon="12.4582365"><ele>231.83333333333331</ele><time>2026-04-28T12:59:29.695Z</time></trkpt><trkpt lat="43.1794692" lon="12.4582804"><ele>231.66666666666666</ele><time>2026-04-28T12:59:30.695Z</time></trkpt><trkpt lat="43.1794" lon="12.4583166"><ele>231.5</ele><time>2026-04-28T12:59:31.694Z</time></trkpt><trkpt lat="43.1793218" lon="12.4584016"><ele>231.33333333333331</ele><time>2026-04-28T12:59:33.694Z</time></trkpt><trkpt lat="43.1793433" lon="12.4585317"><ele>231.16666666666666</ele><time>2026-04-28T12:59:35.695Z</time></trkpt><trkpt lat="43.1793837" lon="12.4586128"><ele>231.0</ele><time>2026-04-28T12:59:36.695Z</time></trkpt><trkpt lat="43.1794309" lon="12.4587117"><ele>230.8</ele><time>2026-04-28T12:59:37.695Z</time></trkpt><trkpt lat="43.1794867" lon="12.4588284"><ele>230.60000000000002</ele><time>2026-04-28T12:59:38.694Z</time></trkpt><trkpt lat="43.1795446" lon="12.4589536"><ele>230.4</ele><time>2026-04-28T12:59:39.695Z</time></trkpt><trkpt lat="43.1796067" lon="12.459084"><ele>230.2</ele><time>2026-04-28T12:59:40.695Z</time></trkpt><trkpt lat="43.1796702" lon="12.4592259"><ele>230.0</ele><time>2026-04-28T12:59:41.694Z</time></trkpt><trkpt lat="43.1797386" lon="12.4593793"><ele>230.0</ele><time>2026-04-28T12:59:42.695Z</time></trkpt><trkpt lat="43.1798126" lon="12.4595398"><ele>230.0</ele><time>2026-04-28T12:59:43.695Z</time></trkpt><trkpt lat="43.1798924" lon="12.4597075"><ele>230.0</ele><time>2026-04-28T12:59:44.695Z</time></trkpt><trkpt lat="43.1799732" lon="12.4598869"><ele>230.0</ele><time>2026-04-28T12:59:45.695Z</time></trkpt><trkpt lat="43.1800531" lon="12.4600663"><ele>230.33333333333334</ele><time>2026-04-28T12:59:46.695Z</time></trkpt><trkpt lat="43.180136" lon="12.4602544"><ele>230.66666666666669</ele><time>2026-04-28T12:59:47.695Z</time></trkpt><trkpt lat="43.1802222" lon="12.4604454"><ele>231.0</ele><time>2026-04-28T12:59:48.695Z</time></trkpt><trkpt lat="43.1803123" lon="12.4606398"><ele>231.0</ele><time>2026-04-28T12:59:49.695Z</time></trkpt><trkpt lat="43.1804037" lon="12.4608384"><ele>231.0</ele><time>2026-04-28T12:59:50.695Z</time></trkpt><trkpt lat="43.1804974" lon="12.4610424"><ele>231.0</ele><time>2026-04-28T12:59:51.694Z</time></trkpt><trkpt lat="43.1805897" lon="12.4612444"><ele>231.66666666666669</ele><time>2026-04-28T12:59:52.695Z</time></trkpt><trkpt lat="43.1806836" lon="12.4614478"><ele>232.33333333333334</ele><time>2026-04-28T12:59:53.695Z</time></trkpt><trkpt lat="43.1807771" lon="12.4616566"><ele>233.0</ele><time>2026-04-28T12:59:54.694Z</time></trkpt><trkpt lat="43.1808744" lon="12.4618675"><ele>233.0</ele><time>2026-04-28T12:59:55.695Z</time></trkpt><trkpt lat="43.1809715" lon="12.4620823"><ele>233.0</ele><time>2026-04-28T12:59:56.695Z</time></trkpt><trkpt lat="43.1810674" lon="12.4622996"><ele>233.0</ele><time>2026-04-28T12:59:57.695Z</time></trkpt><trkpt lat="43.1811609" lon="12.4625201"><ele>232.66666666666669</ele><time>2026-04-28T12:59:58.695Z</time></trkpt><trkpt lat="43.1812555" lon="12.4627427"><ele>232.33333333333331</ele><time>2026-04-28T12:59:59.695Z</time></trkpt><trkpt lat="43.1813532" lon="12.462966"><ele>232.0</ele><time>2026-04-28T13:00:00.695Z</time></trkpt><trkpt lat="43.1814527" lon="12.4631843"><ele>233.33333333333331</ele><time>2026-04-28T13:00:01.695Z</time></trkpt><trkpt lat="43.1815548" lon="12.4634001"><ele>234.66666666666669</ele><time>2026-04-28T13:00:02.694Z</time></trkpt><trkpt lat="43.1816618" lon="12.4636097"><ele>236.0</ele><time>2026-04-28T13:00:03.695Z</time></trkpt><trkpt lat="43.1817785" lon="12.4638116"><ele>236.0</ele><time>2026-04-28T13:00:04.695Z</time></trkpt><trkpt lat="43.1819005" lon="12.4640075"><ele>236.0</ele><time>2026-04-28T13:00:05.694Z</time></trkpt><trkpt lat="43.1820234" lon="12.4642044"><ele>236.0</ele><time>2026-04-28T13:00:06.695Z</time></trkpt><trkpt lat="43.1821468" lon="12.4644012"><ele>236.0</ele><time>2026-04-28T13:00:07.694Z</time></trkpt><trkpt lat="43.1822754" lon="12.4645956"><ele>236.0</ele><time>2026-04-28T13:00:08.695Z</time></trkpt><trkpt lat="43.1824088" lon="12.4647868"><ele>236.0</ele><time>2026-04-28T13:00:09.694Z</time></trkpt><trkpt lat="43.1825458" lon="12.4649782"><ele>237.0</ele><time>2026-04-28T13:00:10.695Z</time></trkpt><trkpt lat="43.1826816" lon="12.4651627"><ele>238.0</ele><time>2026-04-28T13:00:11.695Z</time></trkpt><trkpt lat="43.1828172" lon="12.4653472"><ele>239.0</ele><time>2026-04-28T13:00:12.694Z</time></trkpt><trkpt lat="43.1829509" lon="12.4655306"><ele>239.0</ele><time>2026-04-28T13:00:13.695Z</time></trkpt><trkpt lat="43.1830847" lon="12.4657134"><ele>239.0</ele><time>2026-04-28T13:00:14.695Z</time></trkpt><trkpt lat="43.1832179" lon="12.465897"><ele>239.0</ele><time>2026-04-28T13:00:15.694Z</time></trkpt><trkpt lat="43.1833505" lon="12.4660766"><ele>239.33333333333334</ele><time>2026-04-28T13:00:16.694Z</time></trkpt><trkpt lat="43.1834833" lon="12.4662566"><ele>239.66666666666669</ele><time>2026-04-28T13:00:17.694Z</time></trkpt><trkpt lat="43.1836157" lon="12.4664372"><ele>240.0</ele><time>2026-04-28T13:00:18.695Z</time></trkpt><trkpt lat="43.1837484" lon="12.4666197"><ele>240.0</ele><time>2026-04-28T13:00:19.694Z</time></trkpt><trkpt lat="43.1838811" lon="12.4668058"><ele>240.0</ele><time>2026-04-28T13:00:20.694Z</time></trkpt><trkpt lat="43.1840077" lon="12.4669962"><ele>240.0</ele><time>2026-04-28T13:00:21.695Z</time></trkpt><trkpt lat="43.1841288" lon="12.4671975"><ele>241.0</ele><time>2026-04-28T13:00:22.695Z</time></trkpt><trkpt lat="43.1842439" lon="12.4673993"><ele>242.0</ele><time>2026-04-28T13:00:23.695Z</time></trkpt><trkpt lat="43.18436" lon="12.4676053"><ele>243.0</ele><time>2026-04-28T13:00:24.695Z</time></trkpt><trkpt lat="43.1844763" lon="12.4678096"><ele>242.0</ele><time>2026-04-28T13:00:25.694Z</time></trkpt><trkpt lat="43.1845941" lon="12.468013"><ele>241.0</ele><time>2026-04-28T13:00:26.695Z</time></trkpt><trkpt lat="43.1847124" lon="12.4682127"><ele>240.0</ele><time>2026-04-28T13:00:27.695Z</time></trkpt><trkpt lat="43.1848324" lon="12.4684093"><ele>243.0</ele><time>2026-04-28T13:00:28.694Z</time></trkpt><trkpt lat="43.1849515" lon="12.4686068"><ele>246.0</ele><time>2026-04-28T13:00:29.694Z</time></trkpt><trkpt lat="43.1850691" lon="12.4688007"><ele>249.0</ele><time>2026-04-28T13:00:30.695Z</time></trkpt><trkpt lat="43.1851884" lon="12.4689968"><ele>249.0</ele><time>2026-04-28T13:00:31.695Z</time></trkpt><trkpt lat="43.1853057" lon="12.4691932"><ele>249.0</ele><time>2026-04-28T13:00:32.694Z</time></trkpt><trkpt lat="43.1854172" lon="12.4693949"><ele>249.0</ele><time>2026-04-28T13:00:33.695Z</time></trkpt><trkpt lat="43.1855178" lon="12.4696106"><ele>247.66666666666669</ele><time>2026-04-28T13:00:34.695Z</time></trkpt><trkpt lat="43.1856012" lon="12.4698404"><ele>246.33333333333334</ele><time>2026-04-28T13:00:35.695Z</time></trkpt><trkpt lat="43.1856777" lon="12.4700746"><ele>245.0</ele><time>2026-04-28T13:00:36.695Z</time></trkpt><trkpt lat="43.1857484" lon="12.470311"><ele>247.0</ele><time>2026-04-28T13:00:37.694Z</time></trkpt><trkpt lat="43.1858194" lon="12.4705466"><ele>249.0</ele><time>2026-04-28T13:00:38.694Z</time></trkpt><trkpt lat="43.1858959" lon="12.470783"><ele>251.0</ele><time>2026-04-28T13:00:39.695Z</time></trkpt><trkpt lat="43.1859698" lon="12.4710179"><ele>251.0</ele><time>2026-04-28T13:00:40.695Z</time></trkpt><trkpt lat="43.1860442" lon="12.4712548"><ele>251.0</ele><time>2026-04-28T13:00:41.694Z</time></trkpt><trkpt lat="43.1861175" lon="12.4714927"><ele>251.0</ele><time>2026-04-28T13:00:42.695Z</time></trkpt><trkpt lat="43.1861899" lon="12.4717298"><ele>250.66666666666669</ele><time>2026-04-28T13:00:43.695Z</time></trkpt><trkpt lat="43.1862618" lon="12.4719655"><ele>250.33333333333331</ele><time>2026-04-28T13:00:44.695Z</time></trkpt><trkpt lat="43.1863344" lon="12.4722014"><ele>250.0</ele><time>2026-04-28T13:00:45.695Z</time></trkpt><trkpt lat="43.1864063" lon="12.4724364"><ele>250.0</ele><time>2026-04-28T13:00:46.695Z</time></trkpt><trkpt lat="43.1864803" lon="12.4726704"><ele>250.0</ele><time>2026-04-28T13:00:47.694Z</time></trkpt><trkpt lat="43.186559" lon="12.4728968"><ele>250.0</ele><time>2026-04-28T13:00:48.695Z</time></trkpt><trkpt lat="43.1866476" lon="12.4731174"><ele>251.33333333333331</ele><time>2026-04-28T13:00:49.695Z</time></trkpt><trkpt lat="43.1867366" lon="12.473335"><ele>252.66666666666669</ele><time>2026-04-28T13:00:50.695Z</time></trkpt><trkpt lat="43.1868274" lon="12.4735511"><ele>254.0</ele><time>2026-04-28T13:00:51.695Z</time></trkpt><trkpt lat="43.1869155" lon="12.4737694"><ele>253.33333333333334</ele><time>2026-04-28T13:00:52.694Z</time></trkpt><trkpt lat="43.1870018" lon="12.4739886"><ele>252.66666666666669</ele><time>2026-04-28T13:00:53.695Z</time></trkpt><trkpt lat="43.1870885" lon="12.4742095"><ele>252.0</ele><time>2026-04-28T13:00:54.695Z</time></trkpt><trkpt lat="43.1871753" lon="12.4744307"><ele>253.0</ele><time>2026-04-28T13:00:55.695Z</time></trkpt><trkpt lat="43.187262" lon="12.4746501"><ele>254.0</ele><time>2026-04-28T13:00:56.694Z</time></trkpt><trkpt lat="43.1873502" lon="12.474869"><ele>255.0</ele><time>2026-04-28T13:00:57.695Z</time></trkpt><trkpt lat="43.1874337" lon="12.4750832"><ele>255.33333333333331</ele><time>2026-04-28T13:00:58.695Z</time></trkpt><trkpt lat="43.1875129" lon="12.4752828"><ele>255.66666666666666</ele><time>2026-04-28T13:00:59.695Z</time></trkpt><trkpt lat="43.187588" lon="12.4754609"><ele>256.0</ele><time>2026-04-28T13:01:00.695Z</time></trkpt><trkpt lat="43.1876705" lon="12.4756203"><ele>256.0</ele><time>2026-04-28T13:01:01.695Z</time></trkpt><trkpt lat="43.1877662" lon="12.4757568"><ele>256.0</ele><time>2026-04-28T13:01:02.695Z</time></trkpt><trkpt lat="43.1878711" lon="12.4758708"><ele>256.0</ele><time>2026-04-28T13:01:03.695Z</time></trkpt><trkpt lat="43.1879727" lon="12.4759795"><ele>256.0</ele><time>2026-04-28T13:01:04.695Z</time></trkpt><trkpt lat="43.1880637" lon="12.4761098"><ele>256.0</ele><time>2026-04-28T13:01:05.694Z</time></trkpt><trkpt lat="43.1881415" lon="12.4762623"><ele>256.0</ele><time>2026-04-28T13:01:06.695Z</time></trkpt><trkpt lat="43.1882112" lon="12.4764221"><ele>256.0</ele><time>2026-04-28T13:01:07.694Z</time></trkpt><trkpt lat="43.1882385" lon="12.4766018"><ele>256.0</ele><time>2026-04-28T13:01:08.695Z</time></trkpt><trkpt lat="43.1882492" lon="12.4767805"><ele>256.75</ele><time>2026-04-28T13:01:09.694Z</time></trkpt><trkpt lat="43.1882323" lon="12.4769665"><ele>257.5</ele><time>2026-04-28T13:01:10.695Z</time></trkpt><trkpt lat="43.1882029" lon="12.4771562"><ele>258.25</ele><time>2026-04-28T13:01:11.695Z</time></trkpt><trkpt lat="43.1881741" lon="12.4773522"><ele>259.0</ele><time>2026-04-28T13:01:12.695Z</time></trkpt><trkpt lat="43.1881428" lon="12.4775587"><ele>259.3333333333333</ele><time>2026-04-28T13:01:13.695Z</time></trkpt><trkpt lat="43.1881124" lon="12.4777682"><ele>259.6666666666667</ele><time>2026-04-28T13:01:14.695Z</time></trkpt><trkpt lat="43.1880826" lon="12.4779863"><ele>260.0</ele><time>2026-04-28T13:01:15.695Z</time></trkpt><trkpt lat="43.1880511" lon="12.4782068"><ele>260.6666666666667</ele><time>2026-04-28T13:01:16.694Z</time></trkpt><trkpt lat="43.1880152" lon="12.4784368"><ele>261.3333333333333</ele><time>2026-04-28T13:01:17.695Z</time></trkpt><trkpt lat="43.1879784" lon="12.4786744"><ele>262.0</ele><time>2026-04-28T13:01:18.695Z</time></trkpt><trkpt lat="43.1879444" lon="12.4789124"><ele>262.3333333333333</ele><time>2026-04-28T13:01:19.694Z</time></trkpt><trkpt lat="43.1879112" lon="12.4791458"><ele>262.6666666666667</ele><time>2026-04-28T13:01:20.695Z</time></trkpt><trkpt lat="43.1878755" lon="12.4793798"><ele>263.0</ele><time>2026-04-28T13:01:21.694Z</time></trkpt><trkpt lat="43.1878391" lon="12.4796131"><ele>263.6666666666667</ele><time>2026-04-28T13:01:22.695Z</time></trkpt><trkpt lat="43.1878038" lon="12.4798466"><ele>264.3333333333333</ele><time>2026-04-28T13:01:23.694Z</time></trkpt><trkpt lat="43.1877689" lon="12.4800795"><ele>265.0</ele><time>2026-04-28T13:01:24.695Z</time></trkpt><trkpt lat="43.1877334" lon="12.4803116"><ele>265.66666666666663</ele><time>2026-04-28T13:01:25.695Z</time></trkpt><trkpt lat="43.1876991" lon="12.4805325"><ele>266.3333333333333</ele><time>2026-04-28T13:01:26.695Z</time></trkpt><trkpt lat="43.1876652" lon="12.4807419"><ele>267.0</ele><time>2026-04-28T13:01:27.695Z</time></trkpt><trkpt lat="43.1876249" lon="12.4809434"><ele>267.0</ele><time>2026-04-28T13:01:28.695Z</time></trkpt><trkpt lat="43.1875705" lon="12.4811448"><ele>267.0</ele><time>2026-04-28T13:01:29.695Z</time></trkpt><trkpt lat="43.1875056" lon="12.4813467"><ele>267.0</ele><time>2026-04-28T13:01:30.694Z</time></trkpt><trkpt lat="43.1874371" lon="12.48155"><ele>268.3333333333333</ele><time>2026-04-28T13:01:31.694Z</time></trkpt><trkpt lat="43.1873646" lon="12.4817594"><ele>269.66666666666663</ele><time>2026-04-28T13:01:32.694Z</time></trkpt><trkpt lat="43.18729" lon="12.4819731"><ele>271.0</ele><time>2026-04-28T13:01:33.694Z</time></trkpt><trkpt lat="43.1872168" lon="12.4821871"><ele>274.66666666666663</ele><time>2026-04-28T13:01:34.695Z</time></trkpt><trkpt lat="43.1871436" lon="12.4824016"><ele>278.3333333333333</ele><time>2026-04-28T13:01:35.695Z</time></trkpt><trkpt lat="43.1870695" lon="12.482616"><ele>282.0</ele><time>2026-04-28T13:01:36.694Z</time></trkpt><trkpt lat="43.1869992" lon="12.4828261"><ele>281.6666666666667</ele><time>2026-04-28T13:01:37.695Z</time></trkpt><trkpt lat="43.1869326" lon="12.4830263"><ele>281.33333333333337</ele><time>2026-04-28T13:01:38.695Z</time></trkpt><trkpt lat="43.186872" lon="12.4832305"><ele>281.0</ele><time>2026-04-28T13:01:39.695Z</time></trkpt><trkpt lat="43.1868244" lon="12.4834442"><ele>281.0</ele><time>2026-04-28T13:01:40.695Z</time></trkpt><trkpt lat="43.186791" lon="12.4836657"><ele>281.0</ele><time>2026-04-28T13:01:41.694Z</time></trkpt><trkpt lat="43.186764" lon="12.4838929"><ele>281.0</ele><time>2026-04-28T13:01:42.695Z</time></trkpt><trkpt lat="43.1867418" lon="12.4841232"><ele>280.6666666666667</ele><time>2026-04-28T13:01:43.695Z</time></trkpt><trkpt lat="43.1867214" lon="12.4843603"><ele>280.3333333333333</ele><time>2026-04-28T13:01:44.693Z</time></trkpt><trkpt lat="43.1867038" lon="12.4845984"><ele>280.0</ele><time>2026-04-28T13:01:45.695Z</time></trkpt><trkpt lat="43.186686" lon="12.4848405"><ele>279.0</ele><time>2026-04-28T13:01:46.695Z</time></trkpt><trkpt lat="43.186671" lon="12.4850826"><ele>278.0</ele><time>2026-04-28T13:01:47.695Z</time></trkpt><trkpt lat="43.1866541" lon="12.4853197"><ele>277.0</ele><time>2026-04-28T13:01:48.694Z</time></trkpt><trkpt lat="43.1866335" lon="12.4855434"><ele>277.0</ele><time>2026-04-28T13:01:49.694Z</time></trkpt><trkpt lat="43.1866043" lon="12.4857549"><ele>277.0</ele><time>2026-04-28T13:01:50.695Z</time></trkpt><trkpt lat="43.1865564" lon="12.4859637"><ele>277.0</ele><time>2026-04-28T13:01:51.695Z</time></trkpt><trkpt lat="43.1864928" lon="12.4861652"><ele>281.5</ele><time>2026-04-28T13:01:52.695Z</time></trkpt><trkpt lat="43.1864256" lon="12.4863605"><ele>286.0</ele><time>2026-04-28T13:01:53.694Z</time></trkpt><trkpt lat="43.1863679" lon="12.4865428"><ele>290.5</ele><time>2026-04-28T13:01:54.695Z</time></trkpt><trkpt lat="43.186332" lon="12.4867201"><ele>295.0</ele><time>2026-04-28T13:01:55.695Z</time></trkpt><trkpt lat="43.1863211" lon="12.4869108"><ele>294.66666666666663</ele><time>2026-04-28T13:01:56.695Z</time></trkpt><trkpt lat="43.1863257" lon="12.4871123"><ele>294.3333333333333</ele><time>2026-04-28T13:01:57.695Z</time></trkpt><trkpt lat="43.1863387" lon="12.4873268"><ele>294.0</ele><time>2026-04-28T13:01:58.694Z</time></trkpt><trkpt lat="43.1863528" lon="12.4875492"><ele>294.0</ele><time>2026-04-28T13:01:59.695Z</time></trkpt><trkpt lat="43.1863702" lon="12.4877817"><ele>294.0</ele><time>2026-04-28T13:02:00.695Z</time></trkpt><trkpt lat="43.1863873" lon="12.488028"><ele>294.0</ele><time>2026-04-28T13:02:01.695Z</time></trkpt><trkpt lat="43.1864062" lon="12.4882794"><ele>293.6666666666667</ele><time>2026-04-28T13:02:02.695Z</time></trkpt><trkpt lat="43.1864266" lon="12.4885262"><ele>293.33333333333337</ele><time>2026-04-28T13:02:03.695Z</time></trkpt><trkpt lat="43.1864543" lon="12.4887715"><ele>293.0</ele><time>2026-04-28T13:02:04.695Z</time></trkpt><trkpt lat="43.1864886" lon="12.4890187"><ele>292.6666666666667</ele><time>2026-04-28T13:02:05.694Z</time></trkpt><trkpt lat="43.1865229" lon="12.4892681"><ele>292.3333333333333</ele><time>2026-04-28T13:02:06.695Z</time></trkpt><trkpt lat="43.1865586" lon="12.4895163"><ele>292.0</ele><time>2026-04-28T13:02:07.694Z</time></trkpt><trkpt lat="43.1865958" lon="12.4897712"><ele>292.0</ele><time>2026-04-28T13:02:08.695Z</time></trkpt><trkpt lat="43.1866329" lon="12.4900276"><ele>292.0</ele><time>2026-04-28T13:02:09.695Z</time></trkpt><trkpt lat="43.1866684" lon="12.4902824"><ele>292.0</ele><time>2026-04-28T13:02:10.694Z</time></trkpt><trkpt lat="43.1867016" lon="12.490532"><ele>293.3333333333333</ele><time>2026-04-28T13:02:11.694Z</time></trkpt><trkpt lat="43.186729" lon="12.4907614"><ele>294.6666666666667</ele><time>2026-04-28T13:02:12.694Z</time></trkpt><trkpt lat="43.1867548" lon="12.4909643"><ele>296.0</ele><time>2026-04-28T13:02:13.694Z</time></trkpt><trkpt lat="43.186774" lon="12.4911415"><ele>297.6</ele><time>2026-04-28T13:02:14.695Z</time></trkpt><trkpt lat="43.1867692" lon="12.4912901"><ele>299.20000000000005</ele><time>2026-04-28T13:02:15.695Z</time></trkpt><trkpt lat="43.1867305" lon="12.4914151"><ele>300.79999999999995</ele><time>2026-04-28T13:02:16.695Z</time></trkpt><trkpt lat="43.1866632" lon="12.4915027"><ele>302.4</ele><time>2026-04-28T13:02:17.695Z</time></trkpt><trkpt lat="43.1865768" lon="12.4915419"><ele>304.0</ele><time>2026-04-28T13:02:18.694Z</time></trkpt><trkpt lat="43.1864832" lon="12.4915284"><ele>304.0</ele><time>2026-04-28T13:02:19.694Z</time></trkpt><trkpt lat="43.1863875" lon="12.491477"><ele>304.0</ele><time>2026-04-28T13:02:20.695Z</time></trkpt><trkpt lat="43.186286" lon="12.4914056"><ele>304.0</ele><time>2026-04-28T13:02:21.694Z</time></trkpt><trkpt lat="43.1861773" lon="12.4913316"><ele>304.0</ele><time>2026-04-28T13:02:22.695Z</time></trkpt><trkpt lat="43.1860652" lon="12.4912555"><ele>304.0</ele><time>2026-04-28T13:02:23.695Z</time></trkpt><trkpt lat="43.185959" lon="12.4911851"><ele>304.0</ele><time>2026-04-28T13:02:24.695Z</time></trkpt><trkpt lat="43.1858599" lon="12.4911412"><ele>304.0</ele><time>2026-04-28T13:02:25.695Z</time></trkpt><trkpt lat="43.1857648" lon="12.4911384"><ele>304.0</ele><time>2026-04-28T13:02:26.694Z</time></trkpt><trkpt lat="43.1856756" lon="12.4911723"><ele>304.0</ele><time>2026-04-28T13:02:27.695Z</time></trkpt><trkpt lat="43.1856067" lon="12.4912549"><ele>304.8</ele><time>2026-04-28T13:02:28.694Z</time></trkpt><trkpt lat="43.1855707" lon="12.4913724"><ele>305.59999999999997</ele><time>2026-04-28T13:02:29.694Z</time></trkpt><trkpt lat="43.1855729" lon="12.4915022"><ele>306.4</ele><time>2026-04-28T13:02:30.695Z</time></trkpt><trkpt lat="43.1856172" lon="12.4916236"><ele>307.2</ele><time>2026-04-28T13:02:31.695Z</time></trkpt><trkpt lat="43.1856938" lon="12.4917228"><ele>308.0</ele><time>2026-04-28T13:02:32.695Z</time></trkpt><trkpt lat="43.1857935" lon="12.4918057"><ele>308.0</ele><time>2026-04-28T13:02:33.695Z</time></trkpt><trkpt lat="43.1859091" lon="12.4918829"><ele>308.0</ele><time>2026-04-28T13:02:34.695Z</time></trkpt><trkpt lat="43.1860349" lon="12.4919718"><ele>308.0</ele><time>2026-04-28T13:02:35.695Z</time></trkpt><trkpt lat="43.1861651" lon="12.492069"><ele>308.0</ele><time>2026-04-28T13:02:36.695Z</time></trkpt><trkpt lat="43.1862974" lon="12.4921691"><ele>309.33333333333337</ele><time>2026-04-28T13:02:37.695Z</time></trkpt><trkpt lat="43.1864368" lon="12.4922724"><ele>310.6666666666667</ele><time>2026-04-28T13:02:38.695Z</time></trkpt><trkpt lat="43.1865784" lon="12.4923681"><ele>312.0</ele><time>2026-04-28T13:02:39.695Z</time></trkpt><trkpt lat="43.1867042" lon="12.4924507"><ele>312.0</ele><time>2026-04-28T13:02:40.694Z</time></trkpt><trkpt lat="43.1868173" lon="12.4925424"><ele>312.0</ele><time>2026-04-28T13:02:41.695Z</time></trkpt><trkpt lat="43.1869005" lon="12.4926499"><ele>312.0</ele><time>2026-04-28T13:02:42.694Z</time></trkpt><trkpt lat="43.1869419" lon="12.4927637"><ele>312.0</ele><time>2026-04-28T13:02:43.694Z</time></trkpt><trkpt lat="43.1869509" lon="12.492883"><ele>312.0</ele><time>2026-04-28T13:02:44.694Z</time></trkpt><trkpt lat="43.1869282" lon="12.4929957"><ele>313.75</ele><time>2026-04-28T13:02:45.694Z</time></trkpt><trkpt lat="43.1868775" lon="12.4931095"><ele>315.5</ele><time>2026-04-28T13:02:46.693Z</time></trkpt><trkpt lat="43.1868014" lon="12.4932193"><ele>317.25</ele><time>2026-04-28T13:02:47.693Z</time></trkpt><trkpt lat="43.1867116" lon="12.4933291"><ele>319.0</ele><time>2026-04-28T13:02:48.694Z</time></trkpt><trkpt lat="43.1866207" lon="12.4934453"><ele>319.0</ele><time>2026-04-28T13:02:49.693Z</time></trkpt><trkpt lat="43.1865323" lon="12.493563"><ele>319.0</ele><time>2026-04-28T13:02:50.694Z</time></trkpt><trkpt lat="43.18645" lon="12.4936972"><ele>319.0</ele><time>2026-04-28T13:02:51.694Z</time></trkpt><trkpt lat="43.1863887" lon="12.4938423"><ele>319.0</ele><time>2026-04-28T13:02:52.693Z</time></trkpt><trkpt lat="43.1863515" lon="12.4939993"><ele>319.0</ele><time>2026-04-28T13:02:53.693Z</time></trkpt><trkpt lat="43.1863424" lon="12.4941621"><ele>319.0</ele><time>2026-04-28T13:02:54.693Z</time></trkpt><trkpt lat="43.1863508" lon="12.4943322"><ele>319.0</ele><time>2026-04-28T13:02:55.694Z</time></trkpt><trkpt lat="43.1863696" lon="12.494511"><ele>319.0</ele><time>2026-04-28T13:02:56.694Z</time></trkpt><trkpt lat="43.1863923" lon="12.4947"><ele>318.0</ele><time>2026-04-28T13:02:57.694Z</time></trkpt><trkpt lat="43.1864184" lon="12.4948926"><ele>317.0</ele><time>2026-04-28T13:02:58.694Z</time></trkpt><trkpt lat="43.1864454" lon="12.4950752"><ele>316.0</ele><time>2026-04-28T13:02:59.694Z</time></trkpt><trkpt lat="43.1864661" lon="12.4952521"><ele>315.0</ele><time>2026-04-28T13:03:00.694Z</time></trkpt><trkpt lat="43.1864722" lon="12.4954192"><ele>315.0</ele><time>2026-04-28T13:03:01.694Z</time></trkpt><trkpt lat="43.1864546" lon="12.4955714"><ele>315.0</ele><time>2026-04-28T13:03:02.694Z</time></trkpt><trkpt lat="43.1864107" lon="12.4956983"><ele>315.0</ele><time>2026-04-28T13:03:03.694Z</time></trkpt><trkpt lat="43.1863401" lon="12.4957954"><ele>315.0</ele><time>2026-04-28T13:03:04.693Z</time></trkpt><trkpt lat="43.1862449" lon="12.4958671"><ele>315.0</ele><time>2026-04-28T13:03:05.693Z</time></trkpt><trkpt lat="43.1861311" lon="12.4959082"><ele>315.0</ele><time>2026-04-28T13:03:06.693Z</time></trkpt><trkpt lat="43.1860085" lon="12.4959267"><ele>315.0</ele><time>2026-04-28T13:03:07.693Z</time></trkpt><trkpt lat="43.1858774" lon="12.4959335"><ele>315.0</ele><time>2026-04-28T13:03:08.694Z</time></trkpt><trkpt lat="43.1857481" lon="12.4959544"><ele>315.0</ele><time>2026-04-28T13:03:09.694Z</time></trkpt><trkpt lat="43.1856214" lon="12.4959761"><ele>315.0</ele><time>2026-04-28T13:03:10.694Z</time></trkpt><trkpt lat="43.1855113" lon="12.4960106"><ele>315.0</ele><time>2026-04-28T13:03:11.693Z</time></trkpt><trkpt lat="43.1854158" lon="12.4960746"><ele>315.0</ele><time>2026-04-28T13:03:12.694Z</time></trkpt><trkpt lat="43.1853311" lon="12.4961699"><ele>315.0</ele><time>2026-04-28T13:03:13.694Z</time></trkpt><trkpt lat="43.1852629" lon="12.4962885"><ele>315.0</ele><time>2026-04-28T13:03:14.694Z</time></trkpt><trkpt lat="43.1852139" lon="12.4964188"><ele>315.0</ele><time>2026-04-28T13:03:15.693Z</time></trkpt><trkpt lat="43.1851878" lon="12.4965732"><ele>315.0</ele><time>2026-04-28T13:03:16.694Z</time></trkpt><trkpt lat="43.1851778" lon="12.4967367"><ele>315.0</ele><time>2026-04-28T13:03:17.693Z</time></trkpt><trkpt lat="43.1851885" lon="12.496915"><ele>315.0</ele><time>2026-04-28T13:03:18.693Z</time></trkpt><trkpt lat="43.185212" lon="12.497103"><ele>315.25</ele><time>2026-04-28T13:03:19.693Z</time></trkpt><trkpt lat="43.1852484" lon="12.4972896"><ele>315.5</ele><time>2026-04-28T13:03:20.694Z</time></trkpt><trkpt lat="43.1852975" lon="12.4974794"><ele>315.75</ele><time>2026-04-28T13:03:21.694Z</time></trkpt><trkpt lat="43.185342" lon="12.4976694"><ele>316.0</ele><time>2026-04-28T13:03:22.694Z</time></trkpt><trkpt lat="43.1853742" lon="12.497851"><ele>316.5</ele><time>2026-04-28T13:03:23.693Z</time></trkpt><trkpt lat="43.1853897" lon="12.4980283"><ele>317.0</ele><time>2026-04-28T13:03:24.694Z</time></trkpt><trkpt lat="43.1853832" lon="12.4982037"><ele>317.5</ele><time>2026-04-28T13:03:25.694Z</time></trkpt><trkpt lat="43.1853488" lon="12.4983751"><ele>318.0</ele><time>2026-04-28T13:03:26.694Z</time></trkpt><trkpt lat="43.1852859" lon="12.4985397"><ele>318.0</ele><time>2026-04-28T13:03:27.693Z</time></trkpt><trkpt lat="43.1851913" lon="12.4986878"><ele>318.0</ele><time>2026-04-28T13:03:28.693Z</time></trkpt><trkpt lat="43.1850781" lon="12.4988269"><ele>318.0</ele><time>2026-04-28T13:03:29.694Z</time></trkpt><trkpt lat="43.1849541" lon="12.4989753"><ele>318.0</ele><time>2026-04-28T13:03:30.694Z</time></trkpt><trkpt lat="43.1848253" lon="12.4991326"><ele>318.0</ele><time>2026-04-28T13:03:31.693Z</time></trkpt><trkpt lat="43.1846928" lon="12.4992917"><ele>318.0</ele><time>2026-04-28T13:03:32.694Z</time></trkpt><trkpt lat="43.1845598" lon="12.4994507"><ele>319.3333333333333</ele><time>2026-04-28T13:03:33.693Z</time></trkpt><trkpt lat="43.1844248" lon="12.4996126"><ele>320.66666666666663</ele><time>2026-04-28T13:03:34.694Z</time></trkpt><trkpt lat="43.1842895" lon="12.4997772"><ele>322.0</ele><time>2026-04-28T13:03:35.694Z</time></trkpt><trkpt lat="43.1841549" lon="12.4999409"><ele>322.0</ele><time>2026-04-28T13:03:36.694Z</time></trkpt><trkpt lat="43.1840207" lon="12.5001049"><ele>322.0</ele><time>2026-04-28T13:03:37.693Z</time></trkpt><trkpt lat="43.1838858" lon="12.5002685"><ele>322.0</ele><time>2026-04-28T13:03:38.694Z</time></trkpt><trkpt lat="43.1837525" lon="12.5004318"><ele>324.66666666666663</ele><time>2026-04-28T13:03:39.694Z</time></trkpt><trkpt lat="43.183618" lon="12.5005917"><ele>327.3333333333333</ele><time>2026-04-28T13:03:40.692Z</time></trkpt><trkpt lat="43.1834837" lon="12.5007497"><ele>330.0</ele><time>2026-04-28T13:03:41.693Z</time></trkpt><trkpt lat="43.183349" lon="12.500902"><ele>330.0</ele><time>2026-04-28T13:03:42.693Z</time></trkpt><trkpt lat="43.1832138" lon="12.5010503"><ele>330.0</ele><time>2026-04-28T13:03:43.693Z</time></trkpt><trkpt lat="43.183073" lon="12.5011863"><ele>330.0</ele><time>2026-04-28T13:03:44.694Z</time></trkpt><trkpt lat="43.1829269" lon="12.5013189"><ele>328.3333333333333</ele><time>2026-04-28T13:03:45.693Z</time></trkpt><trkpt lat="43.1827795" lon="12.5014604"><ele>326.66666666666663</ele><time>2026-04-28T13:03:46.694Z</time></trkpt><trkpt lat="43.1826422" lon="12.5016033"><ele>325.0</ele><time>2026-04-28T13:03:47.694Z</time></trkpt><trkpt lat="43.1825297" lon="12.5017407"><ele>325.0</ele><time>2026-04-28T13:03:48.693Z</time></trkpt><trkpt lat="43.1824479" lon="12.5018633"><ele>325.0</ele><time>2026-04-28T13:03:49.694Z</time></trkpt><trkpt lat="43.1823831" lon="12.5019766"><ele>325.0</ele><time>2026-04-28T13:03:50.693Z</time></trkpt><trkpt lat="43.1823323" lon="12.5020703"><ele>325.0</ele><time>2026-04-28T13:03:51.694Z</time></trkpt><trkpt lat="43.1822897" lon="12.5021389"><ele>325.0</ele><time>2026-04-28T13:03:52.694Z</time></trkpt><trkpt lat="43.1822303" lon="12.5021973"><ele>324.0</ele><time>2026-04-28T13:03:54.694Z</time></trkpt><trkpt lat="43.182114" lon="12.5022204"><ele>323.0</ele><time>2026-04-28T13:03:56.694Z</time></trkpt><trkpt lat="43.1820307" lon="12.5022288"><ele>322.0</ele><time>2026-04-28T13:03:57.693Z</time></trkpt><trkpt lat="43.1819278" lon="12.502237"><ele>321.0</ele><time>2026-04-28T13:03:58.694Z</time></trkpt><trkpt lat="43.181813" lon="12.5022544"><ele>320.0</ele><time>2026-04-28T13:03:59.693Z</time></trkpt><trkpt lat="43.1816935" lon="12.5022843"><ele>320.0</ele><time>2026-04-28T13:04:00.694Z</time></trkpt><trkpt lat="43.1815599" lon="12.5023284"><ele>320.0</ele><time>2026-04-28T13:04:01.694Z</time></trkpt><trkpt lat="43.1814164" lon="12.5023908"><ele>320.0</ele><time>2026-04-28T13:04:02.693Z</time></trkpt><trkpt lat="43.1812679" lon="12.5024691"><ele>320.0</ele><time>2026-04-28T13:04:03.694Z</time></trkpt><trkpt lat="43.1811136" lon="12.5025523"><ele>318.0</ele><time>2026-04-28T13:04:04.694Z</time></trkpt><trkpt lat="43.180946" lon="12.5026395"><ele>316.0</ele><time>2026-04-28T13:04:05.693Z</time></trkpt><trkpt lat="43.1807743" lon="12.5027214"><ele>314.0</ele><time>2026-04-28T13:04:06.694Z</time></trkpt><trkpt lat="43.1806076" lon="12.5028016"><ele>311.0</ele><time>2026-04-28T13:04:07.693Z</time></trkpt><trkpt lat="43.1804451" lon="12.5028847"><ele>308.0</ele><time>2026-04-28T13:04:08.694Z</time></trkpt><trkpt lat="43.1802898" lon="12.5029757"><ele>305.0</ele><time>2026-04-28T13:04:09.694Z</time></trkpt><trkpt lat="43.1801443" lon="12.5030783"><ele>305.0</ele><time>2026-04-28T13:04:10.693Z</time></trkpt><trkpt lat="43.1800081" lon="12.5031954"><ele>305.0</ele><time>2026-04-28T13:04:11.694Z</time></trkpt><trkpt lat="43.1798865" lon="12.5033315"><ele>305.0</ele><time>2026-04-28T13:04:12.694Z</time></trkpt><trkpt lat="43.1797708" lon="12.5034899"><ele>304.6666666666667</ele><time>2026-04-28T13:04:13.694Z</time></trkpt><trkpt lat="43.1796603" lon="12.5036626"><ele>304.3333333333333</ele><time>2026-04-28T13:04:14.694Z</time></trkpt><trkpt lat="43.1795533" lon="12.503848"><ele>304.0</ele><time>2026-04-28T13:04:15.694Z</time></trkpt><trkpt lat="43.1794473" lon="12.5040394"><ele>303.3333333333333</ele><time>2026-04-28T13:04:16.694Z</time></trkpt><trkpt lat="43.1793408" lon="12.5042322"><ele>302.6666666666667</ele><time>2026-04-28T13:04:17.694Z</time></trkpt><trkpt lat="43.1792354" lon="12.5044225"><ele>302.0</ele><time>2026-04-28T13:04:18.694Z</time></trkpt><trkpt lat="43.1791333" lon="12.5046055"><ele>301.6666666666667</ele><time>2026-04-28T13:04:19.694Z</time></trkpt><trkpt lat="43.1790357" lon="12.5047804"><ele>301.3333333333333</ele><time>2026-04-28T13:04:20.694Z</time></trkpt><trkpt lat="43.178942" lon="12.5049454"><ele>301.0</ele><time>2026-04-28T13:04:21.694Z</time></trkpt><trkpt lat="43.1788507" lon="12.505103"><ele>301.0</ele><time>2026-04-28T13:04:22.694Z</time></trkpt><trkpt lat="43.1787613" lon="12.5052527"><ele>301.0</ele><time>2026-04-28T13:04:23.694Z</time></trkpt><trkpt lat="43.1786727" lon="12.5053999"><ele>301.0</ele><time>2026-04-28T13:04:24.694Z</time></trkpt><trkpt lat="43.1785813" lon="12.5055448"><ele>301.0</ele><time>2026-04-28T13:04:25.694Z</time></trkpt><trkpt lat="43.1784817" lon="12.5056887"><ele>300.3333333333333</ele><time>2026-04-28T13:04:26.694Z</time></trkpt><trkpt lat="43.1783719" lon="12.5058267"><ele>299.6666666666667</ele><time>2026-04-28T13:04:27.694Z</time></trkpt><trkpt lat="43.1782499" lon="12.5059563"><ele>299.0</ele><time>2026-04-28T13:04:28.694Z</time></trkpt><trkpt lat="43.1781211" lon="12.5060814"><ele>297.33333333333337</ele><time>2026-04-28T13:04:29.694Z</time></trkpt><trkpt lat="43.1779814" lon="12.5061977"><ele>295.6666666666667</ele><time>2026-04-28T13:04:30.693Z</time></trkpt><trkpt lat="43.1778381" lon="12.506294"><ele>294.0</ele><time>2026-04-28T13:04:31.694Z</time></trkpt><trkpt lat="43.1776978" lon="12.506371"><ele>293.75</ele><time>2026-04-28T13:04:32.694Z</time></trkpt><trkpt lat="43.1775597" lon="12.5064327"><ele>293.5</ele><time>2026-04-28T13:04:33.693Z</time></trkpt><trkpt lat="43.1774265" lon="12.5064756"><ele>293.25</ele><time>2026-04-28T13:04:34.694Z</time></trkpt><trkpt lat="43.1772984" lon="12.5065026"><ele>293.0</ele><time>2026-04-28T13:04:35.694Z</time></trkpt><trkpt lat="43.177173" lon="12.5065163"><ele>292.4</ele><time>2026-04-28T13:04:36.694Z</time></trkpt><trkpt lat="43.1770549" lon="12.5065261"><ele>291.8</ele><time>2026-04-28T13:04:37.693Z</time></trkpt><trkpt lat="43.1769417" lon="12.5065306"><ele>291.2</ele><time>2026-04-28T13:04:38.694Z</time></trkpt><trkpt lat="43.1768356" lon="12.5065288"><ele>290.6</ele><time>2026-04-28T13:04:39.694Z</time></trkpt><trkpt lat="43.1767335" lon="12.506523"><ele>290.0</ele><time>2026-04-28T13:04:40.694Z</time></trkpt><trkpt lat="43.1766376" lon="12.5065097"><ele>290.0</ele><time>2026-04-28T13:04:41.694Z</time></trkpt><trkpt lat="43.1765474" lon="12.5064921"><ele>290.0</ele><time>2026-04-28T13:04:42.693Z</time></trkpt><trkpt lat="43.1764601" lon="12.5064674"><ele>290.0</ele><time>2026-04-28T13:04:43.693Z</time></trkpt><trkpt lat="43.1763729" lon="12.5064376"><ele>290.0</ele><time>2026-04-28T13:04:44.693Z</time></trkpt><trkpt lat="43.1762861" lon="12.5064003"><ele>290.0</ele><time>2026-04-28T13:04:45.694Z</time></trkpt><trkpt lat="43.1761998" lon="12.5063585"><ele>289.83333333333337</ele><time>2026-04-28T13:04:46.694Z</time></trkpt><trkpt lat="43.1761223" lon="12.5063143"><ele>289.6666666666667</ele><time>2026-04-28T13:04:47.693Z</time></trkpt><trkpt lat="43.1760534" lon="12.5062708"><ele>289.5</ele><time>2026-04-28T13:04:48.694Z</time></trkpt><trkpt lat="43.1759588" lon="12.506204"><ele>289.3333333333333</ele><time>2026-04-28T13:04:50.694Z</time></trkpt><trkpt lat="43.1758962" lon="12.5061519"><ele>289.16666666666663</ele><time>2026-04-28T13:04:53.693Z</time></trkpt><trkpt lat="43.1758496" lon="12.5062154"><ele>289.0</ele><time>2026-04-28T13:05:11.694Z</time></trkpt><trkpt lat="43.175926" lon="12.5063266"><ele>289.0</ele><time>2026-04-28T13:05:13.694Z</time></trkpt><trkpt lat="43.1760008" lon="12.5063822"><ele>289.0</ele><time>2026-04-28T13:05:14.694Z</time></trkpt><trkpt lat="43.1760726" lon="12.5064314"><ele>289.0</ele><time>2026-04-28T13:05:15.694Z</time></trkpt><trkpt lat="43.1761642" lon="12.5064904"><ele>289.0</ele><time>2026-04-28T13:05:16.694Z</time></trkpt><trkpt lat="43.1762851" lon="12.5065447"><ele>289.0</ele><time>2026-04-28T13:05:17.694Z</time></trkpt><trkpt lat="43.1764059" lon="12.506584"><ele>289.25</ele><time>2026-04-28T13:05:18.694Z</time></trkpt><trkpt lat="43.1765375" lon="12.5066321"><ele>289.5</ele><time>2026-04-28T13:05:19.693Z</time></trkpt><trkpt lat="43.1766676" lon="12.5066883"><ele>289.75</ele><time>2026-04-28T13:05:20.694Z</time></trkpt><trkpt lat="43.1767996" lon="12.5067505"><ele>290.0</ele><time>2026-04-28T13:05:21.694Z</time></trkpt><trkpt lat="43.1769312" lon="12.5068166"><ele>290.0</ele><time>2026-04-28T13:05:22.694Z</time></trkpt><trkpt lat="43.1770491" lon="12.5068822"><ele>290.0</ele><time>2026-04-28T13:05:23.694Z</time></trkpt><trkpt lat="43.1771584" lon="12.5069425"><ele>290.0</ele><time>2026-04-28T13:05:24.694Z</time></trkpt><trkpt lat="43.1772595" lon="12.5070017"><ele>290.0</ele><time>2026-04-28T13:05:25.694Z</time></trkpt><trkpt lat="43.1773478" lon="12.5070568"><ele>290.4</ele><time>2026-04-28T13:05:26.694Z</time></trkpt><trkpt lat="43.1774167" lon="12.5071011"><ele>290.8</ele><time>2026-04-28T13:05:27.693Z</time></trkpt><trkpt lat="43.1774729" lon="12.5071436"><ele>291.2</ele><time>2026-04-28T13:05:28.694Z</time></trkpt><trkpt lat="43.1775335" lon="12.5072608"><ele>291.6</ele><time>2026-04-28T13:05:30.694Z</time></trkpt><trkpt lat="43.1775287" lon="12.5074335"><ele>292.0</ele><time>2026-04-28T13:05:32.694Z</time></trkpt><trkpt lat="43.1774932" lon="12.5075396"><ele>292.0</ele><time>2026-04-28T13:05:33.694Z</time></trkpt><trkpt lat="43.1774351" lon="12.5076491"><ele>292.0</ele><time>2026-04-28T13:05:34.693Z</time></trkpt><trkpt lat="43.1773634" lon="12.5077682"><ele>292.0</ele><time>2026-04-28T13:05:35.693Z</time></trkpt><trkpt lat="43.1772897" lon="12.5078949"><ele>292.0</ele><time>2026-04-28T13:05:36.694Z</time></trkpt><trkpt lat="43.177209" lon="12.508034"><ele>291.25</ele><time>2026-04-28T13:05:37.693Z</time></trkpt><trkpt lat="43.1771257" lon="12.5081863"><ele>290.5</ele><time>2026-04-28T13:05:38.694Z</time></trkpt><trkpt lat="43.1770419" lon="12.5083389"><ele>289.75</ele><time>2026-04-28T13:05:39.694Z</time></trkpt><trkpt lat="43.1769525" lon="12.5084987"><ele>289.0</ele><time>2026-04-28T13:05:40.694Z</time></trkpt><trkpt lat="43.1768606" lon="12.5086691"><ele>289.3333333333333</ele><time>2026-04-28T13:05:41.694Z</time></trkpt><trkpt lat="43.1767657" lon="12.5088433"><ele>289.6666666666667</ele><time>2026-04-28T13:05:42.694Z</time></trkpt><trkpt lat="43.1766666" lon="12.5090225"><ele>290.0</ele><time>2026-04-28T13:05:43.694Z</time></trkpt><trkpt lat="43.1765667" lon="12.5092014"><ele>289.6666666666667</ele><time>2026-04-28T13:05:44.694Z</time></trkpt><trkpt lat="43.1764636" lon="12.5093813"><ele>289.3333333333333</ele><time>2026-04-28T13:05:45.694Z</time></trkpt><trkpt lat="43.1763588" lon="12.5095611"><ele>289.0</ele><time>2026-04-28T13:05:46.694Z</time></trkpt><trkpt lat="43.1762516" lon="12.5097431"><ele>289.0</ele><time>2026-04-28T13:05:47.694Z</time></trkpt><trkpt lat="43.1761455" lon="12.50993"><ele>289.0</ele><time>2026-04-28T13:05:48.693Z</time></trkpt><trkpt lat="43.1760371" lon="12.5101207"><ele>289.0</ele><time>2026-04-28T13:05:49.694Z</time></trkpt><trkpt lat="43.1759256" lon="12.5103131"><ele>289.3333333333333</ele><time>2026-04-28T13:05:50.694Z</time></trkpt><trkpt lat="43.1758186" lon="12.5105034"><ele>289.6666666666667</ele><time>2026-04-28T13:05:51.694Z</time></trkpt><trkpt lat="43.1757093" lon="12.5106923"><ele>290.0</ele><time>2026-04-28T13:05:52.694Z</time></trkpt><trkpt lat="43.1755999" lon="12.5108834"><ele>289.33333333333337</ele><time>2026-04-28T13:05:53.694Z</time></trkpt><trkpt lat="43.1754906" lon="12.5110752"><ele>288.6666666666667</ele><time>2026-04-28T13:05:54.694Z</time></trkpt><trkpt lat="43.1753835" lon="12.5112662"><ele>288.0</ele><time>2026-04-28T13:05:55.693Z</time></trkpt><trkpt lat="43.1752765" lon="12.5114631"><ele>288.0</ele><time>2026-04-28T13:05:56.693Z</time></trkpt><trkpt lat="43.1751694" lon="12.5116614"><ele>288.0</ele><time>2026-04-28T13:05:57.694Z</time></trkpt><trkpt lat="43.1750588" lon="12.5118573"><ele>288.0</ele><time>2026-04-28T13:05:58.694Z</time></trkpt><trkpt lat="43.174945" lon="12.5120533"><ele>287.6666666666667</ele><time>2026-04-28T13:05:59.694Z</time></trkpt><trkpt lat="43.1748294" lon="12.5122527"><ele>287.33333333333337</ele><time>2026-04-28T13:06:00.694Z</time></trkpt><trkpt lat="43.1747145" lon="12.5124527"><ele>287.0</ele><time>2026-04-28T13:06:01.694Z</time></trkpt><trkpt lat="43.1745995" lon="12.5126562"><ele>287.0</ele><time>2026-04-28T13:06:02.693Z</time></trkpt><trkpt lat="43.174484" lon="12.5128605"><ele>287.0</ele><time>2026-04-28T13:06:03.694Z</time></trkpt><trkpt lat="43.174369" lon="12.513064"><ele>287.0</ele><time>2026-04-28T13:06:04.694Z</time></trkpt><trkpt lat="43.1742573" lon="12.5132524"><ele>287.6666666666667</ele><time>2026-04-28T13:06:05.694Z</time></trkpt><trkpt lat="43.1741475" lon="12.5134284"><ele>288.3333333333333</ele><time>2026-04-28T13:06:06.694Z</time></trkpt><trkpt lat="43.1740353" lon="12.513591"><ele>289.0</ele><time>2026-04-28T13:06:07.693Z</time></trkpt><trkpt lat="43.1739155" lon="12.5137419"><ele>289.0</ele><time>2026-04-28T13:06:08.692Z</time></trkpt><trkpt lat="43.1737947" lon="12.5138881"><ele>289.0</ele><time>2026-04-28T13:06:09.692Z</time></trkpt><trkpt lat="43.1736715" lon="12.5140264"><ele>289.0</ele><time>2026-04-28T13:06:10.693Z</time></trkpt><trkpt lat="43.173547" lon="12.514157"><ele>289.0</ele><time>2026-04-28T13:06:11.693Z</time></trkpt><trkpt lat="43.1734202" lon="12.5142785"><ele>289.0</ele><time>2026-04-28T13:06:12.692Z</time></trkpt><trkpt lat="43.1732865" lon="12.5143936"><ele>289.0</ele><time>2026-04-28T13:06:13.692Z</time></trkpt><trkpt lat="43.1731479" lon="12.5145047"><ele>289.3333333333333</ele><time>2026-04-28T13:06:14.693Z</time></trkpt><trkpt lat="43.1730078" lon="12.5146181"><ele>289.6666666666667</ele><time>2026-04-28T13:06:15.693Z</time></trkpt><trkpt lat="43.1728675" lon="12.5147328"><ele>290.0</ele><time>2026-04-28T13:06:16.692Z</time></trkpt><trkpt lat="43.1727225" lon="12.5148469"><ele>290.0</ele><time>2026-04-28T13:06:17.693Z</time></trkpt><trkpt lat="43.1725775" lon="12.5149624"><ele>290.0</ele><time>2026-04-28T13:06:18.693Z</time></trkpt><trkpt lat="43.1724301" lon="12.5150787"><ele>290.0</ele><time>2026-04-28T13:06:19.692Z</time></trkpt><trkpt lat="43.1722829" lon="12.515197"><ele>289.33333333333337</ele><time>2026-04-28T13:06:20.693Z</time></trkpt><trkpt lat="43.1721325" lon="12.515317"><ele>288.6666666666667</ele><time>2026-04-28T13:06:21.693Z</time></trkpt><trkpt lat="43.1719789" lon="12.5154376"><ele>288.0</ele><time>2026-04-28T13:06:22.692Z</time></trkpt><trkpt lat="43.171823" lon="12.5155598"><ele>287.6666666666667</ele><time>2026-04-28T13:06:23.693Z</time></trkpt><trkpt lat="43.1716657" lon="12.5156833"><ele>287.33333333333337</ele><time>2026-04-28T13:06:24.693Z</time></trkpt><trkpt lat="43.1715078" lon="12.5158095"><ele>287.0</ele><time>2026-04-28T13:06:25.692Z</time></trkpt><trkpt lat="43.1713485" lon="12.515935"><ele>286.6666666666667</ele><time>2026-04-28T13:06:26.693Z</time></trkpt><trkpt lat="43.1711883" lon="12.5160629"><ele>286.3333333333333</ele><time>2026-04-28T13:06:27.693Z</time></trkpt><trkpt lat="43.1710257" lon="12.5161933"><ele>286.0</ele><time>2026-04-28T13:06:28.692Z</time></trkpt><trkpt lat="43.1708618" lon="12.5163242"><ele>285.66666666666663</ele><time>2026-04-28T13:06:29.692Z</time></trkpt><trkpt lat="43.1706956" lon="12.5164559"><ele>285.3333333333333</ele><time>2026-04-28T13:06:30.693Z</time></trkpt><trkpt lat="43.1705296" lon="12.5165883"><ele>285.0</ele><time>2026-04-28T13:06:31.693Z</time></trkpt><trkpt lat="43.1703631" lon="12.5167235"><ele>285.0</ele><time>2026-04-28T13:06:32.693Z</time></trkpt><trkpt lat="43.1701954" lon="12.5168594"><ele>285.0</ele><time>2026-04-28T13:06:33.693Z</time></trkpt><trkpt lat="43.1700263" lon="12.5169956"><ele>285.0</ele><time>2026-04-28T13:06:34.693Z</time></trkpt><trkpt lat="43.1698595" lon="12.5171306"><ele>285.3333333333333</ele><time>2026-04-28T13:06:35.692Z</time></trkpt><trkpt lat="43.1696911" lon="12.5172612"><ele>285.66666666666663</ele><time>2026-04-28T13:06:36.693Z</time></trkpt><trkpt lat="43.1695222" lon="12.5173929"><ele>286.0</ele><time>2026-04-28T13:06:37.692Z</time></trkpt><trkpt lat="43.1693543" lon="12.5175263"><ele>286.0</ele><time>2026-04-28T13:06:38.693Z</time></trkpt><trkpt lat="43.1691874" lon="12.5176612"><ele>286.0</ele><time>2026-04-28T13:06:39.693Z</time></trkpt><trkpt lat="43.1690217" lon="12.517798"><ele>286.0</ele><time>2026-04-28T13:06:40.693Z</time></trkpt><trkpt lat="43.1688554" lon="12.517932"><ele>287.3333333333333</ele><time>2026-04-28T13:06:41.692Z</time></trkpt><trkpt lat="43.1686871" lon="12.518064"><ele>288.6666666666667</ele><time>2026-04-28T13:06:42.693Z</time></trkpt><trkpt lat="43.1685207" lon="12.5181977"><ele>290.0</ele><time>2026-04-28T13:06:43.693Z</time></trkpt><trkpt lat="43.1683544" lon="12.5183338"><ele>290.0</ele><time>2026-04-28T13:06:44.692Z</time></trkpt><trkpt lat="43.168189" lon="12.5184693"><ele>290.0</ele><time>2026-04-28T13:06:45.693Z</time></trkpt><trkpt lat="43.1680213" lon="12.5186047"><ele>290.0</ele><time>2026-04-28T13:06:46.693Z</time></trkpt><trkpt lat="43.1678558" lon="12.5187383"><ele>292.0</ele><time>2026-04-28T13:06:47.693Z</time></trkpt><trkpt lat="43.1676979" lon="12.5188615"><ele>294.0</ele><time>2026-04-28T13:06:48.692Z</time></trkpt><trkpt lat="43.1675472" lon="12.5189699"><ele>296.0</ele><time>2026-04-28T13:06:49.693Z</time></trkpt><trkpt lat="43.1673997" lon="12.5190568"><ele>297.33333333333337</ele><time>2026-04-28T13:06:50.693Z</time></trkpt><trkpt lat="43.1672504" lon="12.5191148"><ele>298.6666666666667</ele><time>2026-04-28T13:06:51.692Z</time></trkpt><trkpt lat="43.1670947" lon="12.5191394"><ele>300.0</ele><time>2026-04-28T13:06:52.693Z</time></trkpt><trkpt lat="43.1669347" lon="12.5191326"><ele>300.0</ele><time>2026-04-28T13:06:53.693Z</time></trkpt><trkpt lat="43.1667762" lon="12.5190981"><ele>300.0</ele><time>2026-04-28T13:06:54.692Z</time></trkpt><trkpt lat="43.1666186" lon="12.5190371"><ele>300.0</ele><time>2026-04-28T13:06:55.693Z</time></trkpt><trkpt lat="43.1664584" lon="12.5189695"><ele>300.3333333333333</ele><time>2026-04-28T13:06:56.693Z</time></trkpt><trkpt lat="43.1662991" lon="12.5189038"><ele>300.66666666666663</ele><time>2026-04-28T13:06:57.692Z</time></trkpt><trkpt lat="43.1661421" lon="12.5188452"><ele>301.0</ele><time>2026-04-28T13:06:58.693Z</time></trkpt><trkpt lat="43.1659982" lon="12.5187918"><ele>301.0</ele><time>2026-04-28T13:06:59.692Z</time></trkpt><trkpt lat="43.165864" lon="12.5187409"><ele>301.0</ele><time>2026-04-28T13:07:00.693Z</time></trkpt><trkpt lat="43.1657444" lon="12.5186939"><ele>301.0</ele><time>2026-04-28T13:07:01.692Z</time></trkpt><trkpt lat="43.1656394" lon="12.5186534"><ele>301.0</ele><time>2026-04-28T13:07:02.693Z</time></trkpt><trkpt lat="43.1655489" lon="12.5186149"><ele>300.8333333333333</ele><time>2026-04-28T13:07:03.692Z</time></trkpt><trkpt lat="43.1654725" lon="12.5185895"><ele>300.66666666666663</ele><time>2026-04-28T13:07:04.693Z</time></trkpt><trkpt lat="43.1653689" lon="12.5185606"><ele>300.5</ele><time>2026-04-28T13:07:06.692Z</time></trkpt><trkpt lat="43.1652998" lon="12.5185184"><ele>300.3333333333333</ele><time>2026-04-28T13:07:09.692Z</time></trkpt><trkpt lat="43.1653145" lon="12.5186036"><ele>300.1666666666667</ele><time>2026-04-28T13:07:30.693Z</time></trkpt><trkpt lat="43.1654029" lon="12.5186449"><ele>300.0</ele><time>2026-04-28T13:07:32.693Z</time></trkpt><trkpt lat="43.1654533" lon="12.518714"><ele>299.8</ele><time>2026-04-28T13:07:34.693Z</time></trkpt><trkpt lat="43.1655066" lon="12.5188042"><ele>299.6</ele><time>2026-04-28T13:07:36.692Z</time></trkpt><trkpt lat="43.16559" lon="12.5189386"><ele>299.4</ele><time>2026-04-28T13:07:38.692Z</time></trkpt><trkpt lat="43.1656392" lon="12.5190069"><ele>299.2</ele><time>2026-04-28T13:07:39.693Z</time></trkpt><trkpt lat="43.165698" lon="12.5190896"><ele>299.0</ele><time>2026-04-28T13:07:40.693Z</time></trkpt><trkpt lat="43.1657669" lon="12.5191821"><ele>299.4</ele><time>2026-04-28T13:07:41.692Z</time></trkpt><trkpt lat="43.1658446" lon="12.5192809"><ele>299.79999999999995</ele><time>2026-04-28T13:07:42.693Z</time></trkpt><trkpt lat="43.1659209" lon="12.5193808"><ele>300.20000000000005</ele><time>2026-04-28T13:07:43.693Z</time></trkpt><trkpt lat="43.1659998" lon="12.5194854"><ele>300.6</ele><time>2026-04-28T13:07:44.693Z</time></trkpt><trkpt lat="43.1660817" lon="12.519585"><ele>301.0</ele><time>2026-04-28T13:07:45.693Z</time></trkpt><trkpt lat="43.1661532" lon="12.5196779"><ele>301.16666666666663</ele><time>2026-04-28T13:07:46.693Z</time></trkpt><trkpt lat="43.1662125" lon="12.5197663"><ele>301.3333333333333</ele><time>2026-04-28T13:07:47.692Z</time></trkpt><trkpt lat="43.1662649" lon="12.5198513"><ele>301.5</ele><time>2026-04-28T13:07:48.693Z</time></trkpt><trkpt lat="43.1663061" lon="12.5199371"><ele>301.6666666666667</ele><time>2026-04-28T13:07:49.692Z</time></trkpt><trkpt lat="43.1663344" lon="12.5200243"><ele>301.83333333333337</ele><time>2026-04-28T13:07:50.692Z</time></trkpt><trkpt lat="43.1663569" lon="12.5201168"><ele>302.0</ele><time>2026-04-28T13:07:51.693Z</time></trkpt><trkpt lat="43.1663748" lon="12.520215"><ele>302.0</ele><time>2026-04-28T13:07:52.692Z</time></trkpt><trkpt lat="43.1663911" lon="12.520318"><ele>302.0</ele><time>2026-04-28T13:07:53.693Z</time></trkpt><trkpt lat="43.1664079" lon="12.5204236"><ele>302.0</ele><time>2026-04-28T13:07:54.692Z</time></trkpt><trkpt lat="43.1664179" lon="12.5205327"><ele>302.0</ele><time>2026-04-28T13:07:55.693Z</time></trkpt><trkpt lat="43.1664287" lon="12.5206424"><ele>302.0</ele><time>2026-04-28T13:07:56.693Z</time></trkpt><trkpt lat="43.1664321" lon="12.5207514"><ele>302.0</ele><time>2026-04-28T13:07:57.693Z</time></trkpt><trkpt lat="43.1664342" lon="12.5208652"><ele>302.0</ele><time>2026-04-28T13:07:58.692Z</time></trkpt><trkpt lat="43.1664348" lon="12.5209844"><ele>302.0</ele><time>2026-04-28T13:07:59.693Z</time></trkpt><trkpt lat="43.1664344" lon="12.5211156"><ele>302.0</ele><time>2026-04-28T13:08:00.692Z</time></trkpt><trkpt lat="43.1664306" lon="12.5212578"><ele>302.0</ele><time>2026-04-28T13:08:01.692Z</time></trkpt><trkpt lat="43.1664263" lon="12.52141"><ele>302.0</ele><time>2026-04-28T13:08:02.693Z</time></trkpt><trkpt lat="43.1664231" lon="12.5215684"><ele>302.25</ele><time>2026-04-28T13:08:03.693Z</time></trkpt><trkpt lat="43.1664191" lon="12.5217352"><ele>302.5</ele><time>2026-04-28T13:08:04.693Z</time></trkpt><trkpt lat="43.1664146" lon="12.5219049"><ele>302.75</ele><time>2026-04-28T13:08:05.693Z</time></trkpt><trkpt lat="43.1664185" lon="12.5220697"><ele>303.0</ele><time>2026-04-28T13:08:06.692Z</time></trkpt><trkpt lat="43.1664374" lon="12.5222231"><ele>303.5</ele><time>2026-04-28T13:08:07.693Z</time></trkpt><trkpt lat="43.1664712" lon="12.5223782"><ele>304.0</ele><time>2026-04-28T13:08:08.693Z</time></trkpt><trkpt lat="43.1665181" lon="12.5225222"><ele>304.5</ele><time>2026-04-28T13:08:09.693Z</time></trkpt><trkpt lat="43.166574" lon="12.5226587"><ele>305.0</ele><time>2026-04-28T13:08:10.693Z</time></trkpt><trkpt lat="43.1666312" lon="12.5227956"><ele>307.0</ele><time>2026-04-28T13:08:11.692Z</time></trkpt><trkpt lat="43.1666847" lon="12.5229363"><ele>309.0</ele><time>2026-04-28T13:08:12.693Z</time></trkpt><trkpt lat="43.1667297" lon="12.5230834"><ele>311.0</ele><time>2026-04-28T13:08:13.692Z</time></trkpt><trkpt lat="43.1667688" lon="12.5232319"><ele>313.0</ele><time>2026-04-28T13:08:14.693Z</time></trkpt><trkpt lat="43.1667988" lon="12.5233821"><ele>313.0</ele><time>2026-04-28T13:08:15.692Z</time></trkpt><trkpt lat="43.1668181" lon="12.5235326"><ele>313.0</ele><time>2026-04-28T13:08:16.693Z</time></trkpt><trkpt lat="43.1668291" lon="12.5236846"><ele>313.0</ele><time>2026-04-28T13:08:17.693Z</time></trkpt><trkpt lat="43.1668314" lon="12.5238303"><ele>313.0</ele><time>2026-04-28T13:08:18.692Z</time></trkpt><trkpt lat="43.1668252" lon="12.5239673"><ele>313.0</ele><time>2026-04-28T13:08:19.693Z</time></trkpt><trkpt lat="43.1668131" lon="12.5241085"><ele>314.0</ele><time>2026-04-28T13:08:20.693Z</time></trkpt><trkpt lat="43.1667979" lon="12.5242508"><ele>315.0</ele><time>2026-04-28T13:08:21.693Z</time></trkpt><trkpt lat="43.1667772" lon="12.5243928"><ele>316.0</ele><time>2026-04-28T13:08:22.692Z</time></trkpt><trkpt lat="43.1667523" lon="12.5245287"><ele>317.0</ele><time>2026-04-28T13:08:23.693Z</time></trkpt><trkpt lat="43.1667295" lon="12.524655"><ele>318.0</ele><time>2026-04-28T13:08:24.693Z</time></trkpt><trkpt lat="43.1667203" lon="12.5247583"><ele>319.1428571428571</ele><time>2026-04-28T13:08:25.693Z</time></trkpt><trkpt lat="43.1667302" lon="12.5248444"><ele>320.28571428571433</ele><time>2026-04-28T13:08:26.693Z</time></trkpt><trkpt lat="43.1667562" lon="12.5249296"><ele>321.42857142857144</ele><time>2026-04-28T13:08:27.693Z</time></trkpt><trkpt lat="43.1667908" lon="12.5250067"><ele>322.57142857142856</ele><time>2026-04-28T13:08:28.693Z</time></trkpt><trkpt lat="43.1668328" lon="12.52509"><ele>323.71428571428567</ele><time>2026-04-28T13:08:29.693Z</time></trkpt><trkpt lat="43.1668781" lon="12.5251764"><ele>324.8571428571429</ele><time>2026-04-28T13:08:30.693Z</time></trkpt><trkpt lat="43.1669242" lon="12.5252634"><ele>326.0</ele><time>2026-04-28T13:08:31.693Z</time></trkpt><trkpt lat="43.1669696" lon="12.5253516"><ele>328.33333333333337</ele><time>2026-04-28T13:08:32.693Z</time></trkpt><trkpt lat="43.1670084" lon="12.5254384"><ele>330.6666666666667</ele><time>2026-04-28T13:08:33.693Z</time></trkpt><trkpt lat="43.1670462" lon="12.5255904"><ele>333.0</ele><time>2026-04-28T13:08:35.693Z</time></trkpt><trkpt lat="43.1670233" lon="12.5256921"><ele>335.3333333333333</ele><time>2026-04-28T13:08:37.693Z</time></trkpt><trkpt lat="43.1669276" lon="12.5257345"><ele>337.66666666666663</ele><time>2026-04-28T13:08:39.693Z</time></trkpt><trkpt lat="43.1668591" lon="12.5257393"><ele>340.0</ele><time>2026-04-28T13:08:40.693Z</time></trkpt><trkpt lat="43.1667895" lon="12.5257556"><ele>340.0</ele><time>2026-04-28T13:08:41.693Z</time></trkpt><trkpt lat="43.1667239" lon="12.5257813"><ele>340.0</ele><time>2026-04-28T13:08:42.693Z</time></trkpt><trkpt lat="43.1666623" lon="12.5258254"><ele>340.0</ele><time>2026-04-28T13:08:43.692Z</time></trkpt><trkpt lat="43.1666067" lon="12.525903"><ele>340.0</ele><time>2026-04-28T13:08:44.693Z</time></trkpt><trkpt lat="43.1665624" lon="12.5260071"><ele>340.0</ele><time>2026-04-28T13:08:45.693Z</time></trkpt><trkpt lat="43.1665321" lon="12.526123"><ele>340.0</ele><time>2026-04-28T13:08:46.691Z</time></trkpt><trkpt lat="43.1664937" lon="12.5262323"><ele>341.6</ele><time>2026-04-28T13:08:47.693Z</time></trkpt><trkpt lat="43.1664382" lon="12.5263415"><ele>343.2</ele><time>2026-04-28T13:08:48.693Z</time></trkpt><trkpt lat="43.1663726" lon="12.5264456"><ele>344.79999999999995</ele><time>2026-04-28T13:08:49.693Z</time></trkpt><trkpt lat="43.1663051" lon="12.5265441"><ele>346.4</ele><time>2026-04-28T13:08:50.692Z</time></trkpt><trkpt lat="43.1662403" lon="12.526637"><ele>348.0</ele><time>2026-04-28T13:08:51.693Z</time></trkpt><trkpt lat="43.1661865" lon="12.5267244"><ele>348.0</ele><time>2026-04-28T13:08:52.693Z</time></trkpt><trkpt lat="43.1661373" lon="12.526824"><ele>348.0</ele><time>2026-04-28T13:08:53.692Z</time></trkpt><trkpt lat="43.1661069" lon="12.5269392"><ele>348.0</ele><time>2026-04-28T13:08:54.692Z</time></trkpt><trkpt lat="43.1660909" lon="12.527064"><ele>348.0</ele><time>2026-04-28T13:08:55.693Z</time></trkpt><trkpt lat="43.1660797" lon="12.5271821"><ele>348.0</ele><time>2026-04-28T13:08:56.693Z</time></trkpt><trkpt lat="43.1660808" lon="12.5272703"><ele>348.0</ele><time>2026-04-28T13:08:57.692Z</time></trkpt><trkpt lat="43.1661471" lon="12.5273766"><ele>349.5</ele><time>2026-04-28T13:08:59.693Z</time></trkpt><trkpt lat="43.1662186" lon="12.5274151"><ele>351.0</ele><time>2026-04-28T13:09:00.693Z</time></trkpt><trkpt lat="43.166297" lon="12.5274393"><ele>352.5</ele><time>2026-04-28T13:09:01.692Z</time></trkpt><trkpt lat="43.1663825" lon="12.527469"><ele>354.0</ele><time>2026-04-28T13:09:02.693Z</time></trkpt><trkpt lat="43.1664627" lon="12.5275121"><ele>355.5</ele><time>2026-04-28T13:09:03.692Z</time></trkpt><trkpt lat="43.1665191" lon="12.5275671"><ele>357.0</ele><time>2026-04-28T13:09:04.693Z</time></trkpt><trkpt lat="43.1665532" lon="12.5277046"><ele>357.0</ele><time>2026-04-28T13:09:06.693Z</time></trkpt><trkpt lat="43.166493" lon="12.5278837"><ele>357.0</ele><time>2026-04-28T13:09:08.693Z</time></trkpt><trkpt lat="43.1664446" lon="12.5279806"><ele>357.0</ele><time>2026-04-28T13:09:09.692Z</time></trkpt><trkpt lat="43.1663951" lon="12.5280823"><ele>357.0</ele><time>2026-04-28T13:09:10.693Z</time></trkpt><trkpt lat="43.1663452" lon="12.528193"><ele>357.0</ele><time>2026-04-28T13:09:11.693Z</time></trkpt><trkpt lat="43.1662942" lon="12.528303"><ele>360.0</ele><time>2026-04-28T13:09:12.692Z</time></trkpt><trkpt lat="43.1662435" lon="12.5283952"><ele>363.0</ele><time>2026-04-28T13:09:13.693Z</time></trkpt><trkpt lat="43.1661951" lon="12.5284733"><ele>366.0</ele><time>2026-04-28T13:09:14.692Z</time></trkpt><trkpt lat="43.1661511" lon="12.5286111"><ele>369.0</ele><time>2026-04-28T13:09:16.692Z</time></trkpt><trkpt lat="43.1661959" lon="12.5287219"><ele>372.0</ele><time>2026-04-28T13:09:18.692Z</time></trkpt><trkpt lat="43.1662783" lon="12.528809"><ele>374.1666666666667</ele><time>2026-04-28T13:09:20.693Z</time></trkpt><trkpt lat="43.1663461" lon="12.5289331"><ele>376.33333333333337</ele><time>2026-04-28T13:09:22.692Z</time></trkpt><trkpt lat="43.1663692" lon="12.5290153"><ele>378.5</ele><time>2026-04-28T13:09:23.693Z</time></trkpt><trkpt lat="43.1663819" lon="12.5291026"><ele>380.6666666666667</ele><time>2026-04-28T13:09:24.692Z</time></trkpt><trkpt lat="43.1663849" lon="12.5292058"><ele>382.83333333333337</ele><time>2026-04-28T13:09:25.693Z</time></trkpt><trkpt lat="43.1663805" lon="12.529321"><ele>385.0</ele><time>2026-04-28T13:09:26.693Z</time></trkpt><trkpt lat="43.1663708" lon="12.5294464"><ele>386.8</ele><time>2026-04-28T13:09:27.693Z</time></trkpt><trkpt lat="43.1663544" lon="12.5295785"><ele>388.6</ele><time>2026-04-28T13:09:28.693Z</time></trkpt><trkpt lat="43.1663348" lon="12.5297181"><ele>390.4</ele><time>2026-04-28T13:09:29.693Z</time></trkpt><trkpt lat="43.1663182" lon="12.5298713"><ele>392.2</ele><time>2026-04-28T13:09:30.692Z</time></trkpt><trkpt lat="43.1663066" lon="12.5300199"><ele>394.0</ele><time>2026-04-28T13:09:31.692Z</time></trkpt><trkpt lat="43.1662992" lon="12.5301692"><ele>394.0</ele><time>2026-04-28T13:09:32.693Z</time></trkpt><trkpt lat="43.1662949" lon="12.5303041"><ele>394.0</ele><time>2026-04-28T13:09:33.693Z</time></trkpt><trkpt lat="43.1662998" lon="12.5304386"><ele>394.0</ele><time>2026-04-28T13:09:34.693Z</time></trkpt><trkpt lat="43.1663194" lon="12.5305653"><ele>394.0</ele><time>2026-04-28T13:09:35.693Z</time></trkpt><trkpt lat="43.1663453" lon="12.5306858"><ele>394.0</ele><time>2026-04-28T13:09:36.692Z</time></trkpt><trkpt lat="43.1663719" lon="12.5307867"><ele>396.00000000000006</ele><time>2026-04-28T13:09:37.693Z</time></trkpt><trkpt lat="43.1664018" lon="12.5308938"><ele>398.0</ele><time>2026-04-28T13:09:38.693Z</time></trkpt><trkpt lat="43.1664329" lon="12.531003"><ele>400.0</ele><time>2026-04-28T13:09:39.693Z</time></trkpt><trkpt lat="43.1664569" lon="12.5311119"><ele>402.0</ele><time>2026-04-28T13:09:40.692Z</time></trkpt><trkpt lat="43.1664728" lon="12.5312286"><ele>404.00000000000006</ele><time>2026-04-28T13:09:41.693Z</time></trkpt><trkpt lat="43.1664755" lon="12.5313472"><ele>406.0</ele><time>2026-04-28T13:09:42.693Z</time></trkpt><trkpt lat="43.1664617" lon="12.5314643"><ele>409.6</ele><time>2026-04-28T13:09:43.693Z</time></trkpt><trkpt lat="43.1664374" lon="12.5315754"><ele>413.20000000000005</ele><time>2026-04-28T13:09:44.691Z</time></trkpt><trkpt lat="43.1664188" lon="12.5316854"><ele>416.79999999999995</ele><time>2026-04-28T13:09:45.692Z</time></trkpt><trkpt lat="43.1664058" lon="12.5318085"><ele>420.4</ele><time>2026-04-28T13:09:46.691Z</time></trkpt><trkpt lat="43.1664062" lon="12.531944"><ele>424.0</ele><time>2026-04-28T13:09:47.692Z</time></trkpt><trkpt lat="43.1664104" lon="12.5320928"><ele>421.4</ele><time>2026-04-28T13:09:48.69Z</time></trkpt><trkpt lat="43.166421" lon="12.5322388"><ele>418.79999999999995</ele><time>2026-04-28T13:09:49.692Z</time></trkpt><trkpt lat="43.1664477" lon="12.5323822"><ele>416.20000000000005</ele><time>2026-04-28T13:09:50.692Z</time></trkpt><trkpt lat="43.1664937" lon="12.5325165"><ele>413.6</ele><time>2026-04-28T13:09:51.692Z</time></trkpt><trkpt lat="43.1665578" lon="12.5326447"><ele>411.0</ele><time>2026-04-28T13:09:52.692Z</time></trkpt><trkpt lat="43.1666313" lon="12.5327682"><ele>411.0</ele><time>2026-04-28T13:09:53.692Z</time></trkpt><trkpt lat="43.1667095" lon="12.5328826"><ele>411.0</ele><time>2026-04-28T13:09:54.691Z</time></trkpt><trkpt lat="43.1667754" lon="12.5329769"><ele>411.0</ele><time>2026-04-28T13:09:55.692Z</time></trkpt><trkpt lat="43.1668261" lon="12.5330594"><ele>411.0</ele><time>2026-04-28T13:09:56.692Z</time></trkpt><trkpt lat="43.166863" lon="12.5331353"><ele>411.0</ele><time>2026-04-28T13:09:57.692Z</time></trkpt><trkpt lat="43.1668979" lon="12.5332238"><ele>411.0</ele><time>2026-04-28T13:09:58.692Z</time></trkpt><trkpt lat="43.1669253" lon="12.5333192"><ele>413.5</ele><time>2026-04-28T13:09:59.691Z</time></trkpt><trkpt lat="43.166939" lon="12.5334089"><ele>416.0</ele><time>2026-04-28T13:10:00.692Z</time></trkpt><trkpt lat="43.16694" lon="12.5335002"><ele>418.5</ele><time>2026-04-28T13:10:01.691Z</time></trkpt><trkpt lat="43.1669291" lon="12.5335927"><ele>421.0</ele><time>2026-04-28T13:10:02.692Z</time></trkpt><trkpt lat="43.1669062" lon="12.5336983"><ele>423.5</ele><time>2026-04-28T13:10:03.692Z</time></trkpt><trkpt lat="43.166875" lon="12.5338214"><ele>426.0</ele><time>2026-04-28T13:10:04.692Z</time></trkpt><trkpt lat="43.1668392" lon="12.5339577"><ele>427.0</ele><time>2026-04-28T13:10:05.691Z</time></trkpt><trkpt lat="43.1668029" lon="12.5341025"><ele>428.0</ele><time>2026-04-28T13:10:06.692Z</time></trkpt><trkpt lat="43.1667692" lon="12.5342402"><ele>429.0</ele><time>2026-04-28T13:10:07.692Z</time></trkpt><trkpt lat="43.1667385" lon="12.5343838"><ele>430.0</ele><time>2026-04-28T13:10:08.691Z</time></trkpt><trkpt lat="43.1667141" lon="12.5345254"><ele>431.0</ele><time>2026-04-28T13:10:09.692Z</time></trkpt><trkpt lat="43.1666967" lon="12.5346573"><ele>430.99999999999994</ele><time>2026-04-28T13:10:10.691Z</time></trkpt><trkpt lat="43.1666867" lon="12.5347776"><ele>431.0</ele><time>2026-04-28T13:10:11.692Z</time></trkpt><trkpt lat="43.1666835" lon="12.5348912"><ele>431.0</ele><time>2026-04-28T13:10:12.691Z</time></trkpt><trkpt lat="43.1666828" lon="12.5350045"><ele>431.0</ele><time>2026-04-28T13:10:13.692Z</time></trkpt><trkpt lat="43.166687" lon="12.5351093"><ele>430.99999999999994</ele><time>2026-04-28T13:10:14.692Z</time></trkpt><trkpt lat="43.166701" lon="12.5352294"><ele>431.0</ele><time>2026-04-28T13:10:15.691Z</time></trkpt><trkpt lat="43.1667267" lon="12.5353469"><ele>431.8333333333333</ele><time>2026-04-28T13:10:16.692Z</time></trkpt><trkpt lat="43.1667627" lon="12.5354588"><ele>432.66666666666663</ele><time>2026-04-28T13:10:17.692Z</time></trkpt><trkpt lat="43.1668001" lon="12.5355688"><ele>433.5</ele><time>2026-04-28T13:10:18.691Z</time></trkpt><trkpt lat="43.1668364" lon="12.5356777"><ele>434.33333333333337</ele><time>2026-04-28T13:10:19.692Z</time></trkpt><trkpt lat="43.1668693" lon="12.5357812"><ele>435.1666666666667</ele><time>2026-04-28T13:10:20.692Z</time></trkpt><trkpt lat="43.166895" lon="12.535872"><ele>436.0</ele><time>2026-04-28T13:10:21.692Z</time></trkpt><trkpt lat="43.1669102" lon="12.5360087"><ele>436.0</ele><time>2026-04-28T13:10:23.692Z</time></trkpt><trkpt lat="43.1668916" lon="12.5361045"><ele>436.0</ele><time>2026-04-28T13:10:25.692Z</time></trkpt><trkpt lat="43.1668122" lon="12.5361089"><ele>436.0</ele><time>2026-04-28T13:10:28.692Z</time></trkpt><trkpt lat="43.1667112" lon="12.5359844"><ele>436.0</ele><time>2026-04-28T13:10:30.691Z</time></trkpt><trkpt lat="43.1666496" lon="12.5359061"><ele>436.0</ele><time>2026-04-28T13:10:31.691Z</time></trkpt><trkpt lat="43.1665734" lon="12.5358198"><ele>434.75</ele><time>2026-04-28T13:10:32.692Z</time></trkpt><trkpt lat="43.166486" lon="12.5357276"><ele>433.5</ele><time>2026-04-28T13:10:33.692Z</time></trkpt><trkpt lat="43.1663984" lon="12.535636"><ele>432.25</ele><time>2026-04-28T13:10:34.692Z</time></trkpt><trkpt lat="43.1663046" lon="12.5355463"><ele>431.0</ele><time>2026-04-28T13:10:35.692Z</time></trkpt><trkpt lat="43.1662071" lon="12.5354609"><ele>431.0</ele><time>2026-04-28T13:10:36.692Z</time></trkpt><trkpt lat="43.1661139" lon="12.5353895"><ele>431.0</ele><time>2026-04-28T13:10:37.691Z</time></trkpt><trkpt lat="43.1660285" lon="12.5353264"><ele>431.0</ele><time>2026-04-28T13:10:38.691Z</time></trkpt><trkpt lat="43.1659515" lon="12.5352717"><ele>431.0</ele><time>2026-04-28T13:10:39.692Z</time></trkpt><trkpt lat="43.1658766" lon="12.5352175"><ele>431.0</ele><time>2026-04-28T13:10:40.692Z</time></trkpt><trkpt lat="43.1657972" lon="12.5351573"><ele>430.6</ele><time>2026-04-28T13:10:41.691Z</time></trkpt><trkpt lat="43.1657182" lon="12.5350879"><ele>430.20000000000005</ele><time>2026-04-28T13:10:42.692Z</time></trkpt><trkpt lat="43.1656371" lon="12.5350082"><ele>429.79999999999995</ele><time>2026-04-28T13:10:43.692Z</time></trkpt><trkpt lat="43.1655582" lon="12.5349272"><ele>429.4</ele><time>2026-04-28T13:10:44.692Z</time></trkpt><trkpt lat="43.1654879" lon="12.5348564"><ele>429.0</ele><time>2026-04-28T13:10:45.692Z</time></trkpt><trkpt lat="43.1654192" lon="12.534787"><ele>429.0</ele><time>2026-04-28T13:10:46.692Z</time></trkpt><trkpt lat="43.1653537" lon="12.5347232"><ele>429.0</ele><time>2026-04-28T13:10:47.692Z</time></trkpt><trkpt lat="43.1652896" lon="12.5346612"><ele>429.0</ele><time>2026-04-28T13:10:48.691Z</time></trkpt><trkpt lat="43.1652292" lon="12.5346023"><ele>429.0</ele><time>2026-04-28T13:10:49.692Z</time></trkpt><trkpt lat="43.1651688" lon="12.5345418"><ele>429.0</ele><time>2026-04-28T13:10:50.692Z</time></trkpt><trkpt lat="43.1651009" lon="12.5344713"><ele>429.0</ele><time>2026-04-28T13:10:51.692Z</time></trkpt><trkpt lat="43.1650281" lon="12.5343894"><ele>430.5</ele><time>2026-04-28T13:10:52.691Z</time></trkpt><trkpt lat="43.1649619" lon="12.5343087"><ele>432.0</ele><time>2026-04-28T13:10:53.691Z</time></trkpt><trkpt lat="43.1649005" lon="12.5342266"><ele>433.5</ele><time>2026-04-28T13:10:54.691Z</time></trkpt><trkpt lat="43.1648471" lon="12.5341388"><ele>435.0</ele><time>2026-04-28T13:10:55.692Z</time></trkpt><trkpt lat="43.1647966" lon="12.5340448"><ele>436.5</ele><time>2026-04-28T13:10:56.692Z</time></trkpt><trkpt lat="43.1647475" lon="12.5339423"><ele>438.0</ele><time>2026-04-28T13:10:57.692Z</time></trkpt><trkpt lat="43.1646985" lon="12.5338379"><ele>435.4</ele><time>2026-04-28T13:10:58.692Z</time></trkpt><trkpt lat="43.164652" lon="12.533736"><ele>432.79999999999995</ele><time>2026-04-28T13:10:59.691Z</time></trkpt><trkpt lat="43.1646041" lon="12.5336282"><ele>430.2</ele><time>2026-04-28T13:11:00.692Z</time></trkpt><trkpt lat="43.1645534" lon="12.5335201"><ele>427.6</ele><time>2026-04-28T13:11:01.692Z</time></trkpt><trkpt lat="43.1645027" lon="12.5334147"><ele>425.0</ele><time>2026-04-28T13:11:02.692Z</time></trkpt><trkpt lat="43.164455" lon="12.5333186"><ele>424.99999999999994</ele><time>2026-04-28T13:11:03.691Z</time></trkpt><trkpt lat="43.1644059" lon="12.5332307"><ele>425.0</ele><time>2026-04-28T13:11:04.692Z</time></trkpt><trkpt lat="43.1643579" lon="12.533146"><ele>425.0</ele><time>2026-04-28T13:11:05.692Z</time></trkpt><trkpt lat="43.1643076" lon="12.5330642"><ele>425.0</ele><time>2026-04-28T13:11:06.692Z</time></trkpt><trkpt lat="43.164256" lon="12.5329781"><ele>424.99999999999994</ele><time>2026-04-28T13:11:07.691Z</time></trkpt><trkpt lat="43.1642051" lon="12.5328951"><ele>425.0</ele><time>2026-04-28T13:11:08.692Z</time></trkpt><trkpt lat="43.1641553" lon="12.5328172"><ele>426.3333333333333</ele><time>2026-04-28T13:11:09.691Z</time></trkpt><trkpt lat="43.1641061" lon="12.5327431"><ele>427.66666666666663</ele><time>2026-04-28T13:11:10.691Z</time></trkpt><trkpt lat="43.1640579" lon="12.5326708"><ele>429.0</ele><time>2026-04-28T13:11:11.691Z</time></trkpt><trkpt lat="43.1640089" lon="12.5325971"><ele>430.33333333333337</ele><time>2026-04-28T13:11:12.692Z</time></trkpt><trkpt lat="43.1639531" lon="12.5325154"><ele>431.6666666666667</ele><time>2026-04-28T13:11:13.692Z</time></trkpt><trkpt lat="43.1638935" lon="12.5324307"><ele>433.0</ele><time>2026-04-28T13:11:14.692Z</time></trkpt><trkpt lat="43.1638357" lon="12.5323441"><ele>431.00000000000006</ele><time>2026-04-28T13:11:15.691Z</time></trkpt><trkpt lat="43.1637767" lon="12.5322555"><ele>429.0</ele><time>2026-04-28T13:11:16.692Z</time></trkpt><trkpt lat="43.163718" lon="12.5321698"><ele>427.0</ele><time>2026-04-28T13:11:17.691Z</time></trkpt><trkpt lat="43.1636619" lon="12.5320899"><ele>425.0</ele><time>2026-04-28T13:11:18.691Z</time></trkpt><trkpt lat="43.1636025" lon="12.5320224"><ele>423.00000000000006</ele><time>2026-04-28T13:11:19.692Z</time></trkpt><trkpt lat="43.1635412" lon="12.5319704"><ele>421.0</ele><time>2026-04-28T13:11:20.692Z</time></trkpt><trkpt lat="43.1634751" lon="12.5319256"><ele>421.00000000000006</ele><time>2026-04-28T13:11:21.692Z</time></trkpt><trkpt lat="43.1634042" lon="12.5318879"><ele>421.0</ele><time>2026-04-28T13:11:22.691Z</time></trkpt><trkpt lat="43.1633325" lon="12.5318559"><ele>421.0</ele><time>2026-04-28T13:11:23.692Z</time></trkpt><trkpt lat="43.1632635" lon="12.5318275"><ele>421.0</ele><time>2026-04-28T13:11:24.692Z</time></trkpt><trkpt lat="43.1631959" lon="12.5317985"><ele>421.0</ele><time>2026-04-28T13:11:25.692Z</time></trkpt><trkpt lat="43.1631325" lon="12.531771"><ele>421.00000000000006</ele><time>2026-04-28T13:11:26.691Z</time></trkpt><trkpt lat="43.1630614" lon="12.531741"><ele>421.0</ele><time>2026-04-28T13:11:27.692Z</time></trkpt><trkpt lat="43.1629811" lon="12.5317069"><ele>419.6</ele><time>2026-04-28T13:11:28.691Z</time></trkpt><trkpt lat="43.1629093" lon="12.5316822"><ele>418.20000000000005</ele><time>2026-04-28T13:11:29.692Z</time></trkpt><trkpt lat="43.1628405" lon="12.5316688"><ele>416.79999999999995</ele><time>2026-04-28T13:11:30.692Z</time></trkpt><trkpt lat="43.1627733" lon="12.5316744"><ele>415.4</ele><time>2026-04-28T13:11:31.691Z</time></trkpt><trkpt lat="43.1626687" lon="12.5317471"><ele>414.0</ele><time>2026-04-28T13:11:33.692Z</time></trkpt><trkpt lat="43.1625942" lon="12.5318833"><ele>414.0</ele><time>2026-04-28T13:11:35.692Z</time></trkpt><trkpt lat="43.1625516" lon="12.5319663"><ele>414.0</ele><time>2026-04-28T13:11:36.692Z</time></trkpt><trkpt lat="43.1624958" lon="12.5320588"><ele>414.0</ele><time>2026-04-28T13:11:37.691Z</time></trkpt><trkpt lat="43.1624307" lon="12.5321422"><ele>414.0</ele><time>2026-04-28T13:11:38.692Z</time></trkpt><trkpt lat="43.1623567" lon="12.5322228"><ele>414.0</ele><time>2026-04-28T13:11:39.692Z</time></trkpt><trkpt lat="43.1622753" lon="12.5322999"><ele>414.0</ele><time>2026-04-28T13:11:40.692Z</time></trkpt><trkpt lat="43.1621929" lon="12.5323697"><ele>415.1666666666667</ele><time>2026-04-28T13:11:41.692Z</time></trkpt><trkpt lat="43.1621146" lon="12.5324326"><ele>416.33333333333337</ele><time>2026-04-28T13:11:42.692Z</time></trkpt><trkpt lat="43.1620367" lon="12.5324938"><ele>417.5</ele><time>2026-04-28T13:11:43.692Z</time></trkpt><trkpt lat="43.1619631" lon="12.5325599"><ele>418.6666666666667</ele><time>2026-04-28T13:11:44.692Z</time></trkpt><trkpt lat="43.1619018" lon="12.5326418"><ele>419.83333333333337</ele><time>2026-04-28T13:11:45.692Z</time></trkpt><trkpt lat="43.1618467" lon="12.5327471"><ele>421.0</ele><time>2026-04-28T13:11:46.692Z</time></trkpt><trkpt lat="43.1618019" lon="12.5328643"><ele>419.8</ele><time>2026-04-28T13:11:47.692Z</time></trkpt><trkpt lat="43.1617599" lon="12.532987"><ele>418.6</ele><time>2026-04-28T13:11:48.692Z</time></trkpt><trkpt lat="43.1617191" lon="12.5331125"><ele>417.4</ele><time>2026-04-28T13:11:49.692Z</time></trkpt><trkpt lat="43.1616774" lon="12.5332292"><ele>416.2</ele><time>2026-04-28T13:11:50.692Z</time></trkpt><trkpt lat="43.1616326" lon="12.5333405"><ele>415.0</ele><time>2026-04-28T13:11:51.692Z</time></trkpt><trkpt lat="43.1615887" lon="12.5334443"><ele>415.0</ele><time>2026-04-28T13:11:52.692Z</time></trkpt><trkpt lat="43.1615435" lon="12.5335311"><ele>415.0</ele><time>2026-04-28T13:11:53.692Z</time></trkpt><trkpt lat="43.1614951" lon="12.5335987"><ele>415.0</ele><time>2026-04-28T13:11:54.692Z</time></trkpt><trkpt lat="43.1614409" lon="12.5336512"><ele>415.0</ele><time>2026-04-28T13:11:55.692Z</time></trkpt><trkpt lat="43.1613781" lon="12.533682"><ele>415.0</ele><time>2026-04-28T13:11:56.691Z</time></trkpt><trkpt lat="43.1613032" lon="12.5336949"><ele>415.0</ele><time>2026-04-28T13:11:57.691Z</time></trkpt><trkpt lat="43.161214" lon="12.5336931"><ele>415.0</ele><time>2026-04-28T13:11:58.692Z</time></trkpt><trkpt lat="43.1611152" lon="12.5336916"><ele>415.0</ele><time>2026-04-28T13:11:59.692Z</time></trkpt><trkpt lat="43.1610074" lon="12.5336939"><ele>415.0</ele><time>2026-04-28T13:12:00.692Z</time></trkpt><trkpt lat="43.1609012" lon="12.5336982"><ele>415.0</ele><time>2026-04-28T13:12:01.692Z</time></trkpt><trkpt lat="43.1607975" lon="12.5336934"><ele>415.0</ele><time>2026-04-28T13:12:02.691Z</time></trkpt><trkpt lat="43.160703" lon="12.5336883"><ele>415.0</ele><time>2026-04-28T13:12:03.692Z</time></trkpt><trkpt lat="43.160624" lon="12.5336621"><ele>415.0</ele><time>2026-04-28T13:12:04.692Z</time></trkpt><trkpt lat="43.1605554" lon="12.5336165"><ele>415.0</ele><time>2026-04-28T13:12:05.691Z</time></trkpt><trkpt lat="43.1604987" lon="12.5335574"><ele>415.0</ele><time>2026-04-28T13:12:06.692Z</time></trkpt><trkpt lat="43.160449" lon="12.5334935"><ele>415.0</ele><time>2026-04-28T13:12:07.692Z</time></trkpt><trkpt lat="43.1604045" lon="12.5334258"><ele>415.0</ele><time>2026-04-28T13:12:08.692Z</time></trkpt><trkpt lat="43.1603544" lon="12.5333495"><ele>415.0</ele><time>2026-04-28T13:12:09.691Z</time></trkpt><trkpt lat="43.1603009" lon="12.5332741"><ele>415.0</ele><time>2026-04-28T13:12:10.692Z</time></trkpt><trkpt lat="43.1602456" lon="12.5332081"><ele>415.0</ele><time>2026-04-28T13:12:11.692Z</time></trkpt><trkpt lat="43.1601836" lon="12.5331452"><ele>415.0</ele><time>2026-04-28T13:12:12.692Z</time></trkpt><trkpt lat="43.1601179" lon="12.5330865"><ele>415.0</ele><time>2026-04-28T13:12:13.691Z</time></trkpt><trkpt lat="43.1600524" lon="12.5330452"><ele>415.0</ele><time>2026-04-28T13:12:14.692Z</time></trkpt><trkpt lat="43.1599889" lon="12.5330079"><ele>415.0</ele><time>2026-04-28T13:12:15.692Z</time></trkpt><trkpt lat="43.1599274" lon="12.5329753"><ele>415.0</ele><time>2026-04-28T13:12:16.692Z</time></trkpt><trkpt lat="43.1598654" lon="12.5329395"><ele>415.0</ele><time>2026-04-28T13:12:17.691Z</time></trkpt><trkpt lat="43.1597957" lon="12.5329027"><ele>416.2</ele><time>2026-04-28T13:12:18.692Z</time></trkpt><trkpt lat="43.1597188" lon="12.5328618"><ele>417.4</ele><time>2026-04-28T13:12:19.692Z</time></trkpt><trkpt lat="43.15963" lon="12.5328136"><ele>418.6</ele><time>2026-04-28T13:12:20.692Z</time></trkpt><trkpt lat="43.1595383" lon="12.5327579"><ele>419.8</ele><time>2026-04-28T13:12:21.692Z</time></trkpt><trkpt lat="43.1594535" lon="12.532709"><ele>421.0</ele><time>2026-04-28T13:12:22.691Z</time></trkpt><trkpt lat="43.1593757" lon="12.5326618"><ele>421.00000000000006</ele><time>2026-04-28T13:12:23.69Z</time></trkpt><trkpt lat="43.1593049" lon="12.5326191"><ele>421.0</ele><time>2026-04-28T13:12:24.692Z</time></trkpt><trkpt lat="43.1592389" lon="12.5325837"><ele>421.0</ele><time>2026-04-28T13:12:25.692Z</time></trkpt><trkpt lat="43.1591723" lon="12.5325627"><ele>421.0</ele><time>2026-04-28T13:12:26.692Z</time></trkpt><trkpt lat="43.1590983" lon="12.5325656"><ele>421.00000000000006</ele><time>2026-04-28T13:12:27.692Z</time></trkpt><trkpt lat="43.1590171" lon="12.5326008"><ele>421.0</ele><time>2026-04-28T13:12:28.692Z</time></trkpt><trkpt lat="43.1589427" lon="12.5326603"><ele>421.0</ele><time>2026-04-28T13:12:29.692Z</time></trkpt><trkpt lat="43.1588851" lon="12.5327371"><ele>421.0</ele><time>2026-04-28T13:12:30.691Z</time></trkpt><trkpt lat="43.1588251" lon="12.5328006"><ele>421.0</ele><time>2026-04-28T13:12:31.691Z</time></trkpt><trkpt lat="43.1587685" lon="12.5328447"><ele>421.0</ele><time>2026-04-28T13:12:32.692Z</time></trkpt><trkpt lat="43.1586537" lon="12.532893"><ele>421.0</ele><time>2026-04-28T13:12:34.692Z</time></trkpt><trkpt lat="43.1585321" lon="12.5329099"><ele>418.00000000000006</ele><time>2026-04-28T13:12:36.692Z</time></trkpt><trkpt lat="43.1584085" lon="12.5329189"><ele>415.0</ele><time>2026-04-28T13:12:38.692Z</time></trkpt><trkpt lat="43.1583451" lon="12.5329245"><ele>412.0</ele><time>2026-04-28T13:12:39.692Z</time></trkpt><trkpt lat="43.1582168" lon="12.5329197"><ele>409.0</ele><time>2026-04-28T13:12:41.692Z</time></trkpt><trkpt lat="43.1581492" lon="12.5329106"><ele>406.00000000000006</ele><time>2026-04-28T13:12:42.692Z</time></trkpt><trkpt lat="43.1580852" lon="12.5329044"><ele>403.0</ele><time>2026-04-28T13:12:43.692Z</time></trkpt><trkpt lat="43.1580177" lon="12.532906"><ele>403.00000000000006</ele><time>2026-04-28T13:12:44.691Z</time></trkpt><trkpt lat="43.1579497" lon="12.5329246"><ele>403.0</ele><time>2026-04-28T13:12:45.692Z</time></trkpt><trkpt lat="43.1578795" lon="12.5329586"><ele>403.0</ele><time>2026-04-28T13:12:46.692Z</time></trkpt><trkpt lat="43.1578135" lon="12.5330034"><ele>403.0</ele><time>2026-04-28T13:12:47.692Z</time></trkpt><trkpt lat="43.1577492" lon="12.5330513"><ele>403.00000000000006</ele><time>2026-04-28T13:12:48.692Z</time></trkpt><trkpt lat="43.1576843" lon="12.5330913"><ele>403.0</ele><time>2026-04-28T13:12:49.692Z</time></trkpt><trkpt lat="43.1575744" lon="12.5331344"><ele>403.00000000000006</ele><time>2026-04-28T13:12:51.692Z</time></trkpt><trkpt lat="43.1574849" lon="12.5331429"><ele>403.0</ele><time>2026-04-28T13:12:53.692Z</time></trkpt><trkpt lat="43.1574039" lon="12.5332077"><ele>403.0</ele><time>2026-04-28T13:12:55.692Z</time></trkpt><trkpt lat="43.1573308" lon="12.5333406"><ele>403.0</ele><time>2026-04-28T13:12:57.692Z</time></trkpt><trkpt lat="43.1572905" lon="12.5334111"><ele>403.00000000000006</ele><time>2026-04-28T13:12:58.692Z</time></trkpt><trkpt lat="43.1572503" lon="12.5334802"><ele>403.0</ele><time>2026-04-28T13:12:59.691Z</time></trkpt><trkpt lat="43.1572073" lon="12.5335455"><ele>402.33333333333337</ele><time>2026-04-28T13:13:00.692Z</time></trkpt><trkpt lat="43.1571625" lon="12.5336087"><ele>401.6666666666667</ele><time>2026-04-28T13:13:01.692Z</time></trkpt><trkpt lat="43.1571167" lon="12.5336728"><ele>401.0</ele><time>2026-04-28T13:13:02.692Z</time></trkpt><trkpt lat="43.157072" lon="12.5337357"><ele>400.33333333333337</ele><time>2026-04-28T13:13:03.692Z</time></trkpt><trkpt lat="43.1570279" lon="12.5337977"><ele>399.6666666666667</ele><time>2026-04-28T13:13:04.691Z</time></trkpt><trkpt lat="43.1569433" lon="12.5339105"><ele>399.0</ele><time>2026-04-28T13:13:06.692Z</time></trkpt><trkpt lat="43.1568612" lon="12.5340102"><ele>397.3333333333333</ele><time>2026-04-28T13:13:08.691Z</time></trkpt><trkpt lat="43.1567895" lon="12.5341"><ele>395.66666666666663</ele><time>2026-04-28T13:13:10.691Z</time></trkpt><trkpt lat="43.1567377" lon="12.5341508"><ele>394.0</ele><time>2026-04-28T13:13:11.691Z</time></trkpt><trkpt lat="43.1566736" lon="12.5342061"><ele>392.3333333333333</ele><time>2026-04-28T13:13:12.691Z</time></trkpt><trkpt lat="43.1566081" lon="12.5342488"><ele>390.66666666666663</ele><time>2026-04-28T13:13:13.691Z</time></trkpt><trkpt lat="43.1565405" lon="12.5342884"><ele>389.0</ele><time>2026-04-28T13:13:14.69Z</time></trkpt><trkpt lat="43.1564713" lon="12.5343209"><ele>388.3333333333333</ele><time>2026-04-28T13:13:15.69Z</time></trkpt><trkpt lat="43.1563948" lon="12.5343401"><ele>387.66666666666663</ele><time>2026-04-28T13:13:16.69Z</time></trkpt><trkpt lat="43.1563164" lon="12.5343521"><ele>387.0</ele><time>2026-04-28T13:13:17.691Z</time></trkpt><trkpt lat="43.1562428" lon="12.5343553"><ele>386.33333333333337</ele><time>2026-04-28T13:13:18.69Z</time></trkpt><trkpt lat="43.1561753" lon="12.5343549"><ele>385.6666666666667</ele><time>2026-04-28T13:13:19.691Z</time></trkpt><trkpt lat="43.1561121" lon="12.5343511"><ele>385.0</ele><time>2026-04-28T13:13:20.691Z</time></trkpt><trkpt lat="43.1559903" lon="12.5343536"><ele>385.0</ele><time>2026-04-28T13:13:22.691Z</time></trkpt><trkpt lat="43.1559288" lon="12.5343734"><ele>385.0</ele><time>2026-04-28T13:13:23.69Z</time></trkpt><trkpt lat="43.1558673" lon="12.5344127"><ele>385.0</ele><time>2026-04-28T13:13:24.691Z</time></trkpt><trkpt lat="43.1558063" lon="12.5344774"><ele>385.0</ele><time>2026-04-28T13:13:25.691Z</time></trkpt><trkpt lat="43.1557506" lon="12.5345574"><ele>385.0</ele><time>2026-04-28T13:13:26.691Z</time></trkpt><trkpt lat="43.1556963" lon="12.5346338"><ele>385.0</ele><time>2026-04-28T13:13:27.691Z</time></trkpt><trkpt lat="43.1556431" lon="12.5347075"><ele>385.0</ele><time>2026-04-28T13:13:28.69Z</time></trkpt><trkpt lat="43.1555933" lon="12.53478"><ele>382.2</ele><time>2026-04-28T13:13:29.691Z</time></trkpt><trkpt lat="43.1555419" lon="12.5348537"><ele>379.4</ele><time>2026-04-28T13:13:30.69Z</time></trkpt><trkpt lat="43.1554941" lon="12.534924"><ele>376.6</ele><time>2026-04-28T13:13:31.691Z</time></trkpt><trkpt lat="43.1554475" lon="12.5349905"><ele>373.8</ele><time>2026-04-28T13:13:32.691Z</time></trkpt><trkpt lat="43.1553628" lon="12.5351213"><ele>371.0</ele><time>2026-04-28T13:13:34.691Z</time></trkpt><trkpt lat="43.1552852" lon="12.5352485"><ele>371.0</ele><time>2026-04-28T13:13:36.691Z</time></trkpt><trkpt lat="43.1552085" lon="12.5353596"><ele>371.0</ele><time>2026-04-28T13:13:38.69Z</time></trkpt><trkpt lat="43.1551233" lon="12.535465"><ele>371.0</ele><time>2026-04-28T13:13:40.691Z</time></trkpt><trkpt lat="43.1550388" lon="12.5355702"><ele>371.0</ele><time>2026-04-28T13:13:42.691Z</time></trkpt><trkpt lat="43.1549513" lon="12.5356811"><ele>368.33333333333337</ele><time>2026-04-28T13:13:44.69Z</time></trkpt><trkpt lat="43.1548617" lon="12.535803"><ele>365.6666666666667</ele><time>2026-04-28T13:13:46.691Z</time></trkpt><trkpt lat="43.1548117" lon="12.5358654"><ele>363.0</ele><time>2026-04-28T13:13:47.69Z</time></trkpt><trkpt lat="43.1547592" lon="12.53593"><ele>360.3333333333333</ele><time>2026-04-28T13:13:48.691Z</time></trkpt><trkpt lat="43.1547069" lon="12.5359976"><ele>357.66666666666663</ele><time>2026-04-28T13:13:49.69Z</time></trkpt><trkpt lat="43.1546562" lon="12.5360675"><ele>355.0</ele><time>2026-04-28T13:13:50.691Z</time></trkpt><trkpt lat="43.1546045" lon="12.5361364"><ele>355.0</ele><time>2026-04-28T13:13:51.691Z</time></trkpt><trkpt lat="43.1545536" lon="12.5362029"><ele>355.0</ele><time>2026-04-28T13:13:52.691Z</time></trkpt><trkpt lat="43.1545023" lon="12.536264"><ele>355.0</ele><time>2026-04-28T13:13:53.691Z</time></trkpt><trkpt lat="43.1544517" lon="12.5363227"><ele>355.0</ele><time>2026-04-28T13:13:54.691Z</time></trkpt><trkpt lat="43.1543995" lon="12.5363748"><ele>355.0</ele><time>2026-04-28T13:13:55.691Z</time></trkpt><trkpt lat="43.1543043" lon="12.5364624"><ele>355.0</ele><time>2026-04-28T13:13:57.691Z</time></trkpt><trkpt lat="43.1541917" lon="12.536529"><ele>355.5</ele><time>2026-04-28T13:13:59.691Z</time></trkpt><trkpt lat="43.1541259" lon="12.5365631"><ele>356.0</ele><time>2026-04-28T13:14:00.691Z</time></trkpt><trkpt lat="43.1540458" lon="12.5365916"><ele>356.5</ele><time>2026-04-28T13:14:01.691Z</time></trkpt><trkpt lat="43.1539582" lon="12.5366206"><ele>357.0</ele><time>2026-04-28T13:14:02.691Z</time></trkpt><trkpt lat="43.1538697" lon="12.5366405"><ele>357.5</ele><time>2026-04-28T13:14:03.691Z</time></trkpt><trkpt lat="43.1537779" lon="12.5366515"><ele>358.0</ele><time>2026-04-28T13:14:04.691Z</time></trkpt><trkpt lat="43.1536818" lon="12.5366642"><ele>356.66666666666663</ele><time>2026-04-28T13:14:05.69Z</time></trkpt><trkpt lat="43.1535879" lon="12.5366705"><ele>355.3333333333333</ele><time>2026-04-28T13:14:06.691Z</time></trkpt><trkpt lat="43.1535005" lon="12.5366738"><ele>354.0</ele><time>2026-04-28T13:14:07.691Z</time></trkpt><trkpt lat="43.1534135" lon="12.5366754"><ele>352.6666666666667</ele><time>2026-04-28T13:14:08.69Z</time></trkpt><trkpt lat="43.1533329" lon="12.5366808"><ele>351.33333333333337</ele><time>2026-04-28T13:14:09.691Z</time></trkpt><trkpt lat="43.1532597" lon="12.5366851"><ele>350.0</ele><time>2026-04-28T13:14:10.691Z</time></trkpt><trkpt lat="43.1531856" lon="12.5366891"><ele>348.6666666666667</ele><time>2026-04-28T13:14:11.69Z</time></trkpt><trkpt lat="43.153119" lon="12.5366911"><ele>347.33333333333337</ele><time>2026-04-28T13:14:12.691Z</time></trkpt><trkpt lat="43.1530039" lon="12.5366912"><ele>346.0</ele><time>2026-04-28T13:14:14.691Z</time></trkpt><trkpt lat="43.1529104" lon="12.5366939"><ele>344.6666666666667</ele><time>2026-04-28T13:14:16.69Z</time></trkpt><trkpt lat="43.1528377" lon="12.5367085"><ele>343.3333333333333</ele><time>2026-04-28T13:14:18.69Z</time></trkpt><trkpt lat="43.1527651" lon="12.5367141"><ele>342.0</ele><time>2026-04-28T13:14:35.691Z</time></trkpt><trkpt lat="43.1526959" lon="12.5367091"><ele>342.0</ele><time>2026-04-28T13:14:38.691Z</time></trkpt><trkpt lat="43.1526023" lon="12.5367065"><ele>342.0</ele><time>2026-04-28T13:14:40.69Z</time></trkpt><trkpt lat="43.1524977" lon="12.5366981"><ele>342.0</ele><time>2026-04-28T13:14:42.691Z</time></trkpt><trkpt lat="43.1524008" lon="12.5367054"><ele>342.0</ele><time>2026-04-28T13:14:44.691Z</time></trkpt><trkpt lat="43.1523063" lon="12.5367267"><ele>342.0</ele><time>2026-04-28T13:14:46.69Z</time></trkpt><trkpt lat="43.1522111" lon="12.5367722"><ele>339.40000000000003</ele><time>2026-04-28T13:14:48.69Z</time></trkpt><trkpt lat="43.1521183" lon="12.536844"><ele>336.8</ele><time>2026-04-28T13:14:50.69Z</time></trkpt><trkpt lat="43.1520263" lon="12.5369286"><ele>334.2</ele><time>2026-04-28T13:14:52.691Z</time></trkpt><trkpt lat="43.1519298" lon="12.5370143"><ele>331.6</ele><time>2026-04-28T13:14:54.691Z</time></trkpt><trkpt lat="43.1518302" lon="12.537089"><ele>329.0</ele><time>2026-04-28T13:14:56.69Z</time></trkpt><trkpt lat="43.1517291" lon="12.5371329"><ele>329.0</ele><time>2026-04-28T13:14:58.691Z</time></trkpt><trkpt lat="43.151605" lon="12.5371725"><ele>329.0</ele><time>2026-04-28T13:15:00.69Z</time></trkpt><trkpt lat="43.1515365" lon="12.5371859"><ele>329.0</ele><time>2026-04-28T13:15:01.691Z</time></trkpt><trkpt lat="43.151468" lon="12.5371949"><ele>329.0</ele><time>2026-04-28T13:15:02.691Z</time></trkpt><trkpt lat="43.1514042" lon="12.5371979"><ele>329.0</ele><time>2026-04-28T13:15:03.691Z</time></trkpt><trkpt lat="43.1512937" lon="12.5372125"><ele>329.0</ele><time>2026-04-28T13:15:05.691Z</time></trkpt><trkpt lat="43.1512108" lon="12.5372701"><ele>329.4</ele><time>2026-04-28T13:15:07.691Z</time></trkpt><trkpt lat="43.1511575" lon="12.5373812"><ele>329.79999999999995</ele><time>2026-04-28T13:15:09.691Z</time></trkpt><trkpt lat="43.1511191" lon="12.5375176"><ele>330.20000000000005</ele><time>2026-04-28T13:15:11.691Z</time></trkpt><trkpt lat="43.1510778" lon="12.5376699"><ele>330.6</ele><time>2026-04-28T13:15:13.691Z</time></trkpt><trkpt lat="43.1510228" lon="12.5378041"><ele>331.0</ele><time>2026-04-28T13:15:15.69Z</time></trkpt><trkpt lat="43.1509351" lon="12.5379269"><ele>329.6</ele><time>2026-04-28T13:15:17.691Z</time></trkpt><trkpt lat="43.1508357" lon="12.5380209"><ele>328.20000000000005</ele><time>2026-04-28T13:15:19.691Z</time></trkpt><trkpt lat="43.1507408" lon="12.5381092"><ele>326.79999999999995</ele><time>2026-04-28T13:15:21.691Z</time></trkpt><trkpt lat="43.1506461" lon="12.5381894"><ele>325.4</ele><time>2026-04-28T13:15:23.691Z</time></trkpt><trkpt lat="43.1505903" lon="12.5382372"><ele>324.0</ele><time>2026-04-28T13:15:24.69Z</time></trkpt><trkpt lat="43.1505334" lon="12.538291"><ele>324.0</ele><time>2026-04-28T13:15:25.691Z</time></trkpt><trkpt lat="43.1504821" lon="12.5383455"><ele>324.0</ele><time>2026-04-28T13:15:26.691Z</time></trkpt><trkpt lat="43.1503892" lon="12.5384431"><ele>324.0</ele><time>2026-04-28T13:15:28.691Z</time></trkpt><trkpt lat="43.1503141" lon="12.5385233"><ele>324.0</ele><time>2026-04-28T13:15:30.691Z</time></trkpt><trkpt lat="43.1502426" lon="12.5386123"><ele>324.0</ele><time>2026-04-28T13:15:32.691Z</time></trkpt><trkpt lat="43.1501682" lon="12.5386945"><ele>319.8</ele><time>2026-04-28T13:15:34.691Z</time></trkpt><trkpt lat="43.1500986" lon="12.538748"><ele>315.59999999999997</ele><time>2026-04-28T13:15:36.691Z</time></trkpt><trkpt lat="43.1500174" lon="12.5387919"><ele>311.4</ele><time>2026-04-28T13:15:38.691Z</time></trkpt><trkpt lat="43.1499021" lon="12.5388155"><ele>307.2</ele><time>2026-04-28T13:15:40.69Z</time></trkpt><trkpt lat="43.1497825" lon="12.5387951"><ele>303.0</ele><time>2026-04-28T13:15:42.691Z</time></trkpt><trkpt lat="43.1496774" lon="12.538735"><ele>303.2</ele><time>2026-04-28T13:15:44.691Z</time></trkpt><trkpt lat="43.149595" lon="12.5386374"><ele>303.4</ele><time>2026-04-28T13:15:46.69Z</time></trkpt><trkpt lat="43.1495224" lon="12.5385187"><ele>303.59999999999997</ele><time>2026-04-28T13:15:48.691Z</time></trkpt><trkpt lat="43.1494525" lon="12.5384057"><ele>303.8</ele><time>2026-04-28T13:15:50.69Z</time></trkpt><trkpt lat="43.1493612" lon="12.5383426"><ele>304.0</ele><time>2026-04-28T13:15:52.691Z</time></trkpt><trkpt lat="43.1492489" lon="12.5383721"><ele>304.0</ele><time>2026-04-28T13:15:54.691Z</time></trkpt><trkpt lat="43.1491962" lon="12.5384198"><ele>304.0</ele><time>2026-04-28T13:15:55.691Z</time></trkpt><trkpt lat="43.1491405" lon="12.5384688"><ele>304.0</ele><time>2026-04-28T13:15:56.691Z</time></trkpt><trkpt lat="43.1490822" lon="12.5385168"><ele>304.0</ele><time>2026-04-28T13:15:57.691Z</time></trkpt><trkpt lat="43.1490226" lon="12.5385587"><ele>304.0</ele><time>2026-04-28T13:15:58.69Z</time></trkpt><trkpt lat="43.1489592" lon="12.5386007"><ele>304.0</ele><time>2026-04-28T13:15:59.691Z</time></trkpt><trkpt lat="43.1488974" lon="12.538637"><ele>304.0</ele><time>2026-04-28T13:16:00.691Z</time></trkpt><trkpt lat="43.1488355" lon="12.5386695"><ele>300.7142857142857</ele><time>2026-04-28T13:16:01.691Z</time></trkpt><trkpt lat="43.1487742" lon="12.5387011"><ele>297.42857142857144</ele><time>2026-04-28T13:16:02.691Z</time></trkpt><trkpt lat="43.1487134" lon="12.5387482"><ele>294.14285714285717</ele><time>2026-04-28T13:16:03.69Z</time></trkpt><trkpt lat="43.1486575" lon="12.5388052"><ele>290.8571428571429</ele><time>2026-04-28T13:16:04.691Z</time></trkpt><trkpt lat="43.1486045" lon="12.5388722"><ele>287.57142857142856</ele><time>2026-04-28T13:16:05.69Z</time></trkpt><trkpt lat="43.1485604" lon="12.5389515"><ele>284.28571428571433</ele><time>2026-04-28T13:16:06.691Z</time></trkpt><trkpt lat="43.148523" lon="12.539031"><ele>281.0</ele><time>2026-04-28T13:16:07.69Z</time></trkpt><trkpt lat="43.1484881" lon="12.5391065"><ele>281.0</ele><time>2026-04-28T13:16:08.691Z</time></trkpt><trkpt lat="43.1484059" lon="12.5392168"><ele>281.0</ele><time>2026-04-28T13:16:10.69Z</time></trkpt><trkpt lat="43.1482843" lon="12.5392522"><ele>281.0</ele><time>2026-04-28T13:16:12.691Z</time></trkpt><trkpt lat="43.1482176" lon="12.5392352"><ele>281.0</ele><time>2026-04-28T13:16:13.69Z</time></trkpt><trkpt lat="43.1481549" lon="12.5391963"><ele>281.0</ele><time>2026-04-28T13:16:14.691Z</time></trkpt><trkpt lat="43.1481015" lon="12.5391437"><ele>281.0</ele><time>2026-04-28T13:16:15.691Z</time></trkpt><trkpt lat="43.1480175" lon="12.5390299"><ele>277.83333333333337</ele><time>2026-04-28T13:16:17.691Z</time></trkpt><trkpt lat="43.1479825" lon="12.5388763"><ele>274.6666666666667</ele><time>2026-04-28T13:16:19.691Z</time></trkpt><trkpt lat="43.147991" lon="12.5387873"><ele>271.5</ele><time>2026-04-28T13:16:20.691Z</time></trkpt><trkpt lat="43.1480095" lon="12.5386951"><ele>268.3333333333333</ele><time>2026-04-28T13:16:21.69Z</time></trkpt><trkpt lat="43.1480291" lon="12.538605"><ele>265.16666666666663</ele><time>2026-04-28T13:16:22.691Z</time></trkpt><trkpt lat="43.1480504" lon="12.5384569"><ele>262.0</ele><time>2026-04-28T13:16:24.69Z</time></trkpt><trkpt lat="43.1480003" lon="12.5383631"><ele>262.0</ele><time>2026-04-28T13:16:26.691Z</time></trkpt><trkpt lat="43.1479064" lon="12.5383976"><ele>262.0</ele><time>2026-04-28T13:16:28.69Z</time></trkpt><trkpt lat="43.1478563" lon="12.5384682"><ele>262.0</ele><time>2026-04-28T13:16:29.69Z</time></trkpt><trkpt lat="43.1477901" lon="12.5385437"><ele>262.0</ele><time>2026-04-28T13:16:30.69Z</time></trkpt><trkpt lat="43.1477126" lon="12.5386217"><ele>262.0</ele><time>2026-04-28T13:16:31.689Z</time></trkpt><trkpt lat="43.147627" lon="12.5386988"><ele>260.75</ele><time>2026-04-28T13:16:32.689Z</time></trkpt><trkpt lat="43.1475318" lon="12.5387762"><ele>259.5</ele><time>2026-04-28T13:16:33.689Z</time></trkpt><trkpt lat="43.1474358" lon="12.5388666"><ele>258.25</ele><time>2026-04-28T13:16:34.689Z</time></trkpt><trkpt lat="43.1473449" lon="12.5389703"><ele>257.0</ele><time>2026-04-28T13:16:35.689Z</time></trkpt><trkpt lat="43.1472548" lon="12.5390685"><ele>255.8</ele><time>2026-04-28T13:16:36.689Z</time></trkpt><trkpt lat="43.1471628" lon="12.5391516"><ele>254.6</ele><time>2026-04-28T13:16:37.689Z</time></trkpt><trkpt lat="43.1470659" lon="12.5392179"><ele>253.40000000000003</ele><time>2026-04-28T13:16:38.69Z</time></trkpt><trkpt lat="43.1469678" lon="12.5392748"><ele>252.20000000000002</ele><time>2026-04-28T13:16:39.69Z</time></trkpt><trkpt lat="43.1468698" lon="12.5393302"><ele>251.0</ele><time>2026-04-28T13:16:40.69Z</time></trkpt><trkpt lat="43.1467784" lon="12.5393913"><ele>251.0</ele><time>2026-04-28T13:16:41.69Z</time></trkpt><trkpt lat="43.1466949" lon="12.5394632"><ele>251.00000000000003</ele><time>2026-04-28T13:16:42.69Z</time></trkpt><trkpt lat="43.1466088" lon="12.5395581"><ele>251.00000000000003</ele><time>2026-04-28T13:16:43.69Z</time></trkpt><trkpt lat="43.1465212" lon="12.5396543"><ele>251.0</ele><time>2026-04-28T13:16:44.69Z</time></trkpt><trkpt lat="43.1464295" lon="12.5397444"><ele>251.0</ele><time>2026-04-28T13:16:45.69Z</time></trkpt><trkpt lat="43.1463294" lon="12.5398133"><ele>250.25</ele><time>2026-04-28T13:16:46.69Z</time></trkpt><trkpt lat="43.1462201" lon="12.5398645"><ele>249.5</ele><time>2026-04-28T13:16:47.69Z</time></trkpt><trkpt lat="43.1461063" lon="12.5399049"><ele>248.75</ele><time>2026-04-28T13:16:48.69Z</time></trkpt><trkpt lat="43.1459849" lon="12.5399364"><ele>248.0</ele><time>2026-04-28T13:16:49.69Z</time></trkpt><trkpt lat="43.1458548" lon="12.5399569"><ele>248.0</ele><time>2026-04-28T13:16:50.69Z</time></trkpt><trkpt lat="43.1457165" lon="12.5399667"><ele>248.0</ele><time>2026-04-28T13:16:51.69Z</time></trkpt><trkpt lat="43.1455651" lon="12.5399741"><ele>248.0</ele><time>2026-04-28T13:16:52.689Z</time></trkpt><trkpt lat="43.145403" lon="12.5399793"><ele>247.75</ele><time>2026-04-28T13:16:53.69Z</time></trkpt><trkpt lat="43.1452462" lon="12.5399849"><ele>247.5</ele><time>2026-04-28T13:16:54.69Z</time></trkpt><trkpt lat="43.145106" lon="12.5399864"><ele>247.25</ele><time>2026-04-28T13:16:55.69Z</time></trkpt><trkpt lat="43.1449819" lon="12.5399866"><ele>247.0</ele><time>2026-04-28T13:16:56.69Z</time></trkpt><trkpt lat="43.1448734" lon="12.5399839"><ele>245.39999999999998</ele><time>2026-04-28T13:16:57.689Z</time></trkpt><trkpt lat="43.1447782" lon="12.5399631"><ele>243.79999999999998</ele><time>2026-04-28T13:16:58.69Z</time></trkpt><trkpt lat="43.1446885" lon="12.5399188"><ele>242.2</ele><time>2026-04-28T13:16:59.69Z</time></trkpt><trkpt lat="43.1446121" lon="12.5398515"><ele>240.6</ele><time>2026-04-28T13:17:00.69Z</time></trkpt><trkpt lat="43.1445433" lon="12.5397585"><ele>239.0</ele><time>2026-04-28T13:17:01.689Z</time></trkpt><trkpt lat="43.1444825" lon="12.5396398"><ele>240.2</ele><time>2026-04-28T13:17:02.69Z</time></trkpt><trkpt lat="43.1444286" lon="12.5395052"><ele>241.39999999999998</ele><time>2026-04-28T13:17:03.689Z</time></trkpt><trkpt lat="43.1443782" lon="12.5393675"><ele>242.6</ele><time>2026-04-28T13:17:04.69Z</time></trkpt><trkpt lat="43.1443317" lon="12.5392317"><ele>243.8</ele><time>2026-04-28T13:17:05.69Z</time></trkpt><trkpt lat="43.1442904" lon="12.5390975"><ele>245.0</ele><time>2026-04-28T13:17:06.689Z</time></trkpt><trkpt lat="43.1442584" lon="12.5389565"><ele>245.0</ele><time>2026-04-28T13:17:07.69Z</time></trkpt><trkpt lat="43.1442339" lon="12.5387889"><ele>245.0</ele><time>2026-04-28T13:17:08.69Z</time></trkpt><trkpt lat="43.1442211" lon="12.5386168"><ele>245.0</ele><time>2026-04-28T13:17:09.69Z</time></trkpt><trkpt lat="43.1442109" lon="12.5384453"><ele>245.0</ele><time>2026-04-28T13:17:10.689Z</time></trkpt><trkpt lat="43.1441951" lon="12.5382818"><ele>245.00000000000003</ele><time>2026-04-28T13:17:11.689Z</time></trkpt><trkpt lat="43.1441759" lon="12.5381369"><ele>245.0</ele><time>2026-04-28T13:17:12.69Z</time></trkpt><trkpt lat="43.1441553" lon="12.5380497"><ele>245.0</ele><time>2026-04-28T13:17:13.689Z</time></trkpt><trkpt lat="43.144125" lon="12.537956"><ele>245.0</ele><time>2026-04-28T13:17:14.689Z</time></trkpt><trkpt lat="43.1440817" lon="12.5378796"><ele>245.00000000000003</ele><time>2026-04-28T13:17:15.69Z</time></trkpt><trkpt lat="43.1440191" lon="12.5378015"><ele>245.0</ele><time>2026-04-28T13:17:16.69Z</time></trkpt><trkpt lat="43.1439418" lon="12.537722"><ele>242.8</ele><time>2026-04-28T13:17:17.689Z</time></trkpt><trkpt lat="43.1438524" lon="12.5376483"><ele>240.6</ele><time>2026-04-28T13:17:18.69Z</time></trkpt><trkpt lat="43.1437681" lon="12.5375753"><ele>238.39999999999998</ele><time>2026-04-28T13:17:19.69Z</time></trkpt><trkpt lat="43.1436908" lon="12.5374989"><ele>236.2</ele><time>2026-04-28T13:17:20.69Z</time></trkpt><trkpt lat="43.1436158" lon="12.5374084"><ele>234.0</ele><time>2026-04-28T13:17:21.69Z</time></trkpt><trkpt lat="43.1435432" lon="12.5372947"><ele>234.0</ele><time>2026-04-28T13:17:22.69Z</time></trkpt><trkpt lat="43.1434756" lon="12.5371695"><ele>233.99999999999997</ele><time>2026-04-28T13:17:23.69Z</time></trkpt><trkpt lat="43.1434134" lon="12.5370355"><ele>233.99999999999997</ele><time>2026-04-28T13:17:24.689Z</time></trkpt><trkpt lat="43.143361" lon="12.5369069"><ele>234.0</ele><time>2026-04-28T13:17:25.69Z</time></trkpt><trkpt lat="43.1433145" lon="12.536786"><ele>234.0</ele><time>2026-04-28T13:17:26.69Z</time></trkpt><trkpt lat="43.143275" lon="12.5366782"><ele>234.39999999999998</ele><time>2026-04-28T13:17:27.689Z</time></trkpt><trkpt lat="43.1432433" lon="12.5365852"><ele>234.79999999999998</ele><time>2026-04-28T13:17:28.69Z</time></trkpt><trkpt lat="43.1432032" lon="12.5365164"><ele>235.20000000000002</ele><time>2026-04-28T13:17:29.69Z</time></trkpt><trkpt lat="43.1430853" lon="12.5364547"><ele>235.60000000000002</ele><time>2026-04-28T13:17:31.69Z</time></trkpt><trkpt lat="43.1429997" lon="12.536466"><ele>236.0</ele><time>2026-04-28T13:17:32.69Z</time></trkpt><trkpt lat="43.142896" lon="12.5364983"><ele>235.0</ele><time>2026-04-28T13:17:33.689Z</time></trkpt><trkpt lat="43.142789" lon="12.5365371"><ele>234.0</ele><time>2026-04-28T13:17:34.69Z</time></trkpt><trkpt lat="43.1426657" lon="12.5365809"><ele>233.0</ele><time>2026-04-28T13:17:35.69Z</time></trkpt><trkpt lat="43.1425263" lon="12.5366246"><ele>232.0</ele><time>2026-04-28T13:17:36.689Z</time></trkpt><trkpt lat="43.1423862" lon="12.536666"><ele>232.0</ele><time>2026-04-28T13:17:37.69Z</time></trkpt><trkpt lat="43.1422482" lon="12.5367139"><ele>232.0</ele><time>2026-04-28T13:17:38.69Z</time></trkpt><trkpt lat="43.1421189" lon="12.5367638"><ele>232.0</ele><time>2026-04-28T13:17:39.69Z</time></trkpt><trkpt lat="43.1420005" lon="12.5368139"><ele>232.0</ele><time>2026-04-28T13:17:40.69Z</time></trkpt><trkpt lat="43.1418911" lon="12.5368676"><ele>231.99999999999997</ele><time>2026-04-28T13:17:41.689Z</time></trkpt><trkpt lat="43.141792" lon="12.5369227"><ele>232.0</ele><time>2026-04-28T13:17:42.69Z</time></trkpt><trkpt lat="43.1417087" lon="12.5369778"><ele>232.0</ele><time>2026-04-28T13:17:43.69Z</time></trkpt><trkpt lat="43.1416388" lon="12.5370257"><ele>232.0</ele><time>2026-04-28T13:17:44.689Z</time></trkpt><trkpt lat="43.1415625" lon="12.5370796"><ele>231.99999999999997</ele><time>2026-04-28T13:17:46.69Z</time></trkpt><trkpt lat="43.1415247" lon="12.5371794"><ele>232.0</ele><time>2026-04-28T13:17:53.69Z</time></trkpt><trkpt lat="43.1415436" lon="12.5372638"><ele>232.0</ele><time>2026-04-28T13:17:54.689Z</time></trkpt><trkpt lat="43.1415762" lon="12.5373617"><ele>232.0</ele><time>2026-04-28T13:17:55.69Z</time></trkpt><trkpt lat="43.1416155" lon="12.53747"><ele>232.0</ele><time>2026-04-28T13:17:56.69Z</time></trkpt><trkpt lat="43.1416619" lon="12.5375959"><ele>232.0</ele><time>2026-04-28T13:17:57.689Z</time></trkpt><trkpt lat="43.1417116" lon="12.5377347"><ele>232.0</ele><time>2026-04-28T13:17:58.689Z</time></trkpt><trkpt lat="43.1417636" lon="12.5378802"><ele>231.5</ele><time>2026-04-28T13:17:59.689Z</time></trkpt><trkpt lat="43.1418165" lon="12.5380374"><ele>231.0</ele><time>2026-04-28T13:18:00.69Z</time></trkpt><trkpt lat="43.1418768" lon="12.5381973"><ele>230.5</ele><time>2026-04-28T13:18:01.689Z</time></trkpt><trkpt lat="43.1419313" lon="12.5383517"><ele>230.0</ele><time>2026-04-28T13:18:02.69Z</time></trkpt><trkpt lat="43.141979" lon="12.5384949"><ele>230.0</ele><time>2026-04-28T13:18:03.69Z</time></trkpt><trkpt lat="43.1420253" lon="12.5386228"><ele>230.0</ele><time>2026-04-28T13:18:04.689Z</time></trkpt><trkpt lat="43.1420706" lon="12.5387486"><ele>230.0</ele><time>2026-04-28T13:18:05.69Z</time></trkpt><trkpt lat="43.1421173" lon="12.5388745"><ele>230.0</ele><time>2026-04-28T13:18:06.69Z</time></trkpt><trkpt lat="43.1421669" lon="12.5390081"><ele>230.0</ele><time>2026-04-28T13:18:07.69Z</time></trkpt><trkpt lat="43.1422153" lon="12.5391482"><ele>229.8</ele><time>2026-04-28T13:18:08.689Z</time></trkpt><trkpt lat="43.1422612" lon="12.5392756"><ele>229.6</ele><time>2026-04-28T13:18:09.69Z</time></trkpt><trkpt lat="43.1423027" lon="12.5393931"><ele>229.39999999999998</ele><time>2026-04-28T13:18:10.69Z</time></trkpt><trkpt lat="43.1423385" lon="12.5395"><ele>229.2</ele><time>2026-04-28T13:18:11.69Z</time></trkpt><trkpt lat="43.14237" lon="12.5395942"><ele>229.0</ele><time>2026-04-28T13:18:12.69Z</time></trkpt><trkpt lat="43.1423934" lon="12.5397349"><ele>228.99999999999997</ele><time>2026-04-28T13:18:14.69Z</time></trkpt><trkpt lat="43.1423403" lon="12.5398199"><ele>229.0</ele><time>2026-04-28T13:18:16.689Z</time></trkpt><trkpt lat="43.1422836" lon="12.5398644"><ele>229.0</ele><time>2026-04-28T13:18:17.69Z</time></trkpt><trkpt lat="43.1422125" lon="12.5399222"><ele>229.0</ele><time>2026-04-28T13:18:18.69Z</time></trkpt><trkpt lat="43.1421382" lon="12.5399914"><ele>228.99999999999997</ele><time>2026-04-28T13:18:19.689Z</time></trkpt><trkpt lat="43.1420545" lon="12.5400818"><ele>229.0</ele><time>2026-04-28T13:18:20.69Z</time></trkpt><trkpt lat="43.1419695" lon="12.5401935"><ele>229.0</ele><time>2026-04-28T13:18:21.69Z</time></trkpt><trkpt lat="43.1418846" lon="12.5403121"><ele>229.0</ele><time>2026-04-28T13:18:22.69Z</time></trkpt><trkpt lat="43.1417928" lon="12.5404394"><ele>229.0</ele><time>2026-04-28T13:18:23.69Z</time></trkpt><trkpt lat="43.1416932" lon="12.540576"><ele>229.0</ele><time>2026-04-28T13:18:24.69Z</time></trkpt><trkpt lat="43.1415851" lon="12.5407211"><ele>228.33333333333331</ele><time>2026-04-28T13:18:25.69Z</time></trkpt><trkpt lat="43.1414758" lon="12.5408764"><ele>227.66666666666669</ele><time>2026-04-28T13:18:26.69Z</time></trkpt><trkpt lat="43.141362" lon="12.541028"><ele>227.0</ele><time>2026-04-28T13:18:27.69Z</time></trkpt><trkpt lat="43.1412466" lon="12.5411833"><ele>227.66666666666669</ele><time>2026-04-28T13:18:28.69Z</time></trkpt><trkpt lat="43.1411292" lon="12.5413482"><ele>228.33333333333331</ele><time>2026-04-28T13:18:29.69Z</time></trkpt><trkpt lat="43.1410107" lon="12.5415129"><ele>229.0</ele><time>2026-04-28T13:18:30.689Z</time></trkpt><trkpt lat="43.140892" lon="12.5416778"><ele>229.0</ele><time>2026-04-28T13:18:31.69Z</time></trkpt><trkpt lat="43.1407748" lon="12.5418415"><ele>229.0</ele><time>2026-04-28T13:18:32.69Z</time></trkpt><trkpt lat="43.1406599" lon="12.5419995"><ele>229.0</ele><time>2026-04-28T13:18:33.69Z</time></trkpt><trkpt lat="43.1405435" lon="12.5421516"><ele>232.66666666666666</ele><time>2026-04-28T13:18:34.689Z</time></trkpt><trkpt lat="43.1404278" lon="12.5423019"><ele>236.33333333333331</ele><time>2026-04-28T13:18:35.69Z</time></trkpt><trkpt lat="43.1403136" lon="12.5424495"><ele>240.0</ele><time>2026-04-28T13:18:36.69Z</time></trkpt><trkpt lat="43.140203" lon="12.542599"><ele>240.0</ele><time>2026-04-28T13:18:37.69Z</time></trkpt><trkpt lat="43.1400929" lon="12.5427518"><ele>240.0</ele><time>2026-04-28T13:18:38.69Z</time></trkpt><trkpt lat="43.1399853" lon="12.5429129"><ele>240.0</ele><time>2026-04-28T13:18:39.689Z</time></trkpt><trkpt lat="43.1398742" lon="12.5430789"><ele>242.33333333333331</ele><time>2026-04-28T13:18:40.69Z</time></trkpt><trkpt lat="43.1397625" lon="12.5432481"><ele>244.66666666666666</ele><time>2026-04-28T13:18:41.69Z</time></trkpt><trkpt lat="43.1396484" lon="12.5434192"><ele>247.0</ele><time>2026-04-28T13:18:42.69Z</time></trkpt><trkpt lat="43.1395398" lon="12.5435929"><ele>249.0</ele><time>2026-04-28T13:18:43.69Z</time></trkpt><trkpt lat="43.1394337" lon="12.5437715"><ele>251.0</ele><time>2026-04-28T13:18:44.689Z</time></trkpt><trkpt lat="43.139326" lon="12.5439596"><ele>253.0</ele><time>2026-04-28T13:18:45.69Z</time></trkpt><trkpt lat="43.1392138" lon="12.5441528"><ele>253.0</ele><time>2026-04-28T13:18:46.69Z</time></trkpt><trkpt lat="43.1390984" lon="12.5443488"><ele>253.0</ele><time>2026-04-28T13:18:47.69Z</time></trkpt><trkpt lat="43.138981" lon="12.5445391"><ele>253.0</ele><time>2026-04-28T13:18:48.69Z</time></trkpt><trkpt lat="43.1388631" lon="12.544732"><ele>252.66666666666666</ele><time>2026-04-28T13:18:49.69Z</time></trkpt><trkpt lat="43.1387438" lon="12.5449253"><ele>252.33333333333331</ele><time>2026-04-28T13:18:50.689Z</time></trkpt><trkpt lat="43.1386228" lon="12.5451186"><ele>252.0</ele><time>2026-04-28T13:18:51.689Z</time></trkpt><trkpt lat="43.1385025" lon="12.5453147"><ele>251.66666666666669</ele><time>2026-04-28T13:18:52.69Z</time></trkpt><trkpt lat="43.138386" lon="12.5455044"><ele>251.33333333333334</ele><time>2026-04-28T13:18:53.69Z</time></trkpt><trkpt lat="43.1382695" lon="12.5456902"><ele>251.0</ele><time>2026-04-28T13:18:54.689Z</time></trkpt><trkpt lat="43.138155" lon="12.5458767"><ele>251.0</ele><time>2026-04-28T13:18:55.69Z</time></trkpt><trkpt lat="43.1380388" lon="12.5460635"><ele>251.0</ele><time>2026-04-28T13:18:56.689Z</time></trkpt><trkpt lat="43.1379216" lon="12.5462517"><ele>251.0</ele><time>2026-04-28T13:18:57.69Z</time></trkpt><trkpt lat="43.1378027" lon="12.5464349"><ele>253.0</ele><time>2026-04-28T13:18:58.688Z</time></trkpt><trkpt lat="43.1376808" lon="12.5466146"><ele>255.0</ele><time>2026-04-28T13:18:59.69Z</time></trkpt><trkpt lat="43.1375587" lon="12.5467883"><ele>257.0</ele><time>2026-04-28T13:19:00.69Z</time></trkpt><trkpt lat="43.1374333" lon="12.5469612"><ele>258.6666666666667</ele><time>2026-04-28T13:19:01.69Z</time></trkpt><trkpt lat="43.1373101" lon="12.5471296"><ele>260.3333333333333</ele><time>2026-04-28T13:19:02.69Z</time></trkpt><trkpt lat="43.1371885" lon="12.5472946"><ele>262.0</ele><time>2026-04-28T13:19:03.689Z</time></trkpt><trkpt lat="43.1370718" lon="12.5474497"><ele>262.0</ele><time>2026-04-28T13:19:04.689Z</time></trkpt><trkpt lat="43.1369539" lon="12.5476071"><ele>262.0</ele><time>2026-04-28T13:19:05.69Z</time></trkpt><trkpt lat="43.1368378" lon="12.5477643"><ele>262.0</ele><time>2026-04-28T13:19:06.69Z</time></trkpt><trkpt lat="43.1367256" lon="12.5479233"><ele>263.66666666666663</ele><time>2026-04-28T13:19:07.689Z</time></trkpt><trkpt lat="43.136617" lon="12.5480844"><ele>265.3333333333333</ele><time>2026-04-28T13:19:08.69Z</time></trkpt><trkpt lat="43.1365109" lon="12.5482401"><ele>267.0</ele><time>2026-04-28T13:19:09.689Z</time></trkpt><trkpt lat="43.1364117" lon="12.5483813"><ele>267.0</ele><time>2026-04-28T13:19:10.69Z</time></trkpt><trkpt lat="43.136322" lon="12.5485015"><ele>267.0</ele><time>2026-04-28T13:19:11.69Z</time></trkpt><trkpt lat="43.1362398" lon="12.5486001"><ele>267.0</ele><time>2026-04-28T13:19:12.688Z</time></trkpt><trkpt lat="43.1361704" lon="12.548683"><ele>267.0</ele><time>2026-04-28T13:19:13.689Z</time></trkpt><trkpt lat="43.1361221" lon="12.5487673"><ele>267.0</ele><time>2026-04-28T13:19:14.689Z</time></trkpt><trkpt lat="43.1360943" lon="12.5488524"><ele>268.00000000000006</ele><time>2026-04-28T13:19:15.689Z</time></trkpt><trkpt lat="43.1360766" lon="12.548945"><ele>269.0</ele><time>2026-04-28T13:19:16.689Z</time></trkpt><trkpt lat="43.1360648" lon="12.549039"><ele>270.0</ele><time>2026-04-28T13:19:17.69Z</time></trkpt><trkpt lat="43.1360521" lon="12.5491428"><ele>271.0</ele><time>2026-04-28T13:19:18.689Z</time></trkpt><trkpt lat="43.1360352" lon="12.5492511"><ele>272.0</ele><time>2026-04-28T13:19:19.69Z</time></trkpt><trkpt lat="43.1360175" lon="12.5493517"><ele>273.00000000000006</ele><time>2026-04-28T13:19:20.69Z</time></trkpt><trkpt lat="43.1359937" lon="12.5494384"><ele>274.0</ele><time>2026-04-28T13:19:21.689Z</time></trkpt><trkpt lat="43.1359493" lon="12.5495206"><ele>275.8</ele><time>2026-04-28T13:19:22.69Z</time></trkpt><trkpt lat="43.1358786" lon="12.5495897"><ele>277.59999999999997</ele><time>2026-04-28T13:19:23.69Z</time></trkpt><trkpt lat="43.1357855" lon="12.5496335"><ele>279.4</ele><time>2026-04-28T13:19:24.69Z</time></trkpt><trkpt lat="43.135689" lon="12.5496545"><ele>281.2</ele><time>2026-04-28T13:19:25.689Z</time></trkpt><trkpt lat="43.1355987" lon="12.5496567"><ele>283.0</ele><time>2026-04-28T13:19:26.69Z</time></trkpt><trkpt lat="43.1355171" lon="12.5496446"><ele>283.0</ele><time>2026-04-28T13:19:27.69Z</time></trkpt><trkpt lat="43.1354458" lon="12.5495953"><ele>283.0</ele><time>2026-04-28T13:19:28.69Z</time></trkpt><trkpt lat="43.135375" lon="12.5495201"><ele>283.0</ele><time>2026-04-28T13:19:29.69Z</time></trkpt><trkpt lat="43.1352997" lon="12.5494232"><ele>283.0</ele><time>2026-04-28T13:19:30.689Z</time></trkpt><trkpt lat="43.1352219" lon="12.5493287"><ele>283.0</ele><time>2026-04-28T13:19:31.69Z</time></trkpt><trkpt lat="43.135136" lon="12.5492322"><ele>281.75</ele><time>2026-04-28T13:19:32.69Z</time></trkpt><trkpt lat="43.1350435" lon="12.5491313"><ele>280.5</ele><time>2026-04-28T13:19:33.689Z</time></trkpt><trkpt lat="43.1349473" lon="12.5490319"><ele>279.25</ele><time>2026-04-28T13:19:34.69Z</time></trkpt><trkpt lat="43.134856" lon="12.5489386"><ele>278.0</ele><time>2026-04-28T13:19:35.689Z</time></trkpt><trkpt lat="43.1347579" lon="12.5488671"><ele>278.0</ele><time>2026-04-28T13:19:36.69Z</time></trkpt><trkpt lat="43.1346545" lon="12.5488186"><ele>278.0</ele><time>2026-04-28T13:19:37.69Z</time></trkpt><trkpt lat="43.1345352" lon="12.5488031"><ele>278.0</ele><time>2026-04-28T13:19:38.689Z</time></trkpt><trkpt lat="43.1344012" lon="12.5488247"><ele>278.0</ele><time>2026-04-28T13:19:39.689Z</time></trkpt><trkpt lat="43.1342659" lon="12.5488635"><ele>278.0</ele><time>2026-04-28T13:19:40.69Z</time></trkpt><trkpt lat="43.1341239" lon="12.5489033"><ele>278.0</ele><time>2026-04-28T13:19:41.689Z</time></trkpt><trkpt lat="43.1339869" lon="12.5489375"><ele>278.0</ele><time>2026-04-28T13:19:42.689Z</time></trkpt><trkpt lat="43.1338611" lon="12.5489628"><ele>278.0</ele><time>2026-04-28T13:19:43.688Z</time></trkpt><trkpt lat="43.1337395" lon="12.548963"><ele>278.75</ele><time>2026-04-28T13:19:44.689Z</time></trkpt><trkpt lat="43.133618" lon="12.5489304"><ele>279.5</ele><time>2026-04-28T13:19:45.689Z</time></trkpt><trkpt lat="43.1334995" lon="12.5488688"><ele>280.25</ele><time>2026-04-28T13:19:46.688Z</time></trkpt><trkpt lat="43.133389" lon="12.5488059"><ele>281.0</ele><time>2026-04-28T13:19:47.689Z</time></trkpt><trkpt lat="43.1332655" lon="12.5487664"><ele>279.75</ele><time>2026-04-28T13:19:48.689Z</time></trkpt><trkpt lat="43.1331307" lon="12.5487455"><ele>278.5</ele><time>2026-04-28T13:19:49.689Z</time></trkpt><trkpt lat="43.132997" lon="12.5487303"><ele>277.25</ele><time>2026-04-28T13:19:50.689Z</time></trkpt><trkpt lat="43.1328666" lon="12.548706"><ele>276.0</ele><time>2026-04-28T13:19:51.689Z</time></trkpt><trkpt lat="43.1327415" lon="12.5486627"><ele>274.5</ele><time>2026-04-28T13:19:52.689Z</time></trkpt><trkpt lat="43.1326131" lon="12.5486031"><ele>273.0</ele><time>2026-04-28T13:19:53.689Z</time></trkpt><trkpt lat="43.1324793" lon="12.5485376"><ele>271.5</ele><time>2026-04-28T13:19:54.689Z</time></trkpt><trkpt lat="43.1323403" lon="12.5484712"><ele>270.0</ele><time>2026-04-28T13:19:55.689Z</time></trkpt><trkpt lat="43.1322013" lon="12.5484042"><ele>270.0</ele><time>2026-04-28T13:19:56.689Z</time></trkpt><trkpt lat="43.1320649" lon="12.5483338"><ele>270.0</ele><time>2026-04-28T13:19:57.689Z</time></trkpt><trkpt lat="43.1319318" lon="12.5482657"><ele>270.0</ele><time>2026-04-28T13:19:58.689Z</time></trkpt><trkpt lat="43.1318051" lon="12.5482012"><ele>270.0</ele><time>2026-04-28T13:19:59.689Z</time></trkpt><trkpt lat="43.1316789" lon="12.5481434"><ele>270.0</ele><time>2026-04-28T13:20:00.689Z</time></trkpt><trkpt lat="43.1315623" lon="12.5480889"><ele>270.0</ele><time>2026-04-28T13:20:01.689Z</time></trkpt><trkpt lat="43.1314525" lon="12.5480434"><ele>270.0</ele><time>2026-04-28T13:20:02.689Z</time></trkpt><trkpt lat="43.1313454" lon="12.548006"><ele>270.0</ele><time>2026-04-28T13:20:03.689Z</time></trkpt><trkpt lat="43.1312407" lon="12.548"><ele>269.0</ele><time>2026-04-28T13:20:04.689Z</time></trkpt><trkpt lat="43.1311336" lon="12.5480346"><ele>268.0</ele><time>2026-04-28T13:20:05.689Z</time></trkpt><trkpt lat="43.1310217" lon="12.5480936"><ele>267.0</ele><time>2026-04-28T13:20:06.689Z</time></trkpt><trkpt lat="43.1309049" lon="12.5481533"><ele>266.0</ele><time>2026-04-28T13:20:07.689Z</time></trkpt><trkpt lat="43.1307797" lon="12.5482114"><ele>264.0</ele><time>2026-04-28T13:20:08.688Z</time></trkpt><trkpt lat="43.1306552" lon="12.5482685"><ele>262.0</ele><time>2026-04-28T13:20:09.689Z</time></trkpt><trkpt lat="43.1305488" lon="12.5483316"><ele>260.0</ele><time>2026-04-28T13:20:10.689Z</time></trkpt><trkpt lat="43.1304392" lon="12.5484111"><ele>258.0</ele><time>2026-04-28T13:20:11.689Z</time></trkpt><trkpt lat="43.1303276" lon="12.5485035"><ele>258.0</ele><time>2026-04-28T13:20:12.689Z</time></trkpt><trkpt lat="43.13021" lon="12.5486041"><ele>258.0</ele><time>2026-04-28T13:20:13.689Z</time></trkpt><trkpt lat="43.1300972" lon="12.548701"><ele>258.0</ele><time>2026-04-28T13:20:14.689Z</time></trkpt><trkpt lat="43.1299875" lon="12.5487853"><ele>258.0</ele><time>2026-04-28T13:20:15.689Z</time></trkpt><trkpt lat="43.1298882" lon="12.5488375"><ele>259.0</ele><time>2026-04-28T13:20:16.688Z</time></trkpt><trkpt lat="43.1298054" lon="12.5488538"><ele>260.0</ele><time>2026-04-28T13:20:17.689Z</time></trkpt><trkpt lat="43.1297431" lon="12.548824"><ele>261.0</ele><time>2026-04-28T13:20:18.689Z</time></trkpt><trkpt lat="43.1296691" lon="12.5486655"><ele>262.0</ele><time>2026-04-28T13:20:20.689Z</time></trkpt><trkpt lat="43.1296401" lon="12.5485419"><ele>263.0</ele><time>2026-04-28T13:20:21.689Z</time></trkpt><trkpt lat="43.1295947" lon="12.5484309"><ele>263.0</ele><time>2026-04-28T13:20:22.687Z</time></trkpt><trkpt lat="43.1295286" lon="12.5483289"><ele>263.0</ele><time>2026-04-28T13:20:23.688Z</time></trkpt><trkpt lat="43.1294391" lon="12.5482425"><ele>263.0</ele><time>2026-04-28T13:20:24.689Z</time></trkpt><trkpt lat="43.1293312" lon="12.5481806"><ele>263.0</ele><time>2026-04-28T13:20:25.689Z</time></trkpt><trkpt lat="43.1292134" lon="12.5481428"><ele>263.0</ele><time>2026-04-28T13:20:26.688Z</time></trkpt><trkpt lat="43.1290881" lon="12.5481224"><ele>264.75</ele><time>2026-04-28T13:20:27.689Z</time></trkpt><trkpt lat="43.1289553" lon="12.5481206"><ele>266.5</ele><time>2026-04-28T13:20:28.689Z</time></trkpt><trkpt lat="43.1288228" lon="12.5481287"><ele>268.25</ele><time>2026-04-28T13:20:29.689Z</time></trkpt><trkpt lat="43.1286929" lon="12.548132"><ele>270.0</ele><time>2026-04-28T13:20:30.689Z</time></trkpt><trkpt lat="43.1285667" lon="12.5481099"><ele>270.0</ele><time>2026-04-28T13:20:31.688Z</time></trkpt><trkpt lat="43.1284396" lon="12.5480524"><ele>270.0</ele><time>2026-04-28T13:20:32.689Z</time></trkpt><trkpt lat="43.1283084" lon="12.5479826"><ele>270.0</ele><time>2026-04-28T13:20:33.689Z</time></trkpt><trkpt lat="43.1281686" lon="12.5479248"><ele>270.0</ele><time>2026-04-28T13:20:34.689Z</time></trkpt><trkpt lat="43.1280334" lon="12.5478761"><ele>264.25</ele><time>2026-04-28T13:20:35.689Z</time></trkpt><trkpt lat="43.1279036" lon="12.5478399"><ele>258.5</ele><time>2026-04-28T13:20:36.689Z</time></trkpt><trkpt lat="43.1277738" lon="12.5478161"><ele>252.75</ele><time>2026-04-28T13:20:37.688Z</time></trkpt><trkpt lat="43.1276388" lon="12.5478096"><ele>247.0</ele><time>2026-04-28T13:20:38.689Z</time></trkpt><trkpt lat="43.1274979" lon="12.5478192"><ele>247.0</ele><time>2026-04-28T13:20:39.688Z</time></trkpt><trkpt lat="43.1273536" lon="12.5478332"><ele>247.0</ele><time>2026-04-28T13:20:40.689Z</time></trkpt><trkpt lat="43.1272047" lon="12.5478594"><ele>247.0</ele><time>2026-04-28T13:20:41.689Z</time></trkpt><trkpt lat="43.1270547" lon="12.5479092"><ele>247.0</ele><time>2026-04-28T13:20:42.688Z</time></trkpt><trkpt lat="43.1269041" lon="12.5479787"><ele>248.25</ele><time>2026-04-28T13:20:43.689Z</time></trkpt><trkpt lat="43.1267543" lon="12.5480578"><ele>249.5</ele><time>2026-04-28T13:20:44.689Z</time></trkpt><trkpt lat="43.1266148" lon="12.5481343"><ele>250.75</ele><time>2026-04-28T13:20:45.688Z</time></trkpt><trkpt lat="43.126494" lon="12.548206"><ele>252.0</ele><time>2026-04-28T13:20:46.689Z</time></trkpt><trkpt lat="43.12638" lon="12.5482812"><ele>252.0</ele><time>2026-04-28T13:20:47.689Z</time></trkpt><trkpt lat="43.1262699" lon="12.5483546"><ele>252.0</ele><time>2026-04-28T13:20:48.689Z</time></trkpt><trkpt lat="43.1261593" lon="12.54843"><ele>252.0</ele><time>2026-04-28T13:20:49.689Z</time></trkpt><trkpt lat="43.1260508" lon="12.5485066"><ele>252.0</ele><time>2026-04-28T13:20:50.688Z</time></trkpt><trkpt lat="43.1259408" lon="12.5485805"><ele>252.0</ele><time>2026-04-28T13:20:51.688Z</time></trkpt><trkpt lat="43.1258277" lon="12.5486524"><ele>252.0</ele><time>2026-04-28T13:20:52.689Z</time></trkpt><trkpt lat="43.1257133" lon="12.548715"><ele>252.0</ele><time>2026-04-28T13:20:53.689Z</time></trkpt><trkpt lat="43.1255976" lon="12.5487554"><ele>252.0</ele><time>2026-04-28T13:20:54.689Z</time></trkpt><trkpt lat="43.1254796" lon="12.5487665"><ele>251.0</ele><time>2026-04-28T13:20:55.689Z</time></trkpt><trkpt lat="43.1253597" lon="12.5487679"><ele>250.0</ele><time>2026-04-28T13:20:56.689Z</time></trkpt><trkpt lat="43.125225" lon="12.5487917"><ele>249.0</ele><time>2026-04-28T13:20:57.688Z</time></trkpt><trkpt lat="43.1250915" lon="12.5488405"><ele>248.0</ele><time>2026-04-28T13:20:58.689Z</time></trkpt><trkpt lat="43.1249588" lon="12.5489055"><ele>246.0</ele><time>2026-04-28T13:20:59.689Z</time></trkpt><trkpt lat="43.1248253" lon="12.5489722"><ele>244.0</ele><time>2026-04-28T13:21:00.689Z</time></trkpt><trkpt lat="43.1246905" lon="12.5490359"><ele>242.0</ele><time>2026-04-28T13:21:01.688Z</time></trkpt><trkpt lat="43.1245575" lon="12.5491001"><ele>240.0</ele><time>2026-04-28T13:21:02.689Z</time></trkpt><trkpt lat="43.1244221" lon="12.54918"><ele>240.0</ele><time>2026-04-28T13:21:03.688Z</time></trkpt><trkpt lat="43.1242888" lon="12.5492898"><ele>240.0</ele><time>2026-04-28T13:21:04.689Z</time></trkpt><trkpt lat="43.1241573" lon="12.5494228"><ele>240.0</ele><time>2026-04-28T13:21:05.688Z</time></trkpt><trkpt lat="43.1240248" lon="12.5495704"><ele>241.0</ele><time>2026-04-28T13:21:06.688Z</time></trkpt><trkpt lat="43.1239002" lon="12.5497173"><ele>242.0</ele><time>2026-04-28T13:21:07.689Z</time></trkpt><trkpt lat="43.1237757" lon="12.5498661"><ele>243.0</ele><time>2026-04-28T13:21:08.688Z</time></trkpt><trkpt lat="43.1236512" lon="12.5500093"><ele>243.0</ele><time>2026-04-28T13:21:09.689Z</time></trkpt><trkpt lat="43.1235274" lon="12.5501373"><ele>243.0</ele><time>2026-04-28T13:21:10.688Z</time></trkpt><trkpt lat="43.1234053" lon="12.5502494"><ele>243.0</ele><time>2026-04-28T13:21:11.689Z</time></trkpt><trkpt lat="43.1232983" lon="12.550361"><ele>243.0</ele><time>2026-04-28T13:21:12.688Z</time></trkpt><trkpt lat="43.1232137" lon="12.5504893"><ele>242.2</ele><time>2026-04-28T13:21:13.689Z</time></trkpt><trkpt lat="43.1231481" lon="12.5506263"><ele>241.4</ele><time>2026-04-28T13:21:14.689Z</time></trkpt><trkpt lat="43.123093" lon="12.5507509"><ele>240.59999999999997</ele><time>2026-04-28T13:21:15.689Z</time></trkpt><trkpt lat="43.1230339" lon="12.5508348"><ele>239.79999999999998</ele><time>2026-04-28T13:21:16.688Z</time></trkpt><trkpt lat="43.1229627" lon="12.5508841"><ele>239.0</ele><time>2026-04-28T13:21:17.689Z</time></trkpt><trkpt lat="43.1228929" lon="12.5508753"><ele>239.0</ele><time>2026-04-28T13:21:18.688Z</time></trkpt><trkpt lat="43.1228369" lon="12.550821"><ele>238.99999999999997</ele><time>2026-04-28T13:21:19.689Z</time></trkpt><trkpt lat="43.1227929" lon="12.5507298"><ele>238.99999999999997</ele><time>2026-04-28T13:21:20.688Z</time></trkpt><trkpt lat="43.1227598" lon="12.5506063"><ele>239.0</ele><time>2026-04-28T13:21:21.688Z</time></trkpt><trkpt lat="43.122713" lon="12.5504678"><ele>239.0</ele><time>2026-04-28T13:21:22.689Z</time></trkpt><trkpt lat="43.122661" lon="12.5503229"><ele>238.79999999999998</ele><time>2026-04-28T13:21:23.689Z</time></trkpt><trkpt lat="43.122607" lon="12.550187"><ele>238.59999999999997</ele><time>2026-04-28T13:21:24.689Z</time></trkpt><trkpt lat="43.1225441" lon="12.5500681"><ele>238.4</ele><time>2026-04-28T13:21:25.688Z</time></trkpt><trkpt lat="43.1224702" lon="12.5499766"><ele>238.2</ele><time>2026-04-28T13:21:26.688Z</time></trkpt><trkpt lat="43.1223883" lon="12.5499174"><ele>238.0</ele><time>2026-04-28T13:21:27.689Z</time></trkpt><trkpt lat="43.122296" lon="12.5499009"><ele>237.33333333333331</ele><time>2026-04-28T13:21:28.689Z</time></trkpt><trkpt lat="43.1221967" lon="12.549911"><ele>236.66666666666666</ele><time>2026-04-28T13:21:29.689Z</time></trkpt><trkpt lat="43.1221034" lon="12.5499183"><ele>236.0</ele><time>2026-04-28T13:21:30.689Z</time></trkpt><trkpt lat="43.1220199" lon="12.5498968"><ele>235.33333333333331</ele><time>2026-04-28T13:21:31.689Z</time></trkpt><trkpt lat="43.121945" lon="12.5498447"><ele>234.66666666666666</ele><time>2026-04-28T13:21:32.689Z</time></trkpt><trkpt lat="43.121891" lon="12.5497619"><ele>234.0</ele><time>2026-04-28T13:21:33.688Z</time></trkpt><trkpt lat="43.1218455" lon="12.549648"><ele>234.0</ele><time>2026-04-28T13:21:34.689Z</time></trkpt><trkpt lat="43.1217976" lon="12.5495264"><ele>233.99999999999997</ele><time>2026-04-28T13:21:35.688Z</time></trkpt><trkpt lat="43.1217263" lon="12.5494202"><ele>233.99999999999997</ele><time>2026-04-28T13:21:36.689Z</time></trkpt><trkpt lat="43.1216383" lon="12.5493337"><ele>234.0</ele><time>2026-04-28T13:21:37.689Z</time></trkpt><trkpt lat="43.1215442" lon="12.5492553"><ele>234.0</ele><time>2026-04-28T13:21:38.689Z</time></trkpt><trkpt lat="43.121453" lon="12.5491866"><ele>233.6</ele><time>2026-04-28T13:21:39.689Z</time></trkpt><trkpt lat="43.1213701" lon="12.5491093"><ele>233.2</ele><time>2026-04-28T13:21:40.689Z</time></trkpt><trkpt lat="43.1212899" lon="12.5490243"><ele>232.79999999999998</ele><time>2026-04-28T13:21:41.689Z</time></trkpt><trkpt lat="43.1212085" lon="12.548919"><ele>232.39999999999998</ele><time>2026-04-28T13:21:42.688Z</time></trkpt><trkpt lat="43.1211253" lon="12.548791"><ele>232.0</ele><time>2026-04-28T13:21:43.688Z</time></trkpt><trkpt lat="43.1210457" lon="12.5486363"><ele>232.0</ele><time>2026-04-28T13:21:44.689Z</time></trkpt><trkpt lat="43.1209733" lon="12.5484518"><ele>232.0</ele><time>2026-04-28T13:21:45.689Z</time></trkpt><trkpt lat="43.1209069" lon="12.5482547"><ele>232.0</ele><time>2026-04-28T13:21:46.689Z</time></trkpt><trkpt lat="43.1208321" lon="12.548051"><ele>231.0</ele><time>2026-04-28T13:21:47.689Z</time></trkpt><trkpt lat="43.1207518" lon="12.5478576"><ele>230.0</ele><time>2026-04-28T13:21:48.688Z</time></trkpt><trkpt lat="43.1206764" lon="12.5476731"><ele>229.0</ele><time>2026-04-28T13:21:49.688Z</time></trkpt><trkpt lat="43.1206201" lon="12.5474894"><ele>229.0</ele><time>2026-04-28T13:21:50.688Z</time></trkpt><trkpt lat="43.1205771" lon="12.5472887"><ele>229.0</ele><time>2026-04-28T13:21:51.689Z</time></trkpt><trkpt lat="43.1205463" lon="12.5470765"><ele>229.0</ele><time>2026-04-28T13:21:52.689Z</time></trkpt><trkpt lat="43.1205212" lon="12.5468748"><ele>228.0</ele><time>2026-04-28T13:21:53.689Z</time></trkpt><trkpt lat="43.1204947" lon="12.5466867"><ele>227.0</ele><time>2026-04-28T13:21:54.689Z</time></trkpt><trkpt lat="43.1204622" lon="12.5465213"><ele>226.0</ele><time>2026-04-28T13:21:55.689Z</time></trkpt><trkpt lat="43.1204144" lon="12.5463888"><ele>225.0</ele><time>2026-04-28T13:21:56.689Z</time></trkpt><trkpt lat="43.1203531" lon="12.5462861"><ele>225.0</ele><time>2026-04-28T13:21:57.689Z</time></trkpt><trkpt lat="43.1202808" lon="12.5462149"><ele>225.0</ele><time>2026-04-28T13:21:58.689Z</time></trkpt><trkpt lat="43.1202034" lon="12.5461663"><ele>225.0</ele><time>2026-04-28T13:21:59.688Z</time></trkpt><trkpt lat="43.120128" lon="12.5461068"><ele>225.0</ele><time>2026-04-28T13:22:00.688Z</time></trkpt><trkpt lat="43.1200584" lon="12.5460317"><ele>225.0</ele><time>2026-04-28T13:22:01.689Z</time></trkpt><trkpt lat="43.1199802" lon="12.5459555"><ele>225.0</ele><time>2026-04-28T13:22:02.689Z</time></trkpt><trkpt lat="43.1198854" lon="12.5458868"><ele>223.0</ele><time>2026-04-28T13:22:03.689Z</time></trkpt><trkpt lat="43.1197802" lon="12.5458303"><ele>221.0</ele><time>2026-04-28T13:22:04.689Z</time></trkpt><trkpt lat="43.119667" lon="12.5458008"><ele>219.0</ele><time>2026-04-28T13:22:05.689Z</time></trkpt><trkpt lat="43.1195398" lon="12.545797"><ele>217.0</ele><time>2026-04-28T13:22:06.688Z</time></trkpt><trkpt lat="43.1194062" lon="12.54582"><ele>217.0</ele><time>2026-04-28T13:22:07.689Z</time></trkpt><trkpt lat="43.1192687" lon="12.54586"><ele>217.0</ele><time>2026-04-28T13:22:08.689Z</time></trkpt><trkpt lat="43.1191265" lon="12.5459085"><ele>217.0</ele><time>2026-04-28T13:22:09.689Z</time></trkpt><trkpt lat="43.1189752" lon="12.5459637"><ele>217.0</ele><time>2026-04-28T13:22:10.689Z</time></trkpt><trkpt lat="43.1188235" lon="12.5460189"><ele>216.66666666666666</ele><time>2026-04-28T13:22:11.689Z</time></trkpt><trkpt lat="43.1186651" lon="12.546062"><ele>216.33333333333331</ele><time>2026-04-28T13:22:12.689Z</time></trkpt><trkpt lat="43.1184968" lon="12.5460855"><ele>216.0</ele><time>2026-04-28T13:22:13.688Z</time></trkpt><trkpt lat="43.1183272" lon="12.5460838"><ele>216.66666666666669</ele><time>2026-04-28T13:22:14.689Z</time></trkpt><trkpt lat="43.1181572" lon="12.5460746"><ele>217.33333333333334</ele><time>2026-04-28T13:22:15.688Z</time></trkpt><trkpt lat="43.117988" lon="12.5460708"><ele>218.0</ele><time>2026-04-28T13:22:16.689Z</time></trkpt><trkpt lat="43.1178318" lon="12.5460657"><ele>218.0</ele><time>2026-04-28T13:22:17.688Z</time></trkpt><trkpt lat="43.1176929" lon="12.5460529"><ele>218.0</ele><time>2026-04-28T13:22:18.689Z</time></trkpt><trkpt lat="43.1175715" lon="12.5460215"><ele>218.0</ele><time>2026-04-28T13:22:19.689Z</time></trkpt><trkpt lat="43.1174701" lon="12.5459649"><ele>218.0</ele><time>2026-04-28T13:22:20.688Z</time></trkpt><trkpt lat="43.1173888" lon="12.5458774"><ele>218.25</ele><time>2026-04-28T13:22:21.688Z</time></trkpt><trkpt lat="43.1173263" lon="12.5457548"><ele>218.5</ele><time>2026-04-28T13:22:22.688Z</time></trkpt><trkpt lat="43.1172697" lon="12.5456142"><ele>218.75</ele><time>2026-04-28T13:22:23.689Z</time></trkpt><trkpt lat="43.1172151" lon="12.5454616"><ele>219.0</ele><time>2026-04-28T13:22:24.689Z</time></trkpt><trkpt lat="43.1171575" lon="12.5453156"><ele>219.0</ele><time>2026-04-28T13:22:25.688Z</time></trkpt><trkpt lat="43.1170952" lon="12.5451787"><ele>219.0</ele><time>2026-04-28T13:22:26.689Z</time></trkpt><trkpt lat="43.1170093" lon="12.5450752"><ele>219.0</ele><time>2026-04-28T13:22:27.689Z</time></trkpt><trkpt lat="43.1169114" lon="12.544985"><ele>219.0</ele><time>2026-04-28T13:22:28.687Z</time></trkpt><trkpt lat="43.1167992" lon="12.5449128"><ele>219.0</ele><time>2026-04-28T13:22:29.689Z</time></trkpt><trkpt lat="43.1166768" lon="12.5448519"><ele>219.0</ele><time>2026-04-28T13:22:30.689Z</time></trkpt><trkpt lat="43.1165432" lon="12.5447977"><ele>219.0</ele><time>2026-04-28T13:22:31.689Z</time></trkpt><trkpt lat="43.1164051" lon="12.5447379"><ele>219.0</ele><time>2026-04-28T13:22:32.688Z</time></trkpt><trkpt lat="43.1162583" lon="12.5446741"><ele>219.33333333333331</ele><time>2026-04-28T13:22:33.689Z</time></trkpt><trkpt lat="43.1161058" lon="12.5446022"><ele>219.66666666666666</ele><time>2026-04-28T13:22:34.689Z</time></trkpt><trkpt lat="43.1159517" lon="12.5445293"><ele>220.0</ele><time>2026-04-28T13:22:35.689Z</time></trkpt><trkpt lat="43.1158028" lon="12.5444642"><ele>218.33333333333331</ele><time>2026-04-28T13:22:36.688Z</time></trkpt><trkpt lat="43.1156588" lon="12.544422"><ele>216.66666666666669</ele><time>2026-04-28T13:22:37.689Z</time></trkpt><trkpt lat="43.1155072" lon="12.5444025"><ele>215.0</ele><time>2026-04-28T13:22:38.689Z</time></trkpt><trkpt lat="43.1153491" lon="12.544399"><ele>215.0</ele><time>2026-04-28T13:22:39.688Z</time></trkpt><trkpt lat="43.1151896" lon="12.5443984"><ele>215.0</ele><time>2026-04-28T13:22:40.689Z</time></trkpt><trkpt lat="43.1150313" lon="12.5444004"><ele>215.0</ele><time>2026-04-28T13:22:41.689Z</time></trkpt><trkpt lat="43.1148754" lon="12.544404"><ele>214.33333333333334</ele><time>2026-04-28T13:22:42.688Z</time></trkpt><trkpt lat="43.1147133" lon="12.5444212"><ele>213.66666666666669</ele><time>2026-04-28T13:22:43.689Z</time></trkpt><trkpt lat="43.1145523" lon="12.5444553"><ele>213.0</ele><time>2026-04-28T13:22:44.689Z</time></trkpt><trkpt lat="43.1143902" lon="12.5445037"><ele>214.33333333333331</ele><time>2026-04-28T13:22:45.688Z</time></trkpt><trkpt lat="43.1142293" lon="12.5445643"><ele>215.66666666666666</ele><time>2026-04-28T13:22:46.688Z</time></trkpt><trkpt lat="43.1140786" lon="12.5446227"><ele>217.0</ele><time>2026-04-28T13:22:47.689Z</time></trkpt><trkpt lat="43.1139346" lon="12.5446655"><ele>217.0</ele><time>2026-04-28T13:22:48.688Z</time></trkpt><trkpt lat="43.1137909" lon="12.5446832"><ele>217.0</ele><time>2026-04-28T13:22:49.688Z</time></trkpt><trkpt lat="43.1136422" lon="12.5446664"><ele>217.0</ele><time>2026-04-28T13:22:50.689Z</time></trkpt><trkpt lat="43.1134867" lon="12.5446279"><ele>217.0</ele><time>2026-04-28T13:22:51.689Z</time></trkpt><trkpt lat="43.1133232" lon="12.5445881"><ele>217.0</ele><time>2026-04-28T13:22:52.688Z</time></trkpt><trkpt lat="43.1131573" lon="12.5445657"><ele>217.0</ele><time>2026-04-28T13:22:53.689Z</time></trkpt><trkpt lat="43.1129869" lon="12.544561"><ele>217.66666666666666</ele><time>2026-04-28T13:22:54.689Z</time></trkpt><trkpt lat="43.1128158" lon="12.5445757"><ele>218.33333333333331</ele><time>2026-04-28T13:22:55.689Z</time></trkpt><trkpt lat="43.1126465" lon="12.5446182"><ele>219.0</ele><time>2026-04-28T13:22:56.688Z</time></trkpt><trkpt lat="43.1124784" lon="12.5446845"><ele>218.33333333333331</ele><time>2026-04-28T13:22:57.689Z</time></trkpt><trkpt lat="43.1123117" lon="12.5447722"><ele>217.66666666666666</ele><time>2026-04-28T13:22:58.688Z</time></trkpt><trkpt lat="43.112146" lon="12.5448572"><ele>217.0</ele><time>2026-04-28T13:22:59.687Z</time></trkpt><trkpt lat="43.1119911" lon="12.5449303"><ele>217.0</ele><time>2026-04-28T13:23:00.688Z</time></trkpt><trkpt lat="43.1118376" lon="12.5449794"><ele>217.0</ele><time>2026-04-28T13:23:01.687Z</time></trkpt><trkpt lat="43.11168" lon="12.5450164"><ele>217.0</ele><time>2026-04-28T13:23:02.688Z</time></trkpt><trkpt lat="43.1115083" lon="12.545044"><ele>217.0</ele><time>2026-04-28T13:23:03.688Z</time></trkpt><trkpt lat="43.1113332" lon="12.5450665"><ele>217.0</ele><time>2026-04-28T13:23:04.687Z</time></trkpt><trkpt lat="43.1111654" lon="12.5450841"><ele>217.0</ele><time>2026-04-28T13:23:05.688Z</time></trkpt><trkpt lat="43.1109932" lon="12.5450876"><ele>217.0</ele><time>2026-04-28T13:23:06.688Z</time></trkpt><trkpt lat="43.1108182" lon="12.5450717"><ele>217.0</ele><time>2026-04-28T13:23:07.687Z</time></trkpt><trkpt lat="43.1106415" lon="12.5450596"><ele>217.0</ele><time>2026-04-28T13:23:08.688Z</time></trkpt><trkpt lat="43.1104595" lon="12.5450644"><ele>216.33333333333331</ele><time>2026-04-28T13:23:09.688Z</time></trkpt><trkpt lat="43.1102785" lon="12.5450854"><ele>215.66666666666669</ele><time>2026-04-28T13:23:10.687Z</time></trkpt><trkpt lat="43.1100872" lon="12.5451318"><ele>215.0</ele><time>2026-04-28T13:23:11.688Z</time></trkpt><trkpt lat="43.1098968" lon="12.5451798"><ele>214.66666666666669</ele><time>2026-04-28T13:23:12.687Z</time></trkpt><trkpt lat="43.1097047" lon="12.5452203"><ele>214.33333333333331</ele><time>2026-04-28T13:23:13.687Z</time></trkpt><trkpt lat="43.1095272" lon="12.5452489"><ele>214.0</ele><time>2026-04-28T13:23:14.688Z</time></trkpt><trkpt lat="43.1093598" lon="12.5452606"><ele>214.0</ele><time>2026-04-28T13:23:15.687Z</time></trkpt><trkpt lat="43.1092085" lon="12.5452508"><ele>214.0</ele><time>2026-04-28T13:23:16.688Z</time></trkpt><trkpt lat="43.1090694" lon="12.545231"><ele>214.0</ele><time>2026-04-28T13:23:17.688Z</time></trkpt><trkpt lat="43.108945" lon="12.5452078"><ele>214.0</ele><time>2026-04-28T13:23:18.688Z</time></trkpt><trkpt lat="43.1088297" lon="12.5451851"><ele>214.79999999999998</ele><time>2026-04-28T13:23:19.688Z</time></trkpt><trkpt lat="43.1087224" lon="12.5451534"><ele>215.59999999999997</ele><time>2026-04-28T13:23:20.688Z</time></trkpt><trkpt lat="43.1086326" lon="12.5450902"><ele>216.4</ele><time>2026-04-28T13:23:21.687Z</time></trkpt><trkpt lat="43.108552" lon="12.5450001"><ele>217.2</ele><time>2026-04-28T13:23:22.688Z</time></trkpt><trkpt lat="43.1084715" lon="12.5448863"><ele>218.0</ele><time>2026-04-28T13:23:23.688Z</time></trkpt><trkpt lat="43.1083909" lon="12.5447812"><ele>218.0</ele><time>2026-04-28T13:23:24.687Z</time></trkpt><trkpt lat="43.1083035" lon="12.5447056"><ele>218.0</ele><time>2026-04-28T13:23:25.688Z</time></trkpt><trkpt lat="43.1082089" lon="12.5446675"><ele>218.0</ele><time>2026-04-28T13:23:26.687Z</time></trkpt><trkpt lat="43.1081" lon="12.5446675"><ele>218.0</ele><time>2026-04-28T13:23:27.688Z</time></trkpt><trkpt lat="43.1079811" lon="12.5446943"><ele>218.0</ele><time>2026-04-28T13:23:28.688Z</time></trkpt><trkpt lat="43.107853" lon="12.5447217"><ele>217.5</ele><time>2026-04-28T13:23:29.688Z</time></trkpt><trkpt lat="43.1077114" lon="12.5447429"><ele>217.0</ele><time>2026-04-28T13:23:30.688Z</time></trkpt><trkpt lat="43.1075677" lon="12.5447588"><ele>216.5</ele><time>2026-04-28T13:23:31.688Z</time></trkpt><trkpt lat="43.1074218" lon="12.5447718"><ele>216.0</ele><time>2026-04-28T13:23:32.687Z</time></trkpt><trkpt lat="43.1072867" lon="12.5447948"><ele>216.0</ele><time>2026-04-28T13:23:33.687Z</time></trkpt><trkpt lat="43.1071518" lon="12.5448359"><ele>216.0</ele><time>2026-04-28T13:23:34.688Z</time></trkpt><trkpt lat="43.1070233" lon="12.5449064"><ele>216.0</ele><time>2026-04-28T13:23:35.688Z</time></trkpt><trkpt lat="43.1069119" lon="12.544986"><ele>216.0</ele><time>2026-04-28T13:23:36.688Z</time></trkpt><trkpt lat="43.1068043" lon="12.5450487"><ele>216.0</ele><time>2026-04-28T13:23:37.688Z</time></trkpt><trkpt lat="43.1066892" lon="12.5450664"><ele>216.0</ele><time>2026-04-28T13:23:38.687Z</time></trkpt><trkpt lat="43.1065674" lon="12.545059"><ele>216.0</ele><time>2026-04-28T13:23:39.688Z</time></trkpt><trkpt lat="43.1064437" lon="12.5450155"><ele>216.0</ele><time>2026-04-28T13:23:40.688Z</time></trkpt><trkpt lat="43.1063171" lon="12.5449612"><ele>216.25</ele><time>2026-04-28T13:23:41.688Z</time></trkpt><trkpt lat="43.1061886" lon="12.5449045"><ele>216.5</ele><time>2026-04-28T13:23:42.688Z</time></trkpt><trkpt lat="43.1060648" lon="12.544848"><ele>216.75</ele><time>2026-04-28T13:23:43.688Z</time></trkpt><trkpt lat="43.105949" lon="12.5447974"><ele>217.0</ele><time>2026-04-28T13:23:44.688Z</time></trkpt><trkpt lat="43.1058385" lon="12.5447547"><ele>216.5</ele><time>2026-04-28T13:23:45.688Z</time></trkpt><trkpt lat="43.1057279" lon="12.544719"><ele>216.0</ele><time>2026-04-28T13:23:46.688Z</time></trkpt><trkpt lat="43.1056169" lon="12.5447119"><ele>215.5</ele><time>2026-04-28T13:23:47.688Z</time></trkpt><trkpt lat="43.1055011" lon="12.5447157"><ele>215.0</ele><time>2026-04-28T13:23:48.686Z</time></trkpt><trkpt lat="43.1053815" lon="12.5447254"><ele>215.0</ele><time>2026-04-28T13:23:49.688Z</time></trkpt><trkpt lat="43.1052615" lon="12.5447432"><ele>215.0</ele><time>2026-04-28T13:23:50.688Z</time></trkpt><trkpt lat="43.1051493" lon="12.5447701"><ele>215.0</ele><time>2026-04-28T13:23:51.688Z</time></trkpt><trkpt lat="43.1050469" lon="12.5448191"><ele>215.0</ele><time>2026-04-28T13:23:52.687Z</time></trkpt><trkpt lat="43.1049497" lon="12.5448733"><ele>215.0</ele><time>2026-04-28T13:23:53.688Z</time></trkpt><trkpt lat="43.1048654" lon="12.544935"><ele>214.83333333333334</ele><time>2026-04-28T13:23:54.687Z</time></trkpt><trkpt lat="43.104789" lon="12.5449914"><ele>214.66666666666669</ele><time>2026-04-28T13:23:55.688Z</time></trkpt><trkpt lat="43.1047243" lon="12.5450478"><ele>214.5</ele><time>2026-04-28T13:23:56.688Z</time></trkpt><trkpt lat="43.1046504" lon="12.5451291"><ele>214.33333333333331</ele><time>2026-04-28T13:23:58.687Z</time></trkpt><trkpt lat="43.1046127" lon="12.5452681"><ele>214.16666666666666</ele><time>2026-04-28T13:24:02.687Z</time></trkpt><trkpt lat="43.1046251" lon="12.5453656"><ele>214.0</ele><time>2026-04-28T13:24:03.687Z</time></trkpt><trkpt lat="43.1046498" lon="12.5454859"><ele>213.75</ele><time>2026-04-28T13:24:04.688Z</time></trkpt><trkpt lat="43.1046769" lon="12.54563"><ele>213.5</ele><time>2026-04-28T13:24:05.688Z</time></trkpt><trkpt lat="43.1046936" lon="12.5457987"><ele>213.25</ele><time>2026-04-28T13:24:06.687Z</time></trkpt><trkpt lat="43.104695" lon="12.5459727"><ele>213.0</ele><time>2026-04-28T13:24:07.688Z</time></trkpt><trkpt lat="43.1046754" lon="12.546155"><ele>212.75</ele><time>2026-04-28T13:24:08.688Z</time></trkpt><trkpt lat="43.1046392" lon="12.5463454"><ele>212.5</ele><time>2026-04-28T13:24:09.687Z</time></trkpt><trkpt lat="43.1045829" lon="12.5465338"><ele>212.25</ele><time>2026-04-28T13:24:10.688Z</time></trkpt><trkpt lat="43.1045044" lon="12.5467133"><ele>212.0</ele><time>2026-04-28T13:24:11.688Z</time></trkpt><trkpt lat="43.1044065" lon="12.546879"><ele>212.0</ele><time>2026-04-28T13:24:12.687Z</time></trkpt><trkpt lat="43.1042905" lon="12.5470379"><ele>212.0</ele><time>2026-04-28T13:24:13.688Z</time></trkpt><trkpt lat="43.1041634" lon="12.5471938"><ele>212.0</ele><time>2026-04-28T13:24:14.687Z</time></trkpt><trkpt lat="43.1040326" lon="12.547354"><ele>213.0</ele><time>2026-04-28T13:24:15.687Z</time></trkpt><trkpt lat="43.1038996" lon="12.5475179"><ele>214.0</ele><time>2026-04-28T13:24:16.688Z</time></trkpt><trkpt lat="43.1037633" lon="12.5476833"><ele>215.0</ele><time>2026-04-28T13:24:17.687Z</time></trkpt><trkpt lat="43.1036285" lon="12.5478459"><ele>216.33333333333334</ele><time>2026-04-28T13:24:18.688Z</time></trkpt><trkpt lat="43.1035013" lon="12.5480106"><ele>217.66666666666669</ele><time>2026-04-28T13:24:19.688Z</time></trkpt><trkpt lat="43.1033931" lon="12.548171"><ele>219.0</ele><time>2026-04-28T13:24:20.687Z</time></trkpt><trkpt lat="43.1032967" lon="12.5483304"><ele>218.75</ele><time>2026-04-28T13:24:21.688Z</time></trkpt><trkpt lat="43.1032125" lon="12.5484951"><ele>218.5</ele><time>2026-04-28T13:24:22.688Z</time></trkpt><trkpt lat="43.1031368" lon="12.548667"><ele>218.25</ele><time>2026-04-28T13:24:23.688Z</time></trkpt><trkpt lat="43.1030677" lon="12.5488503"><ele>218.0</ele><time>2026-04-28T13:24:24.687Z</time></trkpt><trkpt lat="43.1030027" lon="12.549043"><ele>218.0</ele><time>2026-04-28T13:24:25.688Z</time></trkpt><trkpt lat="43.1029379" lon="12.5492448"><ele>218.0</ele><time>2026-04-28T13:24:26.688Z</time></trkpt><trkpt lat="43.1028694" lon="12.5494616"><ele>218.0</ele><time>2026-04-28T13:24:27.687Z</time></trkpt><trkpt lat="43.1027987" lon="12.5496769"><ele>219.0</ele><time>2026-04-28T13:24:28.688Z</time></trkpt><trkpt lat="43.1027229" lon="12.5498978"><ele>220.0</ele><time>2026-04-28T13:24:29.688Z</time></trkpt><trkpt lat="43.1026432" lon="12.5501194"><ele>221.0</ele><time>2026-04-28T13:24:30.688Z</time></trkpt><trkpt lat="43.1025568" lon="12.5503424"><ele>221.0</ele><time>2026-04-28T13:24:31.688Z</time></trkpt><trkpt lat="43.102471" lon="12.5505692"><ele>221.0</ele><time>2026-04-28T13:24:32.688Z</time></trkpt><trkpt lat="43.1023847" lon="12.5507965"><ele>221.0</ele><time>2026-04-28T13:24:33.687Z</time></trkpt><trkpt lat="43.1022967" lon="12.551025"><ele>220.0</ele><time>2026-04-28T13:24:34.688Z</time></trkpt><trkpt lat="43.1022053" lon="12.5512549"><ele>219.0</ele><time>2026-04-28T13:24:35.688Z</time></trkpt><trkpt lat="43.1021129" lon="12.5514785"><ele>218.0</ele><time>2026-04-28T13:24:36.687Z</time></trkpt><trkpt lat="43.1020237" lon="12.5516925"><ele>218.0</ele><time>2026-04-28T13:24:37.688Z</time></trkpt><trkpt lat="43.1019383" lon="12.5519042"><ele>218.0</ele><time>2026-04-28T13:24:38.687Z</time></trkpt><trkpt lat="43.1018552" lon="12.5521165"><ele>218.0</ele><time>2026-04-28T13:24:39.688Z</time></trkpt><trkpt lat="43.1017728" lon="12.5523217"><ele>218.0</ele><time>2026-04-28T13:24:40.688Z</time></trkpt><trkpt lat="43.1016887" lon="12.5525277"><ele>218.0</ele><time>2026-04-28T13:24:41.688Z</time></trkpt><trkpt lat="43.1016073" lon="12.5527346"><ele>218.0</ele><time>2026-04-28T13:24:42.688Z</time></trkpt><trkpt lat="43.1015245" lon="12.5529416"><ele>218.0</ele><time>2026-04-28T13:24:43.688Z</time></trkpt><trkpt lat="43.1014418" lon="12.553147"><ele>218.0</ele><time>2026-04-28T13:24:44.688Z</time></trkpt><trkpt lat="43.1013591" lon="12.5533517"><ele>218.0</ele><time>2026-04-28T13:24:45.688Z</time></trkpt><trkpt lat="43.1012745" lon="12.5535503"><ele>219.66666666666669</ele><time>2026-04-28T13:24:46.687Z</time></trkpt><trkpt lat="43.1011871" lon="12.5537489"><ele>221.33333333333331</ele><time>2026-04-28T13:24:47.688Z</time></trkpt><trkpt lat="43.1010948" lon="12.5539424"><ele>223.0</ele><time>2026-04-28T13:24:48.688Z</time></trkpt><trkpt lat="43.1009997" lon="12.5541325"><ele>223.0</ele><time>2026-04-28T13:24:49.688Z</time></trkpt><trkpt lat="43.1008994" lon="12.5543201"><ele>223.0</ele><time>2026-04-28T13:24:50.688Z</time></trkpt><trkpt lat="43.1007979" lon="12.5545062"><ele>223.0</ele><time>2026-04-28T13:24:51.688Z</time></trkpt><trkpt lat="43.1006957" lon="12.5546943"><ele>221.66666666666666</ele><time>2026-04-28T13:24:52.686Z</time></trkpt><trkpt lat="43.1005946" lon="12.5548841"><ele>220.33333333333331</ele><time>2026-04-28T13:24:53.688Z</time></trkpt><trkpt lat="43.1004965" lon="12.5550724"><ele>219.0</ele><time>2026-04-28T13:24:54.688Z</time></trkpt><trkpt lat="43.1004063" lon="12.5552522"><ele>220.0</ele><time>2026-04-28T13:24:55.687Z</time></trkpt><trkpt lat="43.1003204" lon="12.555438"><ele>221.0</ele><time>2026-04-28T13:24:56.688Z</time></trkpt><trkpt lat="43.1002459" lon="12.55563"><ele>222.0</ele><time>2026-04-28T13:24:57.688Z</time></trkpt><trkpt lat="43.100182" lon="12.5558282"><ele>222.0</ele><time>2026-04-28T13:24:58.688Z</time></trkpt><trkpt lat="43.1001268" lon="12.5560247"><ele>222.0</ele><time>2026-04-28T13:24:59.688Z</time></trkpt><trkpt lat="43.1000805" lon="12.5562219"><ele>222.0</ele><time>2026-04-28T13:25:00.687Z</time></trkpt><trkpt lat="43.1000358" lon="12.556418"><ele>222.0</ele><time>2026-04-28T13:25:01.688Z</time></trkpt><trkpt lat="43.0999944" lon="12.556614"><ele>222.0</ele><time>2026-04-28T13:25:02.688Z</time></trkpt><trkpt lat="43.0999526" lon="12.5568133"><ele>222.0</ele><time>2026-04-28T13:25:03.688Z</time></trkpt><trkpt lat="43.0999094" lon="12.5570134"><ele>222.66666666666669</ele><time>2026-04-28T13:25:04.686Z</time></trkpt><trkpt lat="43.0998662" lon="12.5572163"><ele>223.33333333333334</ele><time>2026-04-28T13:25:05.688Z</time></trkpt><trkpt lat="43.0998216" lon="12.5574197"><ele>224.0</ele><time>2026-04-28T13:25:06.688Z</time></trkpt><trkpt lat="43.0997743" lon="12.5576267"><ele>224.0</ele><time>2026-04-28T13:25:07.688Z</time></trkpt><trkpt lat="43.0997265" lon="12.5578377"><ele>224.0</ele><time>2026-04-28T13:25:08.688Z</time></trkpt><trkpt lat="43.0996788" lon="12.5580483"><ele>224.0</ele><time>2026-04-28T13:25:09.688Z</time></trkpt><trkpt lat="43.099633" lon="12.5582587"><ele>224.0</ele><time>2026-04-28T13:25:10.687Z</time></trkpt><trkpt lat="43.0995876" lon="12.5584708"><ele>224.0</ele><time>2026-04-28T13:25:11.688Z</time></trkpt><trkpt lat="43.0995395" lon="12.5586826"><ele>224.0</ele><time>2026-04-28T13:25:12.688Z</time></trkpt><trkpt lat="43.0994913" lon="12.5588918"><ele>224.0</ele><time>2026-04-28T13:25:13.688Z</time></trkpt><trkpt lat="43.0994463" lon="12.5590971"><ele>224.0</ele><time>2026-04-28T13:25:14.688Z</time></trkpt><trkpt lat="43.0994019" lon="12.5593018"><ele>224.0</ele><time>2026-04-28T13:25:15.688Z</time></trkpt><trkpt lat="43.0993614" lon="12.5595055"><ele>225.66666666666669</ele><time>2026-04-28T13:25:16.687Z</time></trkpt><trkpt lat="43.0993218" lon="12.5597076"><ele>227.33333333333331</ele><time>2026-04-28T13:25:17.688Z</time></trkpt><trkpt lat="43.099278" lon="12.5599074"><ele>229.0</ele><time>2026-04-28T13:25:18.688Z</time></trkpt><trkpt lat="43.0992302" lon="12.560105"><ele>229.0</ele><time>2026-04-28T13:25:19.688Z</time></trkpt><trkpt lat="43.0991835" lon="12.5603016"><ele>229.0</ele><time>2026-04-28T13:25:20.687Z</time></trkpt><trkpt lat="43.0991361" lon="12.5604894"><ele>229.0</ele><time>2026-04-28T13:25:21.688Z</time></trkpt><trkpt lat="43.0990873" lon="12.5606676"><ele>229.0</ele><time>2026-04-28T13:25:22.688Z</time></trkpt><trkpt lat="43.0990358" lon="12.5608326"><ele>228.75</ele><time>2026-04-28T13:25:23.687Z</time></trkpt><trkpt lat="43.0989811" lon="12.5609837"><ele>228.5</ele><time>2026-04-28T13:25:24.688Z</time></trkpt><trkpt lat="43.0989213" lon="12.5611274"><ele>228.25</ele><time>2026-04-28T13:25:25.688Z</time></trkpt><trkpt lat="43.098856" lon="12.5612685"><ele>228.0</ele><time>2026-04-28T13:25:26.688Z</time></trkpt><trkpt lat="43.0987851" lon="12.5614072"><ele>228.0</ele><time>2026-04-28T13:25:27.687Z</time></trkpt><trkpt lat="43.0987138" lon="12.5615499"><ele>228.0</ele><time>2026-04-28T13:25:28.687Z</time></trkpt><trkpt lat="43.0986424" lon="12.5616948"><ele>228.0</ele><time>2026-04-28T13:25:29.688Z</time></trkpt><trkpt lat="43.0985688" lon="12.5618393"><ele>228.0</ele><time>2026-04-28T13:25:30.688Z</time></trkpt><trkpt lat="43.0984992" lon="12.5619853"><ele>228.25</ele><time>2026-04-28T13:25:31.687Z</time></trkpt><trkpt lat="43.0984282" lon="12.5621324"><ele>228.5</ele><time>2026-04-28T13:25:32.688Z</time></trkpt><trkpt lat="43.0983543" lon="12.5622787"><ele>228.75</ele><time>2026-04-28T13:25:33.688Z</time></trkpt><trkpt lat="43.0982818" lon="12.562426"><ele>229.0</ele><time>2026-04-28T13:25:34.688Z</time></trkpt><trkpt lat="43.098209" lon="12.562574"><ele>228.5</ele><time>2026-04-28T13:25:35.688Z</time></trkpt><trkpt lat="43.0981343" lon="12.5627206"><ele>228.0</ele><time>2026-04-28T13:25:36.688Z</time></trkpt><trkpt lat="43.0980621" lon="12.5628682"><ele>227.5</ele><time>2026-04-28T13:25:37.688Z</time></trkpt><trkpt lat="43.0979866" lon="12.5630121"><ele>227.0</ele><time>2026-04-28T13:25:38.688Z</time></trkpt><trkpt lat="43.097915" lon="12.5631573"><ele>228.0</ele><time>2026-04-28T13:25:39.688Z</time></trkpt><trkpt lat="43.0978414" lon="12.5633023"><ele>229.0</ele><time>2026-04-28T13:25:40.687Z</time></trkpt><trkpt lat="43.0977659" lon="12.5634457"><ele>230.0</ele><time>2026-04-28T13:25:41.688Z</time></trkpt><trkpt lat="43.0976894" lon="12.563585"><ele>231.0</ele><time>2026-04-28T13:25:42.688Z</time></trkpt><trkpt lat="43.0976113" lon="12.5637222"><ele>231.75</ele><time>2026-04-28T13:25:43.688Z</time></trkpt><trkpt lat="43.0975301" lon="12.5638543"><ele>232.5</ele><time>2026-04-28T13:25:44.687Z</time></trkpt><trkpt lat="43.0974527" lon="12.5639767"><ele>233.25</ele><time>2026-04-28T13:25:45.688Z</time></trkpt><trkpt lat="43.0973805" lon="12.5640897"><ele>234.0</ele><time>2026-04-28T13:25:46.688Z</time></trkpt><trkpt lat="43.0973161" lon="12.5641921"><ele>234.0</ele><time>2026-04-28T13:25:47.687Z</time></trkpt><trkpt lat="43.0972539" lon="12.5642839"><ele>234.0</ele><time>2026-04-28T13:25:48.687Z</time></trkpt><trkpt lat="43.0971929" lon="12.5643716"><ele>234.0</ele><time>2026-04-28T13:25:49.687Z</time></trkpt><trkpt lat="43.0971355" lon="12.5644559"><ele>234.0</ele><time>2026-04-28T13:25:50.687Z</time></trkpt><trkpt lat="43.0970785" lon="12.5645401"><ele>234.0</ele><time>2026-04-28T13:25:51.688Z</time></trkpt><trkpt lat="43.0970172" lon="12.5646295"><ele>234.0</ele><time>2026-04-28T13:25:52.688Z</time></trkpt><trkpt lat="43.0969541" lon="12.5647309"><ele>234.6</ele><time>2026-04-28T13:25:53.688Z</time></trkpt><trkpt lat="43.096887" lon="12.5648353"><ele>235.2</ele><time>2026-04-28T13:25:54.687Z</time></trkpt><trkpt lat="43.0968235" lon="12.5649444"><ele>235.79999999999998</ele><time>2026-04-28T13:25:55.688Z</time></trkpt><trkpt lat="43.0967557" lon="12.5650524"><ele>236.39999999999998</ele><time>2026-04-28T13:25:56.688Z</time></trkpt><trkpt lat="43.0966926" lon="12.5651549"><ele>237.0</ele><time>2026-04-28T13:25:57.687Z</time></trkpt><trkpt lat="43.0966342" lon="12.5652498"><ele>236.66666666666666</ele><time>2026-04-28T13:25:58.688Z</time></trkpt><trkpt lat="43.0965825" lon="12.5653363"><ele>236.33333333333331</ele><time>2026-04-28T13:25:59.688Z</time></trkpt><trkpt lat="43.0965315" lon="12.5654123"><ele>236.0</ele><time>2026-04-28T13:26:00.687Z</time></trkpt><trkpt lat="43.0964852" lon="12.565478"><ele>235.66666666666666</ele><time>2026-04-28T13:26:01.688Z</time></trkpt><trkpt lat="43.0964395" lon="12.5655521"><ele>235.33333333333331</ele><time>2026-04-28T13:26:02.688Z</time></trkpt><trkpt lat="43.0963916" lon="12.5656349"><ele>235.0</ele><time>2026-04-28T13:26:03.687Z</time></trkpt><trkpt lat="43.0963406" lon="12.5657256"><ele>235.0</ele><time>2026-04-28T13:26:04.687Z</time></trkpt><trkpt lat="43.0962852" lon="12.565819"><ele>234.99999999999997</ele><time>2026-04-28T13:26:05.688Z</time></trkpt><trkpt lat="43.0962314" lon="12.5659053"><ele>235.0</ele><time>2026-04-28T13:26:06.688Z</time></trkpt><trkpt lat="43.0961843" lon="12.5659807"><ele>235.0</ele><time>2026-04-28T13:26:07.688Z</time></trkpt><trkpt lat="43.0961321" lon="12.5660421"><ele>234.99999999999997</ele><time>2026-04-28T13:26:08.687Z</time></trkpt><trkpt lat="43.0960808" lon="12.5660969"><ele>235.0</ele><time>2026-04-28T13:26:09.688Z</time></trkpt><trkpt lat="43.0960239" lon="12.5661517"><ele>235.0</ele><time>2026-04-28T13:26:10.688Z</time></trkpt><trkpt lat="43.0959609" lon="12.5662053"><ele>235.16666666666666</ele><time>2026-04-28T13:26:11.687Z</time></trkpt><trkpt lat="43.0958927" lon="12.5662555"><ele>235.33333333333331</ele><time>2026-04-28T13:26:12.687Z</time></trkpt><trkpt lat="43.09582" lon="12.566298"><ele>235.5</ele><time>2026-04-28T13:26:13.688Z</time></trkpt><trkpt lat="43.0957492" lon="12.5663505"><ele>235.66666666666669</ele><time>2026-04-28T13:26:14.688Z</time></trkpt><trkpt lat="43.0956742" lon="12.5664035"><ele>235.83333333333334</ele><time>2026-04-28T13:26:15.688Z</time></trkpt><trkpt lat="43.0955989" lon="12.5664555"><ele>236.0</ele><time>2026-04-28T13:26:16.687Z</time></trkpt><trkpt lat="43.0955193" lon="12.5665068"><ele>235.4</ele><time>2026-04-28T13:26:17.688Z</time></trkpt><trkpt lat="43.0954385" lon="12.5665659"><ele>234.8</ele><time>2026-04-28T13:26:18.688Z</time></trkpt><trkpt lat="43.0953544" lon="12.5666369"><ele>234.20000000000002</ele><time>2026-04-28T13:26:19.688Z</time></trkpt><trkpt lat="43.0952669" lon="12.5667165"><ele>233.60000000000002</ele><time>2026-04-28T13:26:20.687Z</time></trkpt><trkpt lat="43.0951799" lon="12.5667971"><ele>233.0</ele><time>2026-04-28T13:26:21.687Z</time></trkpt><trkpt lat="43.09509" lon="12.5668843"><ele>233.0</ele><time>2026-04-28T13:26:22.688Z</time></trkpt><trkpt lat="43.0949986" lon="12.5669764"><ele>233.0</ele><time>2026-04-28T13:26:23.688Z</time></trkpt><trkpt lat="43.0949042" lon="12.5670597"><ele>233.0</ele><time>2026-04-28T13:26:24.687Z</time></trkpt><trkpt lat="43.0948106" lon="12.5671553"><ele>233.0</ele><time>2026-04-28T13:26:25.686Z</time></trkpt><trkpt lat="43.0947188" lon="12.5672523"><ele>232.5</ele><time>2026-04-28T13:26:26.687Z</time></trkpt><trkpt lat="43.094624" lon="12.5673475"><ele>232.0</ele><time>2026-04-28T13:26:27.687Z</time></trkpt><trkpt lat="43.0945266" lon="12.5674478"><ele>231.5</ele><time>2026-04-28T13:26:28.686Z</time></trkpt><trkpt lat="43.0944355" lon="12.5675564"><ele>231.0</ele><time>2026-04-28T13:26:29.687Z</time></trkpt><trkpt lat="43.094348" lon="12.5676731"><ele>231.0</ele><time>2026-04-28T13:26:30.687Z</time></trkpt><trkpt lat="43.0942587" lon="12.5677947"><ele>231.0</ele><time>2026-04-28T13:26:31.687Z</time></trkpt><trkpt lat="43.0941745" lon="12.5679243"><ele>231.0</ele><time>2026-04-28T13:26:32.686Z</time></trkpt><trkpt lat="43.0940932" lon="12.568057"><ele>231.0</ele><time>2026-04-28T13:26:33.687Z</time></trkpt><trkpt lat="43.0940181" lon="12.5681881"><ele>231.0</ele><time>2026-04-28T13:26:34.687Z</time></trkpt><trkpt lat="43.0939439" lon="12.568319"><ele>231.0</ele><time>2026-04-28T13:26:35.685Z</time></trkpt><trkpt lat="43.0938657" lon="12.5684526"><ele>231.0</ele><time>2026-04-28T13:26:36.687Z</time></trkpt><trkpt lat="43.0937861" lon="12.5685905"><ele>231.0</ele><time>2026-04-28T13:26:37.686Z</time></trkpt><trkpt lat="43.093705" lon="12.5687361"><ele>231.0</ele><time>2026-04-28T13:26:38.687Z</time></trkpt><trkpt lat="43.0936252" lon="12.5688877"><ele>231.0</ele><time>2026-04-28T13:26:39.687Z</time></trkpt><trkpt lat="43.0935429" lon="12.5690416"><ele>231.0</ele><time>2026-04-28T13:26:40.686Z</time></trkpt><trkpt lat="43.0934665" lon="12.5691823"><ele>231.0</ele><time>2026-04-28T13:26:41.687Z</time></trkpt><trkpt lat="43.0933953" lon="12.569305"><ele>231.0</ele><time>2026-04-28T13:26:42.686Z</time></trkpt><trkpt lat="43.0933268" lon="12.5694163"><ele>231.00000000000003</ele><time>2026-04-28T13:26:43.687Z</time></trkpt><trkpt lat="43.0932603" lon="12.5695237"><ele>231.00000000000003</ele><time>2026-04-28T13:26:44.687Z</time></trkpt><trkpt lat="43.0931863" lon="12.5696338"><ele>231.0</ele><time>2026-04-28T13:26:45.687Z</time></trkpt><trkpt lat="43.0931043" lon="12.5697517"><ele>231.0</ele><time>2026-04-28T13:26:46.686Z</time></trkpt><trkpt lat="43.0930117" lon="12.5698714"><ele>230.5</ele><time>2026-04-28T13:26:47.687Z</time></trkpt><trkpt lat="43.0929084" lon="12.5699953"><ele>230.0</ele><time>2026-04-28T13:26:48.686Z</time></trkpt><trkpt lat="43.0928005" lon="12.570124"><ele>229.5</ele><time>2026-04-28T13:26:49.687Z</time></trkpt><trkpt lat="43.0926903" lon="12.5702496"><ele>229.0</ele><time>2026-04-28T13:26:50.687Z</time></trkpt><trkpt lat="43.0925773" lon="12.570379"><ele>229.5</ele><time>2026-04-28T13:26:51.687Z</time></trkpt><trkpt lat="43.0924611" lon="12.5705038"><ele>230.0</ele><time>2026-04-28T13:26:52.686Z</time></trkpt><trkpt lat="43.0923478" lon="12.5706243"><ele>230.5</ele><time>2026-04-28T13:26:53.687Z</time></trkpt><trkpt lat="43.0922359" lon="12.5707322"><ele>231.0</ele><time>2026-04-28T13:26:54.687Z</time></trkpt><trkpt lat="43.0921272" lon="12.5708323"><ele>231.0</ele><time>2026-04-28T13:26:55.686Z</time></trkpt><trkpt lat="43.092021" lon="12.5709315"><ele>231.0</ele><time>2026-04-28T13:26:56.687Z</time></trkpt><trkpt lat="43.0919102" lon="12.5710295"><ele>231.0</ele><time>2026-04-28T13:26:57.687Z</time></trkpt><trkpt lat="43.091799" lon="12.5711296"><ele>231.0</ele><time>2026-04-28T13:26:58.687Z</time></trkpt><trkpt lat="43.0916841" lon="12.5712318"><ele>231.25</ele><time>2026-04-28T13:26:59.686Z</time></trkpt><trkpt lat="43.0915674" lon="12.5713385"><ele>231.5</ele><time>2026-04-28T13:27:00.686Z</time></trkpt><trkpt lat="43.0914485" lon="12.5714435"><ele>231.75</ele><time>2026-04-28T13:27:01.687Z</time></trkpt><trkpt lat="43.0913288" lon="12.5715454"><ele>232.0</ele><time>2026-04-28T13:27:02.687Z</time></trkpt><trkpt lat="43.0912152" lon="12.5716406"><ele>232.0</ele><time>2026-04-28T13:27:03.686Z</time></trkpt><trkpt lat="43.0911094" lon="12.5717307"><ele>232.0</ele><time>2026-04-28T13:27:04.687Z</time></trkpt><trkpt lat="43.0910053" lon="12.5718238"><ele>232.0</ele><time>2026-04-28T13:27:05.687Z</time></trkpt><trkpt lat="43.0909038" lon="12.5719228"><ele>232.0</ele><time>2026-04-28T13:27:06.686Z</time></trkpt><trkpt lat="43.0907996" lon="12.5720255"><ele>231.5</ele><time>2026-04-28T13:27:07.687Z</time></trkpt><trkpt lat="43.0906971" lon="12.5721333"><ele>231.0</ele><time>2026-04-28T13:27:08.686Z</time></trkpt><trkpt lat="43.090597" lon="12.5722464"><ele>230.5</ele><time>2026-04-28T13:27:09.687Z</time></trkpt><trkpt lat="43.090506" lon="12.5723613"><ele>230.0</ele><time>2026-04-28T13:27:10.687Z</time></trkpt><trkpt lat="43.090421" lon="12.5724702"><ele>230.0</ele><time>2026-04-28T13:27:11.686Z</time></trkpt><trkpt lat="43.0903458" lon="12.572571"><ele>230.0</ele><time>2026-04-28T13:27:12.687Z</time></trkpt><trkpt lat="43.0902748" lon="12.5726686"><ele>230.0</ele><time>2026-04-28T13:27:13.687Z</time></trkpt><trkpt lat="43.090211" lon="12.5727611"><ele>230.0</ele><time>2026-04-28T13:27:14.687Z</time></trkpt><trkpt lat="43.0901506" lon="12.572841"><ele>230.0</ele><time>2026-04-28T13:27:15.686Z</time></trkpt><trkpt lat="43.090097" lon="12.572915"><ele>230.33333333333334</ele><time>2026-04-28T13:27:16.687Z</time></trkpt><trkpt lat="43.0900492" lon="12.5729796"><ele>230.66666666666669</ele><time>2026-04-28T13:27:17.687Z</time></trkpt><trkpt lat="43.0899661" lon="12.5730927"><ele>231.0</ele><time>2026-04-28T13:27:19.687Z</time></trkpt><trkpt lat="43.0899142" lon="12.5731545"><ele>231.33333333333331</ele><time>2026-04-28T13:27:20.686Z</time></trkpt><trkpt lat="43.0898531" lon="12.5732328"><ele>231.66666666666666</ele><time>2026-04-28T13:27:21.687Z</time></trkpt><trkpt lat="43.0897839" lon="12.5733262"><ele>232.0</ele><time>2026-04-28T13:27:22.687Z</time></trkpt><trkpt lat="43.0897061" lon="12.573428"><ele>232.0</ele><time>2026-04-28T13:27:23.687Z</time></trkpt><trkpt lat="43.0896276" lon="12.5735324"><ele>232.0</ele><time>2026-04-28T13:27:24.686Z</time></trkpt><trkpt lat="43.0895431" lon="12.5736496"><ele>232.0</ele><time>2026-04-28T13:27:25.687Z</time></trkpt><trkpt lat="43.0894495" lon="12.5737725"><ele>232.0</ele><time>2026-04-28T13:27:26.687Z</time></trkpt><trkpt lat="43.0893487" lon="12.5738934"><ele>232.5</ele><time>2026-04-28T13:27:27.687Z</time></trkpt><trkpt lat="43.089242" lon="12.5740152"><ele>233.0</ele><time>2026-04-28T13:27:28.686Z</time></trkpt><trkpt lat="43.0891278" lon="12.5741312"><ele>233.5</ele><time>2026-04-28T13:27:29.687Z</time></trkpt><trkpt lat="43.0890058" lon="12.5742375"><ele>234.0</ele><time>2026-04-28T13:27:30.686Z</time></trkpt><trkpt lat="43.0888784" lon="12.5743344"><ele>234.0</ele><time>2026-04-28T13:27:31.687Z</time></trkpt><trkpt lat="43.0887403" lon="12.5744246"><ele>234.0</ele><time>2026-04-28T13:27:32.687Z</time></trkpt><trkpt lat="43.0886023" lon="12.5745079"><ele>234.0</ele><time>2026-04-28T13:27:33.687Z</time></trkpt><trkpt lat="43.0884617" lon="12.5745908"><ele>234.66666666666669</ele><time>2026-04-28T13:27:34.687Z</time></trkpt><trkpt lat="43.0883197" lon="12.5746754"><ele>235.33333333333334</ele><time>2026-04-28T13:27:35.686Z</time></trkpt><trkpt lat="43.0881733" lon="12.574762"><ele>236.0</ele><time>2026-04-28T13:27:36.687Z</time></trkpt><trkpt lat="43.0880287" lon="12.5748467"><ele>236.0</ele><time>2026-04-28T13:27:37.687Z</time></trkpt><trkpt lat="43.0878796" lon="12.5749351"><ele>236.0</ele><time>2026-04-28T13:27:38.686Z</time></trkpt><trkpt lat="43.0877286" lon="12.5750244"><ele>236.0</ele><time>2026-04-28T13:27:39.687Z</time></trkpt><trkpt lat="43.0875751" lon="12.5751121"><ele>236.0</ele><time>2026-04-28T13:27:40.687Z</time></trkpt><trkpt lat="43.0874175" lon="12.5752001"><ele>236.0</ele><time>2026-04-28T13:27:41.686Z</time></trkpt><trkpt lat="43.0872572" lon="12.5752913"><ele>236.0</ele><time>2026-04-28T13:27:42.687Z</time></trkpt><trkpt lat="43.0870953" lon="12.5753826"><ele>236.0</ele><time>2026-04-28T13:27:43.687Z</time></trkpt><trkpt lat="43.086935" lon="12.5754744"><ele>236.0</ele><time>2026-04-28T13:27:44.686Z</time></trkpt><trkpt lat="43.0867717" lon="12.5755684"><ele>236.0</ele><time>2026-04-28T13:27:45.687Z</time></trkpt><trkpt lat="43.086608" lon="12.5756588"><ele>235.0</ele><time>2026-04-28T13:27:46.687Z</time></trkpt><trkpt lat="43.0864396" lon="12.5757462"><ele>234.0</ele><time>2026-04-28T13:27:47.686Z</time></trkpt><trkpt lat="43.0862693" lon="12.5758317"><ele>233.0</ele><time>2026-04-28T13:27:48.687Z</time></trkpt><trkpt lat="43.0860955" lon="12.5759098"><ele>233.0</ele><time>2026-04-28T13:27:49.686Z</time></trkpt><trkpt lat="43.0859207" lon="12.5759831"><ele>233.0</ele><time>2026-04-28T13:27:50.687Z</time></trkpt><trkpt lat="43.0857417" lon="12.5760521"><ele>233.0</ele><time>2026-04-28T13:27:51.687Z</time></trkpt><trkpt lat="43.085562" lon="12.5761251"><ele>233.33333333333334</ele><time>2026-04-28T13:27:52.687Z</time></trkpt><trkpt lat="43.0853803" lon="12.5761983"><ele>233.66666666666669</ele><time>2026-04-28T13:27:53.686Z</time></trkpt><trkpt lat="43.0852008" lon="12.5762736"><ele>234.0</ele><time>2026-04-28T13:27:54.687Z</time></trkpt><trkpt lat="43.0850302" lon="12.5763485"><ele>233.0</ele><time>2026-04-28T13:27:55.686Z</time></trkpt><trkpt lat="43.0848713" lon="12.5764222"><ele>232.0</ele><time>2026-04-28T13:27:56.687Z</time></trkpt><trkpt lat="43.0847167" lon="12.5765042"><ele>231.0</ele><time>2026-04-28T13:27:57.687Z</time></trkpt><trkpt lat="43.0845711" lon="12.5766042"><ele>231.0</ele><time>2026-04-28T13:27:58.686Z</time></trkpt><trkpt lat="43.0844302" lon="12.5767196"><ele>231.0</ele><time>2026-04-28T13:27:59.686Z</time></trkpt><trkpt lat="43.0842946" lon="12.5768437"><ele>231.0</ele><time>2026-04-28T13:28:00.686Z</time></trkpt><trkpt lat="43.0841584" lon="12.5769727"><ele>231.33333333333331</ele><time>2026-04-28T13:28:01.687Z</time></trkpt><trkpt lat="43.0840202" lon="12.5771025"><ele>231.66666666666666</ele><time>2026-04-28T13:28:02.686Z</time></trkpt><trkpt lat="43.0838806" lon="12.577232"><ele>232.0</ele><time>2026-04-28T13:28:03.687Z</time></trkpt><trkpt lat="43.0837407" lon="12.5773672"><ele>232.0</ele><time>2026-04-28T13:28:04.687Z</time></trkpt><trkpt lat="43.0835984" lon="12.5775023"><ele>232.0</ele><time>2026-04-28T13:28:05.686Z</time></trkpt><trkpt lat="43.0834556" lon="12.5776371"><ele>232.0</ele><time>2026-04-28T13:28:06.687Z</time></trkpt><trkpt lat="43.0833102" lon="12.5777731"><ele>231.0</ele><time>2026-04-28T13:28:07.686Z</time></trkpt><trkpt lat="43.0831636" lon="12.5779093"><ele>230.0</ele><time>2026-04-28T13:28:08.687Z</time></trkpt><trkpt lat="43.0830163" lon="12.5780417"><ele>229.0</ele><time>2026-04-28T13:28:09.686Z</time></trkpt><trkpt lat="43.0828707" lon="12.5781756"><ele>229.0</ele><time>2026-04-28T13:28:10.687Z</time></trkpt><trkpt lat="43.0827299" lon="12.5783077"><ele>229.0</ele><time>2026-04-28T13:28:11.687Z</time></trkpt><trkpt lat="43.0825954" lon="12.5784352"><ele>229.0</ele><time>2026-04-28T13:28:12.687Z</time></trkpt><trkpt lat="43.0824736" lon="12.5785675"><ele>228.5</ele><time>2026-04-28T13:28:13.686Z</time></trkpt><trkpt lat="43.082376" lon="12.5787174"><ele>228.0</ele><time>2026-04-28T13:28:14.687Z</time></trkpt><trkpt lat="43.082301" lon="12.5788955"><ele>227.5</ele><time>2026-04-28T13:28:15.687Z</time></trkpt><trkpt lat="43.0822472" lon="12.5790898"><ele>227.0</ele><time>2026-04-28T13:28:16.687Z</time></trkpt><trkpt lat="43.0822037" lon="12.5792961"><ele>227.0</ele><time>2026-04-28T13:28:17.686Z</time></trkpt><trkpt lat="43.0821652" lon="12.5795068"><ele>227.0</ele><time>2026-04-28T13:28:18.687Z</time></trkpt><trkpt lat="43.0821338" lon="12.5797185"><ele>227.0</ele><time>2026-04-28T13:28:19.687Z</time></trkpt><trkpt lat="43.082099" lon="12.5799324"><ele>228.33333333333334</ele><time>2026-04-28T13:28:20.687Z</time></trkpt><trkpt lat="43.082066" lon="12.5801473"><ele>229.66666666666669</ele><time>2026-04-28T13:28:21.687Z</time></trkpt><trkpt lat="43.0820345" lon="12.5803601"><ele>231.0</ele><time>2026-04-28T13:28:22.687Z</time></trkpt><trkpt lat="43.0820009" lon="12.5805742"><ele>231.33333333333331</ele><time>2026-04-28T13:28:23.687Z</time></trkpt><trkpt lat="43.0819688" lon="12.5807932"><ele>231.66666666666666</ele><time>2026-04-28T13:28:24.687Z</time></trkpt><trkpt lat="43.0819382" lon="12.5810143"><ele>232.0</ele><time>2026-04-28T13:28:25.686Z</time></trkpt><trkpt lat="43.0819075" lon="12.5812351"><ele>232.66666666666666</ele><time>2026-04-28T13:28:26.687Z</time></trkpt><trkpt lat="43.0818746" lon="12.5814588"><ele>233.33333333333331</ele><time>2026-04-28T13:28:27.687Z</time></trkpt><trkpt lat="43.0818368" lon="12.5816812"><ele>234.0</ele><time>2026-04-28T13:28:28.686Z</time></trkpt><trkpt lat="43.0817891" lon="12.5819028"><ele>234.33333333333331</ele><time>2026-04-28T13:28:29.687Z</time></trkpt><trkpt lat="43.0817263" lon="12.5821233"><ele>234.66666666666666</ele><time>2026-04-28T13:28:30.686Z</time></trkpt><trkpt lat="43.0816471" lon="12.5823406"><ele>235.0</ele><time>2026-04-28T13:28:31.687Z</time></trkpt><trkpt lat="43.0815632" lon="12.5825573"><ele>235.33333333333331</ele><time>2026-04-28T13:28:32.687Z</time></trkpt><trkpt lat="43.0814714" lon="12.5827747"><ele>235.66666666666669</ele><time>2026-04-28T13:28:33.687Z</time></trkpt><trkpt lat="43.0813813" lon="12.5829951"><ele>236.0</ele><time>2026-04-28T13:28:34.687Z</time></trkpt><trkpt lat="43.0812901" lon="12.5832158"><ele>236.0</ele><time>2026-04-28T13:28:35.686Z</time></trkpt><trkpt lat="43.0811977" lon="12.583439"><ele>236.0</ele><time>2026-04-28T13:28:36.687Z</time></trkpt><trkpt lat="43.0811051" lon="12.5836621"><ele>236.0</ele><time>2026-04-28T13:28:37.686Z</time></trkpt><trkpt lat="43.0810127" lon="12.5838856"><ele>237.33333333333334</ele><time>2026-04-28T13:28:38.687Z</time></trkpt><trkpt lat="43.0809211" lon="12.5841099"><ele>238.66666666666669</ele><time>2026-04-28T13:28:39.687Z</time></trkpt><trkpt lat="43.0808306" lon="12.5843342"><ele>240.0</ele><time>2026-04-28T13:28:40.687Z</time></trkpt><trkpt lat="43.0807358" lon="12.584556"><ele>240.33333333333331</ele><time>2026-04-28T13:28:41.686Z</time></trkpt><trkpt lat="43.0806407" lon="12.5847758"><ele>240.66666666666666</ele><time>2026-04-28T13:28:42.686Z</time></trkpt><trkpt lat="43.0805476" lon="12.5849932"><ele>241.0</ele><time>2026-04-28T13:28:43.687Z</time></trkpt><trkpt lat="43.080453" lon="12.585209"><ele>242.66666666666666</ele><time>2026-04-28T13:28:44.687Z</time></trkpt><trkpt lat="43.0803591" lon="12.5854229"><ele>244.33333333333331</ele><time>2026-04-28T13:28:45.687Z</time></trkpt><trkpt lat="43.0802687" lon="12.5856354"><ele>246.0</ele><time>2026-04-28T13:28:46.687Z</time></trkpt><trkpt lat="43.0801813" lon="12.5858496"><ele>246.0</ele><time>2026-04-28T13:28:47.687Z</time></trkpt><trkpt lat="43.0800949" lon="12.5860612"><ele>246.0</ele><time>2026-04-28T13:28:48.686Z</time></trkpt><trkpt lat="43.0800069" lon="12.5862749"><ele>246.0</ele><time>2026-04-28T13:28:49.687Z</time></trkpt><trkpt lat="43.0799189" lon="12.5864912"><ele>248.0</ele><time>2026-04-28T13:28:50.687Z</time></trkpt><trkpt lat="43.07983" lon="12.586709"><ele>250.0</ele><time>2026-04-28T13:28:51.687Z</time></trkpt><trkpt lat="43.0797398" lon="12.5869278"><ele>252.0</ele><time>2026-04-28T13:28:52.686Z</time></trkpt><trkpt lat="43.0796483" lon="12.5871459"><ele>253.0</ele><time>2026-04-28T13:28:53.687Z</time></trkpt><trkpt lat="43.0795558" lon="12.5873638"><ele>254.0</ele><time>2026-04-28T13:28:54.687Z</time></trkpt><trkpt lat="43.0794636" lon="12.5875831"><ele>255.0</ele><time>2026-04-28T13:28:55.686Z</time></trkpt><trkpt lat="43.0793686" lon="12.5878033"><ele>254.33333333333331</ele><time>2026-04-28T13:28:56.687Z</time></trkpt><trkpt lat="43.0792738" lon="12.5880216"><ele>253.66666666666666</ele><time>2026-04-28T13:28:57.686Z</time></trkpt><trkpt lat="43.0791731" lon="12.5882387"><ele>253.0</ele><time>2026-04-28T13:28:58.687Z</time></trkpt><trkpt lat="43.0790706" lon="12.5884519"><ele>253.0</ele><time>2026-04-28T13:28:59.687Z</time></trkpt><trkpt lat="43.0789634" lon="12.5886632"><ele>253.0</ele><time>2026-04-28T13:29:00.687Z</time></trkpt><trkpt lat="43.078858" lon="12.5888735"><ele>253.0</ele><time>2026-04-28T13:29:01.686Z</time></trkpt><trkpt lat="43.0787542" lon="12.5890901"><ele>253.33333333333331</ele><time>2026-04-28T13:29:02.687Z</time></trkpt><trkpt lat="43.0786508" lon="12.58931"><ele>253.66666666666669</ele><time>2026-04-28T13:29:03.686Z</time></trkpt><trkpt lat="43.078553" lon="12.5895373"><ele>254.0</ele><time>2026-04-28T13:29:04.686Z</time></trkpt><trkpt lat="43.0784613" lon="12.5897711"><ele>254.0</ele><time>2026-04-28T13:29:05.687Z</time></trkpt><trkpt lat="43.0783754" lon="12.5900147"><ele>254.0</ele><time>2026-04-28T13:29:06.687Z</time></trkpt><trkpt lat="43.0783008" lon="12.5902701"><ele>254.0</ele><time>2026-04-28T13:29:07.686Z</time></trkpt><trkpt lat="43.0782363" lon="12.5905324"><ele>254.0</ele><time>2026-04-28T13:29:08.686Z</time></trkpt><trkpt lat="43.0781844" lon="12.590801"><ele>254.0</ele><time>2026-04-28T13:29:09.687Z</time></trkpt><trkpt lat="43.0781441" lon="12.5910724"><ele>254.0</ele><time>2026-04-28T13:29:10.687Z</time></trkpt><trkpt lat="43.0781165" lon="12.5913511"><ele>253.33333333333334</ele><time>2026-04-28T13:29:11.687Z</time></trkpt><trkpt lat="43.0781055" lon="12.591635"><ele>252.66666666666669</ele><time>2026-04-28T13:29:12.687Z</time></trkpt><trkpt lat="43.0781122" lon="12.5919191"><ele>252.0</ele><time>2026-04-28T13:29:13.686Z</time></trkpt><trkpt lat="43.0781221" lon="12.5922079"><ele>251.33333333333331</ele><time>2026-04-28T13:29:14.687Z</time></trkpt><trkpt lat="43.0781303" lon="12.5924947"><ele>250.66666666666666</ele><time>2026-04-28T13:29:15.686Z</time></trkpt><trkpt lat="43.0781353" lon="12.5927732"><ele>250.0</ele><time>2026-04-28T13:29:16.686Z</time></trkpt><trkpt lat="43.0781429" lon="12.5930467"><ele>249.66666666666666</ele><time>2026-04-28T13:29:17.687Z</time></trkpt><trkpt lat="43.0781477" lon="12.5933135"><ele>249.33333333333331</ele><time>2026-04-28T13:29:18.687Z</time></trkpt><trkpt lat="43.0781522" lon="12.5935678"><ele>249.0</ele><time>2026-04-28T13:29:19.686Z</time></trkpt><trkpt lat="43.0781561" lon="12.5938113"><ele>248.66666666666669</ele><time>2026-04-28T13:29:20.687Z</time></trkpt><trkpt lat="43.0781501" lon="12.5940486"><ele>248.33333333333334</ele><time>2026-04-28T13:29:21.687Z</time></trkpt><trkpt lat="43.0781285" lon="12.5942853"><ele>248.0</ele><time>2026-04-28T13:29:22.687Z</time></trkpt><trkpt lat="43.0780928" lon="12.59452"><ele>248.0</ele><time>2026-04-28T13:29:23.686Z</time></trkpt><trkpt lat="43.0780462" lon="12.5947523"><ele>248.0</ele><time>2026-04-28T13:29:24.687Z</time></trkpt><trkpt lat="43.0779901" lon="12.5949817"><ele>248.0</ele><time>2026-04-28T13:29:25.687Z</time></trkpt><trkpt lat="43.0779274" lon="12.5952086"><ele>248.66666666666669</ele><time>2026-04-28T13:29:26.687Z</time></trkpt><trkpt lat="43.0778545" lon="12.5954331"><ele>249.33333333333331</ele><time>2026-04-28T13:29:27.687Z</time></trkpt><trkpt lat="43.0777658" lon="12.5956518"><ele>250.0</ele><time>2026-04-28T13:29:28.687Z</time></trkpt><trkpt lat="43.0776799" lon="12.5958708"><ele>250.0</ele><time>2026-04-28T13:29:29.687Z</time></trkpt><trkpt lat="43.0775898" lon="12.596088"><ele>250.0</ele><time>2026-04-28T13:29:30.687Z</time></trkpt><trkpt lat="43.0775045" lon="12.5962897"><ele>250.0</ele><time>2026-04-28T13:29:31.687Z</time></trkpt><trkpt lat="43.0774216" lon="12.5964865"><ele>250.25</ele><time>2026-04-28T13:29:32.687Z</time></trkpt><trkpt lat="43.077343" lon="12.5966706"><ele>250.5</ele><time>2026-04-28T13:29:33.686Z</time></trkpt><trkpt lat="43.077275" lon="12.5968394"><ele>250.75</ele><time>2026-04-28T13:29:34.687Z</time></trkpt><trkpt lat="43.0772131" lon="12.5969875"><ele>251.0</ele><time>2026-04-28T13:29:35.687Z</time></trkpt><trkpt lat="43.0771603" lon="12.5971144"><ele>251.16666666666669</ele><time>2026-04-28T13:29:36.687Z</time></trkpt><trkpt lat="43.0771143" lon="12.5972159"><ele>251.33333333333334</ele><time>2026-04-28T13:29:37.687Z</time></trkpt><trkpt lat="43.0770753" lon="12.5972914"><ele>251.5</ele><time>2026-04-28T13:29:38.687Z</time></trkpt><trkpt lat="43.0770181" lon="12.5973682"><ele>251.66666666666669</ele><time>2026-04-28T13:29:40.686Z</time></trkpt><trkpt lat="43.0769814" lon="12.5974638"><ele>251.83333333333334</ele><time>2026-04-28T13:29:42.686Z</time></trkpt><trkpt lat="43.0769691" lon="12.5975579"><ele>252.0</ele><time>2026-04-28T13:29:43.686Z</time></trkpt><trkpt lat="43.0769635" lon="12.5976675"><ele>252.0</ele><time>2026-04-28T13:29:44.686Z</time></trkpt><trkpt lat="43.0769675" lon="12.5977934"><ele>252.0</ele><time>2026-04-28T13:29:45.685Z</time></trkpt><trkpt lat="43.0769823" lon="12.5979486"><ele>252.0</ele><time>2026-04-28T13:29:46.686Z</time></trkpt><trkpt lat="43.0770001" lon="12.5981354"><ele>252.0</ele><time>2026-04-28T13:29:47.686Z</time></trkpt><trkpt lat="43.0770177" lon="12.5983324"><ele>251.33333333333331</ele><time>2026-04-28T13:29:48.686Z</time></trkpt><trkpt lat="43.0770356" lon="12.5985467"><ele>250.66666666666666</ele><time>2026-04-28T13:29:49.686Z</time></trkpt><trkpt lat="43.0770521" lon="12.598764"><ele>250.0</ele><time>2026-04-28T13:29:50.686Z</time></trkpt><trkpt lat="43.07707" lon="12.5989805"><ele>249.25</ele><time>2026-04-28T13:29:51.686Z</time></trkpt><trkpt lat="43.0770847" lon="12.5991848"><ele>248.5</ele><time>2026-04-28T13:29:52.686Z</time></trkpt><trkpt lat="43.077095" lon="12.5993738"><ele>247.75</ele><time>2026-04-28T13:29:53.686Z</time></trkpt><trkpt lat="43.0770911" lon="12.5995493"><ele>247.0</ele><time>2026-04-28T13:29:54.686Z</time></trkpt><trkpt lat="43.0770693" lon="12.5997236"><ele>246.75</ele><time>2026-04-28T13:29:55.685Z</time></trkpt><trkpt lat="43.0770302" lon="12.5999015"><ele>246.5</ele><time>2026-04-28T13:29:56.685Z</time></trkpt><trkpt lat="43.076982" lon="12.6000883"><ele>246.25</ele><time>2026-04-28T13:29:57.686Z</time></trkpt><trkpt lat="43.0769351" lon="12.600274"><ele>246.0</ele><time>2026-04-28T13:29:58.686Z</time></trkpt><trkpt lat="43.076884" lon="12.6004647"><ele>246.5</ele><time>2026-04-28T13:29:59.686Z</time></trkpt><trkpt lat="43.0768271" lon="12.6006577"><ele>247.0</ele><time>2026-04-28T13:30:00.685Z</time></trkpt><trkpt lat="43.0767608" lon="12.6008462"><ele>247.5</ele><time>2026-04-28T13:30:01.686Z</time></trkpt><trkpt lat="43.0766904" lon="12.6010192"><ele>248.0</ele><time>2026-04-28T13:30:02.685Z</time></trkpt><trkpt lat="43.0766191" lon="12.601174"><ele>250.5</ele><time>2026-04-28T13:30:03.685Z</time></trkpt><trkpt lat="43.0765396" lon="12.601309"><ele>253.0</ele><time>2026-04-28T13:30:04.686Z</time></trkpt><trkpt lat="43.0764455" lon="12.6014275"><ele>255.5</ele><time>2026-04-28T13:30:05.686Z</time></trkpt><trkpt lat="43.0763279" lon="12.6015203"><ele>258.0</ele><time>2026-04-28T13:30:06.685Z</time></trkpt><trkpt lat="43.0761981" lon="12.6016025"><ele>258.0</ele><time>2026-04-28T13:30:07.686Z</time></trkpt><trkpt lat="43.07606" lon="12.6016847"><ele>258.0</ele><time>2026-04-28T13:30:08.686Z</time></trkpt><trkpt lat="43.0759159" lon="12.6017734"><ele>258.0</ele><time>2026-04-28T13:30:09.685Z</time></trkpt><trkpt lat="43.0757664" lon="12.6018606"><ele>256.0</ele><time>2026-04-28T13:30:10.686Z</time></trkpt><trkpt lat="43.0756129" lon="12.6019476"><ele>254.0</ele><time>2026-04-28T13:30:11.686Z</time></trkpt><trkpt lat="43.0754564" lon="12.6020352"><ele>252.0</ele><time>2026-04-28T13:30:12.685Z</time></trkpt><trkpt lat="43.0753011" lon="12.6021165"><ele>254.0</ele><time>2026-04-28T13:30:13.686Z</time></trkpt><trkpt lat="43.0751465" lon="12.602202"><ele>256.0</ele><time>2026-04-28T13:30:14.686Z</time></trkpt><trkpt lat="43.074996" lon="12.6023071"><ele>258.0</ele><time>2026-04-28T13:30:15.685Z</time></trkpt><trkpt lat="43.0748511" lon="12.6024337"><ele>258.0</ele><time>2026-04-28T13:30:16.685Z</time></trkpt><trkpt lat="43.0747103" lon="12.6025726"><ele>258.0</ele><time>2026-04-28T13:30:17.686Z</time></trkpt><trkpt lat="43.0745676" lon="12.6027122"><ele>258.0</ele><time>2026-04-28T13:30:18.684Z</time></trkpt><trkpt lat="43.0744204" lon="12.6028416"><ele>259.6666666666667</ele><time>2026-04-28T13:30:19.686Z</time></trkpt><trkpt lat="43.0742771" lon="12.6029631"><ele>261.33333333333337</ele><time>2026-04-28T13:30:20.685Z</time></trkpt><trkpt lat="43.0741489" lon="12.6030769"><ele>263.0</ele><time>2026-04-28T13:30:21.686Z</time></trkpt><trkpt lat="43.0740204" lon="12.6031979"><ele>263.0</ele><time>2026-04-28T13:30:22.686Z</time></trkpt><trkpt lat="43.0738992" lon="12.6033266"><ele>263.0</ele><time>2026-04-28T13:30:23.686Z</time></trkpt><trkpt lat="43.0737933" lon="12.6034495"><ele>263.0</ele><time>2026-04-28T13:30:24.686Z</time></trkpt><trkpt lat="43.0736945" lon="12.6035625"><ele>263.0</ele><time>2026-04-28T13:30:25.685Z</time></trkpt><trkpt lat="43.0736051" lon="12.6036587"><ele>265.1666666666667</ele><time>2026-04-28T13:30:26.686Z</time></trkpt><trkpt lat="43.0735199" lon="12.6037253"><ele>267.33333333333337</ele><time>2026-04-28T13:30:27.686Z</time></trkpt><trkpt lat="43.0734518" lon="12.6037598"><ele>269.5</ele><time>2026-04-28T13:30:28.685Z</time></trkpt><trkpt lat="43.0733666" lon="12.6037689"><ele>271.6666666666667</ele><time>2026-04-28T13:30:30.686Z</time></trkpt><trkpt lat="43.0732735" lon="12.6037342"><ele>273.8333333333333</ele><time>2026-04-28T13:30:40.686Z</time></trkpt><trkpt lat="43.0732084" lon="12.6037103"><ele>276.0</ele><time>2026-04-28T13:30:41.685Z</time></trkpt><trkpt lat="43.0731452" lon="12.6037184"><ele>276.0</ele><time>2026-04-28T13:30:42.686Z</time></trkpt><trkpt lat="43.0730593" lon="12.6038337"><ele>276.0</ele><time>2026-04-28T13:30:44.686Z</time></trkpt><trkpt lat="43.0730384" lon="12.6039178"><ele>276.0</ele><time>2026-04-28T13:30:45.686Z</time></trkpt><trkpt lat="43.0730079" lon="12.6040048"><ele>276.0</ele><time>2026-04-28T13:30:46.685Z</time></trkpt><trkpt lat="43.0729541" lon="12.6040833"><ele>276.0</ele><time>2026-04-28T13:30:47.686Z</time></trkpt><trkpt lat="43.0728788" lon="12.6041506"><ele>276.0</ele><time>2026-04-28T13:30:48.685Z</time></trkpt><trkpt lat="43.0727904" lon="12.6042059"><ele>276.0</ele><time>2026-04-28T13:30:49.686Z</time></trkpt><trkpt lat="43.0727014" lon="12.6042532"><ele>276.0</ele><time>2026-04-28T13:30:50.685Z</time></trkpt><trkpt lat="43.0726022" lon="12.6043037"><ele>276.0</ele><time>2026-04-28T13:30:51.686Z</time></trkpt><trkpt lat="43.0724996" lon="12.6043517"><ele>276.0</ele><time>2026-04-28T13:30:52.685Z</time></trkpt><trkpt lat="43.0723894" lon="12.6044017"><ele>276.0</ele><time>2026-04-28T13:30:53.686Z</time></trkpt><trkpt lat="43.0722761" lon="12.6044561"><ele>279.0</ele><time>2026-04-28T13:30:54.685Z</time></trkpt><trkpt lat="43.0721586" lon="12.6045123"><ele>282.0</ele><time>2026-04-28T13:30:55.686Z</time></trkpt><trkpt lat="43.0720379" lon="12.6045695"><ele>285.0</ele><time>2026-04-28T13:30:56.685Z</time></trkpt><trkpt lat="43.0719144" lon="12.6046253"><ele>288.0</ele><time>2026-04-28T13:30:57.686Z</time></trkpt><trkpt lat="43.0717938" lon="12.6046783"><ele>288.0</ele><time>2026-04-28T13:30:58.686Z</time></trkpt><trkpt lat="43.0716701" lon="12.6047333"><ele>288.0</ele><time>2026-04-28T13:30:59.686Z</time></trkpt><trkpt lat="43.071544" lon="12.6047921"><ele>288.0</ele><time>2026-04-28T13:31:00.686Z</time></trkpt><trkpt lat="43.0714176" lon="12.6048555"><ele>288.0</ele><time>2026-04-28T13:31:01.686Z</time></trkpt><trkpt lat="43.071291" lon="12.604922"><ele>287.75</ele><time>2026-04-28T13:31:02.685Z</time></trkpt><trkpt lat="43.071163" lon="12.6049886"><ele>287.5</ele><time>2026-04-28T13:31:03.686Z</time></trkpt><trkpt lat="43.0710347" lon="12.6050548"><ele>287.25</ele><time>2026-04-28T13:31:04.686Z</time></trkpt><trkpt lat="43.0709156" lon="12.6051211"><ele>287.0</ele><time>2026-04-28T13:31:05.686Z</time></trkpt><trkpt lat="43.070802" lon="12.6051939"><ele>286.5</ele><time>2026-04-28T13:31:06.686Z</time></trkpt><trkpt lat="43.0706988" lon="12.605276"><ele>286.0</ele><time>2026-04-28T13:31:07.685Z</time></trkpt><trkpt lat="43.0706032" lon="12.6053629"><ele>285.5</ele><time>2026-04-28T13:31:08.686Z</time></trkpt><trkpt lat="43.0705126" lon="12.6054565"><ele>285.0</ele><time>2026-04-28T13:31:09.686Z</time></trkpt><trkpt lat="43.0704255" lon="12.6055511"><ele>286.4</ele><time>2026-04-28T13:31:10.686Z</time></trkpt><trkpt lat="43.0703398" lon="12.605648"><ele>287.8</ele><time>2026-04-28T13:31:11.685Z</time></trkpt><trkpt lat="43.0702625" lon="12.6057438"><ele>289.2</ele><time>2026-04-28T13:31:12.686Z</time></trkpt><trkpt lat="43.0701885" lon="12.6058472"><ele>290.6</ele><time>2026-04-28T13:31:13.685Z</time></trkpt><trkpt lat="43.0701132" lon="12.6059529"><ele>292.0</ele><time>2026-04-28T13:31:14.686Z</time></trkpt><trkpt lat="43.0700346" lon="12.6060603"><ele>292.25</ele><time>2026-04-28T13:31:15.685Z</time></trkpt><trkpt lat="43.0699563" lon="12.6061717"><ele>292.5</ele><time>2026-04-28T13:31:16.686Z</time></trkpt><trkpt lat="43.0698762" lon="12.6062885"><ele>292.75</ele><time>2026-04-28T13:31:17.685Z</time></trkpt><trkpt lat="43.0697936" lon="12.6064018"><ele>293.0</ele><time>2026-04-28T13:31:18.685Z</time></trkpt><trkpt lat="43.0697139" lon="12.6065186"><ele>293.0</ele><time>2026-04-28T13:31:19.685Z</time></trkpt><trkpt lat="43.0696331" lon="12.6066345"><ele>293.0</ele><time>2026-04-28T13:31:20.686Z</time></trkpt><trkpt lat="43.0695605" lon="12.606755"><ele>293.0</ele><time>2026-04-28T13:31:21.686Z</time></trkpt><trkpt lat="43.0695074" lon="12.6068886"><ele>293.0</ele><time>2026-04-28T13:31:22.685Z</time></trkpt><trkpt lat="43.0694869" lon="12.6070369"><ele>293.5</ele><time>2026-04-28T13:31:23.686Z</time></trkpt><trkpt lat="43.0694938" lon="12.6071925"><ele>294.0</ele><time>2026-04-28T13:31:24.686Z</time></trkpt><trkpt lat="43.0695147" lon="12.6073508"><ele>294.5</ele><time>2026-04-28T13:31:25.686Z</time></trkpt><trkpt lat="43.0695328" lon="12.6075166"><ele>295.0</ele><time>2026-04-28T13:31:26.686Z</time></trkpt><trkpt lat="43.0695515" lon="12.6076843"><ele>295.5</ele><time>2026-04-28T13:31:27.685Z</time></trkpt><trkpt lat="43.0695711" lon="12.6078554"><ele>296.0</ele><time>2026-04-28T13:31:28.686Z</time></trkpt><trkpt lat="43.0695897" lon="12.6080297"><ele>296.5</ele><time>2026-04-28T13:31:29.685Z</time></trkpt><trkpt lat="43.0696087" lon="12.608205"><ele>297.0</ele><time>2026-04-28T13:31:30.686Z</time></trkpt><trkpt lat="43.0696309" lon="12.6083686"><ele>297.0</ele><time>2026-04-28T13:31:31.686Z</time></trkpt><trkpt lat="43.0696512" lon="12.6085128"><ele>297.0</ele><time>2026-04-28T13:31:32.685Z</time></trkpt><trkpt lat="43.0696728" lon="12.6086388"><ele>297.0</ele><time>2026-04-28T13:31:33.686Z</time></trkpt><trkpt lat="43.0697075" lon="12.6087436"><ele>297.0</ele><time>2026-04-28T13:31:34.686Z</time></trkpt><trkpt lat="43.0697634" lon="12.6088181"><ele>297.0</ele><time>2026-04-28T13:31:35.686Z</time></trkpt><trkpt lat="43.0698396" lon="12.6088604"><ele>297.0</ele><time>2026-04-28T13:31:36.686Z</time></trkpt><trkpt lat="43.0699244" lon="12.6088599"><ele>300.2</ele><time>2026-04-28T13:31:37.685Z</time></trkpt><trkpt lat="43.0700139" lon="12.6088263"><ele>303.4</ele><time>2026-04-28T13:31:38.686Z</time></trkpt><trkpt lat="43.0701007" lon="12.6087681"><ele>306.6</ele><time>2026-04-28T13:31:39.686Z</time></trkpt><trkpt lat="43.0701916" lon="12.6086915"><ele>309.8</ele><time>2026-04-28T13:31:40.686Z</time></trkpt><trkpt lat="43.0702893" lon="12.6086152"><ele>313.0</ele><time>2026-04-28T13:31:41.685Z</time></trkpt><trkpt lat="43.0703834" lon="12.6085406"><ele>313.0</ele><time>2026-04-28T13:31:42.686Z</time></trkpt><trkpt lat="43.0704835" lon="12.6084642"><ele>313.0</ele><time>2026-04-28T13:31:43.686Z</time></trkpt><trkpt lat="43.0705755" lon="12.6083961"><ele>313.0</ele><time>2026-04-28T13:31:44.686Z</time></trkpt><trkpt lat="43.0706583" lon="12.6083539"><ele>313.0</ele><time>2026-04-28T13:31:45.686Z</time></trkpt><trkpt lat="43.0707309" lon="12.6083515"><ele>313.0</ele><time>2026-04-28T13:31:46.686Z</time></trkpt><trkpt lat="43.0708175" lon="12.6084583"><ele>313.66666666666663</ele><time>2026-04-28T13:31:48.686Z</time></trkpt><trkpt lat="43.0708217" lon="12.6085463"><ele>314.3333333333333</ele><time>2026-04-28T13:31:49.686Z</time></trkpt><trkpt lat="43.070795" lon="12.6086358"><ele>315.0</ele><time>2026-04-28T13:31:50.685Z</time></trkpt><trkpt lat="43.0707373" lon="12.6087137"><ele>315.6666666666667</ele><time>2026-04-28T13:31:51.686Z</time></trkpt><trkpt lat="43.0706635" lon="12.6088112"><ele>316.33333333333337</ele><time>2026-04-28T13:31:52.686Z</time></trkpt><trkpt lat="43.0705819" lon="12.6089376"><ele>317.0</ele><time>2026-04-28T13:31:53.686Z</time></trkpt><trkpt lat="43.0705112" lon="12.6090626"><ele>317.0</ele><time>2026-04-28T13:31:54.686Z</time></trkpt><trkpt lat="43.0704468" lon="12.609205"><ele>317.0</ele><time>2026-04-28T13:31:55.686Z</time></trkpt><trkpt lat="43.0703899" lon="12.6093643"><ele>317.0</ele><time>2026-04-28T13:31:56.686Z</time></trkpt><trkpt lat="43.0703339" lon="12.6095308"><ele>317.0</ele><time>2026-04-28T13:31:57.685Z</time></trkpt><trkpt lat="43.0702719" lon="12.6097056"><ele>319.75</ele><time>2026-04-28T13:31:58.686Z</time></trkpt><trkpt lat="43.0702085" lon="12.6098746"><ele>322.5</ele><time>2026-04-28T13:31:59.686Z</time></trkpt><trkpt lat="43.0701392" lon="12.6100461"><ele>325.25</ele><time>2026-04-28T13:32:00.686Z</time></trkpt><trkpt lat="43.0700594" lon="12.6102089"><ele>328.0</ele><time>2026-04-28T13:32:01.685Z</time></trkpt><trkpt lat="43.0699704" lon="12.6103645"><ele>328.75</ele><time>2026-04-28T13:32:02.686Z</time></trkpt><trkpt lat="43.0698784" lon="12.6105212"><ele>329.5</ele><time>2026-04-28T13:32:03.686Z</time></trkpt><trkpt lat="43.069787" lon="12.6106635"><ele>330.25</ele><time>2026-04-28T13:32:04.686Z</time></trkpt><trkpt lat="43.0696997" lon="12.6107825"><ele>331.0</ele><time>2026-04-28T13:32:05.685Z</time></trkpt><trkpt lat="43.0695994" lon="12.6108713"><ele>331.0</ele><time>2026-04-28T13:32:06.686Z</time></trkpt><trkpt lat="43.0694832" lon="12.6109263"><ele>331.0</ele><time>2026-04-28T13:32:07.685Z</time></trkpt><trkpt lat="43.069354" lon="12.6109474"><ele>331.0</ele><time>2026-04-28T13:32:08.686Z</time></trkpt><trkpt lat="43.069212" lon="12.6109594"><ele>331.0</ele><time>2026-04-28T13:32:09.686Z</time></trkpt><trkpt lat="43.069064" lon="12.6109748"><ele>329.5</ele><time>2026-04-28T13:32:10.685Z</time></trkpt><trkpt lat="43.0689284" lon="12.611001"><ele>328.0</ele><time>2026-04-28T13:32:11.686Z</time></trkpt><trkpt lat="43.0688068" lon="12.6110484"><ele>326.5</ele><time>2026-04-28T13:32:12.685Z</time></trkpt><trkpt lat="43.0686998" lon="12.6111249"><ele>325.0</ele><time>2026-04-28T13:32:13.685Z</time></trkpt><trkpt lat="43.0685985" lon="12.6112287"><ele>325.75</ele><time>2026-04-28T13:32:14.686Z</time></trkpt><trkpt lat="43.0684949" lon="12.6113481"><ele>326.5</ele><time>2026-04-28T13:32:15.685Z</time></trkpt><trkpt lat="43.0683881" lon="12.6114921"><ele>327.25</ele><time>2026-04-28T13:32:16.686Z</time></trkpt><trkpt lat="43.0682762" lon="12.6116552"><ele>328.0</ele><time>2026-04-28T13:32:17.686Z</time></trkpt><trkpt lat="43.0681659" lon="12.6118236"><ele>328.0</ele><time>2026-04-28T13:32:18.686Z</time></trkpt><trkpt lat="43.0680583" lon="12.6119849"><ele>328.0</ele><time>2026-04-28T13:32:19.685Z</time></trkpt><trkpt lat="43.067956" lon="12.6121284"><ele>328.0</ele><time>2026-04-28T13:32:20.686Z</time></trkpt><trkpt lat="43.067863" lon="12.6122633"><ele>328.0</ele><time>2026-04-28T13:32:21.685Z</time></trkpt><trkpt lat="43.0677876" lon="12.6123937"><ele>330.0</ele><time>2026-04-28T13:32:22.686Z</time></trkpt><trkpt lat="43.0677438" lon="12.6125379"><ele>332.0</ele><time>2026-04-28T13:32:23.686Z</time></trkpt><trkpt lat="43.0677334" lon="12.6126926"><ele>334.0</ele><time>2026-04-28T13:32:24.685Z</time></trkpt><trkpt lat="43.0677554" lon="12.6128559"><ele>336.0</ele><time>2026-04-28T13:32:25.686Z</time></trkpt><trkpt lat="43.0678061" lon="12.613017"><ele>336.0</ele><time>2026-04-28T13:32:26.685Z</time></trkpt><trkpt lat="43.0678776" lon="12.6131741"><ele>336.0</ele><time>2026-04-28T13:32:27.686Z</time></trkpt><trkpt lat="43.0679589" lon="12.6133239"><ele>336.0</ele><time>2026-04-28T13:32:28.686Z</time></trkpt><trkpt lat="43.0680519" lon="12.613453"><ele>336.0</ele><time>2026-04-28T13:32:29.686Z</time></trkpt><trkpt lat="43.068149" lon="12.6135619"><ele>337.5</ele><time>2026-04-28T13:32:30.686Z</time></trkpt><trkpt lat="43.0682317" lon="12.6136758"><ele>339.0</ele><time>2026-04-28T13:32:31.685Z</time></trkpt><trkpt lat="43.0683059" lon="12.613805"><ele>340.5</ele><time>2026-04-28T13:32:32.685Z</time></trkpt><trkpt lat="43.0683766" lon="12.613933"><ele>342.0</ele><time>2026-04-28T13:32:33.685Z</time></trkpt><trkpt lat="43.0684387" lon="12.6140492"><ele>344.6</ele><time>2026-04-28T13:32:34.686Z</time></trkpt><trkpt lat="43.0684855" lon="12.6141558"><ele>347.20000000000005</ele><time>2026-04-28T13:32:35.686Z</time></trkpt><trkpt lat="43.0685168" lon="12.6142673"><ele>349.8</ele><time>2026-04-28T13:32:36.686Z</time></trkpt><trkpt lat="43.0685292" lon="12.6143862"><ele>352.4</ele><time>2026-04-28T13:32:37.686Z</time></trkpt><trkpt lat="43.0685154" lon="12.6145091"><ele>355.0</ele><time>2026-04-28T13:32:38.686Z</time></trkpt><trkpt lat="43.0684723" lon="12.6146248"><ele>355.75</ele><time>2026-04-28T13:32:39.686Z</time></trkpt><trkpt lat="43.0683989" lon="12.6147286"><ele>356.5</ele><time>2026-04-28T13:32:40.686Z</time></trkpt><trkpt lat="43.0683008" lon="12.6148036"><ele>357.25</ele><time>2026-04-28T13:32:41.685Z</time></trkpt><trkpt lat="43.06818" lon="12.6148503"><ele>358.0</ele><time>2026-04-28T13:32:42.686Z</time></trkpt><trkpt lat="43.0680335" lon="12.614897"><ele>358.0</ele><time>2026-04-28T13:32:43.686Z</time></trkpt><trkpt lat="43.0678907" lon="12.6149583"><ele>358.0</ele><time>2026-04-28T13:32:44.686Z</time></trkpt><trkpt lat="43.0677527" lon="12.6150164"><ele>358.0</ele><time>2026-04-28T13:32:45.685Z</time></trkpt><trkpt lat="43.0676305" lon="12.6150923"><ele>358.0</ele><time>2026-04-28T13:32:46.686Z</time></trkpt><trkpt lat="43.0675298" lon="12.615197"><ele>356.75</ele><time>2026-04-28T13:32:47.686Z</time></trkpt><trkpt lat="43.0674561" lon="12.6153261"><ele>355.5</ele><time>2026-04-28T13:32:48.685Z</time></trkpt><trkpt lat="43.06741" lon="12.6154735"><ele>354.25</ele><time>2026-04-28T13:32:49.686Z</time></trkpt><trkpt lat="43.0673942" lon="12.6156301"><ele>353.0</ele><time>2026-04-28T13:32:50.686Z</time></trkpt><trkpt lat="43.0674078" lon="12.6157838"><ele>353.0</ele><time>2026-04-28T13:32:51.685Z</time></trkpt><trkpt lat="43.0674406" lon="12.6159452"><ele>353.0</ele><time>2026-04-28T13:32:52.685Z</time></trkpt><trkpt lat="43.0674651" lon="12.6161135"><ele>353.0</ele><time>2026-04-28T13:32:53.685Z</time></trkpt><trkpt lat="43.0674601" lon="12.6162836"><ele>353.0</ele><time>2026-04-28T13:32:54.685Z</time></trkpt><trkpt lat="43.0674412" lon="12.6164583"><ele>355.0</ele><time>2026-04-28T13:32:55.685Z</time></trkpt><trkpt lat="43.0674098" lon="12.6166296"><ele>357.0</ele><time>2026-04-28T13:32:56.685Z</time></trkpt><trkpt lat="43.067379" lon="12.6167874"><ele>359.0</ele><time>2026-04-28T13:32:57.684Z</time></trkpt><trkpt lat="43.0673502" lon="12.6169263"><ele>361.0</ele><time>2026-04-28T13:32:58.685Z</time></trkpt><trkpt lat="43.0673264" lon="12.6170438"><ele>363.0</ele><time>2026-04-28T13:32:59.685Z</time></trkpt><trkpt lat="43.0672974" lon="12.6171458"><ele>365.3333333333333</ele><time>2026-04-28T13:33:00.685Z</time></trkpt><trkpt lat="43.067261" lon="12.6172289"><ele>367.6666666666667</ele><time>2026-04-28T13:33:01.685Z</time></trkpt><trkpt lat="43.0671744" lon="12.6173352"><ele>370.0</ele><time>2026-04-28T13:33:03.684Z</time></trkpt><trkpt lat="43.067059" lon="12.6174018"><ele>372.33333333333337</ele><time>2026-04-28T13:33:05.685Z</time></trkpt><trkpt lat="43.0669957" lon="12.6174183"><ele>374.6666666666667</ele><time>2026-04-28T13:33:06.685Z</time></trkpt><trkpt lat="43.066929" lon="12.6174265"><ele>377.0</ele><time>2026-04-28T13:33:07.685Z</time></trkpt><trkpt lat="43.0668616" lon="12.6174319"><ele>377.0</ele><time>2026-04-28T13:33:08.684Z</time></trkpt><trkpt lat="43.0667953" lon="12.617435"><ele>377.0</ele><time>2026-04-28T13:33:09.684Z</time></trkpt><trkpt lat="43.0667277" lon="12.617436"><ele>377.0</ele><time>2026-04-28T13:33:10.685Z</time></trkpt><trkpt lat="43.0666534" lon="12.6174429"><ele>377.0</ele><time>2026-04-28T13:33:11.685Z</time></trkpt><trkpt lat="43.0665754" lon="12.6174584"><ele>377.0</ele><time>2026-04-28T13:33:12.685Z</time></trkpt><trkpt lat="43.0664956" lon="12.6174898"><ele>377.0</ele><time>2026-04-28T13:33:13.685Z</time></trkpt><trkpt lat="43.0664195" lon="12.6175487"><ele>376.40000000000003</ele><time>2026-04-28T13:33:14.685Z</time></trkpt><trkpt lat="43.0663485" lon="12.6176367"><ele>375.8</ele><time>2026-04-28T13:33:15.685Z</time></trkpt><trkpt lat="43.0662822" lon="12.6177416"><ele>375.2</ele><time>2026-04-28T13:33:16.685Z</time></trkpt><trkpt lat="43.0662157" lon="12.6178582"><ele>374.6</ele><time>2026-04-28T13:33:17.683Z</time></trkpt><trkpt lat="43.066146" lon="12.617978"><ele>374.0</ele><time>2026-04-28T13:33:18.684Z</time></trkpt><trkpt lat="43.0660748" lon="12.6180999"><ele>375.5</ele><time>2026-04-28T13:33:19.685Z</time></trkpt><trkpt lat="43.0660016" lon="12.6182245"><ele>377.0</ele><time>2026-04-28T13:33:20.685Z</time></trkpt><trkpt lat="43.0659277" lon="12.618352"><ele>378.5</ele><time>2026-04-28T13:33:21.684Z</time></trkpt><trkpt lat="43.0658548" lon="12.618482"><ele>380.0</ele><time>2026-04-28T13:33:22.685Z</time></trkpt><trkpt lat="43.0657821" lon="12.6186107"><ele>378.4</ele><time>2026-04-28T13:33:23.685Z</time></trkpt><trkpt lat="43.0657122" lon="12.6187314"><ele>376.8</ele><time>2026-04-28T13:33:24.685Z</time></trkpt><trkpt lat="43.0656486" lon="12.6188412"><ele>375.20000000000005</ele><time>2026-04-28T13:33:25.685Z</time></trkpt><trkpt lat="43.0655961" lon="12.6189561"><ele>373.6</ele><time>2026-04-28T13:33:26.684Z</time></trkpt><trkpt lat="43.0655609" lon="12.6190835"><ele>372.0</ele><time>2026-04-28T13:33:27.685Z</time></trkpt><trkpt lat="43.0655517" lon="12.6192203"><ele>372.0</ele><time>2026-04-28T13:33:28.685Z</time></trkpt><trkpt lat="43.0655682" lon="12.6193607"><ele>372.0</ele><time>2026-04-28T13:33:29.685Z</time></trkpt><trkpt lat="43.0655969" lon="12.6195049"><ele>372.0</ele><time>2026-04-28T13:33:30.684Z</time></trkpt><trkpt lat="43.06563" lon="12.6196535"><ele>372.0</ele><time>2026-04-28T13:33:31.685Z</time></trkpt><trkpt lat="43.0656708" lon="12.6197985"><ele>372.0</ele><time>2026-04-28T13:33:32.685Z</time></trkpt><trkpt lat="43.0657186" lon="12.6199406"><ele>372.5</ele><time>2026-04-28T13:33:33.684Z</time></trkpt><trkpt lat="43.0657716" lon="12.620081"><ele>373.0</ele><time>2026-04-28T13:33:34.685Z</time></trkpt><trkpt lat="43.0658303" lon="12.6202213"><ele>373.5</ele><time>2026-04-28T13:33:35.685Z</time></trkpt><trkpt lat="43.0658874" lon="12.6203594"><ele>374.0</ele><time>2026-04-28T13:33:36.684Z</time></trkpt><trkpt lat="43.0659369" lon="12.620486"><ele>376.6666666666667</ele><time>2026-04-28T13:33:37.685Z</time></trkpt><trkpt lat="43.0659758" lon="12.6205947"><ele>379.33333333333337</ele><time>2026-04-28T13:33:38.685Z</time></trkpt><trkpt lat="43.0660139" lon="12.6206905"><ele>382.0</ele><time>2026-04-28T13:33:39.684Z</time></trkpt><trkpt lat="43.0660472" lon="12.6207672"><ele>384.6666666666667</ele><time>2026-04-28T13:33:40.685Z</time></trkpt><trkpt lat="43.0661074" lon="12.6209178"><ele>387.3333333333333</ele><time>2026-04-28T13:33:42.685Z</time></trkpt><trkpt lat="43.0661388" lon="12.6209942"><ele>390.0</ele><time>2026-04-28T13:33:43.684Z</time></trkpt><trkpt lat="43.0662068" lon="12.6211045"><ele>389.8</ele><time>2026-04-28T13:33:45.685Z</time></trkpt><trkpt lat="43.0662929" lon="12.621203"><ele>389.6</ele><time>2026-04-28T13:33:47.685Z</time></trkpt><trkpt lat="43.0663504" lon="12.6213204"><ele>389.4</ele><time>2026-04-28T13:33:49.685Z</time></trkpt><trkpt lat="43.0663485" lon="12.6214334"><ele>389.2</ele><time>2026-04-28T13:33:51.684Z</time></trkpt><trkpt lat="43.0664423" lon="12.621433"><ele>389.0</ele><time>2026-04-28T13:37:54.683Z</time></trkpt><trkpt lat="43.0663937" lon="12.6215028"><ele>389.0</ele><time>2026-04-28T13:38:23.683Z</time></trkpt><trkpt lat="43.0663634" lon="12.6217191"><ele>389.0</ele><time>2026-04-28T13:45:02.681Z</time></trkpt><trkpt lat="43.0663704" lon="12.6218865"><ele>389.0</ele><time>2026-04-28T13:45:04.681Z</time></trkpt><trkpt lat="43.0663639" lon="12.621993"><ele>389.0</ele><time>2026-04-28T13:45:05.682Z</time></trkpt><trkpt lat="43.0663427" lon="12.6221185"><ele>389.5</ele><time>2026-04-28T13:45:06.681Z</time></trkpt><trkpt lat="43.0662982" lon="12.6222532"><ele>390.0</ele><time>2026-04-28T13:45:07.682Z</time></trkpt><trkpt lat="43.0662393" lon="12.622393"><ele>390.5</ele><time>2026-04-28T13:45:08.682Z</time></trkpt><trkpt lat="43.0661778" lon="12.6225396"><ele>391.0</ele><time>2026-04-28T13:45:09.681Z</time></trkpt><trkpt lat="43.0661107" lon="12.6226929"><ele>392.75</ele><time>2026-04-28T13:45:10.682Z</time></trkpt><trkpt lat="43.0660381" lon="12.6228553"><ele>394.5</ele><time>2026-04-28T13:45:11.681Z</time></trkpt><trkpt lat="43.0659617" lon="12.6230213"><ele>396.25</ele><time>2026-04-28T13:45:12.682Z</time></trkpt><trkpt lat="43.0658856" lon="12.6231725"><ele>398.0</ele><time>2026-04-28T13:45:13.681Z</time></trkpt><trkpt lat="43.0658089" lon="12.6233093"><ele>397.75</ele><time>2026-04-28T13:45:14.682Z</time></trkpt><trkpt lat="43.0657368" lon="12.6234336"><ele>397.5</ele><time>2026-04-28T13:45:15.681Z</time></trkpt><trkpt lat="43.0656583" lon="12.6235416"><ele>397.25</ele><time>2026-04-28T13:45:16.681Z</time></trkpt><trkpt lat="43.0655636" lon="12.6236416"><ele>397.0</ele><time>2026-04-28T13:45:17.681Z</time></trkpt><trkpt lat="43.0654559" lon="12.6237325"><ele>397.0</ele><time>2026-04-28T13:45:18.682Z</time></trkpt><trkpt lat="43.0653368" lon="12.6238159"><ele>397.0</ele><time>2026-04-28T13:45:19.682Z</time></trkpt><trkpt lat="43.0652078" lon="12.6238965"><ele>397.0</ele><time>2026-04-28T13:45:20.682Z</time></trkpt><trkpt lat="43.0650731" lon="12.6239799"><ele>397.0</ele><time>2026-04-28T13:45:21.681Z</time></trkpt><trkpt lat="43.0649382" lon="12.6240801"><ele>393.33333333333337</ele><time>2026-04-28T13:45:22.682Z</time></trkpt><trkpt lat="43.0648054" lon="12.6241963"><ele>389.66666666666663</ele><time>2026-04-28T13:45:23.682Z</time></trkpt><trkpt lat="43.064673" lon="12.6243192"><ele>386.0</ele><time>2026-04-28T13:45:24.682Z</time></trkpt><trkpt lat="43.064546" lon="12.6244453"><ele>389.75</ele><time>2026-04-28T13:45:25.682Z</time></trkpt><trkpt lat="43.0644282" lon="12.6245699"><ele>393.5</ele><time>2026-04-28T13:45:26.681Z</time></trkpt><trkpt lat="43.0643181" lon="12.624681"><ele>397.25</ele><time>2026-04-28T13:45:27.682Z</time></trkpt><trkpt lat="43.0642071" lon="12.6247722"><ele>401.0</ele><time>2026-04-28T13:45:28.682Z</time></trkpt><trkpt lat="43.0640912" lon="12.6248283"><ele>401.0</ele><time>2026-04-28T13:45:29.681Z</time></trkpt><trkpt lat="43.0639688" lon="12.6248508"><ele>401.0</ele><time>2026-04-28T13:45:30.682Z</time></trkpt><trkpt lat="43.0638369" lon="12.6248284"><ele>401.0</ele><time>2026-04-28T13:45:31.682Z</time></trkpt><trkpt lat="43.0636981" lon="12.6247889"><ele>401.0</ele><time>2026-04-28T13:45:32.682Z</time></trkpt><trkpt lat="43.0635543" lon="12.6247432"><ele>401.0</ele><time>2026-04-28T13:45:33.681Z</time></trkpt><trkpt lat="43.0634031" lon="12.6247005"><ele>401.0</ele><time>2026-04-28T13:45:34.681Z</time></trkpt><trkpt lat="43.0632442" lon="12.6246571"><ele>401.0</ele><time>2026-04-28T13:45:35.681Z</time></trkpt><trkpt lat="43.0630787" lon="12.6246172"><ele>399.66666666666663</ele><time>2026-04-28T13:45:36.681Z</time></trkpt><trkpt lat="43.0629096" lon="12.624591"><ele>398.33333333333337</ele><time>2026-04-28T13:45:37.68Z</time></trkpt><trkpt lat="43.0627421" lon="12.6245921"><ele>397.0</ele><time>2026-04-28T13:45:38.68Z</time></trkpt><trkpt lat="43.0625805" lon="12.6246001"><ele>393.33333333333337</ele><time>2026-04-28T13:45:39.68Z</time></trkpt><trkpt lat="43.0624309" lon="12.6246499"><ele>389.66666666666663</ele><time>2026-04-28T13:45:40.681Z</time></trkpt><trkpt lat="43.0622799" lon="12.6247197"><ele>386.0</ele><time>2026-04-28T13:45:41.681Z</time></trkpt><trkpt lat="43.0621331" lon="12.6248214"><ele>386.0</ele><time>2026-04-28T13:45:42.681Z</time></trkpt><trkpt lat="43.0619912" lon="12.6249409"><ele>386.0</ele><time>2026-04-28T13:45:43.681Z</time></trkpt><trkpt lat="43.0618503" lon="12.625078"><ele>386.0</ele><time>2026-04-28T13:45:44.681Z</time></trkpt><trkpt lat="43.0617215" lon="12.6252318"><ele>385.0</ele><time>2026-04-28T13:45:45.681Z</time></trkpt><trkpt lat="43.0615996" lon="12.6254041"><ele>384.0</ele><time>2026-04-28T13:45:46.681Z</time></trkpt><trkpt lat="43.0614809" lon="12.6255821"><ele>383.0</ele><time>2026-04-28T13:45:47.679Z</time></trkpt><trkpt lat="43.0613621" lon="12.6257612"><ele>383.0</ele><time>2026-04-28T13:45:48.68Z</time></trkpt><trkpt lat="43.0612463" lon="12.6259419"><ele>383.0</ele><time>2026-04-28T13:45:49.681Z</time></trkpt><trkpt lat="43.0611401" lon="12.6261251"><ele>383.0</ele><time>2026-04-28T13:45:50.681Z</time></trkpt><trkpt lat="43.0610362" lon="12.6263063"><ele>385.33333333333337</ele><time>2026-04-28T13:45:51.681Z</time></trkpt><trkpt lat="43.0609321" lon="12.6264828"><ele>387.6666666666667</ele><time>2026-04-28T13:45:52.681Z</time></trkpt><trkpt lat="43.0608241" lon="12.6266491"><ele>390.0</ele><time>2026-04-28T13:45:53.68Z</time></trkpt><trkpt lat="43.0606966" lon="12.6267987"><ele>390.0</ele><time>2026-04-28T13:45:54.68Z</time></trkpt><trkpt lat="43.0605624" lon="12.626936"><ele>390.0</ele><time>2026-04-28T13:45:55.681Z</time></trkpt><trkpt lat="43.0604237" lon="12.6270642"><ele>390.0</ele><time>2026-04-28T13:45:56.681Z</time></trkpt><trkpt lat="43.0602852" lon="12.6271879"><ele>390.0</ele><time>2026-04-28T13:45:57.681Z</time></trkpt><trkpt lat="43.0601422" lon="12.6273017"><ele>390.0</ele><time>2026-04-28T13:45:58.68Z</time></trkpt><trkpt lat="43.0599992" lon="12.6274105"><ele>390.0</ele><time>2026-04-28T13:45:59.68Z</time></trkpt><trkpt lat="43.0598573" lon="12.62752"><ele>389.0</ele><time>2026-04-28T13:46:00.68Z</time></trkpt><trkpt lat="43.0597283" lon="12.6276387"><ele>388.0</ele><time>2026-04-28T13:46:01.681Z</time></trkpt><trkpt lat="43.0596112" lon="12.6277634"><ele>387.0</ele><time>2026-04-28T13:46:02.681Z</time></trkpt><trkpt lat="43.0595032" lon="12.6279006"><ele>387.0</ele><time>2026-04-28T13:46:03.68Z</time></trkpt><trkpt lat="43.0594051" lon="12.6280433"><ele>387.0</ele><time>2026-04-28T13:46:04.68Z</time></trkpt><trkpt lat="43.0593126" lon="12.6281791"><ele>387.0</ele><time>2026-04-28T13:46:05.681Z</time></trkpt><trkpt lat="43.059229" lon="12.6283013"><ele>387.0</ele><time>2026-04-28T13:46:06.681Z</time></trkpt><trkpt lat="43.0591447" lon="12.6284073"><ele>387.0</ele><time>2026-04-28T13:46:07.681Z</time></trkpt><trkpt lat="43.0590561" lon="12.6284948"><ele>387.0</ele><time>2026-04-28T13:46:08.68Z</time></trkpt><trkpt lat="43.0589679" lon="12.6285791"><ele>387.0</ele><time>2026-04-28T13:46:09.681Z</time></trkpt><trkpt lat="43.0588787" lon="12.6286566"><ele>387.0</ele><time>2026-04-28T13:46:10.681Z</time></trkpt><trkpt lat="43.0587837" lon="12.6287248"><ele>387.0</ele><time>2026-04-28T13:46:11.68Z</time></trkpt><trkpt lat="43.058691" lon="12.6287863"><ele>387.0</ele><time>2026-04-28T13:46:12.681Z</time></trkpt><trkpt lat="43.0585962" lon="12.6288428"><ele>387.0</ele><time>2026-04-28T13:46:13.681Z</time></trkpt><trkpt lat="43.0584982" lon="12.6288881"><ele>387.0</ele><time>2026-04-28T13:46:14.681Z</time></trkpt><trkpt lat="43.0584015" lon="12.6289225"><ele>387.0</ele><time>2026-04-28T13:46:15.68Z</time></trkpt><trkpt lat="43.0583046" lon="12.6289482"><ele>387.0</ele><time>2026-04-28T13:46:16.68Z</time></trkpt><trkpt lat="43.0582038" lon="12.6289577"><ele>384.20000000000005</ele><time>2026-04-28T13:46:17.681Z</time></trkpt><trkpt lat="43.0580983" lon="12.6289534"><ele>381.4</ele><time>2026-04-28T13:46:18.681Z</time></trkpt><trkpt lat="43.0579876" lon="12.6289458"><ele>378.6</ele><time>2026-04-28T13:46:19.681Z</time></trkpt><trkpt lat="43.0578759" lon="12.6289401"><ele>375.79999999999995</ele><time>2026-04-28T13:46:20.68Z</time></trkpt><trkpt lat="43.0577717" lon="12.6289345"><ele>373.0</ele><time>2026-04-28T13:46:21.681Z</time></trkpt><trkpt lat="43.0576732" lon="12.6289412"><ele>373.0</ele><time>2026-04-28T13:46:22.681Z</time></trkpt><trkpt lat="43.0575809" lon="12.6289709"><ele>373.0</ele><time>2026-04-28T13:46:23.681Z</time></trkpt><trkpt lat="43.0574901" lon="12.6290274"><ele>373.0</ele><time>2026-04-28T13:46:24.68Z</time></trkpt><trkpt lat="43.0574056" lon="12.6291088"><ele>373.0</ele><time>2026-04-28T13:46:25.681Z</time></trkpt><trkpt lat="43.0573391" lon="12.6292166"><ele>373.0</ele><time>2026-04-28T13:46:26.681Z</time></trkpt><trkpt lat="43.0572893" lon="12.6293371"><ele>371.0</ele><time>2026-04-28T13:46:27.681Z</time></trkpt><trkpt lat="43.0572553" lon="12.6294665"><ele>369.0</ele><time>2026-04-28T13:46:28.68Z</time></trkpt><trkpt lat="43.057226" lon="12.629594"><ele>367.0</ele><time>2026-04-28T13:46:29.681Z</time></trkpt><trkpt lat="43.0572022" lon="12.6297245"><ele>365.0</ele><time>2026-04-28T13:46:30.68Z</time></trkpt><trkpt lat="43.057181" lon="12.6298546"><ele>363.0</ele><time>2026-04-28T13:46:31.68Z</time></trkpt><trkpt lat="43.0571529" lon="12.6299809"><ele>363.0</ele><time>2026-04-28T13:46:32.681Z</time></trkpt><trkpt lat="43.0571176" lon="12.6301115"><ele>363.0</ele><time>2026-04-28T13:46:33.681Z</time></trkpt><trkpt lat="43.0570736" lon="12.6302377"><ele>363.0</ele><time>2026-04-28T13:46:34.68Z</time></trkpt><trkpt lat="43.0570216" lon="12.6303563"><ele>363.0</ele><time>2026-04-28T13:46:35.681Z</time></trkpt><trkpt lat="43.0569631" lon="12.6304631"><ele>363.0</ele><time>2026-04-28T13:46:36.681Z</time></trkpt><trkpt lat="43.0568971" lon="12.6305572"><ele>362.59999999999997</ele><time>2026-04-28T13:46:37.681Z</time></trkpt><trkpt lat="43.0568216" lon="12.630641"><ele>362.2</ele><time>2026-04-28T13:46:38.68Z</time></trkpt><trkpt lat="43.0567379" lon="12.6307137"><ele>361.8</ele><time>2026-04-28T13:46:39.68Z</time></trkpt><trkpt lat="43.0566474" lon="12.6307704"><ele>361.4</ele><time>2026-04-28T13:46:40.68Z</time></trkpt><trkpt lat="43.0565476" lon="12.6308131"><ele>361.0</ele><time>2026-04-28T13:46:41.681Z</time></trkpt><trkpt lat="43.0564453" lon="12.6308546"><ele>361.0</ele><time>2026-04-28T13:46:42.681Z</time></trkpt><trkpt lat="43.0563436" lon="12.6309015"><ele>361.0</ele><time>2026-04-28T13:46:43.681Z</time></trkpt><trkpt lat="43.0562488" lon="12.6309567"><ele>361.0</ele><time>2026-04-28T13:46:44.68Z</time></trkpt><trkpt lat="43.0561599" lon="12.6310201"><ele>361.0</ele><time>2026-04-28T13:46:45.68Z</time></trkpt><trkpt lat="43.0560687" lon="12.6310954"><ele>361.0</ele><time>2026-04-28T13:46:46.68Z</time></trkpt><trkpt lat="43.0559779" lon="12.6311827"><ele>360.6</ele><time>2026-04-28T13:46:47.681Z</time></trkpt><trkpt lat="43.0558918" lon="12.6312772"><ele>360.20000000000005</ele><time>2026-04-28T13:46:48.681Z</time></trkpt><trkpt lat="43.0558107" lon="12.631373"><ele>359.79999999999995</ele><time>2026-04-28T13:46:49.68Z</time></trkpt><trkpt lat="43.0557316" lon="12.6314621"><ele>359.4</ele><time>2026-04-28T13:46:50.68Z</time></trkpt><trkpt lat="43.0556464" lon="12.6315354"><ele>359.0</ele><time>2026-04-28T13:46:51.681Z</time></trkpt><trkpt lat="43.0555534" lon="12.6315798"><ele>359.0</ele><time>2026-04-28T13:46:52.681Z</time></trkpt><trkpt lat="43.0554535" lon="12.6315976"><ele>359.0</ele><time>2026-04-28T13:46:53.681Z</time></trkpt><trkpt lat="43.0553488" lon="12.631596"><ele>359.0</ele><time>2026-04-28T13:46:54.681Z</time></trkpt><trkpt lat="43.0552406" lon="12.6315825"><ele>359.0</ele><time>2026-04-28T13:46:55.679Z</time></trkpt><trkpt lat="43.0551299" lon="12.6315603"><ele>359.0</ele><time>2026-04-28T13:46:56.681Z</time></trkpt><trkpt lat="43.0550233" lon="12.6315256"><ele>359.0</ele><time>2026-04-28T13:46:57.681Z</time></trkpt><trkpt lat="43.0549207" lon="12.6314844"><ele>359.0</ele><time>2026-04-28T13:46:58.681Z</time></trkpt><trkpt lat="43.0548214" lon="12.6314295"><ele>359.0</ele><time>2026-04-28T13:46:59.68Z</time></trkpt><trkpt lat="43.0547271" lon="12.6313716"><ele>359.0</ele><time>2026-04-28T13:47:00.68Z</time></trkpt><trkpt lat="43.0546351" lon="12.6313171"><ele>359.0</ele><time>2026-04-28T13:47:01.681Z</time></trkpt><trkpt lat="43.0545475" lon="12.631266"><ele>359.0</ele><time>2026-04-28T13:47:02.681Z</time></trkpt><trkpt lat="43.0544587" lon="12.6312122"><ele>359.0</ele><time>2026-04-28T13:47:03.681Z</time></trkpt><trkpt lat="43.0543719" lon="12.6311586"><ele>359.0</ele><time>2026-04-28T13:47:04.681Z</time></trkpt><trkpt lat="43.0542787" lon="12.6311069"><ele>359.0</ele><time>2026-04-28T13:47:05.681Z</time></trkpt><trkpt lat="43.0541797" lon="12.6310711"><ele>359.0</ele><time>2026-04-28T13:47:06.681Z</time></trkpt><trkpt lat="43.0540779" lon="12.6310584"><ele>356.6</ele><time>2026-04-28T13:47:07.68Z</time></trkpt><trkpt lat="43.0539802" lon="12.6310752"><ele>354.2</ele><time>2026-04-28T13:47:08.681Z</time></trkpt><trkpt lat="43.0538891" lon="12.6311254"><ele>351.8</ele><time>2026-04-28T13:47:09.681Z</time></trkpt><trkpt lat="43.0538069" lon="12.6312064"><ele>349.40000000000003</ele><time>2026-04-28T13:47:10.68Z</time></trkpt><trkpt lat="43.0537396" lon="12.6313128"><ele>347.0</ele><time>2026-04-28T13:47:11.681Z</time></trkpt><trkpt lat="43.0536901" lon="12.6314326"><ele>347.0</ele><time>2026-04-28T13:47:12.681Z</time></trkpt><trkpt lat="43.0536535" lon="12.631556"><ele>347.0</ele><time>2026-04-28T13:47:13.68Z</time></trkpt><trkpt lat="43.0536241" lon="12.6316787"><ele>347.0</ele><time>2026-04-28T13:47:14.681Z</time></trkpt><trkpt lat="43.0536037" lon="12.6318021"><ele>347.0</ele><time>2026-04-28T13:47:15.681Z</time></trkpt><trkpt lat="43.0535902" lon="12.6319319"><ele>347.0</ele><time>2026-04-28T13:47:16.68Z</time></trkpt><trkpt lat="43.0535776" lon="12.6320661"><ele>347.0</ele><time>2026-04-28T13:47:17.681Z</time></trkpt><trkpt lat="43.0535645" lon="12.632204"><ele>347.0</ele><time>2026-04-28T13:47:18.681Z</time></trkpt><trkpt lat="43.0535511" lon="12.6323439"><ele>347.0</ele><time>2026-04-28T13:47:19.681Z</time></trkpt><trkpt lat="43.0535383" lon="12.6324878"><ele>347.0</ele><time>2026-04-28T13:47:20.681Z</time></trkpt><trkpt lat="43.053523" lon="12.6326318"><ele>347.0</ele><time>2026-04-28T13:47:21.68Z</time></trkpt><trkpt lat="43.0535104" lon="12.6327754"><ele>347.6</ele><time>2026-04-28T13:47:22.681Z</time></trkpt><trkpt lat="43.053497" lon="12.632913"><ele>348.20000000000005</ele><time>2026-04-28T13:47:23.68Z</time></trkpt><trkpt lat="43.0534778" lon="12.6330425"><ele>348.8</ele><time>2026-04-28T13:47:24.681Z</time></trkpt><trkpt lat="43.0534433" lon="12.6331642"><ele>349.4</ele><time>2026-04-28T13:47:25.681Z</time></trkpt><trkpt lat="43.0533885" lon="12.6332652"><ele>350.0</ele><time>2026-04-28T13:47:26.681Z</time></trkpt><trkpt lat="43.0533129" lon="12.6333435"><ele>348.6</ele><time>2026-04-28T13:47:27.68Z</time></trkpt><trkpt lat="43.0532193" lon="12.6333862"><ele>347.2</ele><time>2026-04-28T13:47:28.68Z</time></trkpt><trkpt lat="43.0531153" lon="12.6333897"><ele>345.79999999999995</ele><time>2026-04-28T13:47:29.681Z</time></trkpt><trkpt lat="43.0530059" lon="12.6333658"><ele>344.4</ele><time>2026-04-28T13:47:30.681Z</time></trkpt><trkpt lat="43.0528884" lon="12.6333372"><ele>343.0</ele><time>2026-04-28T13:47:31.68Z</time></trkpt><trkpt lat="43.0527696" lon="12.6332969"><ele>343.0</ele><time>2026-04-28T13:47:32.68Z</time></trkpt><trkpt lat="43.0526474" lon="12.633263"><ele>343.0</ele><time>2026-04-28T13:47:33.681Z</time></trkpt><trkpt lat="43.0525311" lon="12.6332321"><ele>343.0</ele><time>2026-04-28T13:47:34.681Z</time></trkpt><trkpt lat="43.0524197" lon="12.6332076"><ele>343.0</ele><time>2026-04-28T13:47:35.68Z</time></trkpt><trkpt lat="43.0523145" lon="12.6331851"><ele>343.2</ele><time>2026-04-28T13:47:36.681Z</time></trkpt><trkpt lat="43.0522128" lon="12.6331681"><ele>343.4</ele><time>2026-04-28T13:47:37.681Z</time></trkpt><trkpt lat="43.0521101" lon="12.6331543"><ele>343.59999999999997</ele><time>2026-04-28T13:47:38.68Z</time></trkpt><trkpt lat="43.0520049" lon="12.6331429"><ele>343.79999999999995</ele><time>2026-04-28T13:47:39.68Z</time></trkpt><trkpt lat="43.0518962" lon="12.6331322"><ele>344.0</ele><time>2026-04-28T13:47:40.681Z</time></trkpt><trkpt lat="43.0517888" lon="12.6331243"><ele>344.0</ele><time>2026-04-28T13:47:41.681Z</time></trkpt><trkpt lat="43.0516851" lon="12.633126"><ele>344.0</ele><time>2026-04-28T13:47:42.681Z</time></trkpt><trkpt lat="43.0515852" lon="12.6331346"><ele>344.0</ele><time>2026-04-28T13:47:43.68Z</time></trkpt><trkpt lat="43.0514906" lon="12.6331512"><ele>344.0</ele><time>2026-04-28T13:47:44.681Z</time></trkpt><trkpt lat="43.0513977" lon="12.6331717"><ele>344.0</ele><time>2026-04-28T13:47:45.681Z</time></trkpt><trkpt lat="43.0513034" lon="12.6331987"><ele>342.79999999999995</ele><time>2026-04-28T13:47:46.681Z</time></trkpt><trkpt lat="43.0512079" lon="12.6332336"><ele>341.59999999999997</ele><time>2026-04-28T13:47:47.68Z</time></trkpt><trkpt lat="43.0511143" lon="12.6332767"><ele>340.4</ele><time>2026-04-28T13:47:48.681Z</time></trkpt><trkpt lat="43.0510247" lon="12.6333262"><ele>339.2</ele><time>2026-04-28T13:47:49.68Z</time></trkpt><trkpt lat="43.0509432" lon="12.6333838"><ele>338.0</ele><time>2026-04-28T13:47:50.681Z</time></trkpt><trkpt lat="43.0508666" lon="12.6334528"><ele>338.0</ele><time>2026-04-28T13:47:51.68Z</time></trkpt><trkpt lat="43.0507957" lon="12.6335333"><ele>338.0</ele><time>2026-04-28T13:47:52.681Z</time></trkpt><trkpt lat="43.0507316" lon="12.6336343"><ele>338.0</ele><time>2026-04-28T13:47:53.681Z</time></trkpt><trkpt lat="43.0506668" lon="12.6337429"><ele>338.0</ele><time>2026-04-28T13:47:54.681Z</time></trkpt><trkpt lat="43.0505999" lon="12.6338537"><ele>338.0</ele><time>2026-04-28T13:47:55.68Z</time></trkpt><trkpt lat="43.0505385" lon="12.6339689"><ele>337.4</ele><time>2026-04-28T13:47:56.68Z</time></trkpt><trkpt lat="43.0504775" lon="12.6340895"><ele>336.79999999999995</ele><time>2026-04-28T13:47:57.681Z</time></trkpt><trkpt lat="43.0504188" lon="12.6342144"><ele>336.2</ele><time>2026-04-28T13:47:58.681Z</time></trkpt><trkpt lat="43.0503605" lon="12.6343347"><ele>335.6</ele><time>2026-04-28T13:47:59.681Z</time></trkpt><trkpt lat="43.0502989" lon="12.6344477"><ele>335.0</ele><time>2026-04-28T13:48:00.68Z</time></trkpt><trkpt lat="43.0502367" lon="12.6345608"><ele>335.0</ele><time>2026-04-28T13:48:01.681Z</time></trkpt><trkpt lat="43.0501717" lon="12.6346693"><ele>335.0</ele><time>2026-04-28T13:48:02.681Z</time></trkpt><trkpt lat="43.0500999" lon="12.6347709"><ele>335.0</ele><time>2026-04-28T13:48:03.68Z</time></trkpt><trkpt lat="43.0500259" lon="12.6348665"><ele>335.0</ele><time>2026-04-28T13:48:04.681Z</time></trkpt><trkpt lat="43.0499497" lon="12.6349545"><ele>335.0</ele><time>2026-04-28T13:48:05.681Z</time></trkpt><trkpt lat="43.0498705" lon="12.6350373"><ele>335.0</ele><time>2026-04-28T13:48:06.679Z</time></trkpt><trkpt lat="43.0497845" lon="12.6351106"><ele>335.0</ele><time>2026-04-28T13:48:07.68Z</time></trkpt><trkpt lat="43.0497026" lon="12.6351811"><ele>335.0</ele><time>2026-04-28T13:48:08.681Z</time></trkpt><trkpt lat="43.0496231" lon="12.6352393"><ele>335.0</ele><time>2026-04-28T13:48:09.681Z</time></trkpt><trkpt lat="43.0495458" lon="12.6352981"><ele>335.0</ele><time>2026-04-28T13:48:10.681Z</time></trkpt><trkpt lat="43.0494705" lon="12.6353598"><ele>334.8</ele><time>2026-04-28T13:48:11.68Z</time></trkpt><trkpt lat="43.0493948" lon="12.6354265"><ele>334.6</ele><time>2026-04-28T13:48:12.68Z</time></trkpt><trkpt lat="43.0493204" lon="12.6355042"><ele>334.4</ele><time>2026-04-28T13:48:13.681Z</time></trkpt><trkpt lat="43.0492489" lon="12.6355945"><ele>334.2</ele><time>2026-04-28T13:48:14.681Z</time></trkpt><trkpt lat="43.0491844" lon="12.635696"><ele>334.0</ele><time>2026-04-28T13:48:15.68Z</time></trkpt><trkpt lat="43.0491264" lon="12.6358046"><ele>332.79999999999995</ele><time>2026-04-28T13:48:16.68Z</time></trkpt><trkpt lat="43.0490704" lon="12.6359182"><ele>331.59999999999997</ele><time>2026-04-28T13:48:17.681Z</time></trkpt><trkpt lat="43.0490159" lon="12.6360358"><ele>330.4</ele><time>2026-04-28T13:48:18.68Z</time></trkpt><trkpt lat="43.0489625" lon="12.6361561"><ele>329.2</ele><time>2026-04-28T13:48:19.679Z</time></trkpt><trkpt lat="43.0489067" lon="12.6362704"><ele>328.0</ele><time>2026-04-28T13:48:20.68Z</time></trkpt><trkpt lat="43.0488482" lon="12.6363806"><ele>328.0</ele><time>2026-04-28T13:48:21.68Z</time></trkpt><trkpt lat="43.0487913" lon="12.6364921"><ele>328.0</ele><time>2026-04-28T13:48:22.679Z</time></trkpt><trkpt lat="43.0487311" lon="12.6366041"><ele>328.0</ele><time>2026-04-28T13:48:23.68Z</time></trkpt><trkpt lat="43.0486677" lon="12.6367138"><ele>328.0</ele><time>2026-04-28T13:48:24.68Z</time></trkpt><trkpt lat="43.0485989" lon="12.6368189"><ele>328.0</ele><time>2026-04-28T13:48:25.679Z</time></trkpt><trkpt lat="43.0485251" lon="12.6369155"><ele>329.0</ele><time>2026-04-28T13:48:26.68Z</time></trkpt><trkpt lat="43.0484445" lon="12.6369911"><ele>330.0</ele><time>2026-04-28T13:48:27.679Z</time></trkpt><trkpt lat="43.0483607" lon="12.6370447"><ele>331.0</ele><time>2026-04-28T13:48:28.68Z</time></trkpt><trkpt lat="43.0482725" lon="12.6370702"><ele>332.0</ele><time>2026-04-28T13:48:29.68Z</time></trkpt><trkpt lat="43.048182" lon="12.6370833"><ele>333.0</ele><time>2026-04-28T13:48:30.68Z</time></trkpt><trkpt lat="43.0480915" lon="12.6370818"><ele>333.0</ele><time>2026-04-28T13:48:31.679Z</time></trkpt><trkpt lat="43.0479967" lon="12.637079"><ele>333.0</ele><time>2026-04-28T13:48:32.68Z</time></trkpt><trkpt lat="43.0479037" lon="12.6370767"><ele>333.0</ele><time>2026-04-28T13:48:33.68Z</time></trkpt><trkpt lat="43.0478112" lon="12.637073"><ele>333.0</ele><time>2026-04-28T13:48:34.679Z</time></trkpt><trkpt lat="43.0477125" lon="12.6370678"><ele>333.0</ele><time>2026-04-28T13:48:35.68Z</time></trkpt><trkpt lat="43.0476186" lon="12.637054"><ele>333.0</ele><time>2026-04-28T13:48:36.68Z</time></trkpt><trkpt lat="43.0475252" lon="12.6370445"><ele>333.0</ele><time>2026-04-28T13:48:37.68Z</time></trkpt><trkpt lat="43.0474295" lon="12.6370429"><ele>333.0</ele><time>2026-04-28T13:48:38.679Z</time></trkpt><trkpt lat="43.047337" lon="12.6370497"><ele>333.0</ele><time>2026-04-28T13:48:39.68Z</time></trkpt><trkpt lat="43.0472471" lon="12.6370639"><ele>333.0</ele><time>2026-04-28T13:48:40.68Z</time></trkpt><trkpt lat="43.047155" lon="12.637082"><ele>332.3333333333333</ele><time>2026-04-28T13:48:41.68Z</time></trkpt><trkpt lat="43.0470604" lon="12.6371012"><ele>331.6666666666667</ele><time>2026-04-28T13:48:42.68Z</time></trkpt><trkpt lat="43.0469717" lon="12.6371197"><ele>331.0</ele><time>2026-04-28T13:48:43.679Z</time></trkpt><trkpt lat="43.0468863" lon="12.6371446"><ele>330.33333333333337</ele><time>2026-04-28T13:48:44.68Z</time></trkpt><trkpt lat="43.0468101" lon="12.6371689"><ele>329.6666666666667</ele><time>2026-04-28T13:48:45.679Z</time></trkpt><trkpt lat="43.0467385" lon="12.6371856"><ele>329.0</ele><time>2026-04-28T13:48:46.679Z</time></trkpt><trkpt lat="43.0466715" lon="12.637201"><ele>328.57142857142856</ele><time>2026-04-28T13:48:47.68Z</time></trkpt><trkpt lat="43.0465992" lon="12.6372186"><ele>328.1428571428571</ele><time>2026-04-28T13:48:48.68Z</time></trkpt><trkpt lat="43.0465183" lon="12.6372246"><ele>327.7142857142857</ele><time>2026-04-28T13:48:49.679Z</time></trkpt><trkpt lat="43.0464443" lon="12.6372353"><ele>327.2857142857143</ele><time>2026-04-28T13:48:50.679Z</time></trkpt><trkpt lat="43.0463767" lon="12.6372435"><ele>326.85714285714283</ele><time>2026-04-28T13:48:51.68Z</time></trkpt><trkpt lat="43.0463089" lon="12.637241"><ele>326.42857142857144</ele><time>2026-04-28T13:48:52.68Z</time></trkpt><trkpt lat="43.0462457" lon="12.6372129"><ele>326.0</ele><time>2026-04-28T13:48:53.68Z</time></trkpt><trkpt lat="43.0461883" lon="12.6371516"><ele>326.0</ele><time>2026-04-28T13:48:54.679Z</time></trkpt><trkpt lat="43.0461514" lon="12.6370612"><ele>326.0</ele><time>2026-04-28T13:48:55.68Z</time></trkpt><trkpt lat="43.0461466" lon="12.6369581"><ele>326.0</ele><time>2026-04-28T13:48:56.68Z</time></trkpt><trkpt lat="43.0461716" lon="12.636856"><ele>326.0</ele><time>2026-04-28T13:48:57.68Z</time></trkpt><trkpt lat="43.0462231" lon="12.6367704"><ele>326.0</ele><time>2026-04-28T13:48:58.68Z</time></trkpt><trkpt lat="43.0462929" lon="12.6366989"><ele>326.0</ele><time>2026-04-28T13:48:59.68Z</time></trkpt><trkpt lat="43.046379" lon="12.6366357"><ele>324.40000000000003</ele><time>2026-04-28T13:49:00.68Z</time></trkpt><trkpt lat="43.0464715" lon="12.6365825"><ele>322.8</ele><time>2026-04-28T13:49:01.679Z</time></trkpt><trkpt lat="43.0465676" lon="12.6365264"><ele>321.20000000000005</ele><time>2026-04-28T13:49:02.68Z</time></trkpt><trkpt lat="43.0466668" lon="12.6364769"><ele>319.6</ele><time>2026-04-28T13:49:03.68Z</time></trkpt><trkpt lat="43.0467676" lon="12.6364345"><ele>318.0</ele><time>2026-04-28T13:49:04.679Z</time></trkpt><trkpt lat="43.0468653" lon="12.6364024"><ele>318.0</ele><time>2026-04-28T13:49:05.68Z</time></trkpt><trkpt lat="43.0469604" lon="12.6363783"><ele>318.0</ele><time>2026-04-28T13:49:06.68Z</time></trkpt><trkpt lat="43.0470548" lon="12.6363626"><ele>318.0</ele><time>2026-04-28T13:49:07.68Z</time></trkpt><trkpt lat="43.0471431" lon="12.6363419"><ele>318.0</ele><time>2026-04-28T13:49:08.679Z</time></trkpt><trkpt lat="43.0472247" lon="12.6363237"><ele>318.0</ele><time>2026-04-28T13:49:09.68Z</time></trkpt><trkpt lat="43.0472879" lon="12.6362747"><ele>318.0</ele><time>2026-04-28T13:49:10.68Z</time></trkpt><trkpt lat="43.0473289" lon="12.6361994"><ele>315.8333333333333</ele><time>2026-04-28T13:49:11.68Z</time></trkpt><trkpt lat="43.0473381" lon="12.6361057"><ele>313.6666666666667</ele><time>2026-04-28T13:49:12.679Z</time></trkpt><trkpt lat="43.0473142" lon="12.6360179"><ele>311.5</ele><time>2026-04-28T13:49:13.68Z</time></trkpt><trkpt lat="43.0472615" lon="12.6359551"><ele>309.33333333333337</ele><time>2026-04-28T13:49:14.679Z</time></trkpt><trkpt lat="43.047185" lon="12.6359128"><ele>307.1666666666667</ele><time>2026-04-28T13:49:15.68Z</time></trkpt><trkpt lat="43.0470974" lon="12.6358767"><ele>305.0</ele><time>2026-04-28T13:49:16.68Z</time></trkpt><trkpt lat="43.0470011" lon="12.6358421"><ele>305.0</ele><time>2026-04-28T13:49:17.679Z</time></trkpt><trkpt lat="43.0468942" lon="12.6358065"><ele>305.0</ele><time>2026-04-28T13:49:18.679Z</time></trkpt><trkpt lat="43.0467703" lon="12.6357672"><ele>305.0</ele><time>2026-04-28T13:49:19.68Z</time></trkpt><trkpt lat="43.0466305" lon="12.6357225"><ele>305.0</ele><time>2026-04-28T13:49:20.68Z</time></trkpt><trkpt lat="43.0464813" lon="12.6356666"><ele>305.0</ele><time>2026-04-28T13:49:21.68Z</time></trkpt><trkpt lat="43.0463274" lon="12.6356016"><ele>305.0</ele><time>2026-04-28T13:49:22.68Z</time></trkpt><trkpt lat="43.0461695" lon="12.6355257"><ele>305.0</ele><time>2026-04-28T13:49:23.68Z</time></trkpt><trkpt lat="43.0460057" lon="12.6354562"><ele>305.0</ele><time>2026-04-28T13:49:24.68Z</time></trkpt><trkpt lat="43.0458357" lon="12.6353898"><ele>305.0</ele><time>2026-04-28T13:49:25.68Z</time></trkpt><trkpt lat="43.0456619" lon="12.6353279"><ele>305.0</ele><time>2026-04-28T13:49:26.679Z</time></trkpt><trkpt lat="43.0454898" lon="12.6352687"><ele>301.33333333333337</ele><time>2026-04-28T13:49:27.68Z</time></trkpt><trkpt lat="43.0453181" lon="12.6352131"><ele>297.6666666666667</ele><time>2026-04-28T13:49:28.679Z</time></trkpt><trkpt lat="43.045145" lon="12.6351616"><ele>294.0</ele><time>2026-04-28T13:49:29.68Z</time></trkpt><trkpt lat="43.0449715" lon="12.6351113"><ele>293.3333333333333</ele><time>2026-04-28T13:49:30.68Z</time></trkpt><trkpt lat="43.0447999" lon="12.6350664"><ele>292.66666666666663</ele><time>2026-04-28T13:49:31.679Z</time></trkpt><trkpt lat="43.0446274" lon="12.6350197"><ele>292.0</ele><time>2026-04-28T13:49:32.68Z</time></trkpt><trkpt lat="43.044459" lon="12.6349755"><ele>292.0</ele><time>2026-04-28T13:49:33.68Z</time></trkpt><trkpt lat="43.0442976" lon="12.6349296"><ele>292.0</ele><time>2026-04-28T13:49:34.679Z</time></trkpt><trkpt lat="43.0441422" lon="12.6348941"><ele>292.0</ele><time>2026-04-28T13:49:35.68Z</time></trkpt><trkpt lat="43.0439926" lon="12.6348879"><ele>290.75</ele><time>2026-04-28T13:49:36.68Z</time></trkpt><trkpt lat="43.0438476" lon="12.6349112"><ele>289.5</ele><time>2026-04-28T13:49:37.68Z</time></trkpt><trkpt lat="43.0437082" lon="12.634945"><ele>288.25</ele><time>2026-04-28T13:49:38.68Z</time></trkpt><trkpt lat="43.0435864" lon="12.6349773"><ele>287.0</ele><time>2026-04-28T13:49:39.679Z</time></trkpt><trkpt lat="43.0434873" lon="12.6350014"><ele>287.0</ele><time>2026-04-28T13:49:40.68Z</time></trkpt><trkpt lat="43.0434053" lon="12.6349977"><ele>287.0</ele><time>2026-04-28T13:49:41.679Z</time></trkpt><trkpt lat="43.0433376" lon="12.6349513"><ele>287.0</ele><time>2026-04-28T13:49:42.68Z</time></trkpt><trkpt lat="43.0432986" lon="12.6348738"><ele>287.0</ele><time>2026-04-28T13:49:43.68Z</time></trkpt><trkpt lat="43.0432942" lon="12.6347842"><ele>287.0</ele><time>2026-04-28T13:49:44.68Z</time></trkpt><trkpt lat="43.0433206" lon="12.634694"><ele>287.0</ele><time>2026-04-28T13:49:45.679Z</time></trkpt><trkpt lat="43.0433774" lon="12.6346048"><ele>287.0</ele><time>2026-04-28T13:49:46.68Z</time></trkpt><trkpt lat="43.0434533" lon="12.6345127"><ele>287.0</ele><time>2026-04-28T13:49:47.68Z</time></trkpt><trkpt lat="43.0435404" lon="12.6344064"><ele>287.0</ele><time>2026-04-28T13:49:48.68Z</time></trkpt><trkpt lat="43.0436427" lon="12.6342942"><ele>287.0</ele><time>2026-04-28T13:49:49.679Z</time></trkpt><trkpt lat="43.0437574" lon="12.6341727"><ele>285.33333333333337</ele><time>2026-04-28T13:49:50.68Z</time></trkpt><trkpt lat="43.043877" lon="12.6340517"><ele>283.6666666666667</ele><time>2026-04-28T13:49:51.679Z</time></trkpt><trkpt lat="43.0440072" lon="12.6339252"><ele>282.0</ele><time>2026-04-28T13:49:52.68Z</time></trkpt><trkpt lat="43.0441461" lon="12.6337913"><ele>282.0</ele><time>2026-04-28T13:49:53.679Z</time></trkpt><trkpt lat="43.0442888" lon="12.6336527"><ele>282.0</ele><time>2026-04-28T13:49:54.68Z</time></trkpt><trkpt lat="43.0444364" lon="12.6335112"><ele>282.0</ele><time>2026-04-28T13:49:55.68Z</time></trkpt><trkpt lat="43.0445924" lon="12.6333675"><ele>280.0</ele><time>2026-04-28T13:49:56.68Z</time></trkpt><trkpt lat="43.0447576" lon="12.6332273"><ele>278.0</ele><time>2026-04-28T13:49:57.68Z</time></trkpt><trkpt lat="43.044926" lon="12.6330958"><ele>276.0</ele><time>2026-04-28T13:49:58.679Z</time></trkpt><trkpt lat="43.0450868" lon="12.6329717"><ele>276.0</ele><time>2026-04-28T13:49:59.679Z</time></trkpt><trkpt lat="43.0452402" lon="12.6328469"><ele>276.0</ele><time>2026-04-28T13:50:00.68Z</time></trkpt><trkpt lat="43.045384" lon="12.6327193"><ele>276.0</ele><time>2026-04-28T13:50:01.679Z</time></trkpt><trkpt lat="43.0455169" lon="12.632583"><ele>273.6666666666667</ele><time>2026-04-28T13:50:02.679Z</time></trkpt><trkpt lat="43.0456296" lon="12.6324365"><ele>271.33333333333337</ele><time>2026-04-28T13:50:03.68Z</time></trkpt><trkpt lat="43.0457208" lon="12.6322736"><ele>269.0</ele><time>2026-04-28T13:50:04.679Z</time></trkpt><trkpt lat="43.0457871" lon="12.6320984"><ele>269.33333333333337</ele><time>2026-04-28T13:50:05.679Z</time></trkpt><trkpt lat="43.0458258" lon="12.6319032"><ele>269.6666666666667</ele><time>2026-04-28T13:50:06.68Z</time></trkpt><trkpt lat="43.0458369" lon="12.6316968"><ele>270.0</ele><time>2026-04-28T13:50:07.679Z</time></trkpt><trkpt lat="43.0458324" lon="12.6314819"><ele>270.0</ele><time>2026-04-28T13:50:08.68Z</time></trkpt><trkpt lat="43.0458248" lon="12.6312782"><ele>270.0</ele><time>2026-04-28T13:50:09.68Z</time></trkpt><trkpt lat="43.0458191" lon="12.6310891"><ele>270.0</ele><time>2026-04-28T13:50:10.68Z</time></trkpt><trkpt lat="43.0458087" lon="12.6309161"><ele>270.0</ele><time>2026-04-28T13:50:11.679Z</time></trkpt><trkpt lat="43.0457824" lon="12.6307686"><ele>267.8</ele><time>2026-04-28T13:50:12.679Z</time></trkpt><trkpt lat="43.0457311" lon="12.6306475"><ele>265.6</ele><time>2026-04-28T13:50:13.679Z</time></trkpt><trkpt lat="43.0456555" lon="12.6305605"><ele>263.4</ele><time>2026-04-28T13:50:14.68Z</time></trkpt><trkpt lat="43.045557" lon="12.6305147"><ele>261.2</ele><time>2026-04-28T13:50:15.68Z</time></trkpt><trkpt lat="43.0454404" lon="12.630512"><ele>259.0</ele><time>2026-04-28T13:50:16.679Z</time></trkpt><trkpt lat="43.0453066" lon="12.6305407"><ele>259.0</ele><time>2026-04-28T13:50:17.68Z</time></trkpt><trkpt lat="43.0451592" lon="12.6305823"><ele>259.0</ele><time>2026-04-28T13:50:18.68Z</time></trkpt><trkpt lat="43.0450027" lon="12.6306257"><ele>259.0</ele><time>2026-04-28T13:50:19.679Z</time></trkpt><trkpt lat="43.0448412" lon="12.630667"><ele>257.0</ele><time>2026-04-28T13:50:20.68Z</time></trkpt><trkpt lat="43.044676" lon="12.6307063"><ele>255.0</ele><time>2026-04-28T13:50:21.679Z</time></trkpt><trkpt lat="43.044506" lon="12.6307454"><ele>253.0</ele><time>2026-04-28T13:50:22.68Z</time></trkpt><trkpt lat="43.0443334" lon="12.6307627"><ele>253.0</ele><time>2026-04-28T13:50:23.68Z</time></trkpt><trkpt lat="43.0441585" lon="12.630745"><ele>253.0</ele><time>2026-04-28T13:50:24.679Z</time></trkpt><trkpt lat="43.0439883" lon="12.6307005"><ele>253.0</ele><time>2026-04-28T13:50:25.68Z</time></trkpt><trkpt lat="43.0438186" lon="12.6306452"><ele>252.33333333333331</ele><time>2026-04-28T13:50:26.679Z</time></trkpt><trkpt lat="43.0436521" lon="12.6305868"><ele>251.66666666666669</ele><time>2026-04-28T13:50:27.679Z</time></trkpt><trkpt lat="43.0434947" lon="12.6305221"><ele>251.0</ele><time>2026-04-28T13:50:28.68Z</time></trkpt><trkpt lat="43.0433404" lon="12.6304458"><ele>250.66666666666669</ele><time>2026-04-28T13:50:29.679Z</time></trkpt><trkpt lat="43.0431867" lon="12.6303505"><ele>250.33333333333331</ele><time>2026-04-28T13:50:30.68Z</time></trkpt><trkpt lat="43.0430338" lon="12.6302377"><ele>250.0</ele><time>2026-04-28T13:50:31.679Z</time></trkpt><trkpt lat="43.0428803" lon="12.6301182"><ele>247.66666666666666</ele><time>2026-04-28T13:50:32.68Z</time></trkpt><trkpt lat="43.0427267" lon="12.6299877"><ele>245.33333333333331</ele><time>2026-04-28T13:50:33.68Z</time></trkpt><trkpt lat="43.0425772" lon="12.6298511"><ele>243.0</ele><time>2026-04-28T13:50:34.68Z</time></trkpt><trkpt lat="43.0424361" lon="12.6297106"><ele>241.33333333333331</ele><time>2026-04-28T13:50:35.679Z</time></trkpt><trkpt lat="43.0422982" lon="12.6295783"><ele>239.66666666666666</ele><time>2026-04-28T13:50:36.679Z</time></trkpt><trkpt lat="43.0421685" lon="12.6294557"><ele>238.0</ele><time>2026-04-28T13:50:37.679Z</time></trkpt><trkpt lat="43.0420511" lon="12.6293441"><ele>237.75</ele><time>2026-04-28T13:50:38.68Z</time></trkpt><trkpt lat="43.0419446" lon="12.6292466"><ele>237.5</ele><time>2026-04-28T13:50:39.68Z</time></trkpt><trkpt lat="43.0418331" lon="12.6291746"><ele>237.25</ele><time>2026-04-28T13:50:40.678Z</time></trkpt><trkpt lat="43.0417148" lon="12.629145"><ele>237.0</ele><time>2026-04-28T13:50:41.68Z</time></trkpt><trkpt lat="43.041583" lon="12.6291609"><ele>235.5</ele><time>2026-04-28T13:50:42.68Z</time></trkpt><trkpt lat="43.0414441" lon="12.629199"><ele>234.0</ele><time>2026-04-28T13:50:43.679Z</time></trkpt><trkpt lat="43.0412954" lon="12.6292539"><ele>232.5</ele><time>2026-04-28T13:50:44.679Z</time></trkpt><trkpt lat="43.0411472" lon="12.6293073"><ele>231.0</ele><time>2026-04-28T13:50:45.68Z</time></trkpt><trkpt lat="43.0409868" lon="12.6293676"><ele>231.0</ele><time>2026-04-28T13:50:46.679Z</time></trkpt><trkpt lat="43.040824" lon="12.6294287"><ele>231.0</ele><time>2026-04-28T13:50:47.68Z</time></trkpt><trkpt lat="43.0406532" lon="12.6294901"><ele>231.0</ele><time>2026-04-28T13:50:48.679Z</time></trkpt><trkpt lat="43.0404811" lon="12.6295524"><ele>231.33333333333331</ele><time>2026-04-28T13:50:49.678Z</time></trkpt><trkpt lat="43.0403073" lon="12.6296153"><ele>231.66666666666666</ele><time>2026-04-28T13:50:50.68Z</time></trkpt><trkpt lat="43.0401316" lon="12.6296801"><ele>232.0</ele><time>2026-04-28T13:50:51.679Z</time></trkpt><trkpt lat="43.0399495" lon="12.6297493"><ele>230.0</ele><time>2026-04-28T13:50:52.679Z</time></trkpt><trkpt lat="43.0397677" lon="12.6298193"><ele>228.0</ele><time>2026-04-28T13:50:53.68Z</time></trkpt><trkpt lat="43.0395818" lon="12.6298925"><ele>226.0</ele><time>2026-04-28T13:50:54.68Z</time></trkpt><trkpt lat="43.039393" lon="12.629966"><ele>226.0</ele><time>2026-04-28T13:50:55.679Z</time></trkpt><trkpt lat="43.0392032" lon="12.6300434"><ele>226.0</ele><time>2026-04-28T13:50:56.68Z</time></trkpt><trkpt lat="43.0390108" lon="12.6301222"><ele>226.0</ele><time>2026-04-28T13:50:57.68Z</time></trkpt><trkpt lat="43.0388186" lon="12.6301989"><ele>226.0</ele><time>2026-04-28T13:50:58.68Z</time></trkpt><trkpt lat="43.0386245" lon="12.6302792"><ele>226.0</ele><time>2026-04-28T13:50:59.679Z</time></trkpt><trkpt lat="43.0384312" lon="12.6303596"><ele>226.0</ele><time>2026-04-28T13:51:00.68Z</time></trkpt><trkpt lat="43.0382363" lon="12.6304409"><ele>226.0</ele><time>2026-04-28T13:51:01.679Z</time></trkpt><trkpt lat="43.038041" lon="12.6305228"><ele>226.0</ele><time>2026-04-28T13:51:02.68Z</time></trkpt><trkpt lat="43.0378445" lon="12.6306023"><ele>226.0</ele><time>2026-04-28T13:51:03.68Z</time></trkpt><trkpt lat="43.0376481" lon="12.6306874"><ele>224.33333333333331</ele><time>2026-04-28T13:51:04.68Z</time></trkpt><trkpt lat="43.0374534" lon="12.6307717"><ele>222.66666666666669</ele><time>2026-04-28T13:51:05.679Z</time></trkpt><trkpt lat="43.0372661" lon="12.6308529"><ele>221.0</ele><time>2026-04-28T13:51:06.68Z</time></trkpt><trkpt lat="43.0370868" lon="12.630934"><ele>221.0</ele><time>2026-04-28T13:51:07.68Z</time></trkpt><trkpt lat="43.0369155" lon="12.6310128"><ele>221.0</ele><time>2026-04-28T13:51:08.679Z</time></trkpt><trkpt lat="43.0367502" lon="12.6310906"><ele>221.0</ele><time>2026-04-28T13:51:09.68Z</time></trkpt><trkpt lat="43.0365877" lon="12.6311679"><ele>220.0</ele><time>2026-04-28T13:51:10.68Z</time></trkpt><trkpt lat="43.0364204" lon="12.6312495"><ele>219.0</ele><time>2026-04-28T13:51:11.68Z</time></trkpt><trkpt lat="43.0362528" lon="12.6313272"><ele>218.0</ele><time>2026-04-28T13:51:12.679Z</time></trkpt><trkpt lat="43.0360832" lon="12.6314082"><ele>218.0</ele><time>2026-04-28T13:51:13.68Z</time></trkpt><trkpt lat="43.0359145" lon="12.631488"><ele>218.0</ele><time>2026-04-28T13:51:14.68Z</time></trkpt><trkpt lat="43.0357424" lon="12.6315691"><ele>218.0</ele><time>2026-04-28T13:51:15.679Z</time></trkpt><trkpt lat="43.0355718" lon="12.6316518"><ele>218.0</ele><time>2026-04-28T13:51:16.68Z</time></trkpt><trkpt lat="43.0353992" lon="12.6317332"><ele>218.0</ele><time>2026-04-28T13:51:17.68Z</time></trkpt><trkpt lat="43.0352247" lon="12.6318151"><ele>218.0</ele><time>2026-04-28T13:51:18.678Z</time></trkpt><trkpt lat="43.0350503" lon="12.6318993"><ele>217.66666666666669</ele><time>2026-04-28T13:51:19.68Z</time></trkpt><trkpt lat="43.0348754" lon="12.6319801"><ele>217.33333333333331</ele><time>2026-04-28T13:51:20.68Z</time></trkpt><trkpt lat="43.0347088" lon="12.6320522"><ele>217.0</ele><time>2026-04-28T13:51:21.679Z</time></trkpt><trkpt lat="43.0345499" lon="12.6321142"><ele>217.0</ele><time>2026-04-28T13:51:22.679Z</time></trkpt><trkpt lat="43.0343874" lon="12.6321686"><ele>217.0</ele><time>2026-04-28T13:51:23.679Z</time></trkpt><trkpt lat="43.0342225" lon="12.6322236"><ele>217.0</ele><time>2026-04-28T13:51:24.678Z</time></trkpt><trkpt lat="43.034052" lon="12.6322863"><ele>215.66666666666666</ele><time>2026-04-28T13:51:25.679Z</time></trkpt><trkpt lat="43.0338779" lon="12.6323512"><ele>214.33333333333331</ele><time>2026-04-28T13:51:26.678Z</time></trkpt><trkpt lat="43.0337033" lon="12.632411"><ele>213.0</ele><time>2026-04-28T13:51:27.679Z</time></trkpt><trkpt lat="43.0335334" lon="12.6324715"><ele>213.0</ele><time>2026-04-28T13:51:28.679Z</time></trkpt><trkpt lat="43.0333703" lon="12.6325309"><ele>213.0</ele><time>2026-04-28T13:51:29.678Z</time></trkpt><trkpt lat="43.0332089" lon="12.6325881"><ele>213.0</ele><time>2026-04-28T13:51:30.678Z</time></trkpt><trkpt lat="43.0330613" lon="12.6326407"><ele>212.60000000000002</ele><time>2026-04-28T13:51:31.679Z</time></trkpt><trkpt lat="43.0329348" lon="12.6326829"><ele>212.20000000000002</ele><time>2026-04-28T13:51:32.678Z</time></trkpt><trkpt lat="43.0328205" lon="12.63272"><ele>211.8</ele><time>2026-04-28T13:51:33.679Z</time></trkpt><trkpt lat="43.032722" lon="12.6327376"><ele>211.4</ele><time>2026-04-28T13:51:34.678Z</time></trkpt><trkpt lat="43.0326466" lon="12.6327303"><ele>211.0</ele><time>2026-04-28T13:51:35.679Z</time></trkpt><trkpt lat="43.0325887" lon="12.6326953"><ele>211.0</ele><time>2026-04-28T13:51:36.678Z</time></trkpt><trkpt lat="43.0325247" lon="12.632545"><ele>211.0</ele><time>2026-04-28T13:51:38.679Z</time></trkpt><trkpt lat="43.0324941" lon="12.6324635"><ele>211.0</ele><time>2026-04-28T13:51:39.678Z</time></trkpt><trkpt lat="43.0323936" lon="12.6323729"><ele>211.0</ele><time>2026-04-28T13:51:41.678Z</time></trkpt><trkpt lat="43.0322857" lon="12.6324155"><ele>211.0</ele><time>2026-04-28T13:51:43.678Z</time></trkpt><trkpt lat="43.0322479" lon="12.6325595"><ele>210.8</ele><time>2026-04-28T13:51:45.678Z</time></trkpt><trkpt lat="43.0322822" lon="12.6327216"><ele>210.60000000000002</ele><time>2026-04-28T13:51:47.679Z</time></trkpt><trkpt lat="43.0323005" lon="12.6328066"><ele>210.4</ele><time>2026-04-28T13:51:48.679Z</time></trkpt><trkpt lat="43.0322521" lon="12.6329699"><ele>210.2</ele><time>2026-04-28T13:51:50.678Z</time></trkpt><trkpt lat="43.0321982" lon="12.6330536"><ele>210.0</ele><time>2026-04-28T13:51:51.679Z</time></trkpt><trkpt lat="43.0321309" lon="12.6331521"><ele>210.0</ele><time>2026-04-28T13:51:52.678Z</time></trkpt><trkpt lat="43.0320512" lon="12.6332641"><ele>210.0</ele><time>2026-04-28T13:51:53.679Z</time></trkpt><trkpt lat="43.0319602" lon="12.6333873"><ele>210.0</ele><time>2026-04-28T13:51:54.679Z</time></trkpt><trkpt lat="43.0318675" lon="12.63351"><ele>210.0</ele><time>2026-04-28T13:51:55.679Z</time></trkpt><trkpt lat="43.031767" lon="12.6336383"><ele>210.25</ele><time>2026-04-28T13:51:56.679Z</time></trkpt><trkpt lat="43.0316612" lon="12.6337744"><ele>210.5</ele><time>2026-04-28T13:51:57.679Z</time></trkpt><trkpt lat="43.0315506" lon="12.6339179"><ele>210.75</ele><time>2026-04-28T13:51:58.679Z</time></trkpt><trkpt lat="43.0314401" lon="12.63406"><ele>211.0</ele><time>2026-04-28T13:51:59.678Z</time></trkpt><trkpt lat="43.0313275" lon="12.6342071"><ele>208.0</ele><time>2026-04-28T13:52:00.679Z</time></trkpt></trkseg></trk></gpx>